<?xml version="1.0" encoding="UTF-8" standalone="no" ?>
<gpx xmlns="http://www.topografix.com/GPX/1/1" xmlns:xsi="http://www.w3.org/2001/XMLSchema-instance" xsi:schemaLocation="http://www.topografix.com/GPX/1/1 http://www.topografix.com/GPX/1/1/gpx.xsd" version="1.1" creator="VisuGPX - https://www.visugpx.com">
  <metadata>
    <name>passage du pere en boucle</name>
    <desc><![CDATA[passage sud un peu raide]]></desc>
  </metadata>
  <trk>
    <name><![CDATA[boucle passage des peres]]></name>
    <trkseg>
      <trkpt lat="45.92249" lon="6.48431">
        <ele>1439.5999755859</ele>
        <time>2014-03-28T07:20:00.000Z</time>
      </trkpt>
      <trkpt lat="45.92249" lon="6.48432">
        <ele>1439.4000244141</ele>
        <time>2014-03-28T07:20:10.000Z</time>
      </trkpt>
      <trkpt lat="45.92249" lon="6.48432">
        <ele>1439.4000244141</ele>
        <time>2014-03-28T07:20:18.000Z</time>
      </trkpt>
      <trkpt lat="45.92247" lon="6.48434">
        <ele>1439.4000244141</ele>
        <time>2014-03-28T07:20:23.000Z</time>
      </trkpt>
      <trkpt lat="45.92245" lon="6.48436">
        <ele>1439.4000244141</ele>
        <time>2014-03-28T07:20:30.000Z</time>
      </trkpt>
      <trkpt lat="45.92244" lon="6.48437">
        <ele>1439.4000244141</ele>
        <time>2014-03-28T07:20:39.000Z</time>
      </trkpt>
      <trkpt lat="45.9224" lon="6.48439">
        <ele>1439.5999755859</ele>
        <time>2014-03-28T07:20:46.000Z</time>
      </trkpt>
      <trkpt lat="45.92236" lon="6.48441">
        <ele>1440</ele>
        <time>2014-03-28T07:20:51.000Z</time>
      </trkpt>
      <trkpt lat="45.92234" lon="6.48442">
        <ele>1440.1999511719</ele>
        <time>2014-03-28T07:20:53.000Z</time>
      </trkpt>
      <trkpt lat="45.92226" lon="6.4845">
        <ele>1440.5999755859</ele>
        <time>2014-03-28T07:21:01.000Z</time>
      </trkpt>
      <trkpt lat="45.92218" lon="6.48459">
        <ele>1441.1999511719</ele>
        <time>2014-03-28T07:21:10.000Z</time>
      </trkpt>
      <trkpt lat="45.92215" lon="6.48463">
        <ele>1441.5999755859</ele>
        <time>2014-03-28T07:21:14.000Z</time>
      </trkpt>
      <trkpt lat="45.92211" lon="6.48469">
        <ele>1442.1999511719</ele>
        <time>2014-03-28T07:21:21.000Z</time>
      </trkpt>
      <trkpt lat="45.92205" lon="6.48479">
        <ele>1443</ele>
        <time>2014-03-28T07:21:29.000Z</time>
      </trkpt>
      <trkpt lat="45.922" lon="6.48489">
        <ele>1443.8000488281</ele>
        <time>2014-03-28T07:21:37.000Z</time>
      </trkpt>
      <trkpt lat="45.92196" lon="6.485">
        <ele>1445</ele>
        <time>2014-03-28T07:21:46.000Z</time>
      </trkpt>
      <trkpt lat="45.92191" lon="6.48512">
        <ele>1445.1999511719</ele>
        <time>2014-03-28T07:21:55.000Z</time>
      </trkpt>
      <trkpt lat="45.92189" lon="6.48517">
        <ele>1445.4000244141</ele>
        <time>2014-03-28T07:21:59.000Z</time>
      </trkpt>
      <trkpt lat="45.92184" lon="6.48525">
        <ele>1446</ele>
        <time>2014-03-28T07:22:06.000Z</time>
      </trkpt>
      <trkpt lat="45.92183" lon="6.48529">
        <ele>1446.1999511719</ele>
        <time>2014-03-28T07:22:09.000Z</time>
      </trkpt>
      <trkpt lat="45.92179" lon="6.48534">
        <ele>1447.4000244141</ele>
        <time>2014-03-28T07:22:14.000Z</time>
      </trkpt>
      <trkpt lat="45.92178" lon="6.48535">
        <ele>1447.5999755859</ele>
        <time>2014-03-28T07:22:15.000Z</time>
      </trkpt>
      <trkpt lat="45.92174" lon="6.48543">
        <ele>1448.8000488281</ele>
        <time>2014-03-28T07:22:22.000Z</time>
      </trkpt>
      <trkpt lat="45.92171" lon="6.4855">
        <ele>1449.8000488281</ele>
        <time>2014-03-28T07:22:28.000Z</time>
      </trkpt>
      <trkpt lat="45.92167" lon="6.48556">
        <ele>1451.1999511719</ele>
        <time>2014-03-28T07:22:34.000Z</time>
      </trkpt>
      <trkpt lat="45.92163" lon="6.48565">
        <ele>1452.1999511719</ele>
        <time>2014-03-28T07:22:43.000Z</time>
      </trkpt>
      <trkpt lat="45.92161" lon="6.48571">
        <ele>1453</ele>
        <time>2014-03-28T07:22:49.000Z</time>
      </trkpt>
      <trkpt lat="45.92157" lon="6.48578">
        <ele>1454</ele>
        <time>2014-03-28T07:22:57.000Z</time>
      </trkpt>
      <trkpt lat="45.92154" lon="6.48584">
        <ele>1455</ele>
        <time>2014-03-28T07:23:04.000Z</time>
      </trkpt>
      <trkpt lat="45.9215" lon="6.48593">
        <ele>1456</ele>
        <time>2014-03-28T07:23:11.000Z</time>
      </trkpt>
      <trkpt lat="45.92147" lon="6.48599">
        <ele>1457.1999511719</ele>
        <time>2014-03-28T07:23:17.000Z</time>
      </trkpt>
      <trkpt lat="45.92142" lon="6.48607">
        <ele>1458.4000244141</ele>
        <time>2014-03-28T07:23:25.000Z</time>
      </trkpt>
      <trkpt lat="45.92139" lon="6.48612">
        <ele>1459.4000244141</ele>
        <time>2014-03-28T07:23:31.000Z</time>
      </trkpt>
      <trkpt lat="45.92137" lon="6.48619">
        <ele>1460.4000244141</ele>
        <time>2014-03-28T07:23:36.000Z</time>
      </trkpt>
      <trkpt lat="45.92133" lon="6.48627">
        <ele>1461.4000244141</ele>
        <time>2014-03-28T07:23:43.000Z</time>
      </trkpt>
      <trkpt lat="45.92131" lon="6.48633">
        <ele>1462.1999511719</ele>
        <time>2014-03-28T07:23:48.000Z</time>
      </trkpt>
      <trkpt lat="45.92129" lon="6.48641">
        <ele>1463</ele>
        <time>2014-03-28T07:23:54.000Z</time>
      </trkpt>
      <trkpt lat="45.92127" lon="6.48648">
        <ele>1463.5999755859</ele>
        <time>2014-03-28T07:24:00.000Z</time>
      </trkpt>
      <trkpt lat="45.92127" lon="6.48652">
        <ele>1463.8000488281</ele>
        <time>2014-03-28T07:24:03.000Z</time>
      </trkpt>
      <trkpt lat="45.92128" lon="6.4866">
        <ele>1463.1999511719</ele>
        <time>2014-03-28T07:24:09.000Z</time>
      </trkpt>
      <trkpt lat="45.9213" lon="6.48669">
        <ele>1462.5999755859</ele>
        <time>2014-03-28T07:24:16.000Z</time>
      </trkpt>
      <trkpt lat="45.9213" lon="6.4867">
        <ele>1462.5999755859</ele>
        <time>2014-03-28T07:24:23.000Z</time>
      </trkpt>
      <trkpt lat="45.92131" lon="6.48673">
        <ele>1462.1999511719</ele>
        <time>2014-03-28T07:24:26.000Z</time>
      </trkpt>
      <trkpt lat="45.92132" lon="6.48677">
        <ele>1461.8000488281</ele>
        <time>2014-03-28T07:24:29.000Z</time>
      </trkpt>
      <trkpt lat="45.92134" lon="6.48683">
        <ele>1461</ele>
        <time>2014-03-28T07:24:33.000Z</time>
      </trkpt>
      <trkpt lat="45.92139" lon="6.48694">
        <ele>1459.1999511719</ele>
        <time>2014-03-28T07:24:41.000Z</time>
      </trkpt>
      <trkpt lat="45.92147" lon="6.48704">
        <ele>1457</ele>
        <time>2014-03-28T07:24:48.000Z</time>
      </trkpt>
      <trkpt lat="45.92152" lon="6.48712">
        <ele>1455.8000488281</ele>
        <time>2014-03-28T07:24:52.000Z</time>
      </trkpt>
      <trkpt lat="45.92157" lon="6.48723">
        <ele>1454.5999755859</ele>
        <time>2014-03-28T07:24:57.000Z</time>
      </trkpt>
      <trkpt lat="45.92159" lon="6.48732">
        <ele>1454</ele>
        <time>2014-03-28T07:25:01.000Z</time>
      </trkpt>
      <trkpt lat="45.92163" lon="6.48744">
        <ele>1453.5999755859</ele>
        <time>2014-03-28T07:25:06.000Z</time>
      </trkpt>
      <trkpt lat="45.92167" lon="6.48759">
        <ele>1453.1999511719</ele>
        <time>2014-03-28T07:25:12.000Z</time>
      </trkpt>
      <trkpt lat="45.9217" lon="6.4877">
        <ele>1452.4000244141</ele>
        <time>2014-03-28T07:25:16.000Z</time>
      </trkpt>
      <trkpt lat="45.92173" lon="6.48787">
        <ele>1452</ele>
        <time>2014-03-28T07:25:24.000Z</time>
      </trkpt>
      <trkpt lat="45.92175" lon="6.48791">
        <ele>1451.5999755859</ele>
        <time>2014-03-28T07:25:29.000Z</time>
      </trkpt>
      <trkpt lat="45.92175" lon="6.48792">
        <ele>1451.5999755859</ele>
        <time>2014-03-28T07:25:37.000Z</time>
      </trkpt>
      <trkpt lat="45.92177" lon="6.48802">
        <ele>1451.4000244141</ele>
        <time>2014-03-28T07:25:43.000Z</time>
      </trkpt>
      <trkpt lat="45.92179" lon="6.48812">
        <ele>1451.5999755859</ele>
        <time>2014-03-28T07:25:47.000Z</time>
      </trkpt>
      <trkpt lat="45.92176" lon="6.48832">
        <ele>1454</ele>
        <time>2014-03-28T07:25:53.000Z</time>
      </trkpt>
      <trkpt lat="45.92172" lon="6.48844">
        <ele>1455.4000244141</ele>
        <time>2014-03-28T07:25:57.000Z</time>
      </trkpt>
      <trkpt lat="45.92168" lon="6.48857">
        <ele>1456.1999511719</ele>
        <time>2014-03-28T07:26:02.000Z</time>
      </trkpt>
      <trkpt lat="45.92166" lon="6.48869">
        <ele>1456.5999755859</ele>
        <time>2014-03-28T07:26:06.000Z</time>
      </trkpt>
      <trkpt lat="45.92165" lon="6.48876">
        <ele>1456.8000488281</ele>
        <time>2014-03-28T07:26:10.000Z</time>
      </trkpt>
      <trkpt lat="45.92164" lon="6.48882">
        <ele>1457</ele>
        <time>2014-03-28T07:26:14.000Z</time>
      </trkpt>
      <trkpt lat="45.92165" lon="6.48893">
        <ele>1456.8000488281</ele>
        <time>2014-03-28T07:26:21.000Z</time>
      </trkpt>
      <trkpt lat="45.92165" lon="6.48895">
        <ele>1456.8000488281</ele>
        <time>2014-03-28T07:26:22.000Z</time>
      </trkpt>
      <trkpt lat="45.92166" lon="6.48904">
        <ele>1456.4000244141</ele>
        <time>2014-03-28T07:26:28.000Z</time>
      </trkpt>
      <trkpt lat="45.92166" lon="6.48913">
        <ele>1456.1999511719</ele>
        <time>2014-03-28T07:26:35.000Z</time>
      </trkpt>
      <trkpt lat="45.92166" lon="6.48922">
        <ele>1456.5999755859</ele>
        <time>2014-03-28T07:26:41.000Z</time>
      </trkpt>
      <trkpt lat="45.92166" lon="6.48934">
        <ele>1457.8000488281</ele>
        <time>2014-03-28T07:26:49.000Z</time>
      </trkpt>
      <trkpt lat="45.92165" lon="6.48943">
        <ele>1458.5999755859</ele>
        <time>2014-03-28T07:26:55.000Z</time>
      </trkpt>
      <trkpt lat="45.92165" lon="6.48951">
        <ele>1459.1999511719</ele>
        <time>2014-03-28T07:27:01.000Z</time>
      </trkpt>
      <trkpt lat="45.92166" lon="6.48957">
        <ele>1459.5999755859</ele>
        <time>2014-03-28T07:27:05.000Z</time>
      </trkpt>
      <trkpt lat="45.92166" lon="6.48964">
        <ele>1460.1999511719</ele>
        <time>2014-03-28T07:27:10.000Z</time>
      </trkpt>
      <trkpt lat="45.92166" lon="6.48971">
        <ele>1460.8000488281</ele>
        <time>2014-03-28T07:27:15.000Z</time>
      </trkpt>
      <trkpt lat="45.92167" lon="6.48978">
        <ele>1461.1999511719</ele>
        <time>2014-03-28T07:27:20.000Z</time>
      </trkpt>
      <trkpt lat="45.92168" lon="6.4899">
        <ele>1462.1999511719</ele>
        <time>2014-03-28T07:27:28.000Z</time>
      </trkpt>
      <trkpt lat="45.92168" lon="6.48996">
        <ele>1462.5999755859</ele>
        <time>2014-03-28T07:27:33.000Z</time>
      </trkpt>
      <trkpt lat="45.92169" lon="6.49004">
        <ele>1463.5999755859</ele>
        <time>2014-03-28T07:27:39.000Z</time>
      </trkpt>
      <trkpt lat="45.92169" lon="6.4901">
        <ele>1464.5999755859</ele>
        <time>2014-03-28T07:27:44.000Z</time>
      </trkpt>
      <trkpt lat="45.92169" lon="6.49017">
        <ele>1465.5999755859</ele>
        <time>2014-03-28T07:27:50.000Z</time>
      </trkpt>
      <trkpt lat="45.92169" lon="6.49022">
        <ele>1466.4000244141</ele>
        <time>2014-03-28T07:27:55.000Z</time>
      </trkpt>
      <trkpt lat="45.92169" lon="6.49031">
        <ele>1467.8000488281</ele>
        <time>2014-03-28T07:28:02.000Z</time>
      </trkpt>
      <trkpt lat="45.9217" lon="6.49037">
        <ele>1468.8000488281</ele>
        <time>2014-03-28T07:28:08.000Z</time>
      </trkpt>
      <trkpt lat="45.92171" lon="6.49046">
        <ele>1470</ele>
        <time>2014-03-28T07:28:15.000Z</time>
      </trkpt>
      <trkpt lat="45.92172" lon="6.49055">
        <ele>1471.4000244141</ele>
        <time>2014-03-28T07:28:23.000Z</time>
      </trkpt>
      <trkpt lat="45.92173" lon="6.49065">
        <ele>1472.8000488281</ele>
        <time>2014-03-28T07:28:30.000Z</time>
      </trkpt>
      <trkpt lat="45.92174" lon="6.49071">
        <ele>1473.8000488281</ele>
        <time>2014-03-28T07:28:35.000Z</time>
      </trkpt>
      <trkpt lat="45.92175" lon="6.49079">
        <ele>1474.8000488281</ele>
        <time>2014-03-28T07:28:42.000Z</time>
      </trkpt>
      <trkpt lat="45.92177" lon="6.49084">
        <ele>1475.8000488281</ele>
        <time>2014-03-28T07:28:47.000Z</time>
      </trkpt>
      <trkpt lat="45.92178" lon="6.49091">
        <ele>1477</ele>
        <time>2014-03-28T07:28:53.000Z</time>
      </trkpt>
      <trkpt lat="45.92178" lon="6.49097">
        <ele>1478</ele>
        <time>2014-03-28T07:28:59.000Z</time>
      </trkpt>
      <trkpt lat="45.92178" lon="6.49102">
        <ele>1478.8000488281</ele>
        <time>2014-03-28T07:29:04.000Z</time>
      </trkpt>
      <trkpt lat="45.92179" lon="6.49106">
        <ele>1479.5999755859</ele>
        <time>2014-03-28T07:29:08.000Z</time>
      </trkpt>
      <trkpt lat="45.92178" lon="6.49113">
        <ele>1480.8000488281</ele>
        <time>2014-03-28T07:29:15.000Z</time>
      </trkpt>
      <trkpt lat="45.92178" lon="6.49118">
        <ele>1481.8000488281</ele>
        <time>2014-03-28T07:29:20.000Z</time>
      </trkpt>
      <trkpt lat="45.92178" lon="6.49122">
        <ele>1482.4000244141</ele>
        <time>2014-03-28T07:29:24.000Z</time>
      </trkpt>
      <trkpt lat="45.92178" lon="6.49125">
        <ele>1483</ele>
        <time>2014-03-28T07:29:27.000Z</time>
      </trkpt>
      <trkpt lat="45.92179" lon="6.49132">
        <ele>1484.1999511719</ele>
        <time>2014-03-28T07:29:34.000Z</time>
      </trkpt>
      <trkpt lat="45.92179" lon="6.49138">
        <ele>1485.4000244141</ele>
        <time>2014-03-28T07:29:41.000Z</time>
      </trkpt>
      <trkpt lat="45.92179" lon="6.49143">
        <ele>1486.4000244141</ele>
        <time>2014-03-28T07:29:47.000Z</time>
      </trkpt>
      <trkpt lat="45.9218" lon="6.49148">
        <ele>1487.1999511719</ele>
        <time>2014-03-28T07:29:53.000Z</time>
      </trkpt>
      <trkpt lat="45.92181" lon="6.49153">
        <ele>1488.1999511719</ele>
        <time>2014-03-28T07:29:59.000Z</time>
      </trkpt>
      <trkpt lat="45.92181" lon="6.49159">
        <ele>1489.1999511719</ele>
        <time>2014-03-28T07:30:05.000Z</time>
      </trkpt>
      <trkpt lat="45.92181" lon="6.49162">
        <ele>1489.8000488281</ele>
        <time>2014-03-28T07:30:09.000Z</time>
      </trkpt>
      <trkpt lat="45.92181" lon="6.49167">
        <ele>1490.5999755859</ele>
        <time>2014-03-28T07:30:14.000Z</time>
      </trkpt>
      <trkpt lat="45.92182" lon="6.49174">
        <ele>1492.1999511719</ele>
        <time>2014-03-28T07:30:21.000Z</time>
      </trkpt>
      <trkpt lat="45.92183" lon="6.4918">
        <ele>1493.8000488281</ele>
        <time>2014-03-28T07:30:28.000Z</time>
      </trkpt>
      <trkpt lat="45.92184" lon="6.49187">
        <ele>1495.1999511719</ele>
        <time>2014-03-28T07:30:35.000Z</time>
      </trkpt>
      <trkpt lat="45.92183" lon="6.49192">
        <ele>1496.4000244141</ele>
        <time>2014-03-28T07:30:41.000Z</time>
      </trkpt>
      <trkpt lat="45.92182" lon="6.49196">
        <ele>1497.4000244141</ele>
        <time>2014-03-28T07:30:47.000Z</time>
      </trkpt>
      <trkpt lat="45.9218" lon="6.49199">
        <ele>1498</ele>
        <time>2014-03-28T07:30:51.000Z</time>
      </trkpt>
      <trkpt lat="45.92179" lon="6.49201">
        <ele>1498.5999755859</ele>
        <time>2014-03-28T07:30:56.000Z</time>
      </trkpt>
      <trkpt lat="45.92177" lon="6.49206">
        <ele>1499.5999755859</ele>
        <time>2014-03-28T07:31:02.000Z</time>
      </trkpt>
      <trkpt lat="45.92175" lon="6.49208">
        <ele>1500.4000244141</ele>
        <time>2014-03-28T07:31:08.000Z</time>
      </trkpt>
      <trkpt lat="45.92174" lon="6.49212">
        <ele>1501.1999511719</ele>
        <time>2014-03-28T07:31:13.000Z</time>
      </trkpt>
      <trkpt lat="45.92173" lon="6.49214">
        <ele>1501.5999755859</ele>
        <time>2014-03-28T07:31:16.000Z</time>
      </trkpt>
      <trkpt lat="45.92172" lon="6.49218">
        <ele>1502.5999755859</ele>
        <time>2014-03-28T07:31:20.000Z</time>
      </trkpt>
      <trkpt lat="45.9217" lon="6.49223">
        <ele>1503.8000488281</ele>
        <time>2014-03-28T07:31:25.000Z</time>
      </trkpt>
      <trkpt lat="45.92169" lon="6.49226">
        <ele>1504.5999755859</ele>
        <time>2014-03-28T07:31:29.000Z</time>
      </trkpt>
      <trkpt lat="45.9217" lon="6.4923">
        <ele>1505.4000244141</ele>
        <time>2014-03-28T07:31:33.000Z</time>
      </trkpt>
      <trkpt lat="45.92169" lon="6.49232">
        <ele>1505.8000488281</ele>
        <time>2014-03-28T07:31:37.000Z</time>
      </trkpt>
      <trkpt lat="45.92171" lon="6.49236">
        <ele>1506.8000488281</ele>
        <time>2014-03-28T07:31:43.000Z</time>
      </trkpt>
      <trkpt lat="45.92173" lon="6.4924">
        <ele>1507.5999755859</ele>
        <time>2014-03-28T07:31:49.000Z</time>
      </trkpt>
      <trkpt lat="45.92174" lon="6.49243">
        <ele>1508.4000244141</ele>
        <time>2014-03-28T07:31:54.000Z</time>
      </trkpt>
      <trkpt lat="45.92176" lon="6.49248">
        <ele>1509.1999511719</ele>
        <time>2014-03-28T07:31:59.000Z</time>
      </trkpt>
      <trkpt lat="45.92178" lon="6.49252">
        <ele>1510.1999511719</ele>
        <time>2014-03-28T07:32:04.000Z</time>
      </trkpt>
      <trkpt lat="45.92181" lon="6.49257">
        <ele>1511.4000244141</ele>
        <time>2014-03-28T07:32:11.000Z</time>
      </trkpt>
      <trkpt lat="45.92185" lon="6.49262">
        <ele>1512.4000244141</ele>
        <time>2014-03-28T07:32:17.000Z</time>
      </trkpt>
      <trkpt lat="45.92187" lon="6.49265">
        <ele>1513.4000244141</ele>
        <time>2014-03-28T07:32:22.000Z</time>
      </trkpt>
      <trkpt lat="45.92189" lon="6.49272">
        <ele>1514.8000488281</ele>
        <time>2014-03-28T07:32:29.000Z</time>
      </trkpt>
      <trkpt lat="45.92191" lon="6.49277">
        <ele>1516</ele>
        <time>2014-03-28T07:32:35.000Z</time>
      </trkpt>
      <trkpt lat="45.92192" lon="6.49281">
        <ele>1516.8000488281</ele>
        <time>2014-03-28T07:32:39.000Z</time>
      </trkpt>
      <trkpt lat="45.92193" lon="6.49285">
        <ele>1517.8000488281</ele>
        <time>2014-03-28T07:32:43.000Z</time>
      </trkpt>
      <trkpt lat="45.92194" lon="6.49288">
        <ele>1518.5999755859</ele>
        <time>2014-03-28T07:32:47.000Z</time>
      </trkpt>
      <trkpt lat="45.92195" lon="6.49292">
        <ele>1519.1999511719</ele>
        <time>2014-03-28T07:32:50.000Z</time>
      </trkpt>
      <trkpt lat="45.92195" lon="6.49296">
        <ele>1520.1999511719</ele>
        <time>2014-03-28T07:32:55.000Z</time>
      </trkpt>
      <trkpt lat="45.92195" lon="6.49298">
        <ele>1521</ele>
        <time>2014-03-28T07:32:58.000Z</time>
      </trkpt>
      <trkpt lat="45.92196" lon="6.49307">
        <ele>1522.8000488281</ele>
        <time>2014-03-28T07:33:07.000Z</time>
      </trkpt>
      <trkpt lat="45.92196" lon="6.49311">
        <ele>1523.8000488281</ele>
        <time>2014-03-28T07:33:12.000Z</time>
      </trkpt>
      <trkpt lat="45.92198" lon="6.49315">
        <ele>1524.5999755859</ele>
        <time>2014-03-28T07:33:15.000Z</time>
      </trkpt>
      <trkpt lat="45.92198" lon="6.49319">
        <ele>1525.4000244141</ele>
        <time>2014-03-28T07:33:19.000Z</time>
      </trkpt>
      <trkpt lat="45.92197" lon="6.49322">
        <ele>1526.1999511719</ele>
        <time>2014-03-28T07:33:23.000Z</time>
      </trkpt>
      <trkpt lat="45.92196" lon="6.49326">
        <ele>1527.5999755859</ele>
        <time>2014-03-28T07:33:29.000Z</time>
      </trkpt>
      <trkpt lat="45.92195" lon="6.4933">
        <ele>1528.4000244141</ele>
        <time>2014-03-28T07:33:33.000Z</time>
      </trkpt>
      <trkpt lat="45.92195" lon="6.49332">
        <ele>1529</ele>
        <time>2014-03-28T07:33:37.000Z</time>
      </trkpt>
      <trkpt lat="45.92194" lon="6.49336">
        <ele>1530</ele>
        <time>2014-03-28T07:33:41.000Z</time>
      </trkpt>
      <trkpt lat="45.92194" lon="6.49338">
        <ele>1530.5999755859</ele>
        <time>2014-03-28T07:33:45.000Z</time>
      </trkpt>
      <trkpt lat="45.92196" lon="6.49341">
        <ele>1531.1999511719</ele>
        <time>2014-03-28T07:33:50.000Z</time>
      </trkpt>
      <trkpt lat="45.92198" lon="6.49347">
        <ele>1532.4000244141</ele>
        <time>2014-03-28T07:33:57.000Z</time>
      </trkpt>
      <trkpt lat="45.92199" lon="6.4935">
        <ele>1533.4000244141</ele>
        <time>2014-03-28T07:34:01.000Z</time>
      </trkpt>
      <trkpt lat="45.92199" lon="6.49355">
        <ele>1534.5999755859</ele>
        <time>2014-03-28T07:34:07.000Z</time>
      </trkpt>
      <trkpt lat="45.922" lon="6.4936">
        <ele>1535.5999755859</ele>
        <time>2014-03-28T07:34:12.000Z</time>
      </trkpt>
      <trkpt lat="45.92199" lon="6.49364">
        <ele>1536.5999755859</ele>
        <time>2014-03-28T07:34:18.000Z</time>
      </trkpt>
      <trkpt lat="45.92199" lon="6.49366">
        <ele>1537.4000244141</ele>
        <time>2014-03-28T07:34:22.000Z</time>
      </trkpt>
      <trkpt lat="45.922" lon="6.49369">
        <ele>1538</ele>
        <time>2014-03-28T07:34:26.000Z</time>
      </trkpt>
      <trkpt lat="45.92202" lon="6.49371">
        <ele>1538.1999511719</ele>
        <time>2014-03-28T07:34:34.000Z</time>
      </trkpt>
      <trkpt lat="45.92204" lon="6.49375">
        <ele>1539</ele>
        <time>2014-03-28T07:34:40.000Z</time>
      </trkpt>
      <trkpt lat="45.92206" lon="6.49379">
        <ele>1539.8000488281</ele>
        <time>2014-03-28T07:34:45.000Z</time>
      </trkpt>
      <trkpt lat="45.92207" lon="6.49383">
        <ele>1540.5999755859</ele>
        <time>2014-03-28T07:34:50.000Z</time>
      </trkpt>
      <trkpt lat="45.92209" lon="6.49386">
        <ele>1541.1999511719</ele>
        <time>2014-03-28T07:34:54.000Z</time>
      </trkpt>
      <trkpt lat="45.9221" lon="6.4939">
        <ele>1542</ele>
        <time>2014-03-28T07:35:01.000Z</time>
      </trkpt>
      <trkpt lat="45.92211" lon="6.49392">
        <ele>1542.4000244141</ele>
        <time>2014-03-28T07:35:11.000Z</time>
      </trkpt>
      <trkpt lat="45.92212" lon="6.49397">
        <ele>1543.4000244141</ele>
        <time>2014-03-28T07:35:17.000Z</time>
      </trkpt>
      <trkpt lat="45.92214" lon="6.494">
        <ele>1544</ele>
        <time>2014-03-28T07:35:22.000Z</time>
      </trkpt>
      <trkpt lat="45.92215" lon="6.49403">
        <ele>1544.5999755859</ele>
        <time>2014-03-28T07:35:26.000Z</time>
      </trkpt>
      <trkpt lat="45.92214" lon="6.49407">
        <ele>1545.8000488281</ele>
        <time>2014-03-28T07:35:30.000Z</time>
      </trkpt>
      <trkpt lat="45.92223" lon="6.49408">
        <ele>1544.5999755859</ele>
        <time>2014-03-28T07:36:16.000Z</time>
      </trkpt>
      <trkpt lat="45.92222" lon="6.49409">
        <ele>1545</ele>
        <time>2014-03-28T07:36:20.000Z</time>
      </trkpt>
      <trkpt lat="45.92223" lon="6.4941">
        <ele>1545.1999511719</ele>
        <time>2014-03-28T07:36:38.000Z</time>
      </trkpt>
      <trkpt lat="45.92226" lon="6.49415">
        <ele>1546</ele>
        <time>2014-03-28T07:36:43.000Z</time>
      </trkpt>
      <trkpt lat="45.92229" lon="6.4942">
        <ele>1546.8000488281</ele>
        <time>2014-03-28T07:36:49.000Z</time>
      </trkpt>
      <trkpt lat="45.92231" lon="6.49425">
        <ele>1548.1999511719</ele>
        <time>2014-03-28T07:36:56.000Z</time>
      </trkpt>
      <trkpt lat="45.92232" lon="6.49431">
        <ele>1549.4000244141</ele>
        <time>2014-03-28T07:37:03.000Z</time>
      </trkpt>
      <trkpt lat="45.92233" lon="6.49435">
        <ele>1550.5999755859</ele>
        <time>2014-03-28T07:37:09.000Z</time>
      </trkpt>
      <trkpt lat="45.92234" lon="6.49438">
        <ele>1551.4000244141</ele>
        <time>2014-03-28T07:37:14.000Z</time>
      </trkpt>
      <trkpt lat="45.92234" lon="6.49442">
        <ele>1552.1999511719</ele>
        <time>2014-03-28T07:37:19.000Z</time>
      </trkpt>
      <trkpt lat="45.92233" lon="6.49443">
        <ele>1552.8000488281</ele>
        <time>2014-03-28T07:37:22.000Z</time>
      </trkpt>
      <trkpt lat="45.92234" lon="6.49446">
        <ele>1553.5999755859</ele>
        <time>2014-03-28T07:37:27.000Z</time>
      </trkpt>
      <trkpt lat="45.92236" lon="6.49448">
        <ele>1553.8000488281</ele>
        <time>2014-03-28T07:37:32.000Z</time>
      </trkpt>
      <trkpt lat="45.92237" lon="6.49451">
        <ele>1554.4000244141</ele>
        <time>2014-03-28T07:37:36.000Z</time>
      </trkpt>
      <trkpt lat="45.92237" lon="6.49454">
        <ele>1555.1999511719</ele>
        <time>2014-03-28T07:37:40.000Z</time>
      </trkpt>
      <trkpt lat="45.92239" lon="6.49457">
        <ele>1555.8000488281</ele>
        <time>2014-03-28T07:37:45.000Z</time>
      </trkpt>
      <trkpt lat="45.9224" lon="6.4946">
        <ele>1556.4000244141</ele>
        <time>2014-03-28T07:37:49.000Z</time>
      </trkpt>
      <trkpt lat="45.92241" lon="6.49464">
        <ele>1557.4000244141</ele>
        <time>2014-03-28T07:37:57.000Z</time>
      </trkpt>
      <trkpt lat="45.92242" lon="6.49467">
        <ele>1558.1999511719</ele>
        <time>2014-03-28T07:38:02.000Z</time>
      </trkpt>
      <trkpt lat="45.92243" lon="6.4947">
        <ele>1559</ele>
        <time>2014-03-28T07:38:07.000Z</time>
      </trkpt>
      <trkpt lat="45.92245" lon="6.49474">
        <ele>1559.5999755859</ele>
        <time>2014-03-28T07:38:12.000Z</time>
      </trkpt>
      <trkpt lat="45.92246" lon="6.49478">
        <ele>1560.4000244141</ele>
        <time>2014-03-28T07:38:16.000Z</time>
      </trkpt>
      <trkpt lat="45.92248" lon="6.49483">
        <ele>1561.4000244141</ele>
        <time>2014-03-28T07:38:19.000Z</time>
      </trkpt>
      <trkpt lat="45.92246" lon="6.49485">
        <ele>1562.4000244141</ele>
        <time>2014-03-28T07:38:22.000Z</time>
      </trkpt>
      <trkpt lat="45.92244" lon="6.49488">
        <ele>1563.5999755859</ele>
        <time>2014-03-28T07:38:26.000Z</time>
      </trkpt>
      <trkpt lat="45.92242" lon="6.49492">
        <ele>1565</ele>
        <time>2014-03-28T07:38:31.000Z</time>
      </trkpt>
      <trkpt lat="45.9224" lon="6.49495">
        <ele>1566.1999511719</ele>
        <time>2014-03-28T07:38:35.000Z</time>
      </trkpt>
      <trkpt lat="45.92239" lon="6.49497">
        <ele>1567</ele>
        <time>2014-03-28T07:38:40.000Z</time>
      </trkpt>
      <trkpt lat="45.92238" lon="6.495">
        <ele>1568</ele>
        <time>2014-03-28T07:38:44.000Z</time>
      </trkpt>
      <trkpt lat="45.92236" lon="6.49502">
        <ele>1569.4000244141</ele>
        <time>2014-03-28T07:38:48.000Z</time>
      </trkpt>
      <trkpt lat="45.92234" lon="6.49507">
        <ele>1571.5999755859</ele>
        <time>2014-03-28T07:38:54.000Z</time>
      </trkpt>
      <trkpt lat="45.92235" lon="6.49509">
        <ele>1572.4000244141</ele>
        <time>2014-03-28T07:38:58.000Z</time>
      </trkpt>
      <trkpt lat="45.92236" lon="6.49512">
        <ele>1573.4000244141</ele>
        <time>2014-03-28T07:39:02.000Z</time>
      </trkpt>
      <trkpt lat="45.92238" lon="6.49515">
        <ele>1574.1999511719</ele>
        <time>2014-03-28T07:39:07.000Z</time>
      </trkpt>
      <trkpt lat="45.9224" lon="6.49517">
        <ele>1575</ele>
        <time>2014-03-28T07:39:13.000Z</time>
      </trkpt>
      <trkpt lat="45.92243" lon="6.4952">
        <ele>1575.5999755859</ele>
        <time>2014-03-28T07:39:18.000Z</time>
      </trkpt>
      <trkpt lat="45.92246" lon="6.49522">
        <ele>1576</ele>
        <time>2014-03-28T07:39:24.000Z</time>
      </trkpt>
      <trkpt lat="45.9225" lon="6.49525">
        <ele>1576.4000244141</ele>
        <time>2014-03-28T07:39:30.000Z</time>
      </trkpt>
      <trkpt lat="45.92252" lon="6.49527">
        <ele>1577.4000244141</ele>
        <time>2014-03-28T07:39:35.000Z</time>
      </trkpt>
      <trkpt lat="45.92256" lon="6.49529">
        <ele>1578.8000488281</ele>
        <time>2014-03-28T07:39:43.000Z</time>
      </trkpt>
      <trkpt lat="45.92258" lon="6.4953">
        <ele>1579.4000244141</ele>
        <time>2014-03-28T07:39:50.000Z</time>
      </trkpt>
      <trkpt lat="45.9226" lon="6.49531">
        <ele>1580</ele>
        <time>2014-03-28T07:40:02.000Z</time>
      </trkpt>
      <trkpt lat="45.92264" lon="6.49536">
        <ele>1582.1999511719</ele>
        <time>2014-03-28T07:40:08.000Z</time>
      </trkpt>
      <trkpt lat="45.92268" lon="6.49538">
        <ele>1583.8000488281</ele>
        <time>2014-03-28T07:40:14.000Z</time>
      </trkpt>
      <trkpt lat="45.92271" lon="6.49541">
        <ele>1585.1999511719</ele>
        <time>2014-03-28T07:40:20.000Z</time>
      </trkpt>
      <trkpt lat="45.92274" lon="6.49544">
        <ele>1586.5999755859</ele>
        <time>2014-03-28T07:40:24.000Z</time>
      </trkpt>
      <trkpt lat="45.92277" lon="6.49549">
        <ele>1589</ele>
        <time>2014-03-28T07:40:31.000Z</time>
      </trkpt>
      <trkpt lat="45.92278" lon="6.49553">
        <ele>1590.5999755859</ele>
        <time>2014-03-28T07:40:35.000Z</time>
      </trkpt>
      <trkpt lat="45.92277" lon="6.49556">
        <ele>1591.5999755859</ele>
        <time>2014-03-28T07:40:40.000Z</time>
      </trkpt>
      <trkpt lat="45.92277" lon="6.49561">
        <ele>1593.8000488281</ele>
        <time>2014-03-28T07:40:45.000Z</time>
      </trkpt>
      <trkpt lat="45.92277" lon="6.49565">
        <ele>1595.1999511719</ele>
        <time>2014-03-28T07:40:49.000Z</time>
      </trkpt>
      <trkpt lat="45.92276" lon="6.49568">
        <ele>1596.4000244141</ele>
        <time>2014-03-28T07:40:54.000Z</time>
      </trkpt>
      <trkpt lat="45.92274" lon="6.49569">
        <ele>1596.5999755859</ele>
        <time>2014-03-28T07:41:00.000Z</time>
      </trkpt>
      <trkpt lat="45.92273" lon="6.49572">
        <ele>1597.8000488281</ele>
        <time>2014-03-28T07:41:04.000Z</time>
      </trkpt>
      <trkpt lat="45.92272" lon="6.49574">
        <ele>1598.5999755859</ele>
        <time>2014-03-28T07:41:09.000Z</time>
      </trkpt>
      <trkpt lat="45.9227" lon="6.49577">
        <ele>1599.5999755859</ele>
        <time>2014-03-28T07:41:14.000Z</time>
      </trkpt>
      <trkpt lat="45.92271" lon="6.4958">
        <ele>1600.8000488281</ele>
        <time>2014-03-28T07:41:17.000Z</time>
      </trkpt>
      <trkpt lat="45.92271" lon="6.49581">
        <ele>1601.1999511719</ele>
        <time>2014-03-28T07:41:20.000Z</time>
      </trkpt>
      <trkpt lat="45.92268" lon="6.49582">
        <ele>1601.8000488281</ele>
        <time>2014-03-28T07:41:25.000Z</time>
      </trkpt>
      <trkpt lat="45.92269" lon="6.49583">
        <ele>1601.8000488281</ele>
        <time>2014-03-28T07:41:28.000Z</time>
      </trkpt>
      <trkpt lat="45.92267" lon="6.49585">
        <ele>1602.8000488281</ele>
        <time>2014-03-28T07:41:32.000Z</time>
      </trkpt>
      <trkpt lat="45.92267" lon="6.49585">
        <ele>1603</ele>
        <time>2014-03-28T07:41:35.000Z</time>
      </trkpt>
      <trkpt lat="45.92264" lon="6.49588">
        <ele>1604</ele>
        <time>2014-03-28T07:41:40.000Z</time>
      </trkpt>
      <trkpt lat="45.9226" lon="6.4959">
        <ele>1604.8000488281</ele>
        <time>2014-03-28T07:41:45.000Z</time>
      </trkpt>
      <trkpt lat="45.92256" lon="6.49593">
        <ele>1606</ele>
        <time>2014-03-28T07:41:50.000Z</time>
      </trkpt>
      <trkpt lat="45.92255" lon="6.49594">
        <ele>1606.1999511719</ele>
        <time>2014-03-28T07:41:53.000Z</time>
      </trkpt>
      <trkpt lat="45.92252" lon="6.49596">
        <ele>1607.1999511719</ele>
        <time>2014-03-28T07:41:58.000Z</time>
      </trkpt>
      <trkpt lat="45.92248" lon="6.49597">
        <ele>1608</ele>
        <time>2014-03-28T07:42:03.000Z</time>
      </trkpt>
      <trkpt lat="45.92242" lon="6.49598">
        <ele>1609.5999755859</ele>
        <time>2014-03-28T07:42:10.000Z</time>
      </trkpt>
      <trkpt lat="45.92237" lon="6.49597">
        <ele>1610</ele>
        <time>2014-03-28T07:42:16.000Z</time>
      </trkpt>
      <trkpt lat="45.92231" lon="6.49595">
        <ele>1609.8000488281</ele>
        <time>2014-03-28T07:42:23.000Z</time>
      </trkpt>
      <trkpt lat="45.92229" lon="6.49595">
        <ele>1610</ele>
        <time>2014-03-28T07:42:24.000Z</time>
      </trkpt>
      <trkpt lat="45.92222" lon="6.49593">
        <ele>1610.8000488281</ele>
        <time>2014-03-28T07:42:31.000Z</time>
      </trkpt>
      <trkpt lat="45.9222" lon="6.49593">
        <ele>1611</ele>
        <time>2014-03-28T07:42:35.000Z</time>
      </trkpt>
      <trkpt lat="45.92217" lon="6.49592">
        <ele>1611.1999511719</ele>
        <time>2014-03-28T07:42:40.000Z</time>
      </trkpt>
      <trkpt lat="45.92215" lon="6.49592">
        <ele>1611.4000244141</ele>
        <time>2014-03-28T07:42:44.000Z</time>
      </trkpt>
      <trkpt lat="45.92212" lon="6.49591">
        <ele>1611.8000488281</ele>
        <time>2014-03-28T07:42:49.000Z</time>
      </trkpt>
      <trkpt lat="45.92209" lon="6.49592">
        <ele>1612.5999755859</ele>
        <time>2014-03-28T07:42:54.000Z</time>
      </trkpt>
      <trkpt lat="45.92206" lon="6.49591">
        <ele>1612.5999755859</ele>
        <time>2014-03-28T07:42:57.000Z</time>
      </trkpt>
      <trkpt lat="45.92202" lon="6.49589">
        <ele>1612.5999755859</ele>
        <time>2014-03-28T07:43:02.000Z</time>
      </trkpt>
      <trkpt lat="45.92198" lon="6.49588">
        <ele>1613</ele>
        <time>2014-03-28T07:43:08.000Z</time>
      </trkpt>
      <trkpt lat="45.92198" lon="6.49589">
        <ele>1613.1999511719</ele>
        <time>2014-03-28T07:43:13.000Z</time>
      </trkpt>
      <trkpt lat="45.92199" lon="6.49594">
        <ele>1615</ele>
        <time>2014-03-28T07:43:16.000Z</time>
      </trkpt>
      <trkpt lat="45.92202" lon="6.49599">
        <ele>1616.8000488281</ele>
        <time>2014-03-28T07:43:22.000Z</time>
      </trkpt>
      <trkpt lat="45.92204" lon="6.49603">
        <ele>1618.1999511719</ele>
        <time>2014-03-28T07:43:27.000Z</time>
      </trkpt>
      <trkpt lat="45.92206" lon="6.49607">
        <ele>1619.4000244141</ele>
        <time>2014-03-28T07:43:32.000Z</time>
      </trkpt>
      <trkpt lat="45.92209" lon="6.49612">
        <ele>1621</ele>
        <time>2014-03-28T07:43:38.000Z</time>
      </trkpt>
      <trkpt lat="45.92211" lon="6.49616">
        <ele>1622.5999755859</ele>
        <time>2014-03-28T07:43:43.000Z</time>
      </trkpt>
      <trkpt lat="45.92213" lon="6.49622">
        <ele>1624.8000488281</ele>
        <time>2014-03-28T07:43:49.000Z</time>
      </trkpt>
      <trkpt lat="45.92215" lon="6.49627">
        <ele>1626.5999755859</ele>
        <time>2014-03-28T07:43:54.000Z</time>
      </trkpt>
      <trkpt lat="45.92216" lon="6.4963">
        <ele>1627.8000488281</ele>
        <time>2014-03-28T07:43:58.000Z</time>
      </trkpt>
      <trkpt lat="45.92219" lon="6.49636">
        <ele>1630.4000244141</ele>
        <time>2014-03-28T07:44:05.000Z</time>
      </trkpt>
      <trkpt lat="45.92217" lon="6.49635">
        <ele>1630.1999511719</ele>
        <time>2014-03-28T07:44:11.000Z</time>
      </trkpt>
      <trkpt lat="45.92214" lon="6.49633">
        <ele>1629.4000244141</ele>
        <time>2014-03-28T07:44:17.000Z</time>
      </trkpt>
      <trkpt lat="45.9221" lon="6.49632">
        <ele>1629.5999755859</ele>
        <time>2014-03-28T07:44:23.000Z</time>
      </trkpt>
      <trkpt lat="45.92208" lon="6.49632">
        <ele>1629.5999755859</ele>
        <time>2014-03-28T07:44:27.000Z</time>
      </trkpt>
      <trkpt lat="45.92205" lon="6.49631">
        <ele>1630</ele>
        <time>2014-03-28T07:44:32.000Z</time>
      </trkpt>
      <trkpt lat="45.92201" lon="6.49631">
        <ele>1630.1999511719</ele>
        <time>2014-03-28T07:44:38.000Z</time>
      </trkpt>
      <trkpt lat="45.92198" lon="6.4963">
        <ele>1630.1999511719</ele>
        <time>2014-03-28T07:44:42.000Z</time>
      </trkpt>
      <trkpt lat="45.92194" lon="6.4963">
        <ele>1630.8000488281</ele>
        <time>2014-03-28T07:44:47.000Z</time>
      </trkpt>
      <trkpt lat="45.9219" lon="6.49629">
        <ele>1631</ele>
        <time>2014-03-28T07:44:53.000Z</time>
      </trkpt>
      <trkpt lat="45.9219" lon="6.4963">
        <ele>1631.1999511719</ele>
        <time>2014-03-28T07:44:59.000Z</time>
      </trkpt>
      <trkpt lat="45.92191" lon="6.49635">
        <ele>1633</ele>
        <time>2014-03-28T07:45:05.000Z</time>
      </trkpt>
      <trkpt lat="45.92193" lon="6.4964">
        <ele>1634.8000488281</ele>
        <time>2014-03-28T07:45:10.000Z</time>
      </trkpt>
      <trkpt lat="45.92195" lon="6.49646">
        <ele>1637.4000244141</ele>
        <time>2014-03-28T07:45:16.000Z</time>
      </trkpt>
      <trkpt lat="45.92197" lon="6.49652">
        <ele>1639.4000244141</ele>
        <time>2014-03-28T07:45:22.000Z</time>
      </trkpt>
      <trkpt lat="45.922" lon="6.49659">
        <ele>1642</ele>
        <time>2014-03-28T07:45:29.000Z</time>
      </trkpt>
      <trkpt lat="45.92202" lon="6.49663">
        <ele>1643.5999755859</ele>
        <time>2014-03-28T07:45:33.000Z</time>
      </trkpt>
      <trkpt lat="45.92204" lon="6.49671">
        <ele>1646.4000244141</ele>
        <time>2014-03-28T07:45:40.000Z</time>
      </trkpt>
      <trkpt lat="45.92205" lon="6.49676">
        <ele>1648.1999511719</ele>
        <time>2014-03-28T07:45:44.000Z</time>
      </trkpt>
      <trkpt lat="45.92207" lon="6.49681">
        <ele>1650</ele>
        <time>2014-03-28T07:45:49.000Z</time>
      </trkpt>
      <trkpt lat="45.92208" lon="6.49684">
        <ele>1651.4000244141</ele>
        <time>2014-03-28T07:45:54.000Z</time>
      </trkpt>
      <trkpt lat="45.92206" lon="6.49685">
        <ele>1651.8000488281</ele>
        <time>2014-03-28T07:45:59.000Z</time>
      </trkpt>
      <trkpt lat="45.92202" lon="6.49683">
        <ele>1651.4000244141</ele>
        <time>2014-03-28T07:46:05.000Z</time>
      </trkpt>
      <trkpt lat="45.92199" lon="6.49682">
        <ele>1651</ele>
        <time>2014-03-28T07:46:11.000Z</time>
      </trkpt>
      <trkpt lat="45.92194" lon="6.4968">
        <ele>1651</ele>
        <time>2014-03-28T07:46:17.000Z</time>
      </trkpt>
      <trkpt lat="45.92191" lon="6.4968">
        <ele>1651.1999511719</ele>
        <time>2014-03-28T07:46:23.000Z</time>
      </trkpt>
      <trkpt lat="45.92188" lon="6.4968">
        <ele>1651</ele>
        <time>2014-03-28T07:46:27.000Z</time>
      </trkpt>
      <trkpt lat="45.92184" lon="6.49678">
        <ele>1650.8000488281</ele>
        <time>2014-03-28T07:46:34.000Z</time>
      </trkpt>
      <trkpt lat="45.92178" lon="6.49674">
        <ele>1650</ele>
        <time>2014-03-28T07:46:42.000Z</time>
      </trkpt>
      <trkpt lat="45.92174" lon="6.49672">
        <ele>1649.4000244141</ele>
        <time>2014-03-28T07:46:48.000Z</time>
      </trkpt>
      <trkpt lat="45.9217" lon="6.4967">
        <ele>1649</ele>
        <time>2014-03-28T07:46:54.000Z</time>
      </trkpt>
      <trkpt lat="45.92165" lon="6.49669">
        <ele>1649.1999511719</ele>
        <time>2014-03-28T07:47:00.000Z</time>
      </trkpt>
      <trkpt lat="45.9216" lon="6.49668">
        <ele>1650.4000244141</ele>
        <time>2014-03-28T07:47:07.000Z</time>
      </trkpt>
      <trkpt lat="45.92159" lon="6.49671">
        <ele>1651.5999755859</ele>
        <time>2014-03-28T07:47:12.000Z</time>
      </trkpt>
      <trkpt lat="45.92161" lon="6.49679">
        <ele>1654</ele>
        <time>2014-03-28T07:47:19.000Z</time>
      </trkpt>
      <trkpt lat="45.92163" lon="6.49685">
        <ele>1655.8000488281</ele>
        <time>2014-03-28T07:47:24.000Z</time>
      </trkpt>
      <trkpt lat="45.92165" lon="6.49693">
        <ele>1658.1999511719</ele>
        <time>2014-03-28T07:47:30.000Z</time>
      </trkpt>
      <trkpt lat="45.92167" lon="6.497">
        <ele>1660.4000244141</ele>
        <time>2014-03-28T07:47:36.000Z</time>
      </trkpt>
      <trkpt lat="45.92168" lon="6.49706">
        <ele>1662.5999755859</ele>
        <time>2014-03-28T07:47:41.000Z</time>
      </trkpt>
      <trkpt lat="45.9217" lon="6.49713">
        <ele>1664.8000488281</ele>
        <time>2014-03-28T07:47:47.000Z</time>
      </trkpt>
      <trkpt lat="45.92171" lon="6.49717">
        <ele>1666.5999755859</ele>
        <time>2014-03-28T07:47:52.000Z</time>
      </trkpt>
      <trkpt lat="45.92174" lon="6.49723">
        <ele>1668.5999755859</ele>
        <time>2014-03-28T07:47:59.000Z</time>
      </trkpt>
      <trkpt lat="45.92174" lon="6.49725">
        <ele>1669.4000244141</ele>
        <time>2014-03-28T07:48:03.000Z</time>
      </trkpt>
      <trkpt lat="45.92173" lon="6.49725">
        <ele>1669.4000244141</ele>
        <time>2014-03-28T07:48:07.000Z</time>
      </trkpt>
      <trkpt lat="45.92167" lon="6.49723">
        <ele>1669</ele>
        <time>2014-03-28T07:48:14.000Z</time>
      </trkpt>
      <trkpt lat="45.92163" lon="6.49721">
        <ele>1669</ele>
        <time>2014-03-28T07:48:19.000Z</time>
      </trkpt>
      <trkpt lat="45.9216" lon="6.49722">
        <ele>1670</ele>
        <time>2014-03-28T07:48:23.000Z</time>
      </trkpt>
      <trkpt lat="45.92158" lon="6.49722">
        <ele>1670.4000244141</ele>
        <time>2014-03-28T07:48:27.000Z</time>
      </trkpt>
      <trkpt lat="45.92153" lon="6.49722">
        <ele>1671.1999511719</ele>
        <time>2014-03-28T07:48:32.000Z</time>
      </trkpt>
      <trkpt lat="45.92149" lon="6.49721">
        <ele>1672</ele>
        <time>2014-03-28T07:48:38.000Z</time>
      </trkpt>
      <trkpt lat="45.92147" lon="6.49723">
        <ele>1673</ele>
        <time>2014-03-28T07:48:44.000Z</time>
      </trkpt>
      <trkpt lat="45.92148" lon="6.49727">
        <ele>1674.1999511719</ele>
        <time>2014-03-28T07:48:49.000Z</time>
      </trkpt>
      <trkpt lat="45.9215" lon="6.4973">
        <ele>1675.1999511719</ele>
        <time>2014-03-28T07:48:53.000Z</time>
      </trkpt>
      <trkpt lat="45.92152" lon="6.49736">
        <ele>1676.8000488281</ele>
        <time>2014-03-28T07:48:59.000Z</time>
      </trkpt>
      <trkpt lat="45.92154" lon="6.49741">
        <ele>1678</ele>
        <time>2014-03-28T07:49:04.000Z</time>
      </trkpt>
      <trkpt lat="45.92157" lon="6.49748">
        <ele>1680.1999511719</ele>
        <time>2014-03-28T07:49:11.000Z</time>
      </trkpt>
      <trkpt lat="45.92159" lon="6.49754">
        <ele>1682</ele>
        <time>2014-03-28T07:49:17.000Z</time>
      </trkpt>
      <trkpt lat="45.92161" lon="6.49758">
        <ele>1683</ele>
        <time>2014-03-28T07:49:21.000Z</time>
      </trkpt>
      <trkpt lat="45.92162" lon="6.49761">
        <ele>1683.8000488281</ele>
        <time>2014-03-28T07:49:25.000Z</time>
      </trkpt>
      <trkpt lat="45.92164" lon="6.49765">
        <ele>1685</ele>
        <time>2014-03-28T07:49:30.000Z</time>
      </trkpt>
      <trkpt lat="45.92164" lon="6.49765">
        <ele>1685.4000244141</ele>
        <time>2014-03-28T07:49:34.000Z</time>
      </trkpt>
      <trkpt lat="45.92163" lon="6.49767">
        <ele>1686.4000244141</ele>
        <time>2014-03-28T07:49:38.000Z</time>
      </trkpt>
      <trkpt lat="45.92159" lon="6.49768">
        <ele>1687.1999511719</ele>
        <time>2014-03-28T07:49:43.000Z</time>
      </trkpt>
      <trkpt lat="45.92155" lon="6.49769">
        <ele>1688.1999511719</ele>
        <time>2014-03-28T07:49:48.000Z</time>
      </trkpt>
      <trkpt lat="45.9215" lon="6.4977">
        <ele>1689.5999755859</ele>
        <time>2014-03-28T07:49:54.000Z</time>
      </trkpt>
      <trkpt lat="45.92146" lon="6.49771">
        <ele>1690.4000244141</ele>
        <time>2014-03-28T07:49:59.000Z</time>
      </trkpt>
      <trkpt lat="45.92141" lon="6.49771">
        <ele>1691.1999511719</ele>
        <time>2014-03-28T07:50:05.000Z</time>
      </trkpt>
      <trkpt lat="45.92136" lon="6.4977">
        <ele>1691.5999755859</ele>
        <time>2014-03-28T07:50:12.000Z</time>
      </trkpt>
      <trkpt lat="45.92133" lon="6.49769">
        <ele>1691.8000488281</ele>
        <time>2014-03-28T07:50:16.000Z</time>
      </trkpt>
      <trkpt lat="45.92128" lon="6.49768">
        <ele>1692.1999511719</ele>
        <time>2014-03-28T07:50:23.000Z</time>
      </trkpt>
      <trkpt lat="45.92125" lon="6.49768">
        <ele>1692.8000488281</ele>
        <time>2014-03-28T07:50:28.000Z</time>
      </trkpt>
      <trkpt lat="45.92121" lon="6.49767">
        <ele>1693.1999511719</ele>
        <time>2014-03-28T07:50:34.000Z</time>
      </trkpt>
      <trkpt lat="45.92119" lon="6.49768">
        <ele>1693.8000488281</ele>
        <time>2014-03-28T07:50:40.000Z</time>
      </trkpt>
      <trkpt lat="45.9212" lon="6.49773">
        <ele>1695.1999511719</ele>
        <time>2014-03-28T07:50:45.000Z</time>
      </trkpt>
      <trkpt lat="45.92122" lon="6.49779">
        <ele>1697.1999511719</ele>
        <time>2014-03-28T07:50:51.000Z</time>
      </trkpt>
      <trkpt lat="45.92123" lon="6.49786">
        <ele>1699.1999511719</ele>
        <time>2014-03-28T07:50:58.000Z</time>
      </trkpt>
      <trkpt lat="45.92124" lon="6.49792">
        <ele>1701.1999511719</ele>
        <time>2014-03-28T07:51:04.000Z</time>
      </trkpt>
      <trkpt lat="45.92123" lon="6.49797">
        <ele>1703.1999511719</ele>
        <time>2014-03-28T07:51:08.000Z</time>
      </trkpt>
      <trkpt lat="45.92121" lon="6.49803">
        <ele>1705.5999755859</ele>
        <time>2014-03-28T07:51:14.000Z</time>
      </trkpt>
      <trkpt lat="45.9212" lon="6.49808">
        <ele>1707.4000244141</ele>
        <time>2014-03-28T07:51:19.000Z</time>
      </trkpt>
      <trkpt lat="45.92119" lon="6.49814">
        <ele>1709.4000244141</ele>
        <time>2014-03-28T07:51:24.000Z</time>
      </trkpt>
      <trkpt lat="45.92119" lon="6.4982">
        <ele>1711.4000244141</ele>
        <time>2014-03-28T07:51:30.000Z</time>
      </trkpt>
      <trkpt lat="45.92119" lon="6.49823">
        <ele>1712.4000244141</ele>
        <time>2014-03-28T07:51:33.000Z</time>
      </trkpt>
      <trkpt lat="45.92118" lon="6.49823">
        <ele>1712.8000488281</ele>
        <time>2014-03-28T07:51:36.000Z</time>
      </trkpt>
      <trkpt lat="45.92117" lon="6.49819">
        <ele>1711.5999755859</ele>
        <time>2014-03-28T07:51:40.000Z</time>
      </trkpt>
      <trkpt lat="45.92112" lon="6.49811">
        <ele>1709.5999755859</ele>
        <time>2014-03-28T07:51:47.000Z</time>
      </trkpt>
      <trkpt lat="45.9211" lon="6.49807">
        <ele>1708.1999511719</ele>
        <time>2014-03-28T07:51:51.000Z</time>
      </trkpt>
      <trkpt lat="45.92106" lon="6.49802">
        <ele>1707.1999511719</ele>
        <time>2014-03-28T07:51:57.000Z</time>
      </trkpt>
      <trkpt lat="45.92101" lon="6.49797">
        <ele>1706.1999511719</ele>
        <time>2014-03-28T07:52:04.000Z</time>
      </trkpt>
      <trkpt lat="45.92097" lon="6.49794">
        <ele>1705.8000488281</ele>
        <time>2014-03-28T07:52:09.000Z</time>
      </trkpt>
      <trkpt lat="45.92091" lon="6.4979">
        <ele>1705.1999511719</ele>
        <time>2014-03-28T07:52:16.000Z</time>
      </trkpt>
      <trkpt lat="45.92087" lon="6.49787">
        <ele>1705</ele>
        <time>2014-03-28T07:52:23.000Z</time>
      </trkpt>
      <trkpt lat="45.92083" lon="6.49784">
        <ele>1704.8000488281</ele>
        <time>2014-03-28T07:52:28.000Z</time>
      </trkpt>
      <trkpt lat="45.92082" lon="6.49783">
        <ele>1705</ele>
        <time>2014-03-28T07:52:31.000Z</time>
      </trkpt>
      <trkpt lat="45.92077" lon="6.49782">
        <ele>1706.4000244141</ele>
        <time>2014-03-28T07:52:38.000Z</time>
      </trkpt>
      <trkpt lat="45.92078" lon="6.49788">
        <ele>1707.8000488281</ele>
        <time>2014-03-28T07:52:44.000Z</time>
      </trkpt>
      <trkpt lat="45.92078" lon="6.49791">
        <ele>1708.4000244141</ele>
        <time>2014-03-28T07:52:46.000Z</time>
      </trkpt>
      <trkpt lat="45.92079" lon="6.49799">
        <ele>1711</ele>
        <time>2014-03-28T07:52:52.000Z</time>
      </trkpt>
      <trkpt lat="45.9208" lon="6.49807">
        <ele>1713</ele>
        <time>2014-03-28T07:52:58.000Z</time>
      </trkpt>
      <trkpt lat="45.92081" lon="6.49815">
        <ele>1715.1999511719</ele>
        <time>2014-03-28T07:53:05.000Z</time>
      </trkpt>
      <trkpt lat="45.9208" lon="6.49821">
        <ele>1717.1999511719</ele>
        <time>2014-03-28T07:53:11.000Z</time>
      </trkpt>
      <trkpt lat="45.9208" lon="6.49826">
        <ele>1718.5999755859</ele>
        <time>2014-03-28T07:53:14.000Z</time>
      </trkpt>
      <trkpt lat="45.92079" lon="6.49829">
        <ele>1720.1999511719</ele>
        <time>2014-03-28T07:53:18.000Z</time>
      </trkpt>
      <trkpt lat="45.92079" lon="6.4983">
        <ele>1720.4000244141</ele>
        <time>2014-03-28T07:53:22.000Z</time>
      </trkpt>
      <trkpt lat="45.92079" lon="6.49833">
        <ele>1721.4000244141</ele>
        <time>2014-03-28T07:53:26.000Z</time>
      </trkpt>
      <trkpt lat="45.92079" lon="6.49838">
        <ele>1724</ele>
        <time>2014-03-28T07:53:31.000Z</time>
      </trkpt>
      <trkpt lat="45.92078" lon="6.49842">
        <ele>1725.8000488281</ele>
        <time>2014-03-28T07:53:35.000Z</time>
      </trkpt>
      <trkpt lat="45.92077" lon="6.49844">
        <ele>1727.1999511719</ele>
        <time>2014-03-28T07:53:39.000Z</time>
      </trkpt>
      <trkpt lat="45.92079" lon="6.49849">
        <ele>1728.8000488281</ele>
        <time>2014-03-28T07:53:44.000Z</time>
      </trkpt>
      <trkpt lat="45.9208" lon="6.49856">
        <ele>1732.1999511719</ele>
        <time>2014-03-28T07:53:49.000Z</time>
      </trkpt>
      <trkpt lat="45.92079" lon="6.4986">
        <ele>1734</ele>
        <time>2014-03-28T07:53:53.000Z</time>
      </trkpt>
      <trkpt lat="45.92079" lon="6.49864">
        <ele>1736</ele>
        <time>2014-03-28T07:53:58.000Z</time>
      </trkpt>
      <trkpt lat="45.92079" lon="6.49867">
        <ele>1737.5999755859</ele>
        <time>2014-03-28T07:54:02.000Z</time>
      </trkpt>
      <trkpt lat="45.92074" lon="6.49864">
        <ele>1737.5999755859</ele>
        <time>2014-03-28T07:54:10.000Z</time>
      </trkpt>
      <trkpt lat="45.92071" lon="6.49861">
        <ele>1737</ele>
        <time>2014-03-28T07:54:14.000Z</time>
      </trkpt>
      <trkpt lat="45.92068" lon="6.49857">
        <ele>1736.4000244141</ele>
        <time>2014-03-28T07:54:18.000Z</time>
      </trkpt>
      <trkpt lat="45.92065" lon="6.49853">
        <ele>1735.4000244141</ele>
        <time>2014-03-28T07:54:23.000Z</time>
      </trkpt>
      <trkpt lat="45.9206" lon="6.4985">
        <ele>1735.5999755859</ele>
        <time>2014-03-28T07:54:27.000Z</time>
      </trkpt>
      <trkpt lat="45.92057" lon="6.49847">
        <ele>1735.5999755859</ele>
        <time>2014-03-28T07:54:30.000Z</time>
      </trkpt>
      <trkpt lat="45.92052" lon="6.49846">
        <ele>1736.5999755859</ele>
        <time>2014-03-28T07:54:34.000Z</time>
      </trkpt>
      <trkpt lat="45.92047" lon="6.49845">
        <ele>1738.1999511719</ele>
        <time>2014-03-28T07:54:39.000Z</time>
      </trkpt>
      <trkpt lat="45.92045" lon="6.49845">
        <ele>1738.8000488281</ele>
        <time>2014-03-28T07:54:43.000Z</time>
      </trkpt>
      <trkpt lat="45.92043" lon="6.49844">
        <ele>1739.4000244141</ele>
        <time>2014-03-28T07:54:47.000Z</time>
      </trkpt>
      <trkpt lat="45.92043" lon="6.49848">
        <ele>1740.4000244141</ele>
        <time>2014-03-28T07:54:52.000Z</time>
      </trkpt>
      <trkpt lat="45.92045" lon="6.49852">
        <ele>1741.8000488281</ele>
        <time>2014-03-28T07:54:56.000Z</time>
      </trkpt>
      <trkpt lat="45.92046" lon="6.49856">
        <ele>1743</ele>
        <time>2014-03-28T07:55:00.000Z</time>
      </trkpt>
      <trkpt lat="45.92047" lon="6.49862">
        <ele>1744.8000488281</ele>
        <time>2014-03-28T07:55:05.000Z</time>
      </trkpt>
      <trkpt lat="45.92048" lon="6.49865">
        <ele>1745.8000488281</ele>
        <time>2014-03-28T07:55:09.000Z</time>
      </trkpt>
      <trkpt lat="45.92047" lon="6.4987">
        <ele>1748.4000244141</ele>
        <time>2014-03-28T07:55:16.000Z</time>
      </trkpt>
      <trkpt lat="45.92046" lon="6.49874">
        <ele>1750</ele>
        <time>2014-03-28T07:55:20.000Z</time>
      </trkpt>
      <trkpt lat="45.92046" lon="6.49879">
        <ele>1752</ele>
        <time>2014-03-28T07:55:27.000Z</time>
      </trkpt>
      <trkpt lat="45.92045" lon="6.49882">
        <ele>1753.5999755859</ele>
        <time>2014-03-28T07:55:31.000Z</time>
      </trkpt>
      <trkpt lat="45.92046" lon="6.49886">
        <ele>1755</ele>
        <time>2014-03-28T07:55:35.000Z</time>
      </trkpt>
      <trkpt lat="45.92045" lon="6.4989">
        <ele>1756.8000488281</ele>
        <time>2014-03-28T07:55:39.000Z</time>
      </trkpt>
      <trkpt lat="45.92046" lon="6.49895">
        <ele>1758.8000488281</ele>
        <time>2014-03-28T07:55:44.000Z</time>
      </trkpt>
      <trkpt lat="45.92044" lon="6.49898">
        <ele>1760</ele>
        <time>2014-03-28T07:55:48.000Z</time>
      </trkpt>
      <trkpt lat="45.9204" lon="6.49897">
        <ele>1760.5999755859</ele>
        <time>2014-03-28T07:55:54.000Z</time>
      </trkpt>
      <trkpt lat="45.92038" lon="6.49894">
        <ele>1760</ele>
        <time>2014-03-28T07:55:58.000Z</time>
      </trkpt>
      <trkpt lat="45.92035" lon="6.4989">
        <ele>1759.4000244141</ele>
        <time>2014-03-28T07:56:02.000Z</time>
      </trkpt>
      <trkpt lat="45.92032" lon="6.49888">
        <ele>1759.1999511719</ele>
        <time>2014-03-28T07:56:06.000Z</time>
      </trkpt>
      <trkpt lat="45.92029" lon="6.49885">
        <ele>1758.8000488281</ele>
        <time>2014-03-28T07:56:11.000Z</time>
      </trkpt>
      <trkpt lat="45.92028" lon="6.49884">
        <ele>1759</ele>
        <time>2014-03-28T07:56:15.000Z</time>
      </trkpt>
      <trkpt lat="45.92027" lon="6.49887">
        <ele>1760</ele>
        <time>2014-03-28T07:56:19.000Z</time>
      </trkpt>
      <trkpt lat="45.92027" lon="6.49892">
        <ele>1762</ele>
        <time>2014-03-28T07:56:22.000Z</time>
      </trkpt>
      <trkpt lat="45.92028" lon="6.49899">
        <ele>1764.4000244141</ele>
        <time>2014-03-28T07:56:28.000Z</time>
      </trkpt>
      <trkpt lat="45.92029" lon="6.49905">
        <ele>1766.1999511719</ele>
        <time>2014-03-28T07:56:33.000Z</time>
      </trkpt>
      <trkpt lat="45.92031" lon="6.49912">
        <ele>1768.4000244141</ele>
        <time>2014-03-28T07:56:39.000Z</time>
      </trkpt>
      <trkpt lat="45.92033" lon="6.49918">
        <ele>1770</ele>
        <time>2014-03-28T07:56:43.000Z</time>
      </trkpt>
      <trkpt lat="45.92035" lon="6.49921">
        <ele>1770.8000488281</ele>
        <time>2014-03-28T07:56:48.000Z</time>
      </trkpt>
      <trkpt lat="45.92035" lon="6.49924">
        <ele>1771.5999755859</ele>
        <time>2014-03-28T07:56:52.000Z</time>
      </trkpt>
      <trkpt lat="45.92032" lon="6.49927">
        <ele>1773.4000244141</ele>
        <time>2014-03-28T07:57:04.000Z</time>
      </trkpt>
      <trkpt lat="45.92029" lon="6.49928">
        <ele>1774.1999511719</ele>
        <time>2014-03-28T07:57:08.000Z</time>
      </trkpt>
      <trkpt lat="45.92025" lon="6.49928">
        <ele>1774.8000488281</ele>
        <time>2014-03-28T07:57:12.000Z</time>
      </trkpt>
      <trkpt lat="45.92022" lon="6.49925">
        <ele>1774.5999755859</ele>
        <time>2014-03-28T07:57:17.000Z</time>
      </trkpt>
      <trkpt lat="45.92019" lon="6.49922">
        <ele>1774</ele>
        <time>2014-03-28T07:57:20.000Z</time>
      </trkpt>
      <trkpt lat="45.92015" lon="6.49917">
        <ele>1773</ele>
        <time>2014-03-28T07:57:26.000Z</time>
      </trkpt>
      <trkpt lat="45.92013" lon="6.49914">
        <ele>1772.8000488281</ele>
        <time>2014-03-28T07:57:31.000Z</time>
      </trkpt>
      <trkpt lat="45.92009" lon="6.49911">
        <ele>1772.4000244141</ele>
        <time>2014-03-28T07:57:37.000Z</time>
      </trkpt>
      <trkpt lat="45.92005" lon="6.49906">
        <ele>1771.8000488281</ele>
        <time>2014-03-28T07:57:42.000Z</time>
      </trkpt>
      <trkpt lat="45.92001" lon="6.49902">
        <ele>1771.4000244141</ele>
        <time>2014-03-28T07:57:48.000Z</time>
      </trkpt>
      <trkpt lat="45.91998" lon="6.49898">
        <ele>1771.4000244141</ele>
        <time>2014-03-28T07:57:53.000Z</time>
      </trkpt>
      <trkpt lat="45.91995" lon="6.49896">
        <ele>1771.8000488281</ele>
        <time>2014-03-28T07:57:57.000Z</time>
      </trkpt>
      <trkpt lat="45.91991" lon="6.49894">
        <ele>1772.8000488281</ele>
        <time>2014-03-28T07:58:03.000Z</time>
      </trkpt>
      <trkpt lat="45.91988" lon="6.49893">
        <ele>1773.5999755859</ele>
        <time>2014-03-28T07:58:08.000Z</time>
      </trkpt>
      <trkpt lat="45.91989" lon="6.49897">
        <ele>1774.5999755859</ele>
        <time>2014-03-28T07:58:15.000Z</time>
      </trkpt>
      <trkpt lat="45.9199" lon="6.49901">
        <ele>1775.5999755859</ele>
        <time>2014-03-28T07:58:19.000Z</time>
      </trkpt>
      <trkpt lat="45.91991" lon="6.49907">
        <ele>1777</ele>
        <time>2014-03-28T07:58:24.000Z</time>
      </trkpt>
      <trkpt lat="45.91991" lon="6.49912">
        <ele>1778.1999511719</ele>
        <time>2014-03-28T07:58:28.000Z</time>
      </trkpt>
      <trkpt lat="45.91992" lon="6.49914">
        <ele>1778.8000488281</ele>
        <time>2014-03-28T07:58:31.000Z</time>
      </trkpt>
      <trkpt lat="45.91994" lon="6.49918">
        <ele>1779</ele>
        <time>2014-03-28T07:58:35.000Z</time>
      </trkpt>
      <trkpt lat="45.91994" lon="6.49922">
        <ele>1780.1999511719</ele>
        <time>2014-03-28T07:58:39.000Z</time>
      </trkpt>
      <trkpt lat="45.91995" lon="6.49928">
        <ele>1781.4000244141</ele>
        <time>2014-03-28T07:58:43.000Z</time>
      </trkpt>
      <trkpt lat="45.91996" lon="6.49932">
        <ele>1782.4000244141</ele>
        <time>2014-03-28T07:58:47.000Z</time>
      </trkpt>
      <trkpt lat="45.91995" lon="6.49935">
        <ele>1783.5999755859</ele>
        <time>2014-03-28T07:58:52.000Z</time>
      </trkpt>
      <trkpt lat="45.91992" lon="6.49932">
        <ele>1784</ele>
        <time>2014-03-28T07:58:58.000Z</time>
      </trkpt>
      <trkpt lat="45.9199" lon="6.49929">
        <ele>1783.8000488281</ele>
        <time>2014-03-28T07:59:02.000Z</time>
      </trkpt>
      <trkpt lat="45.91987" lon="6.49927">
        <ele>1784.4000244141</ele>
        <time>2014-03-28T07:59:06.000Z</time>
      </trkpt>
      <trkpt lat="45.91983" lon="6.49924">
        <ele>1785.1999511719</ele>
        <time>2014-03-28T07:59:11.000Z</time>
      </trkpt>
      <trkpt lat="45.9198" lon="6.49922">
        <ele>1785.5999755859</ele>
        <time>2014-03-28T07:59:15.000Z</time>
      </trkpt>
      <trkpt lat="45.91975" lon="6.49917">
        <ele>1786.1999511719</ele>
        <time>2014-03-28T07:59:21.000Z</time>
      </trkpt>
      <trkpt lat="45.9197" lon="6.49914">
        <ele>1787.4000244141</ele>
        <time>2014-03-28T07:59:27.000Z</time>
      </trkpt>
      <trkpt lat="45.91968" lon="6.49913">
        <ele>1787.8000488281</ele>
        <time>2014-03-28T07:59:31.000Z</time>
      </trkpt>
      <trkpt lat="45.91969" lon="6.49915">
        <ele>1788.1999511719</ele>
        <time>2014-03-28T07:59:35.000Z</time>
      </trkpt>
      <trkpt lat="45.91969" lon="6.49919">
        <ele>1789.1999511719</ele>
        <time>2014-03-28T07:59:39.000Z</time>
      </trkpt>
      <trkpt lat="45.91969" lon="6.49922">
        <ele>1790.1999511719</ele>
        <time>2014-03-28T07:59:43.000Z</time>
      </trkpt>
      <trkpt lat="45.91971" lon="6.49928">
        <ele>1791</ele>
        <time>2014-03-28T07:59:48.000Z</time>
      </trkpt>
      <trkpt lat="45.91972" lon="6.49934">
        <ele>1792.4000244141</ele>
        <time>2014-03-28T07:59:54.000Z</time>
      </trkpt>
      <trkpt lat="45.91973" lon="6.49938">
        <ele>1793.1999511719</ele>
        <time>2014-03-28T07:59:58.000Z</time>
      </trkpt>
      <trkpt lat="45.91972" lon="6.49939">
        <ele>1794</ele>
        <time>2014-03-28T08:00:02.000Z</time>
      </trkpt>
      <trkpt lat="45.9197" lon="6.49937">
        <ele>1794.4000244141</ele>
        <time>2014-03-28T08:00:06.000Z</time>
      </trkpt>
      <trkpt lat="45.91964" lon="6.49932">
        <ele>1795.1999511719</ele>
        <time>2014-03-28T08:00:12.000Z</time>
      </trkpt>
      <trkpt lat="45.91961" lon="6.4993">
        <ele>1795.8000488281</ele>
        <time>2014-03-28T08:00:17.000Z</time>
      </trkpt>
      <trkpt lat="45.91959" lon="6.49929">
        <ele>1796.4000244141</ele>
        <time>2014-03-28T08:00:22.000Z</time>
      </trkpt>
      <trkpt lat="45.9196" lon="6.49933">
        <ele>1797</ele>
        <time>2014-03-28T08:00:26.000Z</time>
      </trkpt>
      <trkpt lat="45.91961" lon="6.49937">
        <ele>1798</ele>
        <time>2014-03-28T08:00:31.000Z</time>
      </trkpt>
      <trkpt lat="45.91962" lon="6.49941">
        <ele>1798.5999755859</ele>
        <time>2014-03-28T08:00:34.000Z</time>
      </trkpt>
      <trkpt lat="45.91963" lon="6.49947">
        <ele>1800</ele>
        <time>2014-03-28T08:00:39.000Z</time>
      </trkpt>
      <trkpt lat="45.91963" lon="6.49952">
        <ele>1801.4000244141</ele>
        <time>2014-03-28T08:00:43.000Z</time>
      </trkpt>
      <trkpt lat="45.9196" lon="6.49951">
        <ele>1802.4000244141</ele>
        <time>2014-03-28T08:00:48.000Z</time>
      </trkpt>
      <trkpt lat="45.91955" lon="6.49948">
        <ele>1803.4000244141</ele>
        <time>2014-03-28T08:00:54.000Z</time>
      </trkpt>
      <trkpt lat="45.9195" lon="6.49944">
        <ele>1804.1999511719</ele>
        <time>2014-03-28T08:01:00.000Z</time>
      </trkpt>
      <trkpt lat="45.91951" lon="6.49944">
        <ele>1804.1999511719</ele>
        <time>2014-03-28T08:01:05.000Z</time>
      </trkpt>
      <trkpt lat="45.91951" lon="6.49947">
        <ele>1805</ele>
        <time>2014-03-28T08:01:08.000Z</time>
      </trkpt>
      <trkpt lat="45.91952" lon="6.49952">
        <ele>1806</ele>
        <time>2014-03-28T08:01:13.000Z</time>
      </trkpt>
      <trkpt lat="45.91953" lon="6.49956">
        <ele>1806.5999755859</ele>
        <time>2014-03-28T08:01:17.000Z</time>
      </trkpt>
      <trkpt lat="45.91955" lon="6.49962">
        <ele>1807.5999755859</ele>
        <time>2014-03-28T08:01:22.000Z</time>
      </trkpt>
      <trkpt lat="45.91957" lon="6.49965">
        <ele>1807.5999755859</ele>
        <time>2014-03-28T08:01:26.000Z</time>
      </trkpt>
      <trkpt lat="45.91958" lon="6.49968">
        <ele>1808.4000244141</ele>
        <time>2014-03-28T08:01:30.000Z</time>
      </trkpt>
      <trkpt lat="45.91955" lon="6.49966">
        <ele>1809</ele>
        <time>2014-03-28T08:01:35.000Z</time>
      </trkpt>
      <trkpt lat="45.9195" lon="6.49964">
        <ele>1810.1999511719</ele>
        <time>2014-03-28T08:01:40.000Z</time>
      </trkpt>
      <trkpt lat="45.91947" lon="6.49962">
        <ele>1811</ele>
        <time>2014-03-28T08:01:44.000Z</time>
      </trkpt>
      <trkpt lat="45.91944" lon="6.4996">
        <ele>1811.5999755859</ele>
        <time>2014-03-28T08:01:49.000Z</time>
      </trkpt>
      <trkpt lat="45.9194" lon="6.49956">
        <ele>1812</ele>
        <time>2014-03-28T08:01:54.000Z</time>
      </trkpt>
      <trkpt lat="45.9194" lon="6.49956">
        <ele>1812.1999511719</ele>
        <time>2014-03-28T08:02:02.000Z</time>
      </trkpt>
      <trkpt lat="45.9194" lon="6.4996">
        <ele>1813.1999511719</ele>
        <time>2014-03-28T08:02:06.000Z</time>
      </trkpt>
      <trkpt lat="45.91941" lon="6.49966">
        <ele>1814.5999755859</ele>
        <time>2014-03-28T08:02:11.000Z</time>
      </trkpt>
      <trkpt lat="45.91942" lon="6.4997">
        <ele>1815.4000244141</ele>
        <time>2014-03-28T08:02:15.000Z</time>
      </trkpt>
      <trkpt lat="45.91943" lon="6.49975">
        <ele>1816.1999511719</ele>
        <time>2014-03-28T08:02:19.000Z</time>
      </trkpt>
      <trkpt lat="45.91945" lon="6.49979">
        <ele>1816.8000488281</ele>
        <time>2014-03-28T08:02:24.000Z</time>
      </trkpt>
      <trkpt lat="45.91945" lon="6.49985">
        <ele>1818.5999755859</ele>
        <time>2014-03-28T08:02:31.000Z</time>
      </trkpt>
      <trkpt lat="45.91942" lon="6.49983">
        <ele>1819</ele>
        <time>2014-03-28T08:02:35.000Z</time>
      </trkpt>
      <trkpt lat="45.91934" lon="6.49977">
        <ele>1820.8000488281</ele>
        <time>2014-03-28T08:02:44.000Z</time>
      </trkpt>
      <trkpt lat="45.91929" lon="6.49974">
        <ele>1821.5999755859</ele>
        <time>2014-03-28T08:02:51.000Z</time>
      </trkpt>
      <trkpt lat="45.91925" lon="6.49971">
        <ele>1822.1999511719</ele>
        <time>2014-03-28T08:02:57.000Z</time>
      </trkpt>
      <trkpt lat="45.91923" lon="6.49968">
        <ele>1822.4000244141</ele>
        <time>2014-03-28T08:03:02.000Z</time>
      </trkpt>
      <trkpt lat="45.9192" lon="6.49966">
        <ele>1822.8000488281</ele>
        <time>2014-03-28T08:03:07.000Z</time>
      </trkpt>
      <trkpt lat="45.91917" lon="6.49959">
        <ele>1822.1999511719</ele>
        <time>2014-03-28T08:03:13.000Z</time>
      </trkpt>
      <trkpt lat="45.91915" lon="6.49956">
        <ele>1822</ele>
        <time>2014-03-28T08:03:17.000Z</time>
      </trkpt>
      <trkpt lat="45.91913" lon="6.49951">
        <ele>1821.4000244141</ele>
        <time>2014-03-28T08:03:23.000Z</time>
      </trkpt>
      <trkpt lat="45.91911" lon="6.49947">
        <ele>1821.1999511719</ele>
        <time>2014-03-28T08:03:28.000Z</time>
      </trkpt>
      <trkpt lat="45.91909" lon="6.49939">
        <ele>1820</ele>
        <time>2014-03-28T08:03:34.000Z</time>
      </trkpt>
      <trkpt lat="45.91908" lon="6.49935">
        <ele>1819.1999511719</ele>
        <time>2014-03-28T08:03:38.000Z</time>
      </trkpt>
      <trkpt lat="45.91905" lon="6.49931">
        <ele>1819.1999511719</ele>
        <time>2014-03-28T08:03:43.000Z</time>
      </trkpt>
      <trkpt lat="45.91903" lon="6.49928">
        <ele>1819.4000244141</ele>
        <time>2014-03-28T08:03:47.000Z</time>
      </trkpt>
      <trkpt lat="45.91901" lon="6.49925">
        <ele>1819.5999755859</ele>
        <time>2014-03-28T08:03:51.000Z</time>
      </trkpt>
      <trkpt lat="45.91897" lon="6.49922">
        <ele>1820.1999511719</ele>
        <time>2014-03-28T08:03:57.000Z</time>
      </trkpt>
      <trkpt lat="45.91892" lon="6.49917">
        <ele>1820.8000488281</ele>
        <time>2014-03-28T08:04:04.000Z</time>
      </trkpt>
      <trkpt lat="45.91891" lon="6.49917">
        <ele>1821.5999755859</ele>
        <time>2014-03-28T08:04:10.000Z</time>
      </trkpt>
      <trkpt lat="45.91889" lon="6.49921">
        <ele>1823.4000244141</ele>
        <time>2014-03-28T08:04:14.000Z</time>
      </trkpt>
      <trkpt lat="45.91889" lon="6.49928">
        <ele>1825.4000244141</ele>
        <time>2014-03-28T08:04:20.000Z</time>
      </trkpt>
      <trkpt lat="45.91888" lon="6.49933">
        <ele>1827</ele>
        <time>2014-03-28T08:04:25.000Z</time>
      </trkpt>
      <trkpt lat="45.91888" lon="6.49936">
        <ele>1828</ele>
        <time>2014-03-28T08:04:31.000Z</time>
      </trkpt>
      <trkpt lat="45.91887" lon="6.49941">
        <ele>1829.5999755859</ele>
        <time>2014-03-28T08:04:37.000Z</time>
      </trkpt>
      <trkpt lat="45.91887" lon="6.49947">
        <ele>1831.5999755859</ele>
        <time>2014-03-28T08:04:43.000Z</time>
      </trkpt>
      <trkpt lat="45.91885" lon="6.49955">
        <ele>1834</ele>
        <time>2014-03-28T08:04:50.000Z</time>
      </trkpt>
      <trkpt lat="45.91884" lon="6.49962">
        <ele>1836.4000244141</ele>
        <time>2014-03-28T08:04:57.000Z</time>
      </trkpt>
      <trkpt lat="45.91883" lon="6.49965">
        <ele>1838</ele>
        <time>2014-03-28T08:05:02.000Z</time>
      </trkpt>
      <trkpt lat="45.91881" lon="6.49963">
        <ele>1838</ele>
        <time>2014-03-28T08:05:07.000Z</time>
      </trkpt>
      <trkpt lat="45.91879" lon="6.49959">
        <ele>1838</ele>
        <time>2014-03-28T08:05:13.000Z</time>
      </trkpt>
      <trkpt lat="45.91877" lon="6.49955">
        <ele>1837.8000488281</ele>
        <time>2014-03-28T08:05:19.000Z</time>
      </trkpt>
      <trkpt lat="45.91874" lon="6.49951">
        <ele>1837.5999755859</ele>
        <time>2014-03-28T08:05:24.000Z</time>
      </trkpt>
      <trkpt lat="45.91873" lon="6.49949">
        <ele>1837.8000488281</ele>
        <time>2014-03-28T08:05:28.000Z</time>
      </trkpt>
      <trkpt lat="45.91869" lon="6.49944">
        <ele>1838</ele>
        <time>2014-03-28T08:05:35.000Z</time>
      </trkpt>
      <trkpt lat="45.91868" lon="6.49942">
        <ele>1838</ele>
        <time>2014-03-28T08:05:38.000Z</time>
      </trkpt>
      <trkpt lat="45.91867" lon="6.4994">
        <ele>1838</ele>
        <time>2014-03-28T08:05:42.000Z</time>
      </trkpt>
      <trkpt lat="45.91865" lon="6.49938">
        <ele>1838.1999511719</ele>
        <time>2014-03-28T08:05:47.000Z</time>
      </trkpt>
      <trkpt lat="45.91863" lon="6.49936">
        <ele>1838.5999755859</ele>
        <time>2014-03-28T08:05:52.000Z</time>
      </trkpt>
      <trkpt lat="45.91861" lon="6.49939">
        <ele>1840.1999511719</ele>
        <time>2014-03-28T08:05:59.000Z</time>
      </trkpt>
      <trkpt lat="45.91861" lon="6.49943">
        <ele>1841.1999511719</ele>
        <time>2014-03-28T08:06:03.000Z</time>
      </trkpt>
      <trkpt lat="45.91861" lon="6.49949">
        <ele>1842.5999755859</ele>
        <time>2014-03-28T08:06:09.000Z</time>
      </trkpt>
      <trkpt lat="45.9186" lon="6.49953">
        <ele>1844</ele>
        <time>2014-03-28T08:06:14.000Z</time>
      </trkpt>
      <trkpt lat="45.9186" lon="6.49957">
        <ele>1845.1999511719</ele>
        <time>2014-03-28T08:06:18.000Z</time>
      </trkpt>
      <trkpt lat="45.9186" lon="6.49962">
        <ele>1846.1999511719</ele>
        <time>2014-03-28T08:06:22.000Z</time>
      </trkpt>
      <trkpt lat="45.9186" lon="6.49965">
        <ele>1847.1999511719</ele>
        <time>2014-03-28T08:06:28.000Z</time>
      </trkpt>
      <trkpt lat="45.91858" lon="6.49962">
        <ele>1847</ele>
        <time>2014-03-28T08:06:33.000Z</time>
      </trkpt>
      <trkpt lat="45.91855" lon="6.49957">
        <ele>1847.1999511719</ele>
        <time>2014-03-28T08:06:38.000Z</time>
      </trkpt>
      <trkpt lat="45.91855" lon="6.49958">
        <ele>1847.5999755859</ele>
        <time>2014-03-28T08:06:42.000Z</time>
      </trkpt>
      <trkpt lat="45.91855" lon="6.49964">
        <ele>1849</ele>
        <time>2014-03-28T08:06:48.000Z</time>
      </trkpt>
      <trkpt lat="45.91853" lon="6.49968">
        <ele>1850.5999755859</ele>
        <time>2014-03-28T08:06:53.000Z</time>
      </trkpt>
      <trkpt lat="45.91852" lon="6.49973">
        <ele>1852.4000244141</ele>
        <time>2014-03-28T08:06:59.000Z</time>
      </trkpt>
      <trkpt lat="45.9185" lon="6.49978">
        <ele>1854.1999511719</ele>
        <time>2014-03-28T08:07:05.000Z</time>
      </trkpt>
      <trkpt lat="45.91849" lon="6.49981">
        <ele>1855.4000244141</ele>
        <time>2014-03-28T08:07:09.000Z</time>
      </trkpt>
      <trkpt lat="45.91848" lon="6.49981">
        <ele>1856</ele>
        <time>2014-03-28T08:07:13.000Z</time>
      </trkpt>
      <trkpt lat="45.91847" lon="6.49978">
        <ele>1855.4000244141</ele>
        <time>2014-03-28T08:07:17.000Z</time>
      </trkpt>
      <trkpt lat="45.91847" lon="6.49976">
        <ele>1855.1999511719</ele>
        <time>2014-03-28T08:07:26.000Z</time>
      </trkpt>
      <trkpt lat="45.91847" lon="6.49976">
        <ele>1855</ele>
        <time>2014-03-28T08:07:36.000Z</time>
      </trkpt>
      <trkpt lat="45.91845" lon="6.49973">
        <ele>1855.1999511719</ele>
        <time>2014-03-28T08:07:43.000Z</time>
      </trkpt>
      <trkpt lat="45.91842" lon="6.4997">
        <ele>1855.8000488281</ele>
        <time>2014-03-28T08:07:48.000Z</time>
      </trkpt>
      <trkpt lat="45.9184" lon="6.49968">
        <ele>1856.1999511719</ele>
        <time>2014-03-28T08:07:53.000Z</time>
      </trkpt>
      <trkpt lat="45.91837" lon="6.49965">
        <ele>1856.5999755859</ele>
        <time>2014-03-28T08:07:58.000Z</time>
      </trkpt>
      <trkpt lat="45.91835" lon="6.49963">
        <ele>1857</ele>
        <time>2014-03-28T08:08:03.000Z</time>
      </trkpt>
      <trkpt lat="45.91832" lon="6.49959">
        <ele>1857.4000244141</ele>
        <time>2014-03-28T08:08:10.000Z</time>
      </trkpt>
      <trkpt lat="45.9183" lon="6.49957">
        <ele>1857.4000244141</ele>
        <time>2014-03-28T08:08:14.000Z</time>
      </trkpt>
      <trkpt lat="45.91828" lon="6.49954">
        <ele>1857.4000244141</ele>
        <time>2014-03-28T08:08:18.000Z</time>
      </trkpt>
      <trkpt lat="45.91826" lon="6.4995">
        <ele>1857.5999755859</ele>
        <time>2014-03-28T08:08:23.000Z</time>
      </trkpt>
      <trkpt lat="45.91823" lon="6.49946">
        <ele>1857.8000488281</ele>
        <time>2014-03-28T08:08:28.000Z</time>
      </trkpt>
      <trkpt lat="45.91821" lon="6.49942">
        <ele>1857.5999755859</ele>
        <time>2014-03-28T08:08:32.000Z</time>
      </trkpt>
      <trkpt lat="45.9182" lon="6.49938">
        <ele>1857.1999511719</ele>
        <time>2014-03-28T08:08:37.000Z</time>
      </trkpt>
      <trkpt lat="45.91818" lon="6.49934">
        <ele>1857</ele>
        <time>2014-03-28T08:08:43.000Z</time>
      </trkpt>
      <trkpt lat="45.91815" lon="6.49933">
        <ele>1857.8000488281</ele>
        <time>2014-03-28T08:08:48.000Z</time>
      </trkpt>
      <trkpt lat="45.91812" lon="6.49936">
        <ele>1859.5999755859</ele>
        <time>2014-03-28T08:08:54.000Z</time>
      </trkpt>
      <trkpt lat="45.9181" lon="6.49938">
        <ele>1861.1999511719</ele>
        <time>2014-03-28T08:09:00.000Z</time>
      </trkpt>
      <trkpt lat="45.91807" lon="6.49938">
        <ele>1862.1999511719</ele>
        <time>2014-03-28T08:09:06.000Z</time>
      </trkpt>
      <trkpt lat="45.91802" lon="6.49939">
        <ele>1864.1999511719</ele>
        <time>2014-03-28T08:09:14.000Z</time>
      </trkpt>
      <trkpt lat="45.91798" lon="6.49939">
        <ele>1865.8000488281</ele>
        <time>2014-03-28T08:09:19.000Z</time>
      </trkpt>
      <trkpt lat="45.91796" lon="6.49941">
        <ele>1867</ele>
        <time>2014-03-28T08:09:22.000Z</time>
      </trkpt>
      <trkpt lat="45.91793" lon="6.49942">
        <ele>1868.4000244141</ele>
        <time>2014-03-28T08:09:27.000Z</time>
      </trkpt>
      <trkpt lat="45.91791" lon="6.49942">
        <ele>1869.4000244141</ele>
        <time>2014-03-28T08:09:31.000Z</time>
      </trkpt>
      <trkpt lat="45.91788" lon="6.49943">
        <ele>1870.8000488281</ele>
        <time>2014-03-28T08:09:36.000Z</time>
      </trkpt>
      <trkpt lat="45.91785" lon="6.49943">
        <ele>1872</ele>
        <time>2014-03-28T08:09:40.000Z</time>
      </trkpt>
      <trkpt lat="45.91784" lon="6.49944">
        <ele>1872.8000488281</ele>
        <time>2014-03-28T08:09:46.000Z</time>
      </trkpt>
      <trkpt lat="45.91785" lon="6.49948">
        <ele>1873.4000244141</ele>
        <time>2014-03-28T08:09:52.000Z</time>
      </trkpt>
      <trkpt lat="45.91787" lon="6.49952">
        <ele>1873.1999511719</ele>
        <time>2014-03-28T08:09:57.000Z</time>
      </trkpt>
      <trkpt lat="45.91787" lon="6.49952">
        <ele>1873.5999755859</ele>
        <time>2014-03-28T08:10:04.000Z</time>
      </trkpt>
      <trkpt lat="45.91784" lon="6.49953">
        <ele>1874.5999755859</ele>
        <time>2014-03-28T08:10:10.000Z</time>
      </trkpt>
      <trkpt lat="45.91782" lon="6.49954">
        <ele>1875.8000488281</ele>
        <time>2014-03-28T08:10:14.000Z</time>
      </trkpt>
      <trkpt lat="45.91779" lon="6.49955">
        <ele>1877.1999511719</ele>
        <time>2014-03-28T08:10:19.000Z</time>
      </trkpt>
      <trkpt lat="45.91776" lon="6.49956">
        <ele>1878.8000488281</ele>
        <time>2014-03-28T08:10:25.000Z</time>
      </trkpt>
      <trkpt lat="45.91774" lon="6.49957">
        <ele>1879.8000488281</ele>
        <time>2014-03-28T08:10:30.000Z</time>
      </trkpt>
      <trkpt lat="45.91771" lon="6.49959">
        <ele>1881</ele>
        <time>2014-03-28T08:10:34.000Z</time>
      </trkpt>
      <trkpt lat="45.9177" lon="6.4996">
        <ele>1882</ele>
        <time>2014-03-28T08:10:37.000Z</time>
      </trkpt>
      <trkpt lat="45.91768" lon="6.49962">
        <ele>1883.4000244141</ele>
        <time>2014-03-28T08:10:41.000Z</time>
      </trkpt>
      <trkpt lat="45.91764" lon="6.49963">
        <ele>1885</ele>
        <time>2014-03-28T08:10:48.000Z</time>
      </trkpt>
      <trkpt lat="45.91762" lon="6.49964">
        <ele>1886.1999511719</ele>
        <time>2014-03-28T08:10:54.000Z</time>
      </trkpt>
      <trkpt lat="45.91761" lon="6.49964">
        <ele>1886.5999755859</ele>
        <time>2014-03-28T08:10:59.000Z</time>
      </trkpt>
      <trkpt lat="45.91759" lon="6.49966">
        <ele>1887.8000488281</ele>
        <time>2014-03-28T08:11:03.000Z</time>
      </trkpt>
      <trkpt lat="45.91757" lon="6.49967">
        <ele>1888.8000488281</ele>
        <time>2014-03-28T08:11:07.000Z</time>
      </trkpt>
      <trkpt lat="45.91754" lon="6.49969">
        <ele>1890.4000244141</ele>
        <time>2014-03-28T08:11:15.000Z</time>
      </trkpt>
      <trkpt lat="45.91753" lon="6.49969">
        <ele>1891.1999511719</ele>
        <time>2014-03-28T08:11:20.000Z</time>
      </trkpt>
      <trkpt lat="45.9175" lon="6.4997">
        <ele>1892.5999755859</ele>
        <time>2014-03-28T08:11:24.000Z</time>
      </trkpt>
      <trkpt lat="45.91748" lon="6.49972">
        <ele>1893.4000244141</ele>
        <time>2014-03-28T08:11:27.000Z</time>
      </trkpt>
      <trkpt lat="45.91746" lon="6.49973">
        <ele>1894</ele>
        <time>2014-03-28T08:11:31.000Z</time>
      </trkpt>
      <trkpt lat="45.91743" lon="6.49974">
        <ele>1894.8000488281</ele>
        <time>2014-03-28T08:11:36.000Z</time>
      </trkpt>
      <trkpt lat="45.91741" lon="6.49974">
        <ele>1895.4000244141</ele>
        <time>2014-03-28T08:11:41.000Z</time>
      </trkpt>
      <trkpt lat="45.91737" lon="6.49975">
        <ele>1896.4000244141</ele>
        <time>2014-03-28T08:11:49.000Z</time>
      </trkpt>
      <trkpt lat="45.91736" lon="6.49976">
        <ele>1896.8000488281</ele>
        <time>2014-03-28T08:11:55.000Z</time>
      </trkpt>
      <trkpt lat="45.91731" lon="6.49976">
        <ele>1897.5999755859</ele>
        <time>2014-03-28T08:12:05.000Z</time>
      </trkpt>
      <trkpt lat="45.91729" lon="6.49976">
        <ele>1898</ele>
        <time>2014-03-28T08:12:10.000Z</time>
      </trkpt>
      <trkpt lat="45.91726" lon="6.49972">
        <ele>1898</ele>
        <time>2014-03-28T08:12:16.000Z</time>
      </trkpt>
      <trkpt lat="45.91723" lon="6.49971">
        <ele>1898.4000244141</ele>
        <time>2014-03-28T08:12:21.000Z</time>
      </trkpt>
      <trkpt lat="45.91719" lon="6.49971">
        <ele>1899.1999511719</ele>
        <time>2014-03-28T08:12:26.000Z</time>
      </trkpt>
      <trkpt lat="45.91719" lon="6.4997">
        <ele>1899</ele>
        <time>2014-03-28T08:12:30.000Z</time>
      </trkpt>
      <trkpt lat="45.91716" lon="6.4997">
        <ele>1899.5999755859</ele>
        <time>2014-03-28T08:12:34.000Z</time>
      </trkpt>
      <trkpt lat="45.91713" lon="6.49969">
        <ele>1900.1999511719</ele>
        <time>2014-03-28T08:12:38.000Z</time>
      </trkpt>
      <trkpt lat="45.91709" lon="6.49968">
        <ele>1900.8000488281</ele>
        <time>2014-03-28T08:12:43.000Z</time>
      </trkpt>
      <trkpt lat="45.91706" lon="6.49968">
        <ele>1901.1999511719</ele>
        <time>2014-03-28T08:12:48.000Z</time>
      </trkpt>
      <trkpt lat="45.91703" lon="6.49966">
        <ele>1901.5999755859</ele>
        <time>2014-03-28T08:12:53.000Z</time>
      </trkpt>
      <trkpt lat="45.91699" lon="6.49965">
        <ele>1902.1999511719</ele>
        <time>2014-03-28T08:12:59.000Z</time>
      </trkpt>
      <trkpt lat="45.91697" lon="6.49963">
        <ele>1902.4000244141</ele>
        <time>2014-03-28T08:13:05.000Z</time>
      </trkpt>
      <trkpt lat="45.91692" lon="6.49961">
        <ele>1903.1999511719</ele>
        <time>2014-03-28T08:13:14.000Z</time>
      </trkpt>
      <trkpt lat="45.91689" lon="6.4996">
        <ele>1903.5999755859</ele>
        <time>2014-03-28T08:13:18.000Z</time>
      </trkpt>
      <trkpt lat="45.91685" lon="6.49959">
        <ele>1904.4000244141</ele>
        <time>2014-03-28T08:13:24.000Z</time>
      </trkpt>
      <trkpt lat="45.91682" lon="6.49957">
        <ele>1904.8000488281</ele>
        <time>2014-03-28T08:13:29.000Z</time>
      </trkpt>
      <trkpt lat="45.91681" lon="6.49954">
        <ele>1904.8000488281</ele>
        <time>2014-03-28T08:13:35.000Z</time>
      </trkpt>
      <trkpt lat="45.91676" lon="6.49952">
        <ele>1905.4000244141</ele>
        <time>2014-03-28T08:13:41.000Z</time>
      </trkpt>
      <trkpt lat="45.91675" lon="6.49953">
        <ele>1905.8000488281</ele>
        <time>2014-03-28T08:13:45.000Z</time>
      </trkpt>
      <trkpt lat="45.91672" lon="6.49957">
        <ele>1907</ele>
        <time>2014-03-28T08:13:48.000Z</time>
      </trkpt>
      <trkpt lat="45.91671" lon="6.49962">
        <ele>1908.1999511719</ele>
        <time>2014-03-28T08:13:53.000Z</time>
      </trkpt>
      <trkpt lat="45.9167" lon="6.49967">
        <ele>1909</ele>
        <time>2014-03-28T08:13:58.000Z</time>
      </trkpt>
      <trkpt lat="45.91667" lon="6.4997">
        <ele>1909.8000488281</ele>
        <time>2014-03-28T08:14:02.000Z</time>
      </trkpt>
      <trkpt lat="45.91669" lon="6.49978">
        <ele>1910.5999755859</ele>
        <time>2014-03-28T08:14:10.000Z</time>
      </trkpt>
      <trkpt lat="45.9167" lon="6.49982">
        <ele>1910.8000488281</ele>
        <time>2014-03-28T08:14:13.000Z</time>
      </trkpt>
      <trkpt lat="45.91671" lon="6.49986">
        <ele>1911.4000244141</ele>
        <time>2014-03-28T08:14:17.000Z</time>
      </trkpt>
      <trkpt lat="45.91673" lon="6.49989">
        <ele>1911.4000244141</ele>
        <time>2014-03-28T08:14:20.000Z</time>
      </trkpt>
      <trkpt lat="45.91674" lon="6.49993">
        <ele>1911.5999755859</ele>
        <time>2014-03-28T08:14:24.000Z</time>
      </trkpt>
      <trkpt lat="45.91674" lon="6.49996">
        <ele>1912.1999511719</ele>
        <time>2014-03-28T08:14:28.000Z</time>
      </trkpt>
      <trkpt lat="45.91672" lon="6.49994">
        <ele>1912.4000244141</ele>
        <time>2014-03-28T08:14:32.000Z</time>
      </trkpt>
      <trkpt lat="45.91668" lon="6.49992">
        <ele>1912.8000488281</ele>
        <time>2014-03-28T08:14:37.000Z</time>
      </trkpt>
      <trkpt lat="45.91666" lon="6.49991">
        <ele>1913.1999511719</ele>
        <time>2014-03-28T08:14:41.000Z</time>
      </trkpt>
      <trkpt lat="45.91664" lon="6.4999">
        <ele>1914.4000244141</ele>
        <time>2014-03-28T08:14:46.000Z</time>
      </trkpt>
      <trkpt lat="45.91661" lon="6.49987">
        <ele>1916</ele>
        <time>2014-03-28T08:14:53.000Z</time>
      </trkpt>
      <trkpt lat="45.91661" lon="6.49987">
        <ele>1915.8000488281</ele>
        <time>2014-03-28T08:14:56.000Z</time>
      </trkpt>
      <trkpt lat="45.91661" lon="6.49987">
        <ele>1916</ele>
        <time>2014-03-28T08:14:57.000Z</time>
      </trkpt>
      <trkpt lat="45.91659" lon="6.49987">
        <ele>1917.4000244141</ele>
        <time>2014-03-28T08:15:01.000Z</time>
      </trkpt>
      <trkpt lat="45.91655" lon="6.49985">
        <ele>1919.5999755859</ele>
        <time>2014-03-28T08:15:15.000Z</time>
      </trkpt>
      <trkpt lat="45.91651" lon="6.49984">
        <ele>1921.8000488281</ele>
        <time>2014-03-28T08:15:21.000Z</time>
      </trkpt>
      <trkpt lat="45.91646" lon="6.49984">
        <ele>1924.5999755859</ele>
        <time>2014-03-28T08:15:26.000Z</time>
      </trkpt>
      <trkpt lat="45.91643" lon="6.49983">
        <ele>1927</ele>
        <time>2014-03-28T08:15:31.000Z</time>
      </trkpt>
      <trkpt lat="45.91641" lon="6.49983">
        <ele>1928.1999511719</ele>
        <time>2014-03-28T08:15:34.000Z</time>
      </trkpt>
      <trkpt lat="45.91639" lon="6.49983">
        <ele>1929.5999755859</ele>
        <time>2014-03-28T08:15:38.000Z</time>
      </trkpt>
      <trkpt lat="45.91634" lon="6.49982">
        <ele>1932.5999755859</ele>
        <time>2014-03-28T08:15:44.000Z</time>
      </trkpt>
      <trkpt lat="45.91632" lon="6.49981">
        <ele>1933.8000488281</ele>
        <time>2014-03-28T08:15:50.000Z</time>
      </trkpt>
      <trkpt lat="45.91631" lon="6.49981">
        <ele>1934.1999511719</ele>
        <time>2014-03-28T08:15:54.000Z</time>
      </trkpt>
      <trkpt lat="45.91632" lon="6.49983">
        <ele>1934</ele>
        <time>2014-03-28T08:15:57.000Z</time>
      </trkpt>
      <trkpt lat="45.91634" lon="6.49985">
        <ele>1933</ele>
        <time>2014-03-28T08:15:59.000Z</time>
      </trkpt>
      <trkpt lat="45.91636" lon="6.49992">
        <ele>1931.8000488281</ele>
        <time>2014-03-28T08:16:05.000Z</time>
      </trkpt>
      <trkpt lat="45.91638" lon="6.49996">
        <ele>1931</ele>
        <time>2014-03-28T08:16:09.000Z</time>
      </trkpt>
      <trkpt lat="45.91639" lon="6.49999">
        <ele>1930.5999755859</ele>
        <time>2014-03-28T08:16:13.000Z</time>
      </trkpt>
      <trkpt lat="45.9164" lon="6.50002">
        <ele>1931</ele>
        <time>2014-03-28T08:16:17.000Z</time>
      </trkpt>
      <trkpt lat="45.91642" lon="6.50006">
        <ele>1931.8000488281</ele>
        <time>2014-03-28T08:16:22.000Z</time>
      </trkpt>
      <trkpt lat="45.91642" lon="6.5001">
        <ele>1933.1999511719</ele>
        <time>2014-03-28T08:16:26.000Z</time>
      </trkpt>
      <trkpt lat="45.91643" lon="6.50015">
        <ele>1934.5999755859</ele>
        <time>2014-03-28T08:16:31.000Z</time>
      </trkpt>
      <trkpt lat="45.91645" lon="6.50019">
        <ele>1935.8000488281</ele>
        <time>2014-03-28T08:16:35.000Z</time>
      </trkpt>
      <trkpt lat="45.91646" lon="6.50024">
        <ele>1937</ele>
        <time>2014-03-28T08:16:41.000Z</time>
      </trkpt>
      <trkpt lat="45.91647" lon="6.50027">
        <ele>1938</ele>
        <time>2014-03-28T08:16:44.000Z</time>
      </trkpt>
      <trkpt lat="45.91647" lon="6.50031">
        <ele>1939.4000244141</ele>
        <time>2014-03-28T08:16:48.000Z</time>
      </trkpt>
      <trkpt lat="45.91647" lon="6.50032">
        <ele>1940</ele>
        <time>2014-03-28T08:16:52.000Z</time>
      </trkpt>
      <trkpt lat="45.91646" lon="6.50031">
        <ele>1940.1999511719</ele>
        <time>2014-03-28T08:16:56.000Z</time>
      </trkpt>
      <trkpt lat="45.91646" lon="6.5003">
        <ele>1939.8000488281</ele>
        <time>2014-03-28T08:17:01.000Z</time>
      </trkpt>
      <trkpt lat="45.91644" lon="6.50029">
        <ele>1940.5999755859</ele>
        <time>2014-03-28T08:17:06.000Z</time>
      </trkpt>
      <trkpt lat="45.9164" lon="6.50027">
        <ele>1941.5999755859</ele>
        <time>2014-03-28T08:17:10.000Z</time>
      </trkpt>
      <trkpt lat="45.91638" lon="6.50025">
        <ele>1942</ele>
        <time>2014-03-28T08:17:15.000Z</time>
      </trkpt>
      <trkpt lat="45.91634" lon="6.50023">
        <ele>1943.1999511719</ele>
        <time>2014-03-28T08:17:22.000Z</time>
      </trkpt>
      <trkpt lat="45.9163" lon="6.50021">
        <ele>1944.5999755859</ele>
        <time>2014-03-28T08:17:28.000Z</time>
      </trkpt>
      <trkpt lat="45.91626" lon="6.5002">
        <ele>1946.1999511719</ele>
        <time>2014-03-28T08:17:33.000Z</time>
      </trkpt>
      <trkpt lat="45.91624" lon="6.50019">
        <ele>1947.4000244141</ele>
        <time>2014-03-28T08:17:38.000Z</time>
      </trkpt>
      <trkpt lat="45.91621" lon="6.50018">
        <ele>1948.8000488281</ele>
        <time>2014-03-28T08:17:43.000Z</time>
      </trkpt>
      <trkpt lat="45.91618" lon="6.50016">
        <ele>1949.8000488281</ele>
        <time>2014-03-28T08:17:47.000Z</time>
      </trkpt>
      <trkpt lat="45.91614" lon="6.50014">
        <ele>1950.8000488281</ele>
        <time>2014-03-28T08:17:52.000Z</time>
      </trkpt>
      <trkpt lat="45.91611" lon="6.50012">
        <ele>1951.8000488281</ele>
        <time>2014-03-28T08:17:56.000Z</time>
      </trkpt>
      <trkpt lat="45.91608" lon="6.5001">
        <ele>1952.5999755859</ele>
        <time>2014-03-28T08:18:01.000Z</time>
      </trkpt>
      <trkpt lat="45.91606" lon="6.50008">
        <ele>1953.5999755859</ele>
        <time>2014-03-28T08:18:07.000Z</time>
      </trkpt>
      <trkpt lat="45.91603" lon="6.50005">
        <ele>1953.8000488281</ele>
        <time>2014-03-28T08:18:12.000Z</time>
      </trkpt>
      <trkpt lat="45.916" lon="6.5">
        <ele>1954</ele>
        <time>2014-03-28T08:18:18.000Z</time>
      </trkpt>
      <trkpt lat="45.91599" lon="6.49994">
        <ele>1954.8000488281</ele>
        <time>2014-03-28T08:18:24.000Z</time>
      </trkpt>
      <trkpt lat="45.91598" lon="6.49989">
        <ele>1955.5999755859</ele>
        <time>2014-03-28T08:18:28.000Z</time>
      </trkpt>
      <trkpt lat="45.91597" lon="6.49986">
        <ele>1956.4000244141</ele>
        <time>2014-03-28T08:18:32.000Z</time>
      </trkpt>
      <trkpt lat="45.91598" lon="6.49983">
        <ele>1955.5999755859</ele>
        <time>2014-03-28T08:18:34.000Z</time>
      </trkpt>
      <trkpt lat="45.91596" lon="6.4998">
        <ele>1957</ele>
        <time>2014-03-28T08:18:38.000Z</time>
      </trkpt>
      <trkpt lat="45.91594" lon="6.49978">
        <ele>1958.1999511719</ele>
        <time>2014-03-28T08:18:42.000Z</time>
      </trkpt>
      <trkpt lat="45.91591" lon="6.49975">
        <ele>1960</ele>
        <time>2014-03-28T08:18:48.000Z</time>
      </trkpt>
      <trkpt lat="45.91586" lon="6.49973">
        <ele>1963.5999755859</ele>
        <time>2014-03-28T08:18:57.000Z</time>
      </trkpt>
      <trkpt lat="45.91585" lon="6.49977">
        <ele>1964.1999511719</ele>
        <time>2014-03-28T08:19:04.000Z</time>
      </trkpt>
      <trkpt lat="45.91584" lon="6.4998">
        <ele>1964.8000488281</ele>
        <time>2014-03-28T08:19:08.000Z</time>
      </trkpt>
      <trkpt lat="45.9158" lon="6.49986">
        <ele>1966.1999511719</ele>
        <time>2014-03-28T08:19:13.000Z</time>
      </trkpt>
      <trkpt lat="45.91579" lon="6.49989">
        <ele>1966.4000244141</ele>
        <time>2014-03-28T08:19:17.000Z</time>
      </trkpt>
      <trkpt lat="45.91579" lon="6.49992">
        <ele>1966.5999755859</ele>
        <time>2014-03-28T08:19:20.000Z</time>
      </trkpt>
      <trkpt lat="45.91578" lon="6.49996">
        <ele>1966.4000244141</ele>
        <time>2014-03-28T08:19:25.000Z</time>
      </trkpt>
      <trkpt lat="45.91576" lon="6.50001">
        <ele>1967.5999755859</ele>
        <time>2014-03-28T08:19:29.000Z</time>
      </trkpt>
      <trkpt lat="45.91574" lon="6.50005">
        <ele>1969.4000244141</ele>
        <time>2014-03-28T08:19:33.000Z</time>
      </trkpt>
      <trkpt lat="45.91572" lon="6.50007">
        <ele>1971.1999511719</ele>
        <time>2014-03-28T08:19:36.000Z</time>
      </trkpt>
      <trkpt lat="45.91571" lon="6.50012">
        <ele>1973</ele>
        <time>2014-03-28T08:19:41.000Z</time>
      </trkpt>
      <trkpt lat="45.9157" lon="6.50016">
        <ele>1974.4000244141</ele>
        <time>2014-03-28T08:19:45.000Z</time>
      </trkpt>
      <trkpt lat="45.9157" lon="6.50022">
        <ele>1976</ele>
        <time>2014-03-28T08:19:50.000Z</time>
      </trkpt>
      <trkpt lat="45.91571" lon="6.50025">
        <ele>1976.5999755859</ele>
        <time>2014-03-28T08:19:54.000Z</time>
      </trkpt>
      <trkpt lat="45.91572" lon="6.50029">
        <ele>1977.4000244141</ele>
        <time>2014-03-28T08:19:58.000Z</time>
      </trkpt>
      <trkpt lat="45.91573" lon="6.50032">
        <ele>1978</ele>
        <time>2014-03-28T08:20:02.000Z</time>
      </trkpt>
      <trkpt lat="45.91573" lon="6.50034">
        <ele>1978.5999755859</ele>
        <time>2014-03-28T08:20:06.000Z</time>
      </trkpt>
      <trkpt lat="45.91571" lon="6.50034">
        <ele>1979.4000244141</ele>
        <time>2014-03-28T08:20:12.000Z</time>
      </trkpt>
      <trkpt lat="45.91571" lon="6.50034">
        <ele>1979.5999755859</ele>
        <time>2014-03-28T08:20:19.000Z</time>
      </trkpt>
      <trkpt lat="45.91568" lon="6.50034">
        <ele>1980.8000488281</ele>
        <time>2014-03-28T08:20:23.000Z</time>
      </trkpt>
      <trkpt lat="45.91567" lon="6.50035">
        <ele>1981</ele>
        <time>2014-03-28T08:20:26.000Z</time>
      </trkpt>
      <trkpt lat="45.91566" lon="6.50035">
        <ele>1981.5999755859</ele>
        <time>2014-03-28T08:20:29.000Z</time>
      </trkpt>
      <trkpt lat="45.91563" lon="6.50035">
        <ele>1982.8000488281</ele>
        <time>2014-03-28T08:20:33.000Z</time>
      </trkpt>
      <trkpt lat="45.91561" lon="6.50036">
        <ele>1983.8000488281</ele>
        <time>2014-03-28T08:20:38.000Z</time>
      </trkpt>
      <trkpt lat="45.91558" lon="6.50036">
        <ele>1984.8000488281</ele>
        <time>2014-03-28T08:20:43.000Z</time>
      </trkpt>
      <trkpt lat="45.91555" lon="6.50036">
        <ele>1986</ele>
        <time>2014-03-28T08:20:48.000Z</time>
      </trkpt>
      <trkpt lat="45.91552" lon="6.50036">
        <ele>1987</ele>
        <time>2014-03-28T08:20:53.000Z</time>
      </trkpt>
      <trkpt lat="45.9155" lon="6.50036">
        <ele>1988</ele>
        <time>2014-03-28T08:20:59.000Z</time>
      </trkpt>
      <trkpt lat="45.91547" lon="6.50036">
        <ele>1988.8000488281</ele>
        <time>2014-03-28T08:21:04.000Z</time>
      </trkpt>
      <trkpt lat="45.91543" lon="6.50034">
        <ele>1989.8000488281</ele>
        <time>2014-03-28T08:21:13.000Z</time>
      </trkpt>
      <trkpt lat="45.91545" lon="6.50034">
        <ele>1989</ele>
        <time>2014-03-28T08:21:24.000Z</time>
      </trkpt>
      <trkpt lat="45.91545" lon="6.50034">
        <ele>1989</ele>
        <time>2014-03-28T08:21:36.000Z</time>
      </trkpt>
      <trkpt lat="45.91544" lon="6.50034">
        <ele>1989.4000244141</ele>
        <time>2014-03-28T08:21:59.000Z</time>
      </trkpt>
      <trkpt lat="45.91541" lon="6.50036">
        <ele>1991.4000244141</ele>
        <time>2014-03-28T08:22:16.000Z</time>
      </trkpt>
      <trkpt lat="45.91538" lon="6.50038">
        <ele>1992.8000488281</ele>
        <time>2014-03-28T08:22:19.000Z</time>
      </trkpt>
      <trkpt lat="45.91535" lon="6.5004">
        <ele>1994.4000244141</ele>
        <time>2014-03-28T08:22:24.000Z</time>
      </trkpt>
      <trkpt lat="45.91531" lon="6.50042">
        <ele>1996</ele>
        <time>2014-03-28T08:22:30.000Z</time>
      </trkpt>
      <trkpt lat="45.91529" lon="6.50044">
        <ele>1997.5999755859</ele>
        <time>2014-03-28T08:22:35.000Z</time>
      </trkpt>
      <trkpt lat="45.91525" lon="6.50048">
        <ele>1999.5999755859</ele>
        <time>2014-03-28T08:22:42.000Z</time>
      </trkpt>
      <trkpt lat="45.91523" lon="6.50052">
        <ele>2001</ele>
        <time>2014-03-28T08:22:46.000Z</time>
      </trkpt>
      <trkpt lat="45.9152" lon="6.50057">
        <ele>2003</ele>
        <time>2014-03-28T08:22:52.000Z</time>
      </trkpt>
      <trkpt lat="45.91518" lon="6.50061">
        <ele>2004.4000244141</ele>
        <time>2014-03-28T08:22:56.000Z</time>
      </trkpt>
      <trkpt lat="45.91516" lon="6.50065">
        <ele>2006.1999511719</ele>
        <time>2014-03-28T08:23:01.000Z</time>
      </trkpt>
      <trkpt lat="45.91514" lon="6.5007">
        <ele>2007.5999755859</ele>
        <time>2014-03-28T08:23:06.000Z</time>
      </trkpt>
      <trkpt lat="45.91512" lon="6.50075">
        <ele>2009</ele>
        <time>2014-03-28T08:23:10.000Z</time>
      </trkpt>
      <trkpt lat="45.9151" lon="6.50081">
        <ele>2010.8000488281</ele>
        <time>2014-03-28T08:23:17.000Z</time>
      </trkpt>
      <trkpt lat="45.91508" lon="6.50084">
        <ele>2011.8000488281</ele>
        <time>2014-03-28T08:23:21.000Z</time>
      </trkpt>
      <trkpt lat="45.91505" lon="6.50088">
        <ele>2013.1999511719</ele>
        <time>2014-03-28T08:23:26.000Z</time>
      </trkpt>
      <trkpt lat="45.91502" lon="6.50091">
        <ele>2014.5999755859</ele>
        <time>2014-03-28T08:23:31.000Z</time>
      </trkpt>
      <trkpt lat="45.915" lon="6.50093">
        <ele>2015.4000244141</ele>
        <time>2014-03-28T08:23:36.000Z</time>
      </trkpt>
      <trkpt lat="45.91498" lon="6.50096">
        <ele>2016.4000244141</ele>
        <time>2014-03-28T08:23:40.000Z</time>
      </trkpt>
      <trkpt lat="45.91498" lon="6.50099">
        <ele>2017</ele>
        <time>2014-03-28T08:23:44.000Z</time>
      </trkpt>
      <trkpt lat="45.91499" lon="6.50104">
        <ele>2017.1999511719</ele>
        <time>2014-03-28T08:23:48.000Z</time>
      </trkpt>
      <trkpt lat="45.91499" lon="6.50108">
        <ele>2017.5999755859</ele>
        <time>2014-03-28T08:23:52.000Z</time>
      </trkpt>
      <trkpt lat="45.91501" lon="6.50113">
        <ele>2017.8000488281</ele>
        <time>2014-03-28T08:23:57.000Z</time>
      </trkpt>
      <trkpt lat="45.91504" lon="6.50119">
        <ele>2018.1999511719</ele>
        <time>2014-03-28T08:24:04.000Z</time>
      </trkpt>
      <trkpt lat="45.91506" lon="6.50123">
        <ele>2018.4000244141</ele>
        <time>2014-03-28T08:24:09.000Z</time>
      </trkpt>
      <trkpt lat="45.91511" lon="6.50126">
        <ele>2018.1999511719</ele>
        <time>2014-03-28T08:24:16.000Z</time>
      </trkpt>
      <trkpt lat="45.91516" lon="6.50129">
        <ele>2018</ele>
        <time>2014-03-28T08:24:22.000Z</time>
      </trkpt>
      <trkpt lat="45.91518" lon="6.50134">
        <ele>2018.5999755859</ele>
        <time>2014-03-28T08:24:27.000Z</time>
      </trkpt>
      <trkpt lat="45.9152" lon="6.50138">
        <ele>2019.4000244141</ele>
        <time>2014-03-28T08:24:31.000Z</time>
      </trkpt>
      <trkpt lat="45.91521" lon="6.50142">
        <ele>2020</ele>
        <time>2014-03-28T08:24:35.000Z</time>
      </trkpt>
      <trkpt lat="45.91523" lon="6.50145">
        <ele>2020.5999755859</ele>
        <time>2014-03-28T08:24:39.000Z</time>
      </trkpt>
      <trkpt lat="45.91524" lon="6.5015">
        <ele>2021.5999755859</ele>
        <time>2014-03-28T08:24:44.000Z</time>
      </trkpt>
      <trkpt lat="45.91525" lon="6.50155">
        <ele>2022.5999755859</ele>
        <time>2014-03-28T08:24:49.000Z</time>
      </trkpt>
      <trkpt lat="45.91527" lon="6.50157">
        <ele>2023.1999511719</ele>
        <time>2014-03-28T08:24:52.000Z</time>
      </trkpt>
      <trkpt lat="45.91529" lon="6.50161">
        <ele>2024</ele>
        <time>2014-03-28T08:24:57.000Z</time>
      </trkpt>
      <trkpt lat="45.91531" lon="6.50166">
        <ele>2025.1999511719</ele>
        <time>2014-03-28T08:25:03.000Z</time>
      </trkpt>
      <trkpt lat="45.9153" lon="6.50169">
        <ele>2026</ele>
        <time>2014-03-28T08:25:07.000Z</time>
      </trkpt>
      <trkpt lat="45.91529" lon="6.50171">
        <ele>2026.5999755859</ele>
        <time>2014-03-28T08:25:11.000Z</time>
      </trkpt>
      <trkpt lat="45.91527" lon="6.50174">
        <ele>2027.4000244141</ele>
        <time>2014-03-28T08:25:15.000Z</time>
      </trkpt>
      <trkpt lat="45.91525" lon="6.50179">
        <ele>2028.5999755859</ele>
        <time>2014-03-28T08:25:20.000Z</time>
      </trkpt>
      <trkpt lat="45.91524" lon="6.50182">
        <ele>2029.4000244141</ele>
        <time>2014-03-28T08:25:25.000Z</time>
      </trkpt>
      <trkpt lat="45.91522" lon="6.50185">
        <ele>2030.1999511719</ele>
        <time>2014-03-28T08:25:29.000Z</time>
      </trkpt>
      <trkpt lat="45.9152" lon="6.50189">
        <ele>2031.1999511719</ele>
        <time>2014-03-28T08:25:34.000Z</time>
      </trkpt>
      <trkpt lat="45.91518" lon="6.50193">
        <ele>2032.4000244141</ele>
        <time>2014-03-28T08:25:38.000Z</time>
      </trkpt>
      <trkpt lat="45.91518" lon="6.50196">
        <ele>2033</ele>
        <time>2014-03-28T08:25:41.000Z</time>
      </trkpt>
      <trkpt lat="45.91515" lon="6.50199">
        <ele>2034</ele>
        <time>2014-03-28T08:25:45.000Z</time>
      </trkpt>
      <trkpt lat="45.91513" lon="6.50202">
        <ele>2034.8000488281</ele>
        <time>2014-03-28T08:25:49.000Z</time>
      </trkpt>
      <trkpt lat="45.91511" lon="6.50205">
        <ele>2035.8000488281</ele>
        <time>2014-03-28T08:25:53.000Z</time>
      </trkpt>
      <trkpt lat="45.91507" lon="6.50209">
        <ele>2036.5999755859</ele>
        <time>2014-03-28T08:25:57.000Z</time>
      </trkpt>
      <trkpt lat="45.91506" lon="6.50212">
        <ele>2037.4000244141</ele>
        <time>2014-03-28T08:26:01.000Z</time>
      </trkpt>
      <trkpt lat="45.91504" lon="6.50214">
        <ele>2038</ele>
        <time>2014-03-28T08:26:04.000Z</time>
      </trkpt>
      <trkpt lat="45.91508" lon="6.50219">
        <ele>2039.4000244141</ele>
        <time>2014-03-28T08:26:10.000Z</time>
      </trkpt>
      <trkpt lat="45.91512" lon="6.50224">
        <ele>2040.8000488281</ele>
        <time>2014-03-28T08:26:16.000Z</time>
      </trkpt>
      <trkpt lat="45.91515" lon="6.50228">
        <ele>2042</ele>
        <time>2014-03-28T08:26:22.000Z</time>
      </trkpt>
      <trkpt lat="45.91519" lon="6.50232">
        <ele>2043</ele>
        <time>2014-03-28T08:26:27.000Z</time>
      </trkpt>
      <trkpt lat="45.91522" lon="6.50235">
        <ele>2043.8000488281</ele>
        <time>2014-03-28T08:26:32.000Z</time>
      </trkpt>
      <trkpt lat="45.91525" lon="6.50239">
        <ele>2044.5999755859</ele>
        <time>2014-03-28T08:26:37.000Z</time>
      </trkpt>
      <trkpt lat="45.91529" lon="6.50242">
        <ele>2045.4000244141</ele>
        <time>2014-03-28T08:26:43.000Z</time>
      </trkpt>
      <trkpt lat="45.91532" lon="6.50243">
        <ele>2045.8000488281</ele>
        <time>2014-03-28T08:26:46.000Z</time>
      </trkpt>
      <trkpt lat="45.91534" lon="6.50245">
        <ele>2046.4000244141</ele>
        <time>2014-03-28T08:26:49.000Z</time>
      </trkpt>
      <trkpt lat="45.91538" lon="6.5025">
        <ele>2047.4000244141</ele>
        <time>2014-03-28T08:26:55.000Z</time>
      </trkpt>
      <trkpt lat="45.9154" lon="6.50255">
        <ele>2048.3999023438</ele>
        <time>2014-03-28T08:27:01.000Z</time>
      </trkpt>
      <trkpt lat="45.91542" lon="6.50259">
        <ele>2049.1999511719</ele>
        <time>2014-03-28T08:27:06.000Z</time>
      </trkpt>
      <trkpt lat="45.91544" lon="6.50263">
        <ele>2049.8000488281</ele>
        <time>2014-03-28T08:27:10.000Z</time>
      </trkpt>
      <trkpt lat="45.91546" lon="6.50268">
        <ele>2050.6000976562</ele>
        <time>2014-03-28T08:27:15.000Z</time>
      </trkpt>
      <trkpt lat="45.91548" lon="6.50271">
        <ele>2051.1999511719</ele>
        <time>2014-03-28T08:27:20.000Z</time>
      </trkpt>
      <trkpt lat="45.9155" lon="6.50275">
        <ele>2051.8000488281</ele>
        <time>2014-03-28T08:27:24.000Z</time>
      </trkpt>
      <trkpt lat="45.91549" lon="6.50279">
        <ele>2052.6000976562</ele>
        <time>2014-03-28T08:27:29.000Z</time>
      </trkpt>
      <trkpt lat="45.91546" lon="6.50282">
        <ele>2053.1999511719</ele>
        <time>2014-03-28T08:27:33.000Z</time>
      </trkpt>
      <trkpt lat="45.91543" lon="6.50285">
        <ele>2053.8000488281</ele>
        <time>2014-03-28T08:27:38.000Z</time>
      </trkpt>
      <trkpt lat="45.9154" lon="6.50288">
        <ele>2054.3999023438</ele>
        <time>2014-03-28T08:27:43.000Z</time>
      </trkpt>
      <trkpt lat="45.91536" lon="6.50291">
        <ele>2055</ele>
        <time>2014-03-28T08:27:47.000Z</time>
      </trkpt>
      <trkpt lat="45.91533" lon="6.50293">
        <ele>2055.6000976562</ele>
        <time>2014-03-28T08:27:51.000Z</time>
      </trkpt>
      <trkpt lat="45.9153" lon="6.50295">
        <ele>2055.8000488281</ele>
        <time>2014-03-28T08:27:55.000Z</time>
      </trkpt>
      <trkpt lat="45.91529" lon="6.50298">
        <ele>2056.6000976562</ele>
        <time>2014-03-28T08:27:59.000Z</time>
      </trkpt>
      <trkpt lat="45.91528" lon="6.50302">
        <ele>2057.1999511719</ele>
        <time>2014-03-28T08:28:02.000Z</time>
      </trkpt>
      <trkpt lat="45.91526" lon="6.50305">
        <ele>2057.8000488281</ele>
        <time>2014-03-28T08:28:06.000Z</time>
      </trkpt>
      <trkpt lat="45.91524" lon="6.50311">
        <ele>2059</ele>
        <time>2014-03-28T08:28:13.000Z</time>
      </trkpt>
      <trkpt lat="45.91521" lon="6.50315">
        <ele>2059.8000488281</ele>
        <time>2014-03-28T08:28:18.000Z</time>
      </trkpt>
      <trkpt lat="45.91519" lon="6.5032">
        <ele>2061</ele>
        <time>2014-03-28T08:28:25.000Z</time>
      </trkpt>
      <trkpt lat="45.91516" lon="6.50324">
        <ele>2061.8000488281</ele>
        <time>2014-03-28T08:28:29.000Z</time>
      </trkpt>
      <trkpt lat="45.91513" lon="6.50329">
        <ele>2062.8000488281</ele>
        <time>2014-03-28T08:28:35.000Z</time>
      </trkpt>
      <trkpt lat="45.91512" lon="6.50333">
        <ele>2063.3999023438</ele>
        <time>2014-03-28T08:28:39.000Z</time>
      </trkpt>
      <trkpt lat="45.91514" lon="6.50335">
        <ele>2064</ele>
        <time>2014-03-28T08:28:43.000Z</time>
      </trkpt>
      <trkpt lat="45.91518" lon="6.50338">
        <ele>2064.3999023438</ele>
        <time>2014-03-28T08:28:47.000Z</time>
      </trkpt>
      <trkpt lat="45.91523" lon="6.50341">
        <ele>2065.1999511719</ele>
        <time>2014-03-28T08:28:53.000Z</time>
      </trkpt>
      <trkpt lat="45.91526" lon="6.50345">
        <ele>2066</ele>
        <time>2014-03-28T08:28:57.000Z</time>
      </trkpt>
      <trkpt lat="45.91528" lon="6.50348">
        <ele>2066.8000488281</ele>
        <time>2014-03-28T08:29:02.000Z</time>
      </trkpt>
      <trkpt lat="45.9153" lon="6.5035">
        <ele>2067.3999023438</ele>
        <time>2014-03-28T08:29:06.000Z</time>
      </trkpt>
      <trkpt lat="45.91532" lon="6.50354">
        <ele>2068</ele>
        <time>2014-03-28T08:29:10.000Z</time>
      </trkpt>
      <trkpt lat="45.91535" lon="6.50356">
        <ele>2068.6000976562</ele>
        <time>2014-03-28T08:29:13.000Z</time>
      </trkpt>
      <trkpt lat="45.91536" lon="6.50358">
        <ele>2069</ele>
        <time>2014-03-28T08:29:16.000Z</time>
      </trkpt>
      <trkpt lat="45.91539" lon="6.50361">
        <ele>2069.6000976562</ele>
        <time>2014-03-28T08:29:20.000Z</time>
      </trkpt>
      <trkpt lat="45.91542" lon="6.50364">
        <ele>2070.3999023438</ele>
        <time>2014-03-28T08:29:25.000Z</time>
      </trkpt>
      <trkpt lat="45.91544" lon="6.50367">
        <ele>2070.8000488281</ele>
        <time>2014-03-28T08:29:28.000Z</time>
      </trkpt>
      <trkpt lat="45.91546" lon="6.5037">
        <ele>2071.6000976562</ele>
        <time>2014-03-28T08:29:32.000Z</time>
      </trkpt>
      <trkpt lat="45.91547" lon="6.50373">
        <ele>2072.1999511719</ele>
        <time>2014-03-28T08:29:36.000Z</time>
      </trkpt>
      <trkpt lat="45.91549" lon="6.50379">
        <ele>2073.6000976562</ele>
        <time>2014-03-28T08:29:42.000Z</time>
      </trkpt>
      <trkpt lat="45.91548" lon="6.50384">
        <ele>2075</ele>
        <time>2014-03-28T08:29:48.000Z</time>
      </trkpt>
      <trkpt lat="45.91544" lon="6.50387">
        <ele>2076</ele>
        <time>2014-03-28T08:29:54.000Z</time>
      </trkpt>
      <trkpt lat="45.91541" lon="6.50388">
        <ele>2076.3999023438</ele>
        <time>2014-03-28T08:30:01.000Z</time>
      </trkpt>
      <trkpt lat="45.91538" lon="6.5039">
        <ele>2077</ele>
        <time>2014-03-28T08:30:05.000Z</time>
      </trkpt>
      <trkpt lat="45.91537" lon="6.50391">
        <ele>2077.3999023438</ele>
        <time>2014-03-28T08:30:10.000Z</time>
      </trkpt>
      <trkpt lat="45.91539" lon="6.50397">
        <ele>2078.6000976562</ele>
        <time>2014-03-28T08:30:16.000Z</time>
      </trkpt>
      <trkpt lat="45.9154" lon="6.50403">
        <ele>2080.1999511719</ele>
        <time>2014-03-28T08:30:23.000Z</time>
      </trkpt>
      <trkpt lat="45.91542" lon="6.50406">
        <ele>2081</ele>
        <time>2014-03-28T08:30:27.000Z</time>
      </trkpt>
      <trkpt lat="45.91543" lon="6.50409">
        <ele>2081.3999023438</ele>
        <time>2014-03-28T08:30:32.000Z</time>
      </trkpt>
      <trkpt lat="45.91545" lon="6.50413">
        <ele>2082.1999511719</ele>
        <time>2014-03-28T08:30:36.000Z</time>
      </trkpt>
      <trkpt lat="45.91544" lon="6.50416">
        <ele>2083</ele>
        <time>2014-03-28T08:30:41.000Z</time>
      </trkpt>
      <trkpt lat="45.91542" lon="6.50416">
        <ele>2083.1999511719</ele>
        <time>2014-03-28T08:30:49.000Z</time>
      </trkpt>
      <trkpt lat="45.91539" lon="6.50415">
        <ele>2083.3999023438</ele>
        <time>2014-03-28T08:30:55.000Z</time>
      </trkpt>
      <trkpt lat="45.91536" lon="6.50415">
        <ele>2083.3999023438</ele>
        <time>2014-03-28T08:30:59.000Z</time>
      </trkpt>
      <trkpt lat="45.91533" lon="6.50413">
        <ele>2083.3999023438</ele>
        <time>2014-03-28T08:31:07.000Z</time>
      </trkpt>
      <trkpt lat="45.91534" lon="6.50414">
        <ele>2083.6000976562</ele>
        <time>2014-03-28T08:31:10.000Z</time>
      </trkpt>
      <trkpt lat="45.91537" lon="6.50418">
        <ele>2084.1999511719</ele>
        <time>2014-03-28T08:31:14.000Z</time>
      </trkpt>
      <trkpt lat="45.91537" lon="6.50419">
        <ele>2084.8000488281</ele>
        <time>2014-03-28T08:31:17.000Z</time>
      </trkpt>
      <trkpt lat="45.91538" lon="6.50423">
        <ele>2085.8000488281</ele>
        <time>2014-03-28T08:31:21.000Z</time>
      </trkpt>
      <trkpt lat="45.91541" lon="6.50429">
        <ele>2087.3999023438</ele>
        <time>2014-03-28T08:31:29.000Z</time>
      </trkpt>
      <trkpt lat="45.91542" lon="6.50432">
        <ele>2088</ele>
        <time>2014-03-28T08:31:33.000Z</time>
      </trkpt>
      <trkpt lat="45.9154" lon="6.50433">
        <ele>2088.8000488281</ele>
        <time>2014-03-28T08:31:41.000Z</time>
      </trkpt>
      <trkpt lat="45.91536" lon="6.50432">
        <ele>2089</ele>
        <time>2014-03-28T08:31:46.000Z</time>
      </trkpt>
      <trkpt lat="45.91532" lon="6.50432">
        <ele>2089.3999023438</ele>
        <time>2014-03-28T08:31:52.000Z</time>
      </trkpt>
      <trkpt lat="45.91529" lon="6.5043">
        <ele>2089</ele>
        <time>2014-03-28T08:31:55.000Z</time>
      </trkpt>
      <trkpt lat="45.91527" lon="6.50428">
        <ele>2088.8000488281</ele>
        <time>2014-03-28T08:31:59.000Z</time>
      </trkpt>
      <trkpt lat="45.91525" lon="6.50429">
        <ele>2089.1999511719</ele>
        <time>2014-03-28T08:32:05.000Z</time>
      </trkpt>
      <trkpt lat="45.91526" lon="6.50432">
        <ele>2090.1999511719</ele>
        <time>2014-03-28T08:32:10.000Z</time>
      </trkpt>
      <trkpt lat="45.91528" lon="6.50437">
        <ele>2091.8000488281</ele>
        <time>2014-03-28T08:32:16.000Z</time>
      </trkpt>
      <trkpt lat="45.91531" lon="6.50442">
        <ele>2093</ele>
        <time>2014-03-28T08:32:22.000Z</time>
      </trkpt>
      <trkpt lat="45.91532" lon="6.50445">
        <ele>2094</ele>
        <time>2014-03-28T08:32:26.000Z</time>
      </trkpt>
      <trkpt lat="45.91534" lon="6.5045">
        <ele>2095.1999511719</ele>
        <time>2014-03-28T08:32:32.000Z</time>
      </trkpt>
      <trkpt lat="45.91533" lon="6.50452">
        <ele>2096</ele>
        <time>2014-03-28T08:32:36.000Z</time>
      </trkpt>
      <trkpt lat="45.9153" lon="6.5045">
        <ele>2096</ele>
        <time>2014-03-28T08:32:40.000Z</time>
      </trkpt>
      <trkpt lat="45.91527" lon="6.50452">
        <ele>2097.1999511719</ele>
        <time>2014-03-28T08:32:45.000Z</time>
      </trkpt>
      <trkpt lat="45.91524" lon="6.50453">
        <ele>2097.8000488281</ele>
        <time>2014-03-28T08:32:49.000Z</time>
      </trkpt>
      <trkpt lat="45.91521" lon="6.50451">
        <ele>2097.8000488281</ele>
        <time>2014-03-28T08:32:55.000Z</time>
      </trkpt>
      <trkpt lat="45.91521" lon="6.50451">
        <ele>2098</ele>
        <time>2014-03-28T08:32:59.000Z</time>
      </trkpt>
      <trkpt lat="45.91522" lon="6.50454">
        <ele>2098.6000976562</ele>
        <time>2014-03-28T08:33:04.000Z</time>
      </trkpt>
      <trkpt lat="45.91523" lon="6.50459">
        <ele>2100.1999511719</ele>
        <time>2014-03-28T08:33:09.000Z</time>
      </trkpt>
      <trkpt lat="45.91525" lon="6.50463">
        <ele>2101.6000976562</ele>
        <time>2014-03-28T08:33:14.000Z</time>
      </trkpt>
      <trkpt lat="45.91527" lon="6.5047">
        <ele>2103.6000976562</ele>
        <time>2014-03-28T08:33:20.000Z</time>
      </trkpt>
      <trkpt lat="45.91527" lon="6.50475">
        <ele>2105.1999511719</ele>
        <time>2014-03-28T08:33:25.000Z</time>
      </trkpt>
      <trkpt lat="45.91528" lon="6.50478">
        <ele>2105.8000488281</ele>
        <time>2014-03-28T08:33:29.000Z</time>
      </trkpt>
      <trkpt lat="45.91528" lon="6.50482">
        <ele>2107.1999511719</ele>
        <time>2014-03-28T08:33:34.000Z</time>
      </trkpt>
      <trkpt lat="45.91528" lon="6.50484">
        <ele>2108</ele>
        <time>2014-03-28T08:33:38.000Z</time>
      </trkpt>
      <trkpt lat="45.9153" lon="6.5049">
        <ele>2109.3999023438</ele>
        <time>2014-03-28T08:33:44.000Z</time>
      </trkpt>
      <trkpt lat="45.9153" lon="6.50493">
        <ele>2110.3999023438</ele>
        <time>2014-03-28T08:33:48.000Z</time>
      </trkpt>
      <trkpt lat="45.9153" lon="6.50497">
        <ele>2111.8000488281</ele>
        <time>2014-03-28T08:33:54.000Z</time>
      </trkpt>
      <trkpt lat="45.9153" lon="6.505">
        <ele>2112.8000488281</ele>
        <time>2014-03-28T08:33:58.000Z</time>
      </trkpt>
      <trkpt lat="45.91529" lon="6.50506">
        <ele>2114.6000976562</ele>
        <time>2014-03-28T08:34:04.000Z</time>
      </trkpt>
      <trkpt lat="45.91528" lon="6.5051">
        <ele>2116</ele>
        <time>2014-03-28T08:34:10.000Z</time>
      </trkpt>
      <trkpt lat="45.91527" lon="6.50514">
        <ele>2117.3999023438</ele>
        <time>2014-03-28T08:34:14.000Z</time>
      </trkpt>
      <trkpt lat="45.91525" lon="6.50518">
        <ele>2118.8000488281</ele>
        <time>2014-03-28T08:34:20.000Z</time>
      </trkpt>
      <trkpt lat="45.91524" lon="6.50519">
        <ele>2119.3999023438</ele>
        <time>2014-03-28T08:34:28.000Z</time>
      </trkpt>
      <trkpt lat="45.91521" lon="6.50525">
        <ele>2121.8000488281</ele>
        <time>2014-03-28T08:34:36.000Z</time>
      </trkpt>
      <trkpt lat="45.9152" lon="6.50527">
        <ele>2122.8000488281</ele>
        <time>2014-03-28T08:34:41.000Z</time>
      </trkpt>
      <trkpt lat="45.91518" lon="6.50531">
        <ele>2124.1999511719</ele>
        <time>2014-03-28T08:34:46.000Z</time>
      </trkpt>
      <trkpt lat="45.91515" lon="6.50533">
        <ele>2125.8000488281</ele>
        <time>2014-03-28T08:34:52.000Z</time>
      </trkpt>
      <trkpt lat="45.9151" lon="6.50531">
        <ele>2126.6000976562</ele>
        <time>2014-03-28T08:34:57.000Z</time>
      </trkpt>
      <trkpt lat="45.91507" lon="6.50529">
        <ele>2127</ele>
        <time>2014-03-28T08:35:02.000Z</time>
      </trkpt>
      <trkpt lat="45.91504" lon="6.50525">
        <ele>2127</ele>
        <time>2014-03-28T08:35:08.000Z</time>
      </trkpt>
      <trkpt lat="45.91501" lon="6.50523">
        <ele>2127.1999511719</ele>
        <time>2014-03-28T08:35:14.000Z</time>
      </trkpt>
      <trkpt lat="45.915" lon="6.50525">
        <ele>2128</ele>
        <time>2014-03-28T08:35:19.000Z</time>
      </trkpt>
      <trkpt lat="45.91499" lon="6.50528">
        <ele>2129.1999511719</ele>
        <time>2014-03-28T08:35:22.000Z</time>
      </trkpt>
      <trkpt lat="45.91498" lon="6.50533">
        <ele>2130.6000976562</ele>
        <time>2014-03-28T08:35:28.000Z</time>
      </trkpt>
      <trkpt lat="45.91498" lon="6.50537">
        <ele>2131.6000976562</ele>
        <time>2014-03-28T08:35:32.000Z</time>
      </trkpt>
      <trkpt lat="45.91497" lon="6.5054">
        <ele>2132.6000976562</ele>
        <time>2014-03-28T08:35:36.000Z</time>
      </trkpt>
      <trkpt lat="45.91497" lon="6.50544">
        <ele>2133.6000976562</ele>
        <time>2014-03-28T08:35:40.000Z</time>
      </trkpt>
      <trkpt lat="45.91497" lon="6.50549">
        <ele>2134.6000976562</ele>
        <time>2014-03-28T08:35:45.000Z</time>
      </trkpt>
      <trkpt lat="45.91497" lon="6.50552">
        <ele>2135.6000976562</ele>
        <time>2014-03-28T08:35:49.000Z</time>
      </trkpt>
      <trkpt lat="45.91497" lon="6.50555">
        <ele>2136.3999023438</ele>
        <time>2014-03-28T08:35:53.000Z</time>
      </trkpt>
      <trkpt lat="45.91496" lon="6.5056">
        <ele>2137.8000488281</ele>
        <time>2014-03-28T08:36:00.000Z</time>
      </trkpt>
      <trkpt lat="45.91495" lon="6.50564">
        <ele>2139</ele>
        <time>2014-03-28T08:36:04.000Z</time>
      </trkpt>
      <trkpt lat="45.91495" lon="6.50569">
        <ele>2140.1999511719</ele>
        <time>2014-03-28T08:36:09.000Z</time>
      </trkpt>
      <trkpt lat="45.91495" lon="6.50574">
        <ele>2141.8000488281</ele>
        <time>2014-03-28T08:36:15.000Z</time>
      </trkpt>
      <trkpt lat="45.91494" lon="6.50577">
        <ele>2142.8000488281</ele>
        <time>2014-03-28T08:36:19.000Z</time>
      </trkpt>
      <trkpt lat="45.91492" lon="6.50583">
        <ele>2144.8000488281</ele>
        <time>2014-03-28T08:36:28.000Z</time>
      </trkpt>
      <trkpt lat="45.91492" lon="6.50585">
        <ele>2145.3999023438</ele>
        <time>2014-03-28T08:36:36.000Z</time>
      </trkpt>
      <trkpt lat="45.91491" lon="6.50589">
        <ele>2146.8000488281</ele>
        <time>2014-03-28T08:36:42.000Z</time>
      </trkpt>
      <trkpt lat="45.91489" lon="6.50593">
        <ele>2148</ele>
        <time>2014-03-28T08:36:47.000Z</time>
      </trkpt>
      <trkpt lat="45.91488" lon="6.50596">
        <ele>2149.3999023438</ele>
        <time>2014-03-28T08:36:53.000Z</time>
      </trkpt>
      <trkpt lat="45.91485" lon="6.50596">
        <ele>2150.1999511719</ele>
        <time>2014-03-28T08:36:58.000Z</time>
      </trkpt>
      <trkpt lat="45.91483" lon="6.50594">
        <ele>2150.3999023438</ele>
        <time>2014-03-28T08:37:05.000Z</time>
      </trkpt>
      <trkpt lat="45.91485" lon="6.50595">
        <ele>2150.1999511719</ele>
        <time>2014-03-28T08:37:27.000Z</time>
      </trkpt>
      <trkpt lat="45.91482" lon="6.50592">
        <ele>2150.8000488281</ele>
        <time>2014-03-28T08:37:59.000Z</time>
      </trkpt>
      <trkpt lat="45.9148" lon="6.5059">
        <ele>2151.1999511719</ele>
        <time>2014-03-28T08:38:03.000Z</time>
      </trkpt>
      <trkpt lat="45.91478" lon="6.50588">
        <ele>2151.8000488281</ele>
        <time>2014-03-28T08:38:08.000Z</time>
      </trkpt>
      <trkpt lat="45.91474" lon="6.50586">
        <ele>2152.6000976562</ele>
        <time>2014-03-28T08:38:13.000Z</time>
      </trkpt>
      <trkpt lat="45.91471" lon="6.50584">
        <ele>2153.8000488281</ele>
        <time>2014-03-28T08:38:18.000Z</time>
      </trkpt>
      <trkpt lat="45.91467" lon="6.50582">
        <ele>2154.6000976562</ele>
        <time>2014-03-28T08:38:23.000Z</time>
      </trkpt>
      <trkpt lat="45.91465" lon="6.50581">
        <ele>2155.3999023438</ele>
        <time>2014-03-28T08:38:27.000Z</time>
      </trkpt>
      <trkpt lat="45.91464" lon="6.50583">
        <ele>2156.1999511719</ele>
        <time>2014-03-28T08:38:31.000Z</time>
      </trkpt>
      <trkpt lat="45.91463" lon="6.50589">
        <ele>2157.3999023438</ele>
        <time>2014-03-28T08:38:38.000Z</time>
      </trkpt>
      <trkpt lat="45.91464" lon="6.50594">
        <ele>2158.1999511719</ele>
        <time>2014-03-28T08:38:43.000Z</time>
      </trkpt>
      <trkpt lat="45.91464" lon="6.50597">
        <ele>2158.6000976562</ele>
        <time>2014-03-28T08:38:47.000Z</time>
      </trkpt>
      <trkpt lat="45.91464" lon="6.50602">
        <ele>2159.3999023438</ele>
        <time>2014-03-28T08:38:52.000Z</time>
      </trkpt>
      <trkpt lat="45.91463" lon="6.50606">
        <ele>2160.3999023438</ele>
        <time>2014-03-28T08:38:56.000Z</time>
      </trkpt>
      <trkpt lat="45.91464" lon="6.5061">
        <ele>2160.8000488281</ele>
        <time>2014-03-28T08:39:01.000Z</time>
      </trkpt>
      <trkpt lat="45.91463" lon="6.50612">
        <ele>2161.6000976562</ele>
        <time>2014-03-28T08:39:05.000Z</time>
      </trkpt>
      <trkpt lat="45.91462" lon="6.50611">
        <ele>2162</ele>
        <time>2014-03-28T08:39:09.000Z</time>
      </trkpt>
      <trkpt lat="45.91458" lon="6.50608">
        <ele>2162.6000976562</ele>
        <time>2014-03-28T08:39:14.000Z</time>
      </trkpt>
      <trkpt lat="45.91457" lon="6.50607">
        <ele>2163</ele>
        <time>2014-03-28T08:39:17.000Z</time>
      </trkpt>
      <trkpt lat="45.91455" lon="6.50606">
        <ele>2163.3999023438</ele>
        <time>2014-03-28T08:39:19.000Z</time>
      </trkpt>
      <trkpt lat="45.91452" lon="6.50603">
        <ele>2164.3999023438</ele>
        <time>2014-03-28T08:39:24.000Z</time>
      </trkpt>
      <trkpt lat="45.91452" lon="6.50603">
        <ele>2164.3999023438</ele>
        <time>2014-03-28T08:39:28.000Z</time>
      </trkpt>
      <trkpt lat="45.91451" lon="6.50608">
        <ele>2165.3999023438</ele>
        <time>2014-03-28T08:39:35.000Z</time>
      </trkpt>
      <trkpt lat="45.91453" lon="6.50611">
        <ele>2165.3999023438</ele>
        <time>2014-03-28T08:39:39.000Z</time>
      </trkpt>
      <trkpt lat="45.91454" lon="6.50614">
        <ele>2165.6000976562</ele>
        <time>2014-03-28T08:39:43.000Z</time>
      </trkpt>
      <trkpt lat="45.91455" lon="6.50618">
        <ele>2165.6000976562</ele>
        <time>2014-03-28T08:39:48.000Z</time>
      </trkpt>
      <trkpt lat="45.91456" lon="6.50622">
        <ele>2166</ele>
        <time>2014-03-28T08:39:53.000Z</time>
      </trkpt>
      <trkpt lat="45.91454" lon="6.50622">
        <ele>2166.3999023438</ele>
        <time>2014-03-28T08:40:01.000Z</time>
      </trkpt>
      <trkpt lat="45.91453" lon="6.50621">
        <ele>2166.8000488281</ele>
        <time>2014-03-28T08:40:04.000Z</time>
      </trkpt>
      <trkpt lat="45.9145" lon="6.50618">
        <ele>2167.6000976562</ele>
        <time>2014-03-28T08:40:08.000Z</time>
      </trkpt>
      <trkpt lat="45.91447" lon="6.50617">
        <ele>2168.1999511719</ele>
        <time>2014-03-28T08:40:11.000Z</time>
      </trkpt>
      <trkpt lat="45.91448" lon="6.50619">
        <ele>2168.1999511719</ele>
        <time>2014-03-28T08:40:16.000Z</time>
      </trkpt>
      <trkpt lat="45.91449" lon="6.50621">
        <ele>2168.3999023438</ele>
        <time>2014-03-28T08:40:21.000Z</time>
      </trkpt>
      <trkpt lat="45.9145" lon="6.50626">
        <ele>2168.8000488281</ele>
        <time>2014-03-28T08:40:28.000Z</time>
      </trkpt>
      <trkpt lat="45.91451" lon="6.50629">
        <ele>2168.8000488281</ele>
        <time>2014-03-28T08:40:37.000Z</time>
      </trkpt>
      <trkpt lat="45.91452" lon="6.50632">
        <ele>2169</ele>
        <time>2014-03-28T08:40:42.000Z</time>
      </trkpt>
      <trkpt lat="45.91453" lon="6.50635">
        <ele>2169.3999023438</ele>
        <time>2014-03-28T08:40:47.000Z</time>
      </trkpt>
      <trkpt lat="45.9145" lon="6.50636">
        <ele>2170.1999511719</ele>
        <time>2014-03-28T08:40:51.000Z</time>
      </trkpt>
      <trkpt lat="45.91447" lon="6.50635">
        <ele>2171.3999023438</ele>
        <time>2014-03-28T08:40:56.000Z</time>
      </trkpt>
      <trkpt lat="45.91444" lon="6.50634">
        <ele>2172</ele>
        <time>2014-03-28T08:41:00.000Z</time>
      </trkpt>
      <trkpt lat="45.91443" lon="6.50633">
        <ele>2172.3999023438</ele>
        <time>2014-03-28T08:41:04.000Z</time>
      </trkpt>
      <trkpt lat="45.91441" lon="6.50632">
        <ele>2172.8000488281</ele>
        <time>2014-03-28T08:41:08.000Z</time>
      </trkpt>
      <trkpt lat="45.9144" lon="6.5063">
        <ele>2173.1999511719</ele>
        <time>2014-03-28T08:41:12.000Z</time>
      </trkpt>
      <trkpt lat="45.91438" lon="6.50628">
        <ele>2173.6000976562</ele>
        <time>2014-03-28T08:41:17.000Z</time>
      </trkpt>
      <trkpt lat="45.91438" lon="6.50626">
        <ele>2173.3999023438</ele>
        <time>2014-03-28T08:41:21.000Z</time>
      </trkpt>
      <trkpt lat="45.91439" lon="6.50628">
        <ele>2173.3999023438</ele>
        <time>2014-03-28T08:41:30.000Z</time>
      </trkpt>
      <trkpt lat="45.91438" lon="6.50632">
        <ele>2174</ele>
        <time>2014-03-28T08:41:36.000Z</time>
      </trkpt>
      <trkpt lat="45.91439" lon="6.50636">
        <ele>2174.6000976562</ele>
        <time>2014-03-28T08:41:40.000Z</time>
      </trkpt>
      <trkpt lat="45.91439" lon="6.5064">
        <ele>2175.1999511719</ele>
        <time>2014-03-28T08:41:45.000Z</time>
      </trkpt>
      <trkpt lat="45.91439" lon="6.50644">
        <ele>2175.6000976562</ele>
        <time>2014-03-28T08:41:50.000Z</time>
      </trkpt>
      <trkpt lat="45.9144" lon="6.50647">
        <ele>2175.6000976562</ele>
        <time>2014-03-28T08:41:53.000Z</time>
      </trkpt>
      <trkpt lat="45.91441" lon="6.5065">
        <ele>2176</ele>
        <time>2014-03-28T08:41:57.000Z</time>
      </trkpt>
      <trkpt lat="45.91442" lon="6.50653">
        <ele>2176</ele>
        <time>2014-03-28T08:42:01.000Z</time>
      </trkpt>
      <trkpt lat="45.91444" lon="6.50656">
        <ele>2175.8000488281</ele>
        <time>2014-03-28T08:42:04.000Z</time>
      </trkpt>
      <trkpt lat="45.91443" lon="6.50657">
        <ele>2176.3999023438</ele>
        <time>2014-03-28T08:42:10.000Z</time>
      </trkpt>
      <trkpt lat="45.91438" lon="6.50656">
        <ele>2177.8000488281</ele>
        <time>2014-03-28T08:42:16.000Z</time>
      </trkpt>
      <trkpt lat="45.91434" lon="6.50654">
        <ele>2179</ele>
        <time>2014-03-28T08:42:20.000Z</time>
      </trkpt>
      <trkpt lat="45.91431" lon="6.50654">
        <ele>2180.1999511719</ele>
        <time>2014-03-28T08:42:23.000Z</time>
      </trkpt>
      <trkpt lat="45.91428" lon="6.50654">
        <ele>2181</ele>
        <time>2014-03-28T08:42:28.000Z</time>
      </trkpt>
      <trkpt lat="45.91424" lon="6.50655">
        <ele>2182.8000488281</ele>
        <time>2014-03-28T08:42:34.000Z</time>
      </trkpt>
      <trkpt lat="45.9142" lon="6.50656">
        <ele>2184.1999511719</ele>
        <time>2014-03-28T08:42:39.000Z</time>
      </trkpt>
      <trkpt lat="45.91417" lon="6.50659">
        <ele>2186</ele>
        <time>2014-03-28T08:42:45.000Z</time>
      </trkpt>
      <trkpt lat="45.91414" lon="6.50663">
        <ele>2187.1999511719</ele>
        <time>2014-03-28T08:42:51.000Z</time>
      </trkpt>
      <trkpt lat="45.9141" lon="6.50666">
        <ele>2188.1999511719</ele>
        <time>2014-03-28T08:42:57.000Z</time>
      </trkpt>
      <trkpt lat="45.91409" lon="6.50668">
        <ele>2189</ele>
        <time>2014-03-28T08:43:02.000Z</time>
      </trkpt>
      <trkpt lat="45.91408" lon="6.50671">
        <ele>2189.8000488281</ele>
        <time>2014-03-28T08:43:07.000Z</time>
      </trkpt>
      <trkpt lat="45.91407" lon="6.50676">
        <ele>2191.1999511719</ele>
        <time>2014-03-28T08:43:12.000Z</time>
      </trkpt>
      <trkpt lat="45.91406" lon="6.50681">
        <ele>2192.6000976562</ele>
        <time>2014-03-28T08:43:17.000Z</time>
      </trkpt>
      <trkpt lat="45.91405" lon="6.50685">
        <ele>2193.6000976562</ele>
        <time>2014-03-28T08:43:21.000Z</time>
      </trkpt>
      <trkpt lat="45.91405" lon="6.5069">
        <ele>2195</ele>
        <time>2014-03-28T08:43:27.000Z</time>
      </trkpt>
      <trkpt lat="45.91405" lon="6.50697">
        <ele>2196.6000976562</ele>
        <time>2014-03-28T08:43:34.000Z</time>
      </trkpt>
      <trkpt lat="45.91405" lon="6.50704">
        <ele>2198.1999511719</ele>
        <time>2014-03-28T08:43:40.000Z</time>
      </trkpt>
      <trkpt lat="45.91404" lon="6.50708">
        <ele>2199.1999511719</ele>
        <time>2014-03-28T08:43:44.000Z</time>
      </trkpt>
      <trkpt lat="45.91404" lon="6.50714">
        <ele>2200.3999023438</ele>
        <time>2014-03-28T08:43:50.000Z</time>
      </trkpt>
      <trkpt lat="45.91405" lon="6.50718">
        <ele>2201.3999023438</ele>
        <time>2014-03-28T08:43:55.000Z</time>
      </trkpt>
      <trkpt lat="45.91407" lon="6.50722">
        <ele>2202.1999511719</ele>
        <time>2014-03-28T08:44:00.000Z</time>
      </trkpt>
      <trkpt lat="45.91408" lon="6.50727">
        <ele>2203</ele>
        <time>2014-03-28T08:44:06.000Z</time>
      </trkpt>
      <trkpt lat="45.91411" lon="6.5073">
        <ele>2203.6000976562</ele>
        <time>2014-03-28T08:44:11.000Z</time>
      </trkpt>
      <trkpt lat="45.91413" lon="6.50738">
        <ele>2205.3999023438</ele>
        <time>2014-03-28T08:44:20.000Z</time>
      </trkpt>
      <trkpt lat="45.91415" lon="6.50743">
        <ele>2206.3999023438</ele>
        <time>2014-03-28T08:44:26.000Z</time>
      </trkpt>
      <trkpt lat="45.91417" lon="6.50748">
        <ele>2207.3999023438</ele>
        <time>2014-03-28T08:44:32.000Z</time>
      </trkpt>
      <trkpt lat="45.91418" lon="6.50752">
        <ele>2208.1999511719</ele>
        <time>2014-03-28T08:44:38.000Z</time>
      </trkpt>
      <trkpt lat="45.91419" lon="6.50757">
        <ele>2209</ele>
        <time>2014-03-28T08:44:44.000Z</time>
      </trkpt>
      <trkpt lat="45.91419" lon="6.50762">
        <ele>2210.1999511719</ele>
        <time>2014-03-28T08:44:51.000Z</time>
      </trkpt>
      <trkpt lat="45.9142" lon="6.50767">
        <ele>2210.8000488281</ele>
        <time>2014-03-28T08:44:57.000Z</time>
      </trkpt>
      <trkpt lat="45.91422" lon="6.5077">
        <ele>2211.1999511719</ele>
        <time>2014-03-28T08:45:01.000Z</time>
      </trkpt>
      <trkpt lat="45.91423" lon="6.50773">
        <ele>2211.8000488281</ele>
        <time>2014-03-28T08:45:05.000Z</time>
      </trkpt>
      <trkpt lat="45.91424" lon="6.50777">
        <ele>2212.6000976562</ele>
        <time>2014-03-28T08:45:10.000Z</time>
      </trkpt>
      <trkpt lat="45.91424" lon="6.5078">
        <ele>2213.1999511719</ele>
        <time>2014-03-28T08:45:14.000Z</time>
      </trkpt>
      <trkpt lat="45.91423" lon="6.50782">
        <ele>2213.8000488281</ele>
        <time>2014-03-28T08:45:18.000Z</time>
      </trkpt>
      <trkpt lat="45.91422" lon="6.50784">
        <ele>2214.3999023438</ele>
        <time>2014-03-28T08:45:23.000Z</time>
      </trkpt>
      <trkpt lat="45.9142" lon="6.50786">
        <ele>2215.3999023438</ele>
        <time>2014-03-28T08:45:28.000Z</time>
      </trkpt>
      <trkpt lat="45.9142" lon="6.50791">
        <ele>2216.3999023438</ele>
        <time>2014-03-28T08:45:33.000Z</time>
      </trkpt>
      <trkpt lat="45.9142" lon="6.50795">
        <ele>2217.1999511719</ele>
        <time>2014-03-28T08:45:38.000Z</time>
      </trkpt>
      <trkpt lat="45.91422" lon="6.50799">
        <ele>2217.8000488281</ele>
        <time>2014-03-28T08:45:43.000Z</time>
      </trkpt>
      <trkpt lat="45.91423" lon="6.50802">
        <ele>2218.3999023438</ele>
        <time>2014-03-28T08:45:47.000Z</time>
      </trkpt>
      <trkpt lat="45.91425" lon="6.50807">
        <ele>2219.3999023438</ele>
        <time>2014-03-28T08:45:53.000Z</time>
      </trkpt>
      <trkpt lat="45.91426" lon="6.50811">
        <ele>2220.1999511719</ele>
        <time>2014-03-28T08:45:59.000Z</time>
      </trkpt>
      <trkpt lat="45.91427" lon="6.50814">
        <ele>2220.8000488281</ele>
        <time>2014-03-28T08:46:03.000Z</time>
      </trkpt>
      <trkpt lat="45.9143" lon="6.50818">
        <ele>2221.3999023438</ele>
        <time>2014-03-28T08:46:08.000Z</time>
      </trkpt>
      <trkpt lat="45.91433" lon="6.50821">
        <ele>2221.8000488281</ele>
        <time>2014-03-28T08:46:14.000Z</time>
      </trkpt>
      <trkpt lat="45.91437" lon="6.50824">
        <ele>2222.3999023438</ele>
        <time>2014-03-28T08:46:21.000Z</time>
      </trkpt>
      <trkpt lat="45.9144" lon="6.50829">
        <ele>2223.3999023438</ele>
        <time>2014-03-28T08:46:27.000Z</time>
      </trkpt>
      <trkpt lat="45.91443" lon="6.50835">
        <ele>2224.6000976562</ele>
        <time>2014-03-28T08:46:34.000Z</time>
      </trkpt>
      <trkpt lat="45.91444" lon="6.5084">
        <ele>2225.8000488281</ele>
        <time>2014-03-28T08:46:40.000Z</time>
      </trkpt>
      <trkpt lat="45.91446" lon="6.50843">
        <ele>2226.1999511719</ele>
        <time>2014-03-28T08:46:44.000Z</time>
      </trkpt>
      <trkpt lat="45.91447" lon="6.50848">
        <ele>2227.1999511719</ele>
        <time>2014-03-28T08:46:50.000Z</time>
      </trkpt>
      <trkpt lat="45.91449" lon="6.50852">
        <ele>2228</ele>
        <time>2014-03-28T08:46:56.000Z</time>
      </trkpt>
      <trkpt lat="45.91451" lon="6.50858">
        <ele>2229.1999511719</ele>
        <time>2014-03-28T08:47:05.000Z</time>
      </trkpt>
      <trkpt lat="45.91452" lon="6.50861">
        <ele>2229.8000488281</ele>
        <time>2014-03-28T08:47:09.000Z</time>
      </trkpt>
      <trkpt lat="45.91452" lon="6.50865">
        <ele>2230.3999023438</ele>
        <time>2014-03-28T08:47:13.000Z</time>
      </trkpt>
      <trkpt lat="45.91452" lon="6.5087">
        <ele>2231.6000976562</ele>
        <time>2014-03-28T08:47:19.000Z</time>
      </trkpt>
      <trkpt lat="45.91451" lon="6.50873">
        <ele>2232.3999023438</ele>
        <time>2014-03-28T08:47:24.000Z</time>
      </trkpt>
      <trkpt lat="45.9145" lon="6.50878">
        <ele>2233.1999511719</ele>
        <time>2014-03-28T08:47:30.000Z</time>
      </trkpt>
      <trkpt lat="45.91449" lon="6.50884">
        <ele>2234.3999023438</ele>
        <time>2014-03-28T08:47:37.000Z</time>
      </trkpt>
      <trkpt lat="45.9145" lon="6.50888">
        <ele>2235.3999023438</ele>
        <time>2014-03-28T08:47:43.000Z</time>
      </trkpt>
      <trkpt lat="45.91451" lon="6.50892">
        <ele>2236.1999511719</ele>
        <time>2014-03-28T08:47:48.000Z</time>
      </trkpt>
      <trkpt lat="45.91453" lon="6.50896">
        <ele>2237.1999511719</ele>
        <time>2014-03-28T08:47:55.000Z</time>
      </trkpt>
      <trkpt lat="45.91456" lon="6.509">
        <ele>2238</ele>
        <time>2014-03-28T08:48:00.000Z</time>
      </trkpt>
      <trkpt lat="45.91456" lon="6.50902">
        <ele>2238.3999023438</ele>
        <time>2014-03-28T08:48:03.000Z</time>
      </trkpt>
      <trkpt lat="45.91459" lon="6.50904">
        <ele>2238.8000488281</ele>
        <time>2014-03-28T08:48:07.000Z</time>
      </trkpt>
      <trkpt lat="45.91459" lon="6.50909">
        <ele>2239.8000488281</ele>
        <time>2014-03-28T08:48:11.000Z</time>
      </trkpt>
      <trkpt lat="45.91458" lon="6.50912">
        <ele>2240.6000976562</ele>
        <time>2014-03-28T08:48:16.000Z</time>
      </trkpt>
      <trkpt lat="45.91456" lon="6.50916">
        <ele>2241.3999023438</ele>
        <time>2014-03-28T08:48:23.000Z</time>
      </trkpt>
      <trkpt lat="45.91455" lon="6.50919">
        <ele>2242.3999023438</ele>
        <time>2014-03-28T08:48:27.000Z</time>
      </trkpt>
      <trkpt lat="45.91455" lon="6.50922">
        <ele>2243.3999023438</ele>
        <time>2014-03-28T08:48:31.000Z</time>
      </trkpt>
      <trkpt lat="45.91456" lon="6.50924">
        <ele>2244.1999511719</ele>
        <time>2014-03-28T08:48:35.000Z</time>
      </trkpt>
      <trkpt lat="45.91457" lon="6.50928">
        <ele>2245.6000976562</ele>
        <time>2014-03-28T08:48:40.000Z</time>
      </trkpt>
      <trkpt lat="45.91459" lon="6.50931">
        <ele>2246.8000488281</ele>
        <time>2014-03-28T08:48:45.000Z</time>
      </trkpt>
      <trkpt lat="45.91461" lon="6.50936">
        <ele>2248.6000976562</ele>
        <time>2014-03-28T08:48:52.000Z</time>
      </trkpt>
      <trkpt lat="45.91463" lon="6.50939">
        <ele>2250</ele>
        <time>2014-03-28T08:48:57.000Z</time>
      </trkpt>
      <trkpt lat="45.91464" lon="6.50943">
        <ele>2251.6000976562</ele>
        <time>2014-03-28T08:49:03.000Z</time>
      </trkpt>
      <trkpt lat="45.91466" lon="6.50947">
        <ele>2253.3999023438</ele>
        <time>2014-03-28T08:49:09.000Z</time>
      </trkpt>
      <trkpt lat="45.91468" lon="6.5095">
        <ele>2254.6000976562</ele>
        <time>2014-03-28T08:49:13.000Z</time>
      </trkpt>
      <trkpt lat="45.91469" lon="6.50952">
        <ele>2255.3999023438</ele>
        <time>2014-03-28T08:49:16.000Z</time>
      </trkpt>
      <trkpt lat="45.9147" lon="6.50956">
        <ele>2257</ele>
        <time>2014-03-28T08:49:21.000Z</time>
      </trkpt>
      <trkpt lat="45.91472" lon="6.50958">
        <ele>2258</ele>
        <time>2014-03-28T08:49:25.000Z</time>
      </trkpt>
      <trkpt lat="45.91473" lon="6.5096">
        <ele>2259.1999511719</ele>
        <time>2014-03-28T08:49:28.000Z</time>
      </trkpt>
      <trkpt lat="45.91475" lon="6.50962">
        <ele>2260</ele>
        <time>2014-03-28T08:49:32.000Z</time>
      </trkpt>
      <trkpt lat="45.91475" lon="6.50963">
        <ele>2260.6000976562</ele>
        <time>2014-03-28T08:49:36.000Z</time>
      </trkpt>
      <trkpt lat="45.91473" lon="6.50963">
        <ele>2260.1999511719</ele>
        <time>2014-03-28T08:49:44.000Z</time>
      </trkpt>
      <trkpt lat="45.91471" lon="6.50964">
        <ele>2260.3999023438</ele>
        <time>2014-03-28T08:49:49.000Z</time>
      </trkpt>
      <trkpt lat="45.91469" lon="6.50964">
        <ele>2260.1999511719</ele>
        <time>2014-03-28T08:49:53.000Z</time>
      </trkpt>
      <trkpt lat="45.91467" lon="6.50967">
        <ele>2261</ele>
        <time>2014-03-28T08:50:00.000Z</time>
      </trkpt>
      <trkpt lat="45.91465" lon="6.50971">
        <ele>2262.1999511719</ele>
        <time>2014-03-28T08:50:06.000Z</time>
      </trkpt>
      <trkpt lat="45.91464" lon="6.50973">
        <ele>2262.8000488281</ele>
        <time>2014-03-28T08:50:10.000Z</time>
      </trkpt>
      <trkpt lat="45.91463" lon="6.50976">
        <ele>2263.8000488281</ele>
        <time>2014-03-28T08:50:15.000Z</time>
      </trkpt>
      <trkpt lat="45.91462" lon="6.50981">
        <ele>2265.3999023438</ele>
        <time>2014-03-28T08:50:21.000Z</time>
      </trkpt>
      <trkpt lat="45.9146" lon="6.50986">
        <ele>2267</ele>
        <time>2014-03-28T08:50:27.000Z</time>
      </trkpt>
      <trkpt lat="45.91456" lon="6.50993">
        <ele>2268.6000976562</ele>
        <time>2014-03-28T08:50:35.000Z</time>
      </trkpt>
      <trkpt lat="45.91454" lon="6.50997">
        <ele>2269.1999511719</ele>
        <time>2014-03-28T08:50:39.000Z</time>
      </trkpt>
      <trkpt lat="45.91453" lon="6.50999">
        <ele>2270</ele>
        <time>2014-03-28T08:50:44.000Z</time>
      </trkpt>
      <trkpt lat="45.91453" lon="6.50999">
        <ele>2270</ele>
        <time>2014-03-28T08:50:53.000Z</time>
      </trkpt>
      <trkpt lat="45.91453" lon="6.51002">
        <ele>2270.8000488281</ele>
        <time>2014-03-28T08:51:00.000Z</time>
      </trkpt>
      <trkpt lat="45.91451" lon="6.51006">
        <ele>2271.8000488281</ele>
        <time>2014-03-28T08:51:05.000Z</time>
      </trkpt>
      <trkpt lat="45.91449" lon="6.51014">
        <ele>2274.1999511719</ele>
        <time>2014-03-28T08:51:12.000Z</time>
      </trkpt>
      <trkpt lat="45.91449" lon="6.51019">
        <ele>2276.1999511719</ele>
        <time>2014-03-28T08:51:17.000Z</time>
      </trkpt>
      <trkpt lat="45.91447" lon="6.51024">
        <ele>2277.3999023438</ele>
        <time>2014-03-28T08:51:22.000Z</time>
      </trkpt>
      <trkpt lat="45.91445" lon="6.51029">
        <ele>2278.6000976562</ele>
        <time>2014-03-28T08:51:28.000Z</time>
      </trkpt>
      <trkpt lat="45.91443" lon="6.51034">
        <ele>2280</ele>
        <time>2014-03-28T08:51:34.000Z</time>
      </trkpt>
      <trkpt lat="45.91442" lon="6.51037">
        <ele>2280.8000488281</ele>
        <time>2014-03-28T08:51:38.000Z</time>
      </trkpt>
      <trkpt lat="45.9144" lon="6.51041">
        <ele>2281.3999023438</ele>
        <time>2014-03-28T08:51:44.000Z</time>
      </trkpt>
      <trkpt lat="45.91439" lon="6.51044">
        <ele>2282.1999511719</ele>
        <time>2014-03-28T08:51:49.000Z</time>
      </trkpt>
      <trkpt lat="45.91436" lon="6.5105">
        <ele>2283.6000976562</ele>
        <time>2014-03-28T08:51:56.000Z</time>
      </trkpt>
      <trkpt lat="45.91434" lon="6.51055">
        <ele>2284.6000976562</ele>
        <time>2014-03-28T08:52:03.000Z</time>
      </trkpt>
      <trkpt lat="45.91432" lon="6.5106">
        <ele>2285.3999023438</ele>
        <time>2014-03-28T08:52:09.000Z</time>
      </trkpt>
      <trkpt lat="45.9143" lon="6.51063">
        <ele>2286</ele>
        <time>2014-03-28T08:52:14.000Z</time>
      </trkpt>
      <trkpt lat="45.91431" lon="6.51063">
        <ele>2286.3999023438</ele>
        <time>2014-03-28T08:52:20.000Z</time>
      </trkpt>
      <trkpt lat="45.91434" lon="6.51062">
        <ele>2286.8000488281</ele>
        <time>2014-03-28T08:52:25.000Z</time>
      </trkpt>
      <trkpt lat="45.91438" lon="6.5106">
        <ele>2287.8000488281</ele>
        <time>2014-03-28T08:52:32.000Z</time>
      </trkpt>
      <trkpt lat="45.91443" lon="6.51059">
        <ele>2288.8000488281</ele>
        <time>2014-03-28T08:52:38.000Z</time>
      </trkpt>
      <trkpt lat="45.91448" lon="6.51057">
        <ele>2290.1999511719</ele>
        <time>2014-03-28T08:52:45.000Z</time>
      </trkpt>
      <trkpt lat="45.91451" lon="6.51057">
        <ele>2291</ele>
        <time>2014-03-28T08:52:49.000Z</time>
      </trkpt>
      <trkpt lat="45.91455" lon="6.51055">
        <ele>2291.6000976562</ele>
        <time>2014-03-28T08:52:55.000Z</time>
      </trkpt>
      <trkpt lat="45.91457" lon="6.51054">
        <ele>2291.8000488281</ele>
        <time>2014-03-28T08:53:00.000Z</time>
      </trkpt>
      <trkpt lat="45.91458" lon="6.51055">
        <ele>2292.3999023438</ele>
        <time>2014-03-28T08:53:05.000Z</time>
      </trkpt>
      <trkpt lat="45.91457" lon="6.51058">
        <ele>2293.6000976562</ele>
        <time>2014-03-28T08:53:10.000Z</time>
      </trkpt>
      <trkpt lat="45.91455" lon="6.51063">
        <ele>2294.6000976562</ele>
        <time>2014-03-28T08:53:15.000Z</time>
      </trkpt>
      <trkpt lat="45.91454" lon="6.51067">
        <ele>2295.8000488281</ele>
        <time>2014-03-28T08:53:19.000Z</time>
      </trkpt>
      <trkpt lat="45.91453" lon="6.51069">
        <ele>2296.1999511719</ele>
        <time>2014-03-28T08:53:24.000Z</time>
      </trkpt>
      <trkpt lat="45.91451" lon="6.51072">
        <ele>2296.6000976562</ele>
        <time>2014-03-28T08:53:28.000Z</time>
      </trkpt>
      <trkpt lat="45.91449" lon="6.51077">
        <ele>2297.6000976562</ele>
        <time>2014-03-28T08:53:33.000Z</time>
      </trkpt>
      <trkpt lat="45.91448" lon="6.51081">
        <ele>2298.6000976562</ele>
        <time>2014-03-28T08:53:39.000Z</time>
      </trkpt>
      <trkpt lat="45.91447" lon="6.51083">
        <ele>2299</ele>
        <time>2014-03-28T08:53:45.000Z</time>
      </trkpt>
      <trkpt lat="45.91449" lon="6.51082">
        <ele>2299.6000976562</ele>
        <time>2014-03-28T08:53:50.000Z</time>
      </trkpt>
      <trkpt lat="45.91454" lon="6.5108">
        <ele>2300.3999023438</ele>
        <time>2014-03-28T08:53:56.000Z</time>
      </trkpt>
      <trkpt lat="45.91458" lon="6.51078">
        <ele>2301.3999023438</ele>
        <time>2014-03-28T08:54:02.000Z</time>
      </trkpt>
      <trkpt lat="45.91462" lon="6.51077">
        <ele>2302.3999023438</ele>
        <time>2014-03-28T08:54:09.000Z</time>
      </trkpt>
      <trkpt lat="45.91467" lon="6.51075">
        <ele>2303.1999511719</ele>
        <time>2014-03-28T08:54:16.000Z</time>
      </trkpt>
      <trkpt lat="45.91469" lon="6.51074">
        <ele>2303.8000488281</ele>
        <time>2014-03-28T08:54:21.000Z</time>
      </trkpt>
      <trkpt lat="45.9147" lon="6.51074">
        <ele>2303.8000488281</ele>
        <time>2014-03-28T08:54:28.000Z</time>
      </trkpt>
      <trkpt lat="45.91469" lon="6.51077">
        <ele>2304.6000976562</ele>
        <time>2014-03-28T08:54:33.000Z</time>
      </trkpt>
      <trkpt lat="45.91468" lon="6.5108">
        <ele>2305.8000488281</ele>
        <time>2014-03-28T08:54:37.000Z</time>
      </trkpt>
      <trkpt lat="45.91467" lon="6.51083">
        <ele>2306.6000976562</ele>
        <time>2014-03-28T08:54:41.000Z</time>
      </trkpt>
      <trkpt lat="45.91466" lon="6.51087">
        <ele>2308.1999511719</ele>
        <time>2014-03-28T08:54:46.000Z</time>
      </trkpt>
      <trkpt lat="45.91464" lon="6.51092">
        <ele>2309.3999023438</ele>
        <time>2014-03-28T08:54:53.000Z</time>
      </trkpt>
      <trkpt lat="45.91461" lon="6.51095">
        <ele>2309.8000488281</ele>
        <time>2014-03-28T08:54:58.000Z</time>
      </trkpt>
      <trkpt lat="45.91459" lon="6.51099">
        <ele>2310.3999023438</ele>
        <time>2014-03-28T08:55:04.000Z</time>
      </trkpt>
      <trkpt lat="45.91456" lon="6.51103">
        <ele>2311.3999023438</ele>
        <time>2014-03-28T08:55:10.000Z</time>
      </trkpt>
      <trkpt lat="45.91454" lon="6.51108">
        <ele>2312.3999023438</ele>
        <time>2014-03-28T08:55:16.000Z</time>
      </trkpt>
      <trkpt lat="45.91451" lon="6.51111">
        <ele>2312.8000488281</ele>
        <time>2014-03-28T08:55:21.000Z</time>
      </trkpt>
      <trkpt lat="45.91449" lon="6.51115">
        <ele>2313.6000976562</ele>
        <time>2014-03-28T08:55:26.000Z</time>
      </trkpt>
      <trkpt lat="45.91448" lon="6.51117">
        <ele>2314</ele>
        <time>2014-03-28T08:55:31.000Z</time>
      </trkpt>
      <trkpt lat="45.91446" lon="6.5112">
        <ele>2314.8000488281</ele>
        <time>2014-03-28T08:55:37.000Z</time>
      </trkpt>
      <trkpt lat="45.91448" lon="6.5112">
        <ele>2315.1999511719</ele>
        <time>2014-03-28T08:55:43.000Z</time>
      </trkpt>
      <trkpt lat="45.91453" lon="6.51119">
        <ele>2316.6000976562</ele>
        <time>2014-03-28T08:55:50.000Z</time>
      </trkpt>
      <trkpt lat="45.91457" lon="6.51118">
        <ele>2317.8000488281</ele>
        <time>2014-03-28T08:55:56.000Z</time>
      </trkpt>
      <trkpt lat="45.9146" lon="6.51116">
        <ele>2318.6000976562</ele>
        <time>2014-03-28T08:56:01.000Z</time>
      </trkpt>
      <trkpt lat="45.91465" lon="6.51116">
        <ele>2320.1999511719</ele>
        <time>2014-03-28T08:56:07.000Z</time>
      </trkpt>
      <trkpt lat="45.91468" lon="6.51117">
        <ele>2321.8000488281</ele>
        <time>2014-03-28T08:56:12.000Z</time>
      </trkpt>
      <trkpt lat="45.91472" lon="6.51116">
        <ele>2323</ele>
        <time>2014-03-28T08:56:17.000Z</time>
      </trkpt>
      <trkpt lat="45.91475" lon="6.51116">
        <ele>2323.8000488281</ele>
        <time>2014-03-28T08:56:22.000Z</time>
      </trkpt>
      <trkpt lat="45.91478" lon="6.51115">
        <ele>2325</ele>
        <time>2014-03-28T08:56:28.000Z</time>
      </trkpt>
      <trkpt lat="45.9148" lon="6.51116">
        <ele>2326</ele>
        <time>2014-03-28T08:56:32.000Z</time>
      </trkpt>
      <trkpt lat="45.91479" lon="6.51117">
        <ele>2326.1999511719</ele>
        <time>2014-03-28T08:56:36.000Z</time>
      </trkpt>
      <trkpt lat="45.91477" lon="6.5112">
        <ele>2326.6000976562</ele>
        <time>2014-03-28T08:56:40.000Z</time>
      </trkpt>
      <trkpt lat="45.91475" lon="6.51124">
        <ele>2327.6000976562</ele>
        <time>2014-03-28T08:56:45.000Z</time>
      </trkpt>
      <trkpt lat="45.91473" lon="6.51127">
        <ele>2328.1999511719</ele>
        <time>2014-03-28T08:56:50.000Z</time>
      </trkpt>
      <trkpt lat="45.91471" lon="6.51132">
        <ele>2329.6000976562</ele>
        <time>2014-03-28T08:56:56.000Z</time>
      </trkpt>
      <trkpt lat="45.91469" lon="6.51134">
        <ele>2329.8000488281</ele>
        <time>2014-03-28T08:57:00.000Z</time>
      </trkpt>
      <trkpt lat="45.91467" lon="6.51138">
        <ele>2331</ele>
        <time>2014-03-28T08:57:05.000Z</time>
      </trkpt>
      <trkpt lat="45.91465" lon="6.51142">
        <ele>2331.6000976562</ele>
        <time>2014-03-28T08:57:11.000Z</time>
      </trkpt>
      <trkpt lat="45.91463" lon="6.51146">
        <ele>2332.6000976562</ele>
        <time>2014-03-28T08:57:17.000Z</time>
      </trkpt>
      <trkpt lat="45.91461" lon="6.5115">
        <ele>2333.3999023438</ele>
        <time>2014-03-28T08:57:23.000Z</time>
      </trkpt>
      <trkpt lat="45.9146" lon="6.51154">
        <ele>2334.8000488281</ele>
        <time>2014-03-28T08:57:27.000Z</time>
      </trkpt>
      <trkpt lat="45.91458" lon="6.51158">
        <ele>2335.8000488281</ele>
        <time>2014-03-28T08:57:32.000Z</time>
      </trkpt>
      <trkpt lat="45.91457" lon="6.51161">
        <ele>2336.6000976562</ele>
        <time>2014-03-28T08:57:37.000Z</time>
      </trkpt>
      <trkpt lat="45.91457" lon="6.51161">
        <ele>2336.6000976562</ele>
        <time>2014-03-28T08:57:43.000Z</time>
      </trkpt>
      <trkpt lat="45.91459" lon="6.5116">
        <ele>2336.8000488281</ele>
        <time>2014-03-28T08:57:48.000Z</time>
      </trkpt>
      <trkpt lat="45.91461" lon="6.51158">
        <ele>2337.1999511719</ele>
        <time>2014-03-28T08:57:52.000Z</time>
      </trkpt>
      <trkpt lat="45.91463" lon="6.51157">
        <ele>2337.3999023438</ele>
        <time>2014-03-28T08:57:58.000Z</time>
      </trkpt>
      <trkpt lat="45.91467" lon="6.51155">
        <ele>2338</ele>
        <time>2014-03-28T08:58:04.000Z</time>
      </trkpt>
      <trkpt lat="45.91472" lon="6.51153">
        <ele>2339</ele>
        <time>2014-03-28T08:58:10.000Z</time>
      </trkpt>
      <trkpt lat="45.91474" lon="6.51152">
        <ele>2339.8000488281</ele>
        <time>2014-03-28T08:58:15.000Z</time>
      </trkpt>
      <trkpt lat="45.91476" lon="6.51152">
        <ele>2340.3999023438</ele>
        <time>2014-03-28T08:58:20.000Z</time>
      </trkpt>
      <trkpt lat="45.91479" lon="6.51151">
        <ele>2341</ele>
        <time>2014-03-28T08:58:24.000Z</time>
      </trkpt>
      <trkpt lat="45.91483" lon="6.51149">
        <ele>2342</ele>
        <time>2014-03-28T08:58:30.000Z</time>
      </trkpt>
      <trkpt lat="45.91486" lon="6.51148">
        <ele>2342.8000488281</ele>
        <time>2014-03-28T08:58:36.000Z</time>
      </trkpt>
      <trkpt lat="45.91486" lon="6.5115">
        <ele>2343.8000488281</ele>
        <time>2014-03-28T08:58:40.000Z</time>
      </trkpt>
      <trkpt lat="45.91484" lon="6.51153">
        <ele>2344.3999023438</ele>
        <time>2014-03-28T08:58:45.000Z</time>
      </trkpt>
      <trkpt lat="45.91482" lon="6.51157">
        <ele>2345.1999511719</ele>
        <time>2014-03-28T08:58:50.000Z</time>
      </trkpt>
      <trkpt lat="45.9148" lon="6.51162">
        <ele>2346.8000488281</ele>
        <time>2014-03-28T08:58:56.000Z</time>
      </trkpt>
      <trkpt lat="45.9148" lon="6.51166">
        <ele>2348.1999511719</ele>
        <time>2014-03-28T08:59:03.000Z</time>
      </trkpt>
      <trkpt lat="45.91478" lon="6.51169">
        <ele>2348.8000488281</ele>
        <time>2014-03-28T08:59:08.000Z</time>
      </trkpt>
      <trkpt lat="45.91477" lon="6.51172">
        <ele>2349.3999023438</ele>
        <time>2014-03-28T08:59:11.000Z</time>
      </trkpt>
      <trkpt lat="45.91475" lon="6.51178">
        <ele>2350</ele>
        <time>2014-03-28T08:59:17.000Z</time>
      </trkpt>
      <trkpt lat="45.91473" lon="6.51182">
        <ele>2350.6000976562</ele>
        <time>2014-03-28T08:59:23.000Z</time>
      </trkpt>
      <trkpt lat="45.91471" lon="6.51186">
        <ele>2351</ele>
        <time>2014-03-28T08:59:29.000Z</time>
      </trkpt>
      <trkpt lat="45.91469" lon="6.51189">
        <ele>2351.1999511719</ele>
        <time>2014-03-28T08:59:34.000Z</time>
      </trkpt>
      <trkpt lat="45.91468" lon="6.5119">
        <ele>2351.3999023438</ele>
        <time>2014-03-28T08:59:39.000Z</time>
      </trkpt>
      <trkpt lat="45.91469" lon="6.5119">
        <ele>2351.6000976562</ele>
        <time>2014-03-28T08:59:44.000Z</time>
      </trkpt>
      <trkpt lat="45.91472" lon="6.51189">
        <ele>2352.6000976562</ele>
        <time>2014-03-28T08:59:50.000Z</time>
      </trkpt>
      <trkpt lat="45.91476" lon="6.51186">
        <ele>2353.1999511719</ele>
        <time>2014-03-28T08:59:55.000Z</time>
      </trkpt>
      <trkpt lat="45.91479" lon="6.51185">
        <ele>2354.3999023438</ele>
        <time>2014-03-28T09:00:01.000Z</time>
      </trkpt>
      <trkpt lat="45.91483" lon="6.51183">
        <ele>2355.3999023438</ele>
        <time>2014-03-28T09:00:06.000Z</time>
      </trkpt>
      <trkpt lat="45.91488" lon="6.51181">
        <ele>2356.6000976562</ele>
        <time>2014-03-28T09:00:13.000Z</time>
      </trkpt>
      <trkpt lat="45.91492" lon="6.51178">
        <ele>2357.3999023438</ele>
        <time>2014-03-28T09:00:20.000Z</time>
      </trkpt>
      <trkpt lat="45.91494" lon="6.51176">
        <ele>2357.8000488281</ele>
        <time>2014-03-28T09:00:24.000Z</time>
      </trkpt>
      <trkpt lat="45.91495" lon="6.51177">
        <ele>2358.6000976562</ele>
        <time>2014-03-28T09:00:28.000Z</time>
      </trkpt>
      <trkpt lat="45.91494" lon="6.5118">
        <ele>2359.3999023438</ele>
        <time>2014-03-28T09:00:32.000Z</time>
      </trkpt>
      <trkpt lat="45.91492" lon="6.51185">
        <ele>2359.8000488281</ele>
        <time>2014-03-28T09:00:37.000Z</time>
      </trkpt>
      <trkpt lat="45.91489" lon="6.51189">
        <ele>2360</ele>
        <time>2014-03-28T09:00:43.000Z</time>
      </trkpt>
      <trkpt lat="45.91486" lon="6.51194">
        <ele>2360.1999511719</ele>
        <time>2014-03-28T09:00:50.000Z</time>
      </trkpt>
      <trkpt lat="45.91483" lon="6.51196">
        <ele>2360</ele>
        <time>2014-03-28T09:00:55.000Z</time>
      </trkpt>
      <trkpt lat="45.9148" lon="6.51202">
        <ele>2360.1999511719</ele>
        <time>2014-03-28T09:01:02.000Z</time>
      </trkpt>
      <trkpt lat="45.91476" lon="6.51207">
        <ele>2360.3999023438</ele>
        <time>2014-03-28T09:01:09.000Z</time>
      </trkpt>
      <trkpt lat="45.91476" lon="6.51208">
        <ele>2360.3999023438</ele>
        <time>2014-03-28T09:01:14.000Z</time>
      </trkpt>
      <trkpt lat="45.91479" lon="6.51206">
        <ele>2361.3999023438</ele>
        <time>2014-03-28T09:01:20.000Z</time>
      </trkpt>
      <trkpt lat="45.91485" lon="6.51202">
        <ele>2363</ele>
        <time>2014-03-28T09:01:28.000Z</time>
      </trkpt>
      <trkpt lat="45.91491" lon="6.512">
        <ele>2364.6000976562</ele>
        <time>2014-03-28T09:01:35.000Z</time>
      </trkpt>
      <trkpt lat="45.91496" lon="6.51197">
        <ele>2365.8000488281</ele>
        <time>2014-03-28T09:01:41.000Z</time>
      </trkpt>
      <trkpt lat="45.915" lon="6.51193">
        <ele>2366.6000976562</ele>
        <time>2014-03-28T09:01:47.000Z</time>
      </trkpt>
      <trkpt lat="45.91505" lon="6.5119">
        <ele>2367.3999023438</ele>
        <time>2014-03-28T09:01:53.000Z</time>
      </trkpt>
      <trkpt lat="45.91508" lon="6.51186">
        <ele>2367.8000488281</ele>
        <time>2014-03-28T09:01:59.000Z</time>
      </trkpt>
      <trkpt lat="45.91511" lon="6.51182">
        <ele>2367.6000976562</ele>
        <time>2014-03-28T09:02:05.000Z</time>
      </trkpt>
      <trkpt lat="45.91512" lon="6.51183">
        <ele>2368.6000976562</ele>
        <time>2014-03-28T09:02:10.000Z</time>
      </trkpt>
      <trkpt lat="45.91512" lon="6.51185">
        <ele>2369.1999511719</ele>
        <time>2014-03-28T09:02:14.000Z</time>
      </trkpt>
      <trkpt lat="45.91512" lon="6.51189">
        <ele>2370.3999023438</ele>
        <time>2014-03-28T09:02:20.000Z</time>
      </trkpt>
      <trkpt lat="45.91512" lon="6.51193">
        <ele>2371.8000488281</ele>
        <time>2014-03-28T09:02:26.000Z</time>
      </trkpt>
      <trkpt lat="45.9151" lon="6.51198">
        <ele>2372.8000488281</ele>
        <time>2014-03-28T09:02:31.000Z</time>
      </trkpt>
      <trkpt lat="45.91509" lon="6.51203">
        <ele>2373.8000488281</ele>
        <time>2014-03-28T09:02:36.000Z</time>
      </trkpt>
      <trkpt lat="45.91508" lon="6.51206">
        <ele>2374.3999023438</ele>
        <time>2014-03-28T09:02:41.000Z</time>
      </trkpt>
      <trkpt lat="45.91506" lon="6.5121">
        <ele>2375</ele>
        <time>2014-03-28T09:02:47.000Z</time>
      </trkpt>
      <trkpt lat="45.91504" lon="6.51215">
        <ele>2376</ele>
        <time>2014-03-28T09:02:52.000Z</time>
      </trkpt>
      <trkpt lat="45.91502" lon="6.51219">
        <ele>2376.1999511719</ele>
        <time>2014-03-28T09:02:57.000Z</time>
      </trkpt>
      <trkpt lat="45.91499" lon="6.51222">
        <ele>2376</ele>
        <time>2014-03-28T09:03:02.000Z</time>
      </trkpt>
      <trkpt lat="45.91497" lon="6.51226">
        <ele>2376.6000976562</ele>
        <time>2014-03-28T09:03:07.000Z</time>
      </trkpt>
      <trkpt lat="45.91495" lon="6.5123">
        <ele>2376.8000488281</ele>
        <time>2014-03-28T09:03:12.000Z</time>
      </trkpt>
      <trkpt lat="45.91493" lon="6.51233">
        <ele>2377</ele>
        <time>2014-03-28T09:03:17.000Z</time>
      </trkpt>
      <trkpt lat="45.91492" lon="6.51236">
        <ele>2377.1999511719</ele>
        <time>2014-03-28T09:03:23.000Z</time>
      </trkpt>
      <trkpt lat="45.91491" lon="6.51238">
        <ele>2377.3999023438</ele>
        <time>2014-03-28T09:03:28.000Z</time>
      </trkpt>
      <trkpt lat="45.9149" lon="6.51239">
        <ele>2377.6000976562</ele>
        <time>2014-03-28T09:03:32.000Z</time>
      </trkpt>
      <trkpt lat="45.91489" lon="6.51239">
        <ele>2377.1999511719</ele>
        <time>2014-03-28T09:03:35.000Z</time>
      </trkpt>
      <trkpt lat="45.91488" lon="6.51241">
        <ele>2377.1999511719</ele>
        <time>2014-03-28T09:03:38.000Z</time>
      </trkpt>
      <trkpt lat="45.91491" lon="6.5124">
        <ele>2378.1999511719</ele>
        <time>2014-03-28T09:03:45.000Z</time>
      </trkpt>
      <trkpt lat="45.91495" lon="6.51239">
        <ele>2379.6000976562</ele>
        <time>2014-03-28T09:03:51.000Z</time>
      </trkpt>
      <trkpt lat="45.91499" lon="6.51238">
        <ele>2381.1999511719</ele>
        <time>2014-03-28T09:03:56.000Z</time>
      </trkpt>
      <trkpt lat="45.91502" lon="6.51237">
        <ele>2382.1999511719</ele>
        <time>2014-03-28T09:04:01.000Z</time>
      </trkpt>
      <trkpt lat="45.91505" lon="6.51235">
        <ele>2383</ele>
        <time>2014-03-28T09:04:06.000Z</time>
      </trkpt>
      <trkpt lat="45.91508" lon="6.51233">
        <ele>2384.3999023438</ele>
        <time>2014-03-28T09:04:11.000Z</time>
      </trkpt>
      <trkpt lat="45.91511" lon="6.51232">
        <ele>2385.6000976562</ele>
        <time>2014-03-28T09:04:18.000Z</time>
      </trkpt>
      <trkpt lat="45.91515" lon="6.5123">
        <ele>2386.8000488281</ele>
        <time>2014-03-28T09:04:24.000Z</time>
      </trkpt>
      <trkpt lat="45.9152" lon="6.51227">
        <ele>2388</ele>
        <time>2014-03-28T09:04:30.000Z</time>
      </trkpt>
      <trkpt lat="45.91523" lon="6.51225">
        <ele>2389</ele>
        <time>2014-03-28T09:04:35.000Z</time>
      </trkpt>
      <trkpt lat="45.91526" lon="6.51222">
        <ele>2389.3999023438</ele>
        <time>2014-03-28T09:04:39.000Z</time>
      </trkpt>
      <trkpt lat="45.91528" lon="6.51219">
        <ele>2389.6000976562</ele>
        <time>2014-03-28T09:04:44.000Z</time>
      </trkpt>
      <trkpt lat="45.91529" lon="6.5122">
        <ele>2390.1999511719</ele>
        <time>2014-03-28T09:04:49.000Z</time>
      </trkpt>
      <trkpt lat="45.91528" lon="6.51222">
        <ele>2390.1999511719</ele>
        <time>2014-03-28T09:04:55.000Z</time>
      </trkpt>
      <trkpt lat="45.91528" lon="6.51225">
        <ele>2391.8000488281</ele>
        <time>2014-03-28T09:05:04.000Z</time>
      </trkpt>
      <trkpt lat="45.91527" lon="6.5123">
        <ele>2392.8000488281</ele>
        <time>2014-03-28T09:05:09.000Z</time>
      </trkpt>
      <trkpt lat="45.91527" lon="6.51231">
        <ele>2393.3999023438</ele>
        <time>2014-03-28T09:05:18.000Z</time>
      </trkpt>
      <trkpt lat="45.91526" lon="6.51234">
        <ele>2393.8000488281</ele>
        <time>2014-03-28T09:05:22.000Z</time>
      </trkpt>
      <trkpt lat="45.91525" lon="6.51238">
        <ele>2394.8000488281</ele>
        <time>2014-03-28T09:05:26.000Z</time>
      </trkpt>
      <trkpt lat="45.91524" lon="6.51243">
        <ele>2395.8000488281</ele>
        <time>2014-03-28T09:05:31.000Z</time>
      </trkpt>
      <trkpt lat="45.91521" lon="6.51248">
        <ele>2396.3999023438</ele>
        <time>2014-03-28T09:05:36.000Z</time>
      </trkpt>
      <trkpt lat="45.9152" lon="6.5125">
        <ele>2396.8000488281</ele>
        <time>2014-03-28T09:05:40.000Z</time>
      </trkpt>
      <trkpt lat="45.91519" lon="6.51253">
        <ele>2397.1999511719</ele>
        <time>2014-03-28T09:05:45.000Z</time>
      </trkpt>
      <trkpt lat="45.91518" lon="6.51257">
        <ele>2397.8000488281</ele>
        <time>2014-03-28T09:05:49.000Z</time>
      </trkpt>
      <trkpt lat="45.91516" lon="6.51259">
        <ele>2397.6000976562</ele>
        <time>2014-03-28T09:05:54.000Z</time>
      </trkpt>
      <trkpt lat="45.91515" lon="6.51262">
        <ele>2398</ele>
        <time>2014-03-28T09:05:59.000Z</time>
      </trkpt>
      <trkpt lat="45.91515" lon="6.51262">
        <ele>2398</ele>
        <time>2014-03-28T09:06:04.000Z</time>
      </trkpt>
      <trkpt lat="45.91516" lon="6.51261">
        <ele>2398.1999511719</ele>
        <time>2014-03-28T09:06:10.000Z</time>
      </trkpt>
      <trkpt lat="45.9152" lon="6.5126">
        <ele>2399.3999023438</ele>
        <time>2014-03-28T09:06:16.000Z</time>
      </trkpt>
      <trkpt lat="45.91523" lon="6.51259">
        <ele>2400.3999023438</ele>
        <time>2014-03-28T09:06:22.000Z</time>
      </trkpt>
      <trkpt lat="45.91526" lon="6.51257">
        <ele>2401.1999511719</ele>
        <time>2014-03-28T09:06:27.000Z</time>
      </trkpt>
      <trkpt lat="45.91528" lon="6.51255">
        <ele>2402</ele>
        <time>2014-03-28T09:06:31.000Z</time>
      </trkpt>
      <trkpt lat="45.91532" lon="6.51253">
        <ele>2403.1999511719</ele>
        <time>2014-03-28T09:06:38.000Z</time>
      </trkpt>
      <trkpt lat="45.91533" lon="6.51253">
        <ele>2404</ele>
        <time>2014-03-28T09:06:42.000Z</time>
      </trkpt>
      <trkpt lat="45.91532" lon="6.51257">
        <ele>2404</ele>
        <time>2014-03-28T09:06:49.000Z</time>
      </trkpt>
      <trkpt lat="45.91529" lon="6.51262">
        <ele>2403.6000976562</ele>
        <time>2014-03-28T09:06:54.000Z</time>
      </trkpt>
      <trkpt lat="45.91526" lon="6.51268">
        <ele>2403.6000976562</ele>
        <time>2014-03-28T09:07:00.000Z</time>
      </trkpt>
      <trkpt lat="45.91524" lon="6.51271">
        <ele>2404</ele>
        <time>2014-03-28T09:07:04.000Z</time>
      </trkpt>
      <trkpt lat="45.91523" lon="6.51274">
        <ele>2404.3999023438</ele>
        <time>2014-03-28T09:07:09.000Z</time>
      </trkpt>
      <trkpt lat="45.91521" lon="6.51276">
        <ele>2404.6000976562</ele>
        <time>2014-03-28T09:07:14.000Z</time>
      </trkpt>
      <trkpt lat="45.91521" lon="6.51275">
        <ele>2404.3999023438</ele>
        <time>2014-03-28T09:07:22.000Z</time>
      </trkpt>
      <trkpt lat="45.91523" lon="6.51274">
        <ele>2404.3999023438</ele>
        <time>2014-03-28T09:07:27.000Z</time>
      </trkpt>
      <trkpt lat="45.91527" lon="6.51272">
        <ele>2405</ele>
        <time>2014-03-28T09:07:33.000Z</time>
      </trkpt>
      <trkpt lat="45.9153" lon="6.5127">
        <ele>2405.3999023438</ele>
        <time>2014-03-28T09:07:38.000Z</time>
      </trkpt>
      <trkpt lat="45.91532" lon="6.51269">
        <ele>2405.8000488281</ele>
        <time>2014-03-28T09:07:43.000Z</time>
      </trkpt>
      <trkpt lat="45.91534" lon="6.51267">
        <ele>2406.1999511719</ele>
        <time>2014-03-28T09:07:47.000Z</time>
      </trkpt>
      <trkpt lat="45.91537" lon="6.51265">
        <ele>2406.8000488281</ele>
        <time>2014-03-28T09:07:51.000Z</time>
      </trkpt>
      <trkpt lat="45.91539" lon="6.51261">
        <ele>2407.6000976562</ele>
        <time>2014-03-28T09:07:56.000Z</time>
      </trkpt>
      <trkpt lat="45.91541" lon="6.51255">
        <ele>2408.1999511719</ele>
        <time>2014-03-28T09:08:01.000Z</time>
      </trkpt>
      <trkpt lat="45.91543" lon="6.5125">
        <ele>2408.6000976562</ele>
        <time>2014-03-28T09:08:05.000Z</time>
      </trkpt>
      <trkpt lat="45.91545" lon="6.51247">
        <ele>2408.6000976562</ele>
        <time>2014-03-28T09:08:10.000Z</time>
      </trkpt>
      <trkpt lat="45.91546" lon="6.51249">
        <ele>2409.6000976562</ele>
        <time>2014-03-28T09:08:15.000Z</time>
      </trkpt>
      <trkpt lat="45.91545" lon="6.51252">
        <ele>2410</ele>
        <time>2014-03-28T09:08:22.000Z</time>
      </trkpt>
      <trkpt lat="45.91546" lon="6.51256">
        <ele>2410</ele>
        <time>2014-03-28T09:08:27.000Z</time>
      </trkpt>
      <trkpt lat="45.91547" lon="6.51263">
        <ele>2410.6000976562</ele>
        <time>2014-03-28T09:08:32.000Z</time>
      </trkpt>
      <trkpt lat="45.91547" lon="6.51266">
        <ele>2410.6000976562</ele>
        <time>2014-03-28T09:08:37.000Z</time>
      </trkpt>
      <trkpt lat="45.91547" lon="6.51269">
        <ele>2410.1999511719</ele>
        <time>2014-03-28T09:08:41.000Z</time>
      </trkpt>
      <trkpt lat="45.91546" lon="6.51272">
        <ele>2410</ele>
        <time>2014-03-28T09:08:46.000Z</time>
      </trkpt>
      <trkpt lat="45.91545" lon="6.51274">
        <ele>2409.8000488281</ele>
        <time>2014-03-28T09:08:52.000Z</time>
      </trkpt>
      <trkpt lat="45.91545" lon="6.51275">
        <ele>2409.8000488281</ele>
        <time>2014-03-28T09:08:55.000Z</time>
      </trkpt>
      <trkpt lat="45.91545" lon="6.51274">
        <ele>2410</ele>
        <time>2014-03-28T09:09:01.000Z</time>
      </trkpt>
      <trkpt lat="45.91547" lon="6.51271">
        <ele>2410.3999023438</ele>
        <time>2014-03-28T09:09:09.000Z</time>
      </trkpt>
      <trkpt lat="45.91549" lon="6.5127">
        <ele>2410.8000488281</ele>
        <time>2014-03-28T09:09:13.000Z</time>
      </trkpt>
      <trkpt lat="45.9155" lon="6.51269">
        <ele>2411.3999023438</ele>
        <time>2014-03-28T09:09:18.000Z</time>
      </trkpt>
      <trkpt lat="45.91552" lon="6.51268">
        <ele>2412</ele>
        <time>2014-03-28T09:09:23.000Z</time>
      </trkpt>
      <trkpt lat="45.91553" lon="6.51266">
        <ele>2412.3999023438</ele>
        <time>2014-03-28T09:09:28.000Z</time>
      </trkpt>
      <trkpt lat="45.91553" lon="6.51265">
        <ele>2412.6000976562</ele>
        <time>2014-03-28T09:09:32.000Z</time>
      </trkpt>
      <trkpt lat="45.91555" lon="6.51262">
        <ele>2413.3999023438</ele>
        <time>2014-03-28T09:09:37.000Z</time>
      </trkpt>
      <trkpt lat="45.91557" lon="6.51259">
        <ele>2414.8000488281</ele>
        <time>2014-03-28T09:09:43.000Z</time>
      </trkpt>
      <trkpt lat="45.91557" lon="6.51258">
        <ele>2415</ele>
        <time>2014-03-28T09:09:51.000Z</time>
      </trkpt>
      <trkpt lat="45.91557" lon="6.51258">
        <ele>2414.8000488281</ele>
        <time>2014-03-28T09:10:08.000Z</time>
      </trkpt>
      <trkpt lat="45.91557" lon="6.51258">
        <ele>2415.1999511719</ele>
        <time>2014-03-28T09:10:19.000Z</time>
      </trkpt>
      <trkpt lat="45.91559" lon="6.51258">
        <ele>2415.8000488281</ele>
        <time>2014-03-28T09:10:38.000Z</time>
      </trkpt>
      <trkpt lat="45.91561" lon="6.51258">
        <ele>2416.6000976562</ele>
        <time>2014-03-28T09:10:41.000Z</time>
      </trkpt>
      <trkpt lat="45.91562" lon="6.51257">
        <ele>2417.3999023438</ele>
        <time>2014-03-28T09:10:44.000Z</time>
      </trkpt>
      <trkpt lat="45.91564" lon="6.51256">
        <ele>2418.6000976562</ele>
        <time>2014-03-28T09:10:48.000Z</time>
      </trkpt>
      <trkpt lat="45.91567" lon="6.51253">
        <ele>2420.3999023438</ele>
        <time>2014-03-28T09:10:53.000Z</time>
      </trkpt>
      <trkpt lat="45.91571" lon="6.51248">
        <ele>2422.3999023438</ele>
        <time>2014-03-28T09:11:00.000Z</time>
      </trkpt>
      <trkpt lat="45.91574" lon="6.51244">
        <ele>2422.8000488281</ele>
        <time>2014-03-28T09:11:06.000Z</time>
      </trkpt>
      <trkpt lat="45.91579" lon="6.51246">
        <ele>2426</ele>
        <time>2014-03-28T09:11:12.000Z</time>
      </trkpt>
      <trkpt lat="45.91582" lon="6.51248">
        <ele>2428.6000976562</ele>
        <time>2014-03-28T09:11:17.000Z</time>
      </trkpt>
      <trkpt lat="45.91584" lon="6.51249">
        <ele>2429.1999511719</ele>
        <time>2014-03-28T09:11:21.000Z</time>
      </trkpt>
      <trkpt lat="45.91581" lon="6.5125">
        <ele>2428.6000976562</ele>
        <time>2014-03-28T09:11:37.000Z</time>
      </trkpt>
      <trkpt lat="45.9158" lon="6.51252">
        <ele>2427.1999511719</ele>
        <time>2014-03-28T09:11:41.000Z</time>
      </trkpt>
      <trkpt lat="45.91577" lon="6.51253">
        <ele>2425.6000976562</ele>
        <time>2014-03-28T09:11:46.000Z</time>
      </trkpt>
      <trkpt lat="45.91576" lon="6.51254">
        <ele>2424.8000488281</ele>
        <time>2014-03-28T09:11:51.000Z</time>
      </trkpt>
      <trkpt lat="45.91576" lon="6.51255">
        <ele>2424.3999023438</ele>
        <time>2014-03-28T09:11:56.000Z</time>
      </trkpt>
      <trkpt lat="45.91578" lon="6.51255">
        <ele>2425</ele>
        <time>2014-03-28T09:12:02.000Z</time>
      </trkpt>
      <trkpt lat="45.91581" lon="6.51254">
        <ele>2427.1999511719</ele>
        <time>2014-03-28T09:12:06.000Z</time>
      </trkpt>
      <trkpt lat="45.91584" lon="6.51254">
        <ele>2427.8000488281</ele>
        <time>2014-03-28T09:12:10.000Z</time>
      </trkpt>
      <trkpt lat="45.91587" lon="6.51254">
        <ele>2427</ele>
        <time>2014-03-28T09:12:14.000Z</time>
      </trkpt>
      <trkpt lat="45.91589" lon="6.51254">
        <ele>2426.3999023438</ele>
        <time>2014-03-28T09:12:15.000Z</time>
      </trkpt>
      <trkpt lat="45.91594" lon="6.5126">
        <ele>2422</ele>
        <time>2014-03-28T09:12:20.000Z</time>
      </trkpt>
      <trkpt lat="45.91585" lon="6.51259">
        <ele>2425.1999511719</ele>
        <time>2014-03-28T09:12:25.000Z</time>
      </trkpt>
      <trkpt lat="45.91584" lon="6.51261">
        <ele>2424.8000488281</ele>
        <time>2014-03-28T09:12:38.000Z</time>
      </trkpt>
      <trkpt lat="45.91581" lon="6.51266">
        <ele>2422</ele>
        <time>2014-03-28T09:12:52.000Z</time>
      </trkpt>
      <trkpt lat="45.91583" lon="6.51269">
        <ele>2421.3999023438</ele>
        <time>2014-03-28T09:13:04.000Z</time>
      </trkpt>
      <trkpt lat="45.91586" lon="6.51263">
        <ele>2423.1999511719</ele>
        <time>2014-03-28T09:13:18.000Z</time>
      </trkpt>
      <trkpt lat="45.91586" lon="6.51266">
        <ele>2422</ele>
        <time>2014-03-28T09:13:41.000Z</time>
      </trkpt>
      <trkpt lat="45.91585" lon="6.51267">
        <ele>2421.6000976562</ele>
        <time>2014-03-28T09:14:07.000Z</time>
      </trkpt>
      <trkpt lat="45.91586" lon="6.51266">
        <ele>2422</ele>
        <time>2014-03-28T09:14:15.000Z</time>
      </trkpt>
      <trkpt lat="45.91588" lon="6.51263">
        <ele>2422.6000976562</ele>
        <time>2014-03-28T09:14:24.000Z</time>
      </trkpt>
      <trkpt lat="45.91588" lon="6.51263">
        <ele>2422.6000976562</ele>
        <time>2014-03-28T09:14:25.000Z</time>
      </trkpt>
      <trkpt lat="45.91586" lon="6.51267">
        <ele>2421.6000976562</ele>
        <time>2014-03-28T09:17:41.000Z</time>
      </trkpt>
      <trkpt lat="45.91586" lon="6.51266">
        <ele>2421.8000488281</ele>
        <time>2014-03-28T09:17:42.000Z</time>
      </trkpt>
      <trkpt lat="45.91587" lon="6.51264">
        <ele>2422.3999023438</ele>
        <time>2014-03-28T09:17:49.000Z</time>
      </trkpt>
      <trkpt lat="45.91588" lon="6.51265">
        <ele>2421.8000488281</ele>
        <time>2014-03-28T09:17:56.000Z</time>
      </trkpt>
      <trkpt lat="45.91587" lon="6.51266">
        <ele>2421.6000976562</ele>
        <time>2014-03-28T09:18:05.000Z</time>
      </trkpt>
      <trkpt lat="45.91586" lon="6.51266">
        <ele>2421.8000488281</ele>
        <time>2014-03-28T09:18:15.000Z</time>
      </trkpt>
      <trkpt lat="45.91586" lon="6.51268">
        <ele>2421.1999511719</ele>
        <time>2014-03-28T09:18:22.000Z</time>
      </trkpt>
      <trkpt lat="45.91586" lon="6.51267">
        <ele>2421.6000976562</ele>
        <time>2014-03-28T09:18:28.000Z</time>
      </trkpt>
      <trkpt lat="45.91588" lon="6.51264">
        <ele>2422.3999023438</ele>
        <time>2014-03-28T09:18:35.000Z</time>
      </trkpt>
      <trkpt lat="45.91587" lon="6.51266">
        <ele>2421.3999023438</ele>
        <time>2014-03-28T09:18:46.000Z</time>
      </trkpt>
      <trkpt lat="45.91586" lon="6.51267">
        <ele>2421.3999023438</ele>
        <time>2014-03-28T09:18:52.000Z</time>
      </trkpt>
      <trkpt lat="45.91586" lon="6.51267">
        <ele>2421.1999511719</ele>
        <time>2014-03-28T09:18:58.000Z</time>
      </trkpt>
      <trkpt lat="45.91587" lon="6.51267">
        <ele>2421.1999511719</ele>
        <time>2014-03-28T09:19:06.000Z</time>
      </trkpt>
      <trkpt lat="45.91587" lon="6.51267">
        <ele>2421.1999511719</ele>
        <time>2014-03-28T09:19:12.000Z</time>
      </trkpt>
      <trkpt lat="45.91589" lon="6.51267">
        <ele>2420.3999023438</ele>
        <time>2014-03-28T09:19:21.000Z</time>
      </trkpt>
      <trkpt lat="45.91589" lon="6.51266">
        <ele>2420.6000976562</ele>
        <time>2014-03-28T09:19:28.000Z</time>
      </trkpt>
      <trkpt lat="45.91589" lon="6.51266">
        <ele>2420.8000488281</ele>
        <time>2014-03-28T09:19:40.000Z</time>
      </trkpt>
      <trkpt lat="45.91589" lon="6.51266">
        <ele>2420.8000488281</ele>
        <time>2014-03-28T09:19:48.000Z</time>
      </trkpt>
      <trkpt lat="45.91589" lon="6.51267">
        <ele>2420.3999023438</ele>
        <time>2014-03-28T09:19:54.000Z</time>
      </trkpt>
      <trkpt lat="45.91588" lon="6.51268">
        <ele>2420.1999511719</ele>
        <time>2014-03-28T09:20:13.000Z</time>
      </trkpt>
      <trkpt lat="45.91589" lon="6.51268">
        <ele>2420</ele>
        <time>2014-03-28T09:20:25.000Z</time>
      </trkpt>
      <trkpt lat="45.91591" lon="6.51268">
        <ele>2419.3999023438</ele>
        <time>2014-03-28T09:20:39.000Z</time>
      </trkpt>
      <trkpt lat="45.91593" lon="6.51265">
        <ele>2419.8000488281</ele>
        <time>2014-03-28T09:20:47.000Z</time>
      </trkpt>
      <trkpt lat="45.91595" lon="6.51264">
        <ele>2419.6000976562</ele>
        <time>2014-03-28T09:20:54.000Z</time>
      </trkpt>
      <trkpt lat="45.91591" lon="6.51273">
        <ele>2417.1999511719</ele>
        <time>2014-03-28T09:21:05.000Z</time>
      </trkpt>
      <trkpt lat="45.91589" lon="6.51273">
        <ele>2417.6000976562</ele>
        <time>2014-03-28T09:21:11.000Z</time>
      </trkpt>
      <trkpt lat="45.91588" lon="6.51273">
        <ele>2418</ele>
        <time>2014-03-28T09:21:14.000Z</time>
      </trkpt>
      <trkpt lat="45.91586" lon="6.51273">
        <ele>2419</ele>
        <time>2014-03-28T09:21:18.000Z</time>
      </trkpt>
      <trkpt lat="45.91586" lon="6.51269">
        <ele>2420.8000488281</ele>
        <time>2014-03-28T09:21:25.000Z</time>
      </trkpt>
      <trkpt lat="45.91586" lon="6.51268">
        <ele>2421</ele>
        <time>2014-03-28T09:21:31.000Z</time>
      </trkpt>
      <trkpt lat="45.91588" lon="6.51266">
        <ele>2421</ele>
        <time>2014-03-28T09:21:52.000Z</time>
      </trkpt>
      <trkpt lat="45.9159" lon="6.51265">
        <ele>2421</ele>
        <time>2014-03-28T09:21:59.000Z</time>
      </trkpt>
      <trkpt lat="45.9159" lon="6.51265">
        <ele>2420.8000488281</ele>
        <time>2014-03-28T09:22:14.000Z</time>
      </trkpt>
      <trkpt lat="45.9159" lon="6.51266">
        <ele>2420.8000488281</ele>
        <time>2014-03-28T09:22:22.000Z</time>
      </trkpt>
      <trkpt lat="45.91589" lon="6.51265">
        <ele>2421.3999023438</ele>
        <time>2014-03-28T09:22:29.000Z</time>
      </trkpt>
      <trkpt lat="45.91588" lon="6.51265">
        <ele>2421.3999023438</ele>
        <time>2014-03-28T09:22:43.000Z</time>
      </trkpt>
      <trkpt lat="45.91585" lon="6.51268">
        <ele>2421</ele>
        <time>2014-03-28T09:23:01.000Z</time>
      </trkpt>
      <trkpt lat="45.91587" lon="6.51266">
        <ele>2421.3999023438</ele>
        <time>2014-03-28T09:23:09.000Z</time>
      </trkpt>
      <trkpt lat="45.91589" lon="6.51264">
        <ele>2421.8000488281</ele>
        <time>2014-03-28T09:23:30.000Z</time>
      </trkpt>
      <trkpt lat="45.91589" lon="6.51264">
        <ele>2422</ele>
        <time>2014-03-28T09:23:37.000Z</time>
      </trkpt>
      <trkpt lat="45.91589" lon="6.51268">
        <ele>2420</ele>
        <time>2014-03-28T09:23:49.000Z</time>
      </trkpt>
      <trkpt lat="45.91589" lon="6.51269">
        <ele>2419.6000976562</ele>
        <time>2014-03-28T09:24:08.000Z</time>
      </trkpt>
      <trkpt lat="45.91589" lon="6.51268">
        <ele>2420</ele>
        <time>2014-03-28T09:24:15.000Z</time>
      </trkpt>
      <trkpt lat="45.9159" lon="6.51267">
        <ele>2420.1999511719</ele>
        <time>2014-03-28T09:24:23.000Z</time>
      </trkpt>
      <trkpt lat="45.91589" lon="6.51271">
        <ele>2418.6000976562</ele>
        <time>2014-03-28T09:24:31.000Z</time>
      </trkpt>
      <trkpt lat="45.91591" lon="6.51279">
        <ele>2414.1999511719</ele>
        <time>2014-03-28T09:24:37.000Z</time>
      </trkpt>
      <trkpt lat="45.91592" lon="6.51282">
        <ele>2412.3999023438</ele>
        <time>2014-03-28T09:24:39.000Z</time>
      </trkpt>
      <trkpt lat="45.91594" lon="6.51292">
        <ele>2407</ele>
        <time>2014-03-28T09:24:45.000Z</time>
      </trkpt>
      <trkpt lat="45.91593" lon="6.51294">
        <ele>2406.3999023438</ele>
        <time>2014-03-28T09:24:50.000Z</time>
      </trkpt>
      <trkpt lat="45.91591" lon="6.51295">
        <ele>2406.6000976562</ele>
        <time>2014-03-28T09:25:02.000Z</time>
      </trkpt>
      <trkpt lat="45.9159" lon="6.51292">
        <ele>2408.1999511719</ele>
        <time>2014-03-28T09:25:18.000Z</time>
      </trkpt>
      <trkpt lat="45.9159" lon="6.51294">
        <ele>2407.3999023438</ele>
        <time>2014-03-28T09:25:33.000Z</time>
      </trkpt>
      <trkpt lat="45.91586" lon="6.51302">
        <ele>2405.8000488281</ele>
        <time>2014-03-28T09:25:38.000Z</time>
      </trkpt>
      <trkpt lat="45.91582" lon="6.51307">
        <ele>2405</ele>
        <time>2014-03-28T09:25:43.000Z</time>
      </trkpt>
      <trkpt lat="45.9158" lon="6.51308">
        <ele>2404.6000976562</ele>
        <time>2014-03-28T09:25:50.000Z</time>
      </trkpt>
      <trkpt lat="45.91581" lon="6.51309">
        <ele>2404.3999023438</ele>
        <time>2014-03-28T09:25:59.000Z</time>
      </trkpt>
      <trkpt lat="45.91581" lon="6.51311">
        <ele>2403.3999023438</ele>
        <time>2014-03-28T09:26:05.000Z</time>
      </trkpt>
      <trkpt lat="45.9158" lon="6.51316">
        <ele>2401.8000488281</ele>
        <time>2014-03-28T09:26:11.000Z</time>
      </trkpt>
      <trkpt lat="45.91578" lon="6.5132">
        <ele>2400.6000976562</ele>
        <time>2014-03-28T09:26:17.000Z</time>
      </trkpt>
      <trkpt lat="45.91578" lon="6.51321">
        <ele>2400</ele>
        <time>2014-03-28T09:26:22.000Z</time>
      </trkpt>
      <trkpt lat="45.91578" lon="6.51326">
        <ele>2398.3999023438</ele>
        <time>2014-03-28T09:26:30.000Z</time>
      </trkpt>
      <trkpt lat="45.91577" lon="6.5133">
        <ele>2396.8000488281</ele>
        <time>2014-03-28T09:26:37.000Z</time>
      </trkpt>
      <trkpt lat="45.91577" lon="6.51333">
        <ele>2395.8000488281</ele>
        <time>2014-03-28T09:26:43.000Z</time>
      </trkpt>
      <trkpt lat="45.91577" lon="6.51337">
        <ele>2393</ele>
        <time>2014-03-28T09:26:52.000Z</time>
      </trkpt>
      <trkpt lat="45.91577" lon="6.51341">
        <ele>2393</ele>
        <time>2014-03-28T09:26:58.000Z</time>
      </trkpt>
      <trkpt lat="45.91576" lon="6.51342">
        <ele>2393</ele>
        <time>2014-03-28T09:27:04.000Z</time>
      </trkpt>
      <trkpt lat="45.91576" lon="6.51341">
        <ele>2393</ele>
        <time>2014-03-28T09:27:12.000Z</time>
      </trkpt>
      <trkpt lat="45.91576" lon="6.51342">
        <ele>2393</ele>
        <time>2014-03-28T09:27:48.000Z</time>
      </trkpt>
      <trkpt lat="45.91575" lon="6.51342">
        <ele>2393</ele>
        <time>2014-03-28T09:27:55.000Z</time>
      </trkpt>
      <trkpt lat="45.91575" lon="6.51342">
        <ele>2393</ele>
        <time>2014-03-28T09:28:07.000Z</time>
      </trkpt>
      <trkpt lat="45.91575" lon="6.51345">
        <ele>2393</ele>
        <time>2014-03-28T09:28:20.000Z</time>
      </trkpt>
      <trkpt lat="45.91573" lon="6.51346">
        <ele>2393</ele>
        <time>2014-03-28T09:28:27.000Z</time>
      </trkpt>
      <trkpt lat="45.91571" lon="6.51347">
        <ele>2393</ele>
        <time>2014-03-28T09:28:33.000Z</time>
      </trkpt>
      <trkpt lat="45.9157" lon="6.51349">
        <ele>2393</ele>
        <time>2014-03-28T09:28:38.000Z</time>
      </trkpt>
      <trkpt lat="45.91569" lon="6.51349">
        <ele>2393</ele>
        <time>2014-03-28T09:28:50.000Z</time>
      </trkpt>
      <trkpt lat="45.91569" lon="6.5135">
        <ele>2393</ele>
        <time>2014-03-28T09:29:06.000Z</time>
      </trkpt>
      <trkpt lat="45.91568" lon="6.51351">
        <ele>2393</ele>
        <time>2014-03-28T09:29:17.000Z</time>
      </trkpt>
      <trkpt lat="45.91567" lon="6.51353">
        <ele>2393</ele>
        <time>2014-03-28T09:29:26.000Z</time>
      </trkpt>
      <trkpt lat="45.91564" lon="6.51357">
        <ele>2393</ele>
        <time>2014-03-28T09:30:06.000Z</time>
      </trkpt>
      <trkpt lat="45.91564" lon="6.51354">
        <ele>2393</ele>
        <time>2014-03-28T09:30:24.000Z</time>
      </trkpt>
      <trkpt lat="45.91562" lon="6.51351">
        <ele>2393</ele>
        <time>2014-03-28T09:31:12.000Z</time>
      </trkpt>
      <trkpt lat="45.91562" lon="6.51355">
        <ele>2393</ele>
        <time>2014-03-28T09:31:24.000Z</time>
      </trkpt>
      <trkpt lat="45.91564" lon="6.51352">
        <ele>2393</ele>
        <time>2014-03-28T09:31:37.000Z</time>
      </trkpt>
      <trkpt lat="45.91564" lon="6.51359">
        <ele>2393</ele>
        <time>2014-03-28T09:31:53.000Z</time>
      </trkpt>
      <trkpt lat="45.91563" lon="6.51364">
        <ele>2393</ele>
        <time>2014-03-28T09:32:02.000Z</time>
      </trkpt>
      <trkpt lat="45.91564" lon="6.5136">
        <ele>2393</ele>
        <time>2014-03-28T09:32:07.000Z</time>
      </trkpt>
      <trkpt lat="45.91564" lon="6.51361">
        <ele>2393</ele>
        <time>2014-03-28T09:32:14.000Z</time>
      </trkpt>
      <trkpt lat="45.91566" lon="6.51358">
        <ele>2393</ele>
        <time>2014-03-28T09:32:23.000Z</time>
      </trkpt>
      <trkpt lat="45.91566" lon="6.51357">
        <ele>2393</ele>
        <time>2014-03-28T09:32:32.000Z</time>
      </trkpt>
      <trkpt lat="45.91567" lon="6.51354">
        <ele>2393</ele>
        <time>2014-03-28T09:32:48.000Z</time>
      </trkpt>
      <trkpt lat="45.91565" lon="6.51357">
        <ele>2393</ele>
        <time>2014-03-28T09:32:58.000Z</time>
      </trkpt>
      <trkpt lat="45.91564" lon="6.51361">
        <ele>2393</ele>
        <time>2014-03-28T09:33:01.000Z</time>
      </trkpt>
      <trkpt lat="45.91564" lon="6.51361">
        <ele>2393</ele>
        <time>2014-03-28T09:33:07.000Z</time>
      </trkpt>
      <trkpt lat="45.91564" lon="6.5136">
        <ele>2393</ele>
        <time>2014-03-28T09:33:21.000Z</time>
      </trkpt>
      <trkpt lat="45.91555" lon="6.51364">
        <ele>2393</ele>
        <time>2014-03-28T09:33:25.000Z</time>
      </trkpt>
      <trkpt lat="45.91546" lon="6.51375">
        <ele>2393</ele>
        <time>2014-03-28T09:33:28.000Z</time>
      </trkpt>
      <trkpt lat="45.91548" lon="6.51378">
        <ele>2373.8000488281</ele>
        <time>2014-03-28T09:33:30.000Z</time>
      </trkpt>
      <trkpt lat="45.9155" lon="6.51378">
        <ele>2373.3999023438</ele>
        <time>2014-03-28T09:33:32.000Z</time>
      </trkpt>
      <trkpt lat="45.91552" lon="6.51378">
        <ele>2373.3999023438</ele>
        <time>2014-03-28T09:33:36.000Z</time>
      </trkpt>
      <trkpt lat="45.91552" lon="6.51374">
        <ele>2375</ele>
        <time>2014-03-28T09:33:44.000Z</time>
      </trkpt>
      <trkpt lat="45.91552" lon="6.51375">
        <ele>2374.6000976562</ele>
        <time>2014-03-28T09:33:46.000Z</time>
      </trkpt>
      <trkpt lat="45.91551" lon="6.51372">
        <ele>2375.3999023438</ele>
        <time>2014-03-28T09:33:51.000Z</time>
      </trkpt>
      <trkpt lat="45.9155" lon="6.5137">
        <ele>2376</ele>
        <time>2014-03-28T09:34:08.000Z</time>
      </trkpt>
      <trkpt lat="45.91547" lon="6.51366">
        <ele>2377</ele>
        <time>2014-03-28T09:34:23.000Z</time>
      </trkpt>
      <trkpt lat="45.91546" lon="6.51368">
        <ele>2376.6000976562</ele>
        <time>2014-03-28T09:34:35.000Z</time>
      </trkpt>
      <trkpt lat="45.91546" lon="6.51368">
        <ele>2376.3999023438</ele>
        <time>2014-03-28T09:34:42.000Z</time>
      </trkpt>
      <trkpt lat="45.91545" lon="6.51374">
        <ele>2374.6000976562</ele>
        <time>2014-03-28T09:34:46.000Z</time>
      </trkpt>
      <trkpt lat="45.91546" lon="6.51375">
        <ele>2374.3999023438</ele>
        <time>2014-03-28T09:34:47.000Z</time>
      </trkpt>
      <trkpt lat="45.91542" lon="6.51383">
        <ele>2372.3999023438</ele>
        <time>2014-03-28T09:34:52.000Z</time>
      </trkpt>
      <trkpt lat="45.91541" lon="6.51384">
        <ele>2372.3999023438</ele>
        <time>2014-03-28T09:35:02.000Z</time>
      </trkpt>
      <trkpt lat="45.91538" lon="6.51385">
        <ele>2372</ele>
        <time>2014-03-28T09:35:10.000Z</time>
      </trkpt>
      <trkpt lat="45.91535" lon="6.51386">
        <ele>2372.1999511719</ele>
        <time>2014-03-28T09:35:12.000Z</time>
      </trkpt>
      <trkpt lat="45.91535" lon="6.51393">
        <ele>2370.6000976562</ele>
        <time>2014-03-28T09:35:16.000Z</time>
      </trkpt>
      <trkpt lat="45.91537" lon="6.51395">
        <ele>2370</ele>
        <time>2014-03-28T09:35:23.000Z</time>
      </trkpt>
      <trkpt lat="45.91532" lon="6.514">
        <ele>2369.1999511719</ele>
        <time>2014-03-28T09:35:26.000Z</time>
      </trkpt>
      <trkpt lat="45.9153" lon="6.5141">
        <ele>2367.6000976562</ele>
        <time>2014-03-28T09:35:30.000Z</time>
      </trkpt>
      <trkpt lat="45.91528" lon="6.51415">
        <ele>2367</ele>
        <time>2014-03-28T09:35:33.000Z</time>
      </trkpt>
      <trkpt lat="45.9153" lon="6.5142">
        <ele>2365.6000976562</ele>
        <time>2014-03-28T09:35:34.000Z</time>
      </trkpt>
      <trkpt lat="45.91532" lon="6.51425">
        <ele>2364.1999511719</ele>
        <time>2014-03-28T09:35:37.000Z</time>
      </trkpt>
      <trkpt lat="45.91531" lon="6.5144">
        <ele>2361.3999023438</ele>
        <time>2014-03-28T09:35:41.000Z</time>
      </trkpt>
      <trkpt lat="45.91526" lon="6.51444">
        <ele>2361.3999023438</ele>
        <time>2014-03-28T09:35:43.000Z</time>
      </trkpt>
      <trkpt lat="45.91524" lon="6.51448">
        <ele>2361</ele>
        <time>2014-03-28T09:35:44.000Z</time>
      </trkpt>
      <trkpt lat="45.91518" lon="6.51458">
        <ele>2359.8000488281</ele>
        <time>2014-03-28T09:35:47.000Z</time>
      </trkpt>
      <trkpt lat="45.91518" lon="6.51465">
        <ele>2358.1999511719</ele>
        <time>2014-03-28T09:35:50.000Z</time>
      </trkpt>
      <trkpt lat="45.91519" lon="6.51462">
        <ele>2358.8000488281</ele>
        <time>2014-03-28T09:35:54.000Z</time>
      </trkpt>
      <trkpt lat="45.91522" lon="6.51457">
        <ele>2359.3999023438</ele>
        <time>2014-03-28T09:36:06.000Z</time>
      </trkpt>
      <trkpt lat="45.91522" lon="6.51459">
        <ele>2358.8000488281</ele>
        <time>2014-03-28T09:36:14.000Z</time>
      </trkpt>
      <trkpt lat="45.91529" lon="6.5148">
        <ele>2353.6000976562</ele>
        <time>2014-03-28T09:36:18.000Z</time>
      </trkpt>
      <trkpt lat="45.91535" lon="6.51502">
        <ele>2348.3999023438</ele>
        <time>2014-03-28T09:36:23.000Z</time>
      </trkpt>
      <trkpt lat="45.91535" lon="6.51506">
        <ele>2347.6000976562</ele>
        <time>2014-03-28T09:36:24.000Z</time>
      </trkpt>
      <trkpt lat="45.91535" lon="6.51509">
        <ele>2346.8000488281</ele>
        <time>2014-03-28T09:36:26.000Z</time>
      </trkpt>
      <trkpt lat="45.91525" lon="6.51513">
        <ele>2346.6000976562</ele>
        <time>2014-03-28T09:36:30.000Z</time>
      </trkpt>
      <trkpt lat="45.91515" lon="6.51517">
        <ele>2346</ele>
        <time>2014-03-28T09:36:33.000Z</time>
      </trkpt>
      <trkpt lat="45.915" lon="6.51513">
        <ele>2348.3999023438</ele>
        <time>2014-03-28T09:36:39.000Z</time>
      </trkpt>
      <trkpt lat="45.91497" lon="6.51508">
        <ele>2350.1999511719</ele>
        <time>2014-03-28T09:36:43.000Z</time>
      </trkpt>
      <trkpt lat="45.91499" lon="6.51508">
        <ele>2350</ele>
        <time>2014-03-28T09:37:01.000Z</time>
      </trkpt>
      <trkpt lat="45.91499" lon="6.51508">
        <ele>2350.3999023438</ele>
        <time>2014-03-28T09:37:05.000Z</time>
      </trkpt>
      <trkpt lat="45.91493" lon="6.51505">
        <ele>2351.6000976562</ele>
        <time>2014-03-28T09:37:11.000Z</time>
      </trkpt>
      <trkpt lat="45.91491" lon="6.51505">
        <ele>2351.8000488281</ele>
        <time>2014-03-28T09:37:13.000Z</time>
      </trkpt>
      <trkpt lat="45.91483" lon="6.51501">
        <ele>2353.6000976562</ele>
        <time>2014-03-28T09:37:17.000Z</time>
      </trkpt>
      <trkpt lat="45.91471" lon="6.515">
        <ele>2354.6000976562</ele>
        <time>2014-03-28T09:37:22.000Z</time>
      </trkpt>
      <trkpt lat="45.91466" lon="6.51501">
        <ele>2354.8000488281</ele>
        <time>2014-03-28T09:37:24.000Z</time>
      </trkpt>
      <trkpt lat="45.91457" lon="6.51502">
        <ele>2355</ele>
        <time>2014-03-28T09:37:29.000Z</time>
      </trkpt>
      <trkpt lat="45.91446" lon="6.51499">
        <ele>2356.6000976562</ele>
        <time>2014-03-28T09:37:32.000Z</time>
      </trkpt>
      <trkpt lat="45.91442" lon="6.51506">
        <ele>2354</ele>
        <time>2014-03-28T09:37:35.000Z</time>
      </trkpt>
      <trkpt lat="45.91444" lon="6.51514">
        <ele>2350</ele>
        <time>2014-03-28T09:37:37.000Z</time>
      </trkpt>
      <trkpt lat="45.91436" lon="6.51524">
        <ele>2346</ele>
        <time>2014-03-28T09:37:41.000Z</time>
      </trkpt>
      <trkpt lat="45.91439" lon="6.51529">
        <ele>2343.6000976562</ele>
        <time>2014-03-28T09:37:44.000Z</time>
      </trkpt>
      <trkpt lat="45.91438" lon="6.51521">
        <ele>2347.3999023438</ele>
        <time>2014-03-28T09:37:58.000Z</time>
      </trkpt>
      <trkpt lat="45.91437" lon="6.51519">
        <ele>2348.1999511719</ele>
        <time>2014-03-28T09:38:03.000Z</time>
      </trkpt>
      <trkpt lat="45.91426" lon="6.51521">
        <ele>2347.6000976562</ele>
        <time>2014-03-28T09:38:07.000Z</time>
      </trkpt>
      <trkpt lat="45.91425" lon="6.51527">
        <ele>2345</ele>
        <time>2014-03-28T09:38:08.000Z</time>
      </trkpt>
      <trkpt lat="45.91424" lon="6.51536">
        <ele>2340.6000976562</ele>
        <time>2014-03-28T09:38:13.000Z</time>
      </trkpt>
      <trkpt lat="45.91424" lon="6.51535">
        <ele>2341</ele>
        <time>2014-03-28T09:38:14.000Z</time>
      </trkpt>
      <trkpt lat="45.91423" lon="6.51534">
        <ele>2341.6000976562</ele>
        <time>2014-03-28T09:38:17.000Z</time>
      </trkpt>
      <trkpt lat="45.91417" lon="6.51543">
        <ele>2337.1999511719</ele>
        <time>2014-03-28T09:38:22.000Z</time>
      </trkpt>
      <trkpt lat="45.91414" lon="6.51548">
        <ele>2335.3999023438</ele>
        <time>2014-03-28T09:38:23.000Z</time>
      </trkpt>
      <trkpt lat="45.91405" lon="6.51559">
        <ele>2330.1999511719</ele>
        <time>2014-03-28T09:38:26.000Z</time>
      </trkpt>
      <trkpt lat="45.9141" lon="6.51568">
        <ele>2325.1999511719</ele>
        <time>2014-03-28T09:38:30.000Z</time>
      </trkpt>
      <trkpt lat="45.91405" lon="6.51572">
        <ele>2323</ele>
        <time>2014-03-28T09:38:33.000Z</time>
      </trkpt>
      <trkpt lat="45.91406" lon="6.51569">
        <ele>2324.8000488281</ele>
        <time>2014-03-28T09:38:37.000Z</time>
      </trkpt>
      <trkpt lat="45.91408" lon="6.51564">
        <ele>2327.3999023438</ele>
        <time>2014-03-28T09:38:47.000Z</time>
      </trkpt>
      <trkpt lat="45.91409" lon="6.51567">
        <ele>2325.6000976562</ele>
        <time>2014-03-28T09:39:04.000Z</time>
      </trkpt>
      <trkpt lat="45.91409" lon="6.51575">
        <ele>2321.3999023438</ele>
        <time>2014-03-28T09:39:10.000Z</time>
      </trkpt>
      <trkpt lat="45.91423" lon="6.51588">
        <ele>2315.3999023438</ele>
        <time>2014-03-28T09:39:15.000Z</time>
      </trkpt>
      <trkpt lat="45.91424" lon="6.51591">
        <ele>2313.8000488281</ele>
        <time>2014-03-28T09:39:21.000Z</time>
      </trkpt>
      <trkpt lat="45.91423" lon="6.51592">
        <ele>2313</ele>
        <time>2014-03-28T09:39:22.000Z</time>
      </trkpt>
      <trkpt lat="45.91419" lon="6.51594">
        <ele>2311.6000976562</ele>
        <time>2014-03-28T09:39:25.000Z</time>
      </trkpt>
      <trkpt lat="45.9142" lon="6.51604">
        <ele>2306</ele>
        <time>2014-03-28T09:39:29.000Z</time>
      </trkpt>
      <trkpt lat="45.91416" lon="6.51612">
        <ele>2300.8000488281</ele>
        <time>2014-03-28T09:39:32.000Z</time>
      </trkpt>
      <trkpt lat="45.91414" lon="6.51619">
        <ele>2295.8000488281</ele>
        <time>2014-03-28T09:39:35.000Z</time>
      </trkpt>
      <trkpt lat="45.91416" lon="6.51624">
        <ele>2293.1999511719</ele>
        <time>2014-03-28T09:39:39.000Z</time>
      </trkpt>
      <trkpt lat="45.91416" lon="6.51625">
        <ele>2293</ele>
        <time>2014-03-28T09:39:46.000Z</time>
      </trkpt>
      <trkpt lat="45.91408" lon="6.51635">
        <ele>2285.6000976562</ele>
        <time>2014-03-28T09:39:50.000Z</time>
      </trkpt>
      <trkpt lat="45.91409" lon="6.51645">
        <ele>2279.6000976562</ele>
        <time>2014-03-28T09:39:53.000Z</time>
      </trkpt>
      <trkpt lat="45.91405" lon="6.51656">
        <ele>2271.8000488281</ele>
        <time>2014-03-28T09:39:56.000Z</time>
      </trkpt>
      <trkpt lat="45.91406" lon="6.51663">
        <ele>2267.6000976562</ele>
        <time>2014-03-28T09:39:59.000Z</time>
      </trkpt>
      <trkpt lat="45.91414" lon="6.51667">
        <ele>2266.8000488281</ele>
        <time>2014-03-28T09:40:02.000Z</time>
      </trkpt>
      <trkpt lat="45.91419" lon="6.51672">
        <ele>2265.1999511719</ele>
        <time>2014-03-28T09:40:04.000Z</time>
      </trkpt>
      <trkpt lat="45.91419" lon="6.51673">
        <ele>2264.1999511719</ele>
        <time>2014-03-28T09:40:07.000Z</time>
      </trkpt>
      <trkpt lat="45.91412" lon="6.51679">
        <ele>2258.6000976562</ele>
        <time>2014-03-28T09:40:11.000Z</time>
      </trkpt>
      <trkpt lat="45.91412" lon="6.51677">
        <ele>2260.1999511719</ele>
        <time>2014-03-28T09:40:28.000Z</time>
      </trkpt>
      <trkpt lat="45.91411" lon="6.51681">
        <ele>2257</ele>
        <time>2014-03-28T09:40:32.000Z</time>
      </trkpt>
      <trkpt lat="45.91409" lon="6.5169">
        <ele>2250.6000976562</ele>
        <time>2014-03-28T09:40:36.000Z</time>
      </trkpt>
      <trkpt lat="45.91408" lon="6.51703">
        <ele>2241.8000488281</ele>
        <time>2014-03-28T09:40:41.000Z</time>
      </trkpt>
      <trkpt lat="45.91406" lon="6.51706">
        <ele>2239.1999511719</ele>
        <time>2014-03-28T09:40:43.000Z</time>
      </trkpt>
      <trkpt lat="45.91403" lon="6.51715">
        <ele>2232.6000976562</ele>
        <time>2014-03-28T09:40:49.000Z</time>
      </trkpt>
      <trkpt lat="45.91401" lon="6.5172">
        <ele>2228</ele>
        <time>2014-03-28T09:40:52.000Z</time>
      </trkpt>
      <trkpt lat="45.91398" lon="6.51719">
        <ele>2228.1999511719</ele>
        <time>2014-03-28T09:40:54.000Z</time>
      </trkpt>
      <trkpt lat="45.91395" lon="6.51718">
        <ele>2228.1999511719</ele>
        <time>2014-03-28T09:40:58.000Z</time>
      </trkpt>
      <trkpt lat="45.91394" lon="6.5172">
        <ele>2226.1999511719</ele>
        <time>2014-03-28T09:41:05.000Z</time>
      </trkpt>
      <trkpt lat="45.91394" lon="6.51727">
        <ele>2221.1999511719</ele>
        <time>2014-03-28T09:41:09.000Z</time>
      </trkpt>
      <trkpt lat="45.91391" lon="6.51728">
        <ele>2220</ele>
        <time>2014-03-28T09:41:12.000Z</time>
      </trkpt>
      <trkpt lat="45.91391" lon="6.5173">
        <ele>2218.8000488281</ele>
        <time>2014-03-28T09:41:13.000Z</time>
      </trkpt>
      <trkpt lat="45.91393" lon="6.51731">
        <ele>2218.3999023438</ele>
        <time>2014-03-28T09:41:21.000Z</time>
      </trkpt>
      <trkpt lat="45.91393" lon="6.51731">
        <ele>2218.3999023438</ele>
        <time>2014-03-28T09:41:22.000Z</time>
      </trkpt>
      <trkpt lat="45.91387" lon="6.51734">
        <ele>2214.1999511719</ele>
        <time>2014-03-28T09:41:26.000Z</time>
      </trkpt>
      <trkpt lat="45.91386" lon="6.51734">
        <ele>2213.6000976562</ele>
        <time>2014-03-28T09:41:27.000Z</time>
      </trkpt>
      <trkpt lat="45.91387" lon="6.51743">
        <ele>2208.3999023438</ele>
        <time>2014-03-28T09:41:30.000Z</time>
      </trkpt>
      <trkpt lat="45.91392" lon="6.51748">
        <ele>2206.3999023438</ele>
        <time>2014-03-28T09:41:32.000Z</time>
      </trkpt>
      <trkpt lat="45.91395" lon="6.51749">
        <ele>2206.8000488281</ele>
        <time>2014-03-28T09:41:38.000Z</time>
      </trkpt>
      <trkpt lat="45.914" lon="6.51752">
        <ele>2204.1999511719</ele>
        <time>2014-03-28T09:41:43.000Z</time>
      </trkpt>
      <trkpt lat="45.91417" lon="6.51771">
        <ele>2181.8000488281</ele>
        <time>2014-03-28T09:41:46.000Z</time>
      </trkpt>
      <trkpt lat="45.91443" lon="6.51799">
        <ele>2164.3999023438</ele>
        <time>2014-03-28T09:41:50.000Z</time>
      </trkpt>
      <trkpt lat="45.91457" lon="6.51815">
        <ele>2163.1999511719</ele>
        <time>2014-03-28T09:41:53.000Z</time>
      </trkpt>
      <trkpt lat="45.91468" lon="6.51841">
        <ele>2158.1999511719</ele>
        <time>2014-03-28T09:41:57.000Z</time>
      </trkpt>
      <trkpt lat="45.91469" lon="6.51846">
        <ele>2155.6000976562</ele>
        <time>2014-03-28T09:41:58.000Z</time>
      </trkpt>
      <trkpt lat="45.9147" lon="6.51853">
        <ele>2152.3999023438</ele>
        <time>2014-03-28T09:42:01.000Z</time>
      </trkpt>
      <trkpt lat="45.91475" lon="6.5187">
        <ele>2146.6000976562</ele>
        <time>2014-03-28T09:42:06.000Z</time>
      </trkpt>
      <trkpt lat="45.91484" lon="6.51885">
        <ele>2144.1999511719</ele>
        <time>2014-03-28T09:42:10.000Z</time>
      </trkpt>
      <trkpt lat="45.91495" lon="6.51909">
        <ele>2134</ele>
        <time>2014-03-28T09:42:14.000Z</time>
      </trkpt>
      <trkpt lat="45.91497" lon="6.51916">
        <ele>2129</ele>
        <time>2014-03-28T09:42:15.000Z</time>
      </trkpt>
      <trkpt lat="45.91501" lon="6.51933">
        <ele>2120.6000976562</ele>
        <time>2014-03-28T09:42:18.000Z</time>
      </trkpt>
      <trkpt lat="45.91514" lon="6.51963">
        <ele>2109.8000488281</ele>
        <time>2014-03-28T09:42:24.000Z</time>
      </trkpt>
      <trkpt lat="45.91529" lon="6.51988">
        <ele>2103.8000488281</ele>
        <time>2014-03-28T09:42:29.000Z</time>
      </trkpt>
      <trkpt lat="45.91542" lon="6.52018">
        <ele>2096</ele>
        <time>2014-03-28T09:42:35.000Z</time>
      </trkpt>
      <trkpt lat="45.91556" lon="6.52047">
        <ele>2090.6000976562</ele>
        <time>2014-03-28T09:42:40.000Z</time>
      </trkpt>
      <trkpt lat="45.9157" lon="6.52078">
        <ele>2084.3999023438</ele>
        <time>2014-03-28T09:42:45.000Z</time>
      </trkpt>
      <trkpt lat="45.91577" lon="6.52093">
        <ele>2082.6000976562</ele>
        <time>2014-03-28T09:42:47.000Z</time>
      </trkpt>
      <trkpt lat="45.91583" lon="6.52107">
        <ele>2081.6000976562</ele>
        <time>2014-03-28T09:42:49.000Z</time>
      </trkpt>
      <trkpt lat="45.91588" lon="6.52139">
        <ele>2074.3999023438</ele>
        <time>2014-03-28T09:42:56.000Z</time>
      </trkpt>
      <trkpt lat="45.91592" lon="6.52159">
        <ele>2070.6000976562</ele>
        <time>2014-03-28T09:43:01.000Z</time>
      </trkpt>
      <trkpt lat="45.91599" lon="6.52175">
        <ele>2069</ele>
        <time>2014-03-28T09:43:06.000Z</time>
      </trkpt>
      <trkpt lat="45.91609" lon="6.5219">
        <ele>2069</ele>
        <time>2014-03-28T09:43:10.000Z</time>
      </trkpt>
      <trkpt lat="45.91616" lon="6.52206">
        <ele>2066</ele>
        <time>2014-03-28T09:43:14.000Z</time>
      </trkpt>
      <trkpt lat="45.91627" lon="6.52227">
        <ele>2063.3999023438</ele>
        <time>2014-03-28T09:43:18.000Z</time>
      </trkpt>
      <trkpt lat="45.91633" lon="6.52238">
        <ele>2061.1999511719</ele>
        <time>2014-03-28T09:43:21.000Z</time>
      </trkpt>
      <trkpt lat="45.91636" lon="6.52257">
        <ele>2055.1999511719</ele>
        <time>2014-03-28T09:43:25.000Z</time>
      </trkpt>
      <trkpt lat="45.91636" lon="6.52259">
        <ele>2054.6000976562</ele>
        <time>2014-03-28T09:43:29.000Z</time>
      </trkpt>
      <trkpt lat="45.91643" lon="6.5228">
        <ele>2050.3999023438</ele>
        <time>2014-03-28T09:43:34.000Z</time>
      </trkpt>
      <trkpt lat="45.91651" lon="6.5231">
        <ele>2044.4000244141</ele>
        <time>2014-03-28T09:43:39.000Z</time>
      </trkpt>
      <trkpt lat="45.91657" lon="6.52329">
        <ele>2040.5999755859</ele>
        <time>2014-03-28T09:43:42.000Z</time>
      </trkpt>
      <trkpt lat="45.91666" lon="6.52353">
        <ele>2038.8000488281</ele>
        <time>2014-03-28T09:43:46.000Z</time>
      </trkpt>
      <trkpt lat="45.91673" lon="6.52369">
        <ele>2038.5999755859</ele>
        <time>2014-03-28T09:43:49.000Z</time>
      </trkpt>
      <trkpt lat="45.91677" lon="6.52382">
        <ele>2037.4000244141</ele>
        <time>2014-03-28T09:43:52.000Z</time>
      </trkpt>
      <trkpt lat="45.91684" lon="6.52403">
        <ele>2036.1999511719</ele>
        <time>2014-03-28T09:43:56.000Z</time>
      </trkpt>
      <trkpt lat="45.91688" lon="6.52421">
        <ele>2033.5999755859</ele>
        <time>2014-03-28T09:44:00.000Z</time>
      </trkpt>
      <trkpt lat="45.9169" lon="6.52449">
        <ele>2027.5999755859</ele>
        <time>2014-03-28T09:44:05.000Z</time>
      </trkpt>
      <trkpt lat="45.91693" lon="6.5248">
        <ele>2021.1999511719</ele>
        <time>2014-03-28T09:44:10.000Z</time>
      </trkpt>
      <trkpt lat="45.91693" lon="6.52493">
        <ele>2017.5999755859</ele>
        <time>2014-03-28T09:44:15.000Z</time>
      </trkpt>
      <trkpt lat="45.91698" lon="6.52516">
        <ele>2016</ele>
        <time>2014-03-28T09:44:19.000Z</time>
      </trkpt>
      <trkpt lat="45.91705" lon="6.52562">
        <ele>2011.5999755859</ele>
        <time>2014-03-28T09:44:25.000Z</time>
      </trkpt>
      <trkpt lat="45.91706" lon="6.5257">
        <ele>2010.8000488281</ele>
        <time>2014-03-28T09:44:27.000Z</time>
      </trkpt>
      <trkpt lat="45.91709" lon="6.52584">
        <ele>2009.1999511719</ele>
        <time>2014-03-28T09:44:31.000Z</time>
      </trkpt>
      <trkpt lat="45.9171" lon="6.52587">
        <ele>2009.1999511719</ele>
        <time>2014-03-28T09:44:32.000Z</time>
      </trkpt>
      <trkpt lat="45.91714" lon="6.52616">
        <ele>2007.1999511719</ele>
        <time>2014-03-28T09:44:38.000Z</time>
      </trkpt>
      <trkpt lat="45.91716" lon="6.52632">
        <ele>2005.4000244141</ele>
        <time>2014-03-28T09:44:42.000Z</time>
      </trkpt>
      <trkpt lat="45.91717" lon="6.52656">
        <ele>2002.8000488281</ele>
        <time>2014-03-28T09:44:46.000Z</time>
      </trkpt>
      <trkpt lat="45.91717" lon="6.52659">
        <ele>2002.1999511719</ele>
        <time>2014-03-28T09:44:51.000Z</time>
      </trkpt>
      <trkpt lat="45.91717" lon="6.52659">
        <ele>2002.1999511719</ele>
        <time>2014-03-28T09:45:05.000Z</time>
      </trkpt>
      <trkpt lat="45.91718" lon="6.52658">
        <ele>2002.8000488281</ele>
        <time>2014-03-28T09:45:21.000Z</time>
      </trkpt>
      <trkpt lat="45.91718" lon="6.52657">
        <ele>2002.5999755859</ele>
        <time>2014-03-28T09:45:36.000Z</time>
      </trkpt>
      <trkpt lat="45.91717" lon="6.52656">
        <ele>2002.5999755859</ele>
        <time>2014-03-28T09:45:56.000Z</time>
      </trkpt>
      <trkpt lat="45.91717" lon="6.52657">
        <ele>2002.5999755859</ele>
        <time>2014-03-28T09:46:09.000Z</time>
      </trkpt>
      <trkpt lat="45.91717" lon="6.52656">
        <ele>2002.5999755859</ele>
        <time>2014-03-28T09:46:14.000Z</time>
      </trkpt>
      <trkpt lat="45.91717" lon="6.52657">
        <ele>2002.5999755859</ele>
        <time>2014-03-28T09:46:20.000Z</time>
      </trkpt>
      <trkpt lat="45.91718" lon="6.52657">
        <ele>2002.5999755859</ele>
        <time>2014-03-28T09:46:30.000Z</time>
      </trkpt>
      <trkpt lat="45.91718" lon="6.52657">
        <ele>2003</ele>
        <time>2014-03-28T09:46:37.000Z</time>
      </trkpt>
      <trkpt lat="45.91718" lon="6.52656">
        <ele>2003</ele>
        <time>2014-03-28T09:46:44.000Z</time>
      </trkpt>
      <trkpt lat="45.91717" lon="6.52656">
        <ele>2002.8000488281</ele>
        <time>2014-03-28T09:46:53.000Z</time>
      </trkpt>
      <trkpt lat="45.91717" lon="6.52655">
        <ele>2002.5999755859</ele>
        <time>2014-03-28T09:47:06.000Z</time>
      </trkpt>
      <trkpt lat="45.91717" lon="6.52655">
        <ele>2002.5999755859</ele>
        <time>2014-03-28T09:47:22.000Z</time>
      </trkpt>
      <trkpt lat="45.91717" lon="6.52655">
        <ele>2002.5999755859</ele>
        <time>2014-03-28T09:47:30.000Z</time>
      </trkpt>
      <trkpt lat="45.91717" lon="6.52655">
        <ele>2002.4000244141</ele>
        <time>2014-03-28T09:47:36.000Z</time>
      </trkpt>
      <trkpt lat="45.91716" lon="6.52656">
        <ele>2002.1999511719</ele>
        <time>2014-03-28T09:47:44.000Z</time>
      </trkpt>
      <trkpt lat="45.91716" lon="6.52656">
        <ele>2002.1999511719</ele>
        <time>2014-03-28T09:47:54.000Z</time>
      </trkpt>
      <trkpt lat="45.91717" lon="6.52656">
        <ele>2002.5999755859</ele>
        <time>2014-03-28T09:48:00.000Z</time>
      </trkpt>
      <trkpt lat="45.91717" lon="6.52655">
        <ele>2002.5999755859</ele>
        <time>2014-03-28T09:48:07.000Z</time>
      </trkpt>
      <trkpt lat="45.91717" lon="6.52656">
        <ele>2002.4000244141</ele>
        <time>2014-03-28T09:48:13.000Z</time>
      </trkpt>
      <trkpt lat="45.91716" lon="6.52656">
        <ele>2002.1999511719</ele>
        <time>2014-03-28T09:48:22.000Z</time>
      </trkpt>
      <trkpt lat="45.91716" lon="6.52656">
        <ele>2002</ele>
        <time>2014-03-28T09:48:29.000Z</time>
      </trkpt>
      <trkpt lat="45.91716" lon="6.52656">
        <ele>2002.1999511719</ele>
        <time>2014-03-28T09:48:47.000Z</time>
      </trkpt>
      <trkpt lat="45.91717" lon="6.52656">
        <ele>2002.5999755859</ele>
        <time>2014-03-28T09:48:54.000Z</time>
      </trkpt>
      <trkpt lat="45.91716" lon="6.52656">
        <ele>2002</ele>
        <time>2014-03-28T09:48:59.000Z</time>
      </trkpt>
      <trkpt lat="45.91715" lon="6.52657">
        <ele>2001.5999755859</ele>
        <time>2014-03-28T09:49:14.000Z</time>
      </trkpt>
      <trkpt lat="45.91715" lon="6.52657">
        <ele>2001.8000488281</ele>
        <time>2014-03-28T09:49:21.000Z</time>
      </trkpt>
      <trkpt lat="45.91715" lon="6.52657">
        <ele>2001.5999755859</ele>
        <time>2014-03-28T09:49:28.000Z</time>
      </trkpt>
      <trkpt lat="45.91715" lon="6.52657">
        <ele>2001.5999755859</ele>
        <time>2014-03-28T09:49:34.000Z</time>
      </trkpt>
      <trkpt lat="45.91715" lon="6.52658">
        <ele>2001.4000244141</ele>
        <time>2014-03-28T09:49:49.000Z</time>
      </trkpt>
      <trkpt lat="45.91715" lon="6.52657">
        <ele>2001.5999755859</ele>
        <time>2014-03-28T09:50:11.000Z</time>
      </trkpt>
      <trkpt lat="45.91716" lon="6.52656">
        <ele>2002</ele>
        <time>2014-03-28T09:50:23.000Z</time>
      </trkpt>
      <trkpt lat="45.91716" lon="6.52657">
        <ele>2001.8000488281</ele>
        <time>2014-03-28T09:50:32.000Z</time>
      </trkpt>
      <trkpt lat="45.91716" lon="6.52656">
        <ele>2002.1999511719</ele>
        <time>2014-03-28T09:50:39.000Z</time>
      </trkpt>
      <trkpt lat="45.91716" lon="6.52657">
        <ele>2002.1999511719</ele>
        <time>2014-03-28T09:50:46.000Z</time>
      </trkpt>
      <trkpt lat="45.91716" lon="6.52656">
        <ele>2002.1999511719</ele>
        <time>2014-03-28T09:50:58.000Z</time>
      </trkpt>
      <trkpt lat="45.91716" lon="6.52656">
        <ele>2002.1999511719</ele>
        <time>2014-03-28T09:51:14.000Z</time>
      </trkpt>
      <trkpt lat="45.91716" lon="6.52657">
        <ele>2001.8000488281</ele>
        <time>2014-03-28T09:51:18.000Z</time>
      </trkpt>
      <trkpt lat="45.91716" lon="6.52657">
        <ele>2002</ele>
        <time>2014-03-28T09:51:25.000Z</time>
      </trkpt>
      <trkpt lat="45.91717" lon="6.52659">
        <ele>2002</ele>
        <time>2014-03-28T09:51:45.000Z</time>
      </trkpt>
      <trkpt lat="45.91716" lon="6.52657">
        <ele>2002</ele>
        <time>2014-03-28T09:52:01.000Z</time>
      </trkpt>
      <trkpt lat="45.91716" lon="6.52657">
        <ele>2002.1999511719</ele>
        <time>2014-03-28T09:52:04.000Z</time>
      </trkpt>
      <trkpt lat="45.91716" lon="6.52657">
        <ele>2002.1999511719</ele>
        <time>2014-03-28T09:52:07.000Z</time>
      </trkpt>
      <trkpt lat="45.91716" lon="6.52657">
        <ele>2002.1999511719</ele>
        <time>2014-03-28T09:52:08.000Z</time>
      </trkpt>
      <trkpt lat="45.91716" lon="6.52656">
        <ele>2002.1999511719</ele>
        <time>2014-03-28T09:52:11.000Z</time>
      </trkpt>
      <trkpt lat="45.91716" lon="6.52656">
        <ele>2002</ele>
        <time>2014-03-28T09:52:20.000Z</time>
      </trkpt>
      <trkpt lat="45.91716" lon="6.52655">
        <ele>2002.1999511719</ele>
        <time>2014-03-28T09:52:27.000Z</time>
      </trkpt>
      <trkpt lat="45.91717" lon="6.52655">
        <ele>2002.8000488281</ele>
        <time>2014-03-28T09:52:53.000Z</time>
      </trkpt>
      <trkpt lat="45.91718" lon="6.52656">
        <ele>2002.8000488281</ele>
        <time>2014-03-28T09:53:01.000Z</time>
      </trkpt>
      <trkpt lat="45.91718" lon="6.52657">
        <ele>2002.8000488281</ele>
        <time>2014-03-28T09:53:10.000Z</time>
      </trkpt>
      <trkpt lat="45.91718" lon="6.52658">
        <ele>2002.5999755859</ele>
        <time>2014-03-28T09:53:18.000Z</time>
      </trkpt>
      <trkpt lat="45.91718" lon="6.52658">
        <ele>2002.5999755859</ele>
        <time>2014-03-28T09:53:32.000Z</time>
      </trkpt>
      <trkpt lat="45.91717" lon="6.52658">
        <ele>2002</ele>
        <time>2014-03-28T09:53:46.000Z</time>
      </trkpt>
      <trkpt lat="45.91716" lon="6.52657">
        <ele>2002</ele>
        <time>2014-03-28T09:53:58.000Z</time>
      </trkpt>
      <trkpt lat="45.91718" lon="6.52658">
        <ele>2002.5999755859</ele>
        <time>2014-03-28T09:54:10.000Z</time>
      </trkpt>
      <trkpt lat="45.91718" lon="6.52659">
        <ele>2002.5999755859</ele>
        <time>2014-03-28T09:54:40.000Z</time>
      </trkpt>
      <trkpt lat="45.91719" lon="6.5266">
        <ele>2002.8000488281</ele>
        <time>2014-03-28T09:54:46.000Z</time>
      </trkpt>
      <trkpt lat="45.91717" lon="6.52665">
        <ele>2001.4000244141</ele>
        <time>2014-03-28T09:55:02.000Z</time>
      </trkpt>
      <trkpt lat="45.91718" lon="6.52671">
        <ele>2001.1999511719</ele>
        <time>2014-03-28T09:55:08.000Z</time>
      </trkpt>
      <trkpt lat="45.91721" lon="6.52678">
        <ele>2001.8000488281</ele>
        <time>2014-03-28T09:55:15.000Z</time>
      </trkpt>
      <trkpt lat="45.91724" lon="6.52683">
        <ele>2002.4000244141</ele>
        <time>2014-03-28T09:55:19.000Z</time>
      </trkpt>
      <trkpt lat="45.91725" lon="6.52685">
        <ele>2003</ele>
        <time>2014-03-28T09:55:21.000Z</time>
      </trkpt>
      <trkpt lat="45.91729" lon="6.5269">
        <ele>2003.8000488281</ele>
        <time>2014-03-28T09:55:27.000Z</time>
      </trkpt>
      <trkpt lat="45.91731" lon="6.52697">
        <ele>2004</ele>
        <time>2014-03-28T09:55:33.000Z</time>
      </trkpt>
      <trkpt lat="45.91732" lon="6.52702">
        <ele>2004.1999511719</ele>
        <time>2014-03-28T09:55:39.000Z</time>
      </trkpt>
      <trkpt lat="45.91735" lon="6.52706">
        <ele>2004.5999755859</ele>
        <time>2014-03-28T09:55:43.000Z</time>
      </trkpt>
      <trkpt lat="45.91737" lon="6.52712">
        <ele>2005</ele>
        <time>2014-03-28T09:55:50.000Z</time>
      </trkpt>
      <trkpt lat="45.91739" lon="6.52717">
        <ele>2005.4000244141</ele>
        <time>2014-03-28T09:55:56.000Z</time>
      </trkpt>
      <trkpt lat="45.91742" lon="6.52723">
        <ele>2005.5999755859</ele>
        <time>2014-03-28T09:56:02.000Z</time>
      </trkpt>
      <trkpt lat="45.91745" lon="6.52729">
        <ele>2006</ele>
        <time>2014-03-28T09:56:08.000Z</time>
      </trkpt>
      <trkpt lat="45.91748" lon="6.52735">
        <ele>2006.1999511719</ele>
        <time>2014-03-28T09:56:14.000Z</time>
      </trkpt>
      <trkpt lat="45.91749" lon="6.52739">
        <ele>2006.1999511719</ele>
        <time>2014-03-28T09:56:19.000Z</time>
      </trkpt>
      <trkpt lat="45.91752" lon="6.52746">
        <ele>2006.5999755859</ele>
        <time>2014-03-28T09:56:25.000Z</time>
      </trkpt>
      <trkpt lat="45.91755" lon="6.52751">
        <ele>2007.5999755859</ele>
        <time>2014-03-28T09:56:31.000Z</time>
      </trkpt>
      <trkpt lat="45.91758" lon="6.52756">
        <ele>2009</ele>
        <time>2014-03-28T09:56:37.000Z</time>
      </trkpt>
      <trkpt lat="45.91762" lon="6.52761">
        <ele>2010.5999755859</ele>
        <time>2014-03-28T09:56:43.000Z</time>
      </trkpt>
      <trkpt lat="45.91766" lon="6.52767">
        <ele>2012.1999511719</ele>
        <time>2014-03-28T09:56:50.000Z</time>
      </trkpt>
      <trkpt lat="45.91768" lon="6.52771">
        <ele>2013.1999511719</ele>
        <time>2014-03-28T09:56:55.000Z</time>
      </trkpt>
      <trkpt lat="45.91772" lon="6.5278">
        <ele>2014.4000244141</ele>
        <time>2014-03-28T09:57:03.000Z</time>
      </trkpt>
      <trkpt lat="45.91774" lon="6.52783">
        <ele>2015.1999511719</ele>
        <time>2014-03-28T09:57:07.000Z</time>
      </trkpt>
      <trkpt lat="45.91776" lon="6.5279">
        <ele>2015.8000488281</ele>
        <time>2014-03-28T09:57:14.000Z</time>
      </trkpt>
      <trkpt lat="45.91779" lon="6.52795">
        <ele>2016.5999755859</ele>
        <time>2014-03-28T09:57:20.000Z</time>
      </trkpt>
      <trkpt lat="45.9178" lon="6.528">
        <ele>2017</ele>
        <time>2014-03-28T09:57:25.000Z</time>
      </trkpt>
      <trkpt lat="45.91784" lon="6.52805">
        <ele>2018</ele>
        <time>2014-03-28T09:57:31.000Z</time>
      </trkpt>
      <trkpt lat="45.91785" lon="6.52809">
        <ele>2018.4000244141</ele>
        <time>2014-03-28T09:57:36.000Z</time>
      </trkpt>
      <trkpt lat="45.91788" lon="6.52815">
        <ele>2019.1999511719</ele>
        <time>2014-03-28T09:57:42.000Z</time>
      </trkpt>
      <trkpt lat="45.9179" lon="6.5282">
        <ele>2019.8000488281</ele>
        <time>2014-03-28T09:57:47.000Z</time>
      </trkpt>
      <trkpt lat="45.91794" lon="6.52825">
        <ele>2020.4000244141</ele>
        <time>2014-03-28T09:57:53.000Z</time>
      </trkpt>
      <trkpt lat="45.91797" lon="6.52834">
        <ele>2021</ele>
        <time>2014-03-28T09:58:01.000Z</time>
      </trkpt>
      <trkpt lat="45.91799" lon="6.52841">
        <ele>2021.5999755859</ele>
        <time>2014-03-28T09:58:08.000Z</time>
      </trkpt>
      <trkpt lat="45.91801" lon="6.52846">
        <ele>2022.1999511719</ele>
        <time>2014-03-28T09:58:13.000Z</time>
      </trkpt>
      <trkpt lat="45.91803" lon="6.52852">
        <ele>2022.8000488281</ele>
        <time>2014-03-28T09:58:20.000Z</time>
      </trkpt>
      <trkpt lat="45.91806" lon="6.52858">
        <ele>2023.4000244141</ele>
        <time>2014-03-28T09:58:26.000Z</time>
      </trkpt>
      <trkpt lat="45.91808" lon="6.52864">
        <ele>2024</ele>
        <time>2014-03-28T09:58:32.000Z</time>
      </trkpt>
      <trkpt lat="45.9181" lon="6.5287">
        <ele>2024.4000244141</ele>
        <time>2014-03-28T09:58:38.000Z</time>
      </trkpt>
      <trkpt lat="45.91812" lon="6.52874">
        <ele>2024.5999755859</ele>
        <time>2014-03-28T09:58:43.000Z</time>
      </trkpt>
      <trkpt lat="45.91813" lon="6.52879">
        <ele>2025</ele>
        <time>2014-03-28T09:58:48.000Z</time>
      </trkpt>
      <trkpt lat="45.91816" lon="6.52884">
        <ele>2025.4000244141</ele>
        <time>2014-03-28T09:58:54.000Z</time>
      </trkpt>
      <trkpt lat="45.91817" lon="6.52889">
        <ele>2025.5999755859</ele>
        <time>2014-03-28T09:58:59.000Z</time>
      </trkpt>
      <trkpt lat="45.9182" lon="6.52894">
        <ele>2026</ele>
        <time>2014-03-28T09:59:04.000Z</time>
      </trkpt>
      <trkpt lat="45.91823" lon="6.52901">
        <ele>2026.1999511719</ele>
        <time>2014-03-28T09:59:11.000Z</time>
      </trkpt>
      <trkpt lat="45.91825" lon="6.52909">
        <ele>2026.4000244141</ele>
        <time>2014-03-28T09:59:18.000Z</time>
      </trkpt>
      <trkpt lat="45.91826" lon="6.52913">
        <ele>2026.4000244141</ele>
        <time>2014-03-28T09:59:22.000Z</time>
      </trkpt>
      <trkpt lat="45.91827" lon="6.52917">
        <ele>2026.1999511719</ele>
        <time>2014-03-28T09:59:26.000Z</time>
      </trkpt>
      <trkpt lat="45.91829" lon="6.52924">
        <ele>2026.5999755859</ele>
        <time>2014-03-28T09:59:32.000Z</time>
      </trkpt>
      <trkpt lat="45.91831" lon="6.52928">
        <ele>2026.8000488281</ele>
        <time>2014-03-28T09:59:37.000Z</time>
      </trkpt>
      <trkpt lat="45.91835" lon="6.52935">
        <ele>2027.8000488281</ele>
        <time>2014-03-28T09:59:45.000Z</time>
      </trkpt>
      <trkpt lat="45.91838" lon="6.52937">
        <ele>2028.8000488281</ele>
        <time>2014-03-28T09:59:49.000Z</time>
      </trkpt>
      <trkpt lat="45.91841" lon="6.52943">
        <ele>2029.8000488281</ele>
        <time>2014-03-28T09:59:56.000Z</time>
      </trkpt>
      <trkpt lat="45.91842" lon="6.52946">
        <ele>2030.4000244141</ele>
        <time>2014-03-28T10:00:00.000Z</time>
      </trkpt>
      <trkpt lat="45.91845" lon="6.52951">
        <ele>2031.4000244141</ele>
        <time>2014-03-28T10:00:06.000Z</time>
      </trkpt>
      <trkpt lat="45.91848" lon="6.52954">
        <ele>2032.1999511719</ele>
        <time>2014-03-28T10:00:11.000Z</time>
      </trkpt>
      <trkpt lat="45.9185" lon="6.52958">
        <ele>2033</ele>
        <time>2014-03-28T10:00:17.000Z</time>
      </trkpt>
      <trkpt lat="45.91854" lon="6.52963">
        <ele>2034.1999511719</ele>
        <time>2014-03-28T10:00:23.000Z</time>
      </trkpt>
      <trkpt lat="45.91856" lon="6.52966">
        <ele>2035</ele>
        <time>2014-03-28T10:00:27.000Z</time>
      </trkpt>
      <trkpt lat="45.91859" lon="6.52972">
        <ele>2036</ele>
        <time>2014-03-28T10:00:34.000Z</time>
      </trkpt>
      <trkpt lat="45.91862" lon="6.52977">
        <ele>2037</ele>
        <time>2014-03-28T10:00:40.000Z</time>
      </trkpt>
      <trkpt lat="45.91865" lon="6.52981">
        <ele>2038</ele>
        <time>2014-03-28T10:00:46.000Z</time>
      </trkpt>
      <trkpt lat="45.91867" lon="6.52983">
        <ele>2038.8000488281</ele>
        <time>2014-03-28T10:00:50.000Z</time>
      </trkpt>
      <trkpt lat="45.91869" lon="6.52985">
        <ele>2039.5999755859</ele>
        <time>2014-03-28T10:00:54.000Z</time>
      </trkpt>
      <trkpt lat="45.91872" lon="6.52989">
        <ele>2040.5999755859</ele>
        <time>2014-03-28T10:01:00.000Z</time>
      </trkpt>
      <trkpt lat="45.91875" lon="6.52993">
        <ele>2041.5999755859</ele>
        <time>2014-03-28T10:01:06.000Z</time>
      </trkpt>
      <trkpt lat="45.91877" lon="6.52996">
        <ele>2042.1999511719</ele>
        <time>2014-03-28T10:01:10.000Z</time>
      </trkpt>
      <trkpt lat="45.9188" lon="6.52998">
        <ele>2043.1999511719</ele>
        <time>2014-03-28T10:01:14.000Z</time>
      </trkpt>
      <trkpt lat="45.91882" lon="6.53001">
        <ele>2044</ele>
        <time>2014-03-28T10:01:19.000Z</time>
      </trkpt>
      <trkpt lat="45.91885" lon="6.53004">
        <ele>2045</ele>
        <time>2014-03-28T10:01:24.000Z</time>
      </trkpt>
      <trkpt lat="45.91886" lon="6.53006">
        <ele>2045.8000488281</ele>
        <time>2014-03-28T10:01:28.000Z</time>
      </trkpt>
      <trkpt lat="45.91889" lon="6.53008">
        <ele>2046.5999755859</ele>
        <time>2014-03-28T10:01:32.000Z</time>
      </trkpt>
      <trkpt lat="45.91889" lon="6.53012">
        <ele>2047</ele>
        <time>2014-03-28T10:01:36.000Z</time>
      </trkpt>
      <trkpt lat="45.91891" lon="6.53015">
        <ele>2047.5999755859</ele>
        <time>2014-03-28T10:01:40.000Z</time>
      </trkpt>
      <trkpt lat="45.91893" lon="6.53017">
        <ele>2048.3999023438</ele>
        <time>2014-03-28T10:01:44.000Z</time>
      </trkpt>
      <trkpt lat="45.91896" lon="6.5302">
        <ele>2049.1999511719</ele>
        <time>2014-03-28T10:01:49.000Z</time>
      </trkpt>
      <trkpt lat="45.91899" lon="6.53024">
        <ele>2050.3999023438</ele>
        <time>2014-03-28T10:01:55.000Z</time>
      </trkpt>
      <trkpt lat="45.91901" lon="6.53027">
        <ele>2051.1999511719</ele>
        <time>2014-03-28T10:02:00.000Z</time>
      </trkpt>
      <trkpt lat="45.91903" lon="6.5303">
        <ele>2052</ele>
        <time>2014-03-28T10:02:05.000Z</time>
      </trkpt>
      <trkpt lat="45.91906" lon="6.53032">
        <ele>2053.1999511719</ele>
        <time>2014-03-28T10:02:11.000Z</time>
      </trkpt>
      <trkpt lat="45.91909" lon="6.53035">
        <ele>2053.8000488281</ele>
        <time>2014-03-28T10:02:17.000Z</time>
      </trkpt>
      <trkpt lat="45.91911" lon="6.53039">
        <ele>2054.3999023438</ele>
        <time>2014-03-28T10:02:23.000Z</time>
      </trkpt>
      <trkpt lat="45.91913" lon="6.53043">
        <ele>2055.1999511719</ele>
        <time>2014-03-28T10:02:29.000Z</time>
      </trkpt>
      <trkpt lat="45.91917" lon="6.53047">
        <ele>2056.3999023438</ele>
        <time>2014-03-28T10:02:36.000Z</time>
      </trkpt>
      <trkpt lat="45.9192" lon="6.53049">
        <ele>2057.3999023438</ele>
        <time>2014-03-28T10:02:41.000Z</time>
      </trkpt>
      <trkpt lat="45.91921" lon="6.53053">
        <ele>2058</ele>
        <time>2014-03-28T10:02:46.000Z</time>
      </trkpt>
      <trkpt lat="45.91923" lon="6.53057">
        <ele>2058.6000976562</ele>
        <time>2014-03-28T10:02:51.000Z</time>
      </trkpt>
      <trkpt lat="45.91925" lon="6.53063">
        <ele>2059.1999511719</ele>
        <time>2014-03-28T10:02:57.000Z</time>
      </trkpt>
      <trkpt lat="45.91927" lon="6.53067">
        <ele>2059.6000976562</ele>
        <time>2014-03-28T10:03:02.000Z</time>
      </trkpt>
      <trkpt lat="45.91929" lon="6.53071">
        <ele>2060.3999023438</ele>
        <time>2014-03-28T10:03:08.000Z</time>
      </trkpt>
      <trkpt lat="45.91931" lon="6.53074">
        <ele>2061</ele>
        <time>2014-03-28T10:03:13.000Z</time>
      </trkpt>
      <trkpt lat="45.91933" lon="6.53075">
        <ele>2061.6000976562</ele>
        <time>2014-03-28T10:03:16.000Z</time>
      </trkpt>
      <trkpt lat="45.91935" lon="6.53081">
        <ele>2062.1999511719</ele>
        <time>2014-03-28T10:03:22.000Z</time>
      </trkpt>
      <trkpt lat="45.91937" lon="6.53086">
        <ele>2063.1999511719</ele>
        <time>2014-03-28T10:03:28.000Z</time>
      </trkpt>
      <trkpt lat="45.91939" lon="6.53091">
        <ele>2064</ele>
        <time>2014-03-28T10:03:33.000Z</time>
      </trkpt>
      <trkpt lat="45.9194" lon="6.53092">
        <ele>2064.6000976562</ele>
        <time>2014-03-28T10:03:37.000Z</time>
      </trkpt>
      <trkpt lat="45.91939" lon="6.5309">
        <ele>2064</ele>
        <time>2014-03-28T10:03:43.000Z</time>
      </trkpt>
      <trkpt lat="45.91939" lon="6.5309">
        <ele>2064</ele>
        <time>2014-03-28T10:03:47.000Z</time>
      </trkpt>
      <trkpt lat="45.91972" lon="6.53137">
        <ele>2078.3999023438</ele>
        <time>2014-03-28T10:04:58.000Z</time>
      </trkpt>
      <trkpt lat="45.91972" lon="6.53138">
        <ele>2078.6000976562</ele>
        <time>2014-03-28T10:04:59.000Z</time>
      </trkpt>
      <trkpt lat="45.91975" lon="6.53141">
        <ele>2079.6000976562</ele>
        <time>2014-03-28T10:05:04.000Z</time>
      </trkpt>
      <trkpt lat="45.91977" lon="6.53143">
        <ele>2080.3999023438</ele>
        <time>2014-03-28T10:05:08.000Z</time>
      </trkpt>
      <trkpt lat="45.91979" lon="6.53146">
        <ele>2081.1999511719</ele>
        <time>2014-03-28T10:05:13.000Z</time>
      </trkpt>
      <trkpt lat="45.9198" lon="6.53149">
        <ele>2081.8000488281</ele>
        <time>2014-03-28T10:05:18.000Z</time>
      </trkpt>
      <trkpt lat="45.91982" lon="6.53152">
        <ele>2082.3999023438</ele>
        <time>2014-03-28T10:05:23.000Z</time>
      </trkpt>
      <trkpt lat="45.91984" lon="6.53155">
        <ele>2083</ele>
        <time>2014-03-28T10:05:27.000Z</time>
      </trkpt>
      <trkpt lat="45.91986" lon="6.53157">
        <ele>2083.8000488281</ele>
        <time>2014-03-28T10:05:30.000Z</time>
      </trkpt>
      <trkpt lat="45.91987" lon="6.53159">
        <ele>2084.3999023438</ele>
        <time>2014-03-28T10:05:34.000Z</time>
      </trkpt>
      <trkpt lat="45.91989" lon="6.53162">
        <ele>2085</ele>
        <time>2014-03-28T10:05:38.000Z</time>
      </trkpt>
      <trkpt lat="45.91991" lon="6.53165">
        <ele>2085.8000488281</ele>
        <time>2014-03-28T10:05:43.000Z</time>
      </trkpt>
      <trkpt lat="45.91994" lon="6.53169">
        <ele>2086.8000488281</ele>
        <time>2014-03-28T10:05:50.000Z</time>
      </trkpt>
      <trkpt lat="45.91996" lon="6.53172">
        <ele>2087.3999023438</ele>
        <time>2014-03-28T10:05:55.000Z</time>
      </trkpt>
      <trkpt lat="45.91998" lon="6.53175">
        <ele>2088.1999511719</ele>
        <time>2014-03-28T10:06:00.000Z</time>
      </trkpt>
      <trkpt lat="45.92" lon="6.53177">
        <ele>2088.8000488281</ele>
        <time>2014-03-28T10:06:04.000Z</time>
      </trkpt>
      <trkpt lat="45.92002" lon="6.5318">
        <ele>2089.6000976562</ele>
        <time>2014-03-28T10:06:09.000Z</time>
      </trkpt>
      <trkpt lat="45.92006" lon="6.53185">
        <ele>2091.6000976562</ele>
        <time>2014-03-28T10:06:16.000Z</time>
      </trkpt>
      <trkpt lat="45.9201" lon="6.5319">
        <ele>2093.3999023438</ele>
        <time>2014-03-28T10:06:23.000Z</time>
      </trkpt>
      <trkpt lat="45.92013" lon="6.53193">
        <ele>2094.6000976562</ele>
        <time>2014-03-28T10:06:28.000Z</time>
      </trkpt>
      <trkpt lat="45.92015" lon="6.53196">
        <ele>2095.6000976562</ele>
        <time>2014-03-28T10:06:32.000Z</time>
      </trkpt>
      <trkpt lat="45.92017" lon="6.53198">
        <ele>2096</ele>
        <time>2014-03-28T10:06:35.000Z</time>
      </trkpt>
      <trkpt lat="45.9202" lon="6.53202">
        <ele>2097.3999023438</ele>
        <time>2014-03-28T10:06:42.000Z</time>
      </trkpt>
      <trkpt lat="45.92022" lon="6.53205">
        <ele>2098.3999023438</ele>
        <time>2014-03-28T10:06:46.000Z</time>
      </trkpt>
      <trkpt lat="45.92026" lon="6.5321">
        <ele>2100</ele>
        <time>2014-03-28T10:06:53.000Z</time>
      </trkpt>
      <trkpt lat="45.92028" lon="6.53213">
        <ele>2100.8000488281</ele>
        <time>2014-03-28T10:06:58.000Z</time>
      </trkpt>
      <trkpt lat="45.92031" lon="6.53217">
        <ele>2102</ele>
        <time>2014-03-28T10:07:05.000Z</time>
      </trkpt>
      <trkpt lat="45.92034" lon="6.53221">
        <ele>2103</ele>
        <time>2014-03-28T10:07:11.000Z</time>
      </trkpt>
      <trkpt lat="45.92037" lon="6.53227">
        <ele>2104</ele>
        <time>2014-03-28T10:07:17.000Z</time>
      </trkpt>
      <trkpt lat="45.92039" lon="6.5323">
        <ele>2104.6000976562</ele>
        <time>2014-03-28T10:07:21.000Z</time>
      </trkpt>
      <trkpt lat="45.92041" lon="6.53234">
        <ele>2105.3999023438</ele>
        <time>2014-03-28T10:07:27.000Z</time>
      </trkpt>
      <trkpt lat="45.92043" lon="6.53238">
        <ele>2106</ele>
        <time>2014-03-28T10:07:32.000Z</time>
      </trkpt>
      <trkpt lat="45.92046" lon="6.53243">
        <ele>2106.6000976562</ele>
        <time>2014-03-28T10:07:38.000Z</time>
      </trkpt>
      <trkpt lat="45.92048" lon="6.53248">
        <ele>2107.1999511719</ele>
        <time>2014-03-28T10:07:44.000Z</time>
      </trkpt>
      <trkpt lat="45.9205" lon="6.53252">
        <ele>2108</ele>
        <time>2014-03-28T10:07:50.000Z</time>
      </trkpt>
      <trkpt lat="45.92052" lon="6.53255">
        <ele>2109</ele>
        <time>2014-03-28T10:07:54.000Z</time>
      </trkpt>
      <trkpt lat="45.92054" lon="6.53259">
        <ele>2110.1999511719</ele>
        <time>2014-03-28T10:08:01.000Z</time>
      </trkpt>
      <trkpt lat="45.92056" lon="6.53263">
        <ele>2111.1999511719</ele>
        <time>2014-03-28T10:08:07.000Z</time>
      </trkpt>
      <trkpt lat="45.92056" lon="6.53266">
        <ele>2111.3999023438</ele>
        <time>2014-03-28T10:08:11.000Z</time>
      </trkpt>
      <trkpt lat="45.92058" lon="6.53269">
        <ele>2112.1999511719</ele>
        <time>2014-03-28T10:08:15.000Z</time>
      </trkpt>
      <trkpt lat="45.9206" lon="6.53272">
        <ele>2113</ele>
        <time>2014-03-28T10:08:19.000Z</time>
      </trkpt>
      <trkpt lat="45.92061" lon="6.53276">
        <ele>2113.6000976562</ele>
        <time>2014-03-28T10:08:24.000Z</time>
      </trkpt>
      <trkpt lat="45.92063" lon="6.53279">
        <ele>2114.3999023438</ele>
        <time>2014-03-28T10:08:30.000Z</time>
      </trkpt>
      <trkpt lat="45.92066" lon="6.53284">
        <ele>2115.6000976562</ele>
        <time>2014-03-28T10:08:37.000Z</time>
      </trkpt>
      <trkpt lat="45.92067" lon="6.53286">
        <ele>2115.8000488281</ele>
        <time>2014-03-28T10:08:40.000Z</time>
      </trkpt>
      <trkpt lat="45.92069" lon="6.5329">
        <ele>2116.8000488281</ele>
        <time>2014-03-28T10:08:46.000Z</time>
      </trkpt>
      <trkpt lat="45.92072" lon="6.53295">
        <ele>2117.8000488281</ele>
        <time>2014-03-28T10:08:51.000Z</time>
      </trkpt>
      <trkpt lat="45.92075" lon="6.53301">
        <ele>2118.8000488281</ele>
        <time>2014-03-28T10:08:57.000Z</time>
      </trkpt>
      <trkpt lat="45.92078" lon="6.53307">
        <ele>2119.6000976562</ele>
        <time>2014-03-28T10:09:03.000Z</time>
      </trkpt>
      <trkpt lat="45.92081" lon="6.53312">
        <ele>2120.3999023438</ele>
        <time>2014-03-28T10:09:08.000Z</time>
      </trkpt>
      <trkpt lat="45.92084" lon="6.53318">
        <ele>2121.3999023438</ele>
        <time>2014-03-28T10:09:14.000Z</time>
      </trkpt>
      <trkpt lat="45.92085" lon="6.53323">
        <ele>2122</ele>
        <time>2014-03-28T10:09:20.000Z</time>
      </trkpt>
      <trkpt lat="45.92085" lon="6.53328">
        <ele>2121.8000488281</ele>
        <time>2014-03-28T10:09:25.000Z</time>
      </trkpt>
      <trkpt lat="45.92085" lon="6.53333">
        <ele>2122</ele>
        <time>2014-03-28T10:09:31.000Z</time>
      </trkpt>
      <trkpt lat="45.92086" lon="6.53339">
        <ele>2123.3999023438</ele>
        <time>2014-03-28T10:09:37.000Z</time>
      </trkpt>
      <trkpt lat="45.92088" lon="6.53342">
        <ele>2124.6000976562</ele>
        <time>2014-03-28T10:09:42.000Z</time>
      </trkpt>
      <trkpt lat="45.9209" lon="6.53345">
        <ele>2125.6000976562</ele>
        <time>2014-03-28T10:09:48.000Z</time>
      </trkpt>
      <trkpt lat="45.92089" lon="6.53346">
        <ele>2125.6000976562</ele>
        <time>2014-03-28T10:09:52.000Z</time>
      </trkpt>
      <trkpt lat="45.92091" lon="6.53342">
        <ele>2125.8000488281</ele>
        <time>2014-03-28T10:09:58.000Z</time>
      </trkpt>
      <trkpt lat="45.92092" lon="6.53339">
        <ele>2126.3999023438</ele>
        <time>2014-03-28T10:10:02.000Z</time>
      </trkpt>
      <trkpt lat="45.92094" lon="6.53337">
        <ele>2126.8000488281</ele>
        <time>2014-03-28T10:10:06.000Z</time>
      </trkpt>
      <trkpt lat="45.92095" lon="6.5334">
        <ele>2127.8000488281</ele>
        <time>2014-03-28T10:10:11.000Z</time>
      </trkpt>
      <trkpt lat="45.92096" lon="6.53344">
        <ele>2128.8000488281</ele>
        <time>2014-03-28T10:10:17.000Z</time>
      </trkpt>
      <trkpt lat="45.92098" lon="6.53348">
        <ele>2130.1999511719</ele>
        <time>2014-03-28T10:10:23.000Z</time>
      </trkpt>
      <trkpt lat="45.92099" lon="6.53351">
        <ele>2131</ele>
        <time>2014-03-28T10:10:27.000Z</time>
      </trkpt>
      <trkpt lat="45.92101" lon="6.53355">
        <ele>2132.3999023438</ele>
        <time>2014-03-28T10:10:31.000Z</time>
      </trkpt>
      <trkpt lat="45.92103" lon="6.53358">
        <ele>2134</ele>
        <time>2014-03-28T10:10:36.000Z</time>
      </trkpt>
      <trkpt lat="45.92104" lon="6.53361">
        <ele>2134.6000976562</ele>
        <time>2014-03-28T10:10:40.000Z</time>
      </trkpt>
      <trkpt lat="45.92105" lon="6.53362">
        <ele>2135.3999023438</ele>
        <time>2014-03-28T10:10:44.000Z</time>
      </trkpt>
      <trkpt lat="45.92106" lon="6.53365">
        <ele>2135.8000488281</ele>
        <time>2014-03-28T10:10:47.000Z</time>
      </trkpt>
      <trkpt lat="45.92107" lon="6.53368">
        <ele>2136.6000976562</ele>
        <time>2014-03-28T10:10:51.000Z</time>
      </trkpt>
      <trkpt lat="45.92109" lon="6.53372">
        <ele>2137.8000488281</ele>
        <time>2014-03-28T10:10:56.000Z</time>
      </trkpt>
      <trkpt lat="45.92111" lon="6.53375">
        <ele>2139.1999511719</ele>
        <time>2014-03-28T10:11:01.000Z</time>
      </trkpt>
      <trkpt lat="45.92114" lon="6.53379">
        <ele>2141</ele>
        <time>2014-03-28T10:11:07.000Z</time>
      </trkpt>
      <trkpt lat="45.92116" lon="6.53383">
        <ele>2142.6000976562</ele>
        <time>2014-03-28T10:11:13.000Z</time>
      </trkpt>
      <trkpt lat="45.9212" lon="6.53389">
        <ele>2144.6000976562</ele>
        <time>2014-03-28T10:11:20.000Z</time>
      </trkpt>
      <trkpt lat="45.92123" lon="6.53392">
        <ele>2146</ele>
        <time>2014-03-28T10:11:25.000Z</time>
      </trkpt>
      <trkpt lat="45.92125" lon="6.53396">
        <ele>2147.3999023438</ele>
        <time>2014-03-28T10:11:31.000Z</time>
      </trkpt>
      <trkpt lat="45.92128" lon="6.53401">
        <ele>2149</ele>
        <time>2014-03-28T10:11:38.000Z</time>
      </trkpt>
      <trkpt lat="45.9213" lon="6.53405">
        <ele>2150</ele>
        <time>2014-03-28T10:11:50.000Z</time>
      </trkpt>
      <trkpt lat="45.92131" lon="6.53413">
        <ele>2151</ele>
        <time>2014-03-28T10:11:57.000Z</time>
      </trkpt>
      <trkpt lat="45.92132" lon="6.53421">
        <ele>2153</ele>
        <time>2014-03-28T10:12:05.000Z</time>
      </trkpt>
      <trkpt lat="45.92132" lon="6.53425">
        <ele>2153.3999023438</ele>
        <time>2014-03-28T10:12:08.000Z</time>
      </trkpt>
      <trkpt lat="45.92133" lon="6.53428">
        <ele>2154.3999023438</ele>
        <time>2014-03-28T10:12:11.000Z</time>
      </trkpt>
      <trkpt lat="45.92133" lon="6.53433">
        <ele>2155.8000488281</ele>
        <time>2014-03-28T10:12:16.000Z</time>
      </trkpt>
      <trkpt lat="45.92135" lon="6.53437">
        <ele>2157.1999511719</ele>
        <time>2014-03-28T10:12:22.000Z</time>
      </trkpt>
      <trkpt lat="45.92135" lon="6.53441">
        <ele>2158</ele>
        <time>2014-03-28T10:12:26.000Z</time>
      </trkpt>
      <trkpt lat="45.92135" lon="6.53446">
        <ele>2159</ele>
        <time>2014-03-28T10:12:31.000Z</time>
      </trkpt>
      <trkpt lat="45.92136" lon="6.5345">
        <ele>2160</ele>
        <time>2014-03-28T10:12:36.000Z</time>
      </trkpt>
      <trkpt lat="45.92137" lon="6.53454">
        <ele>2161.1999511719</ele>
        <time>2014-03-28T10:12:41.000Z</time>
      </trkpt>
      <trkpt lat="45.92138" lon="6.53457">
        <ele>2162</ele>
        <time>2014-03-28T10:12:45.000Z</time>
      </trkpt>
      <trkpt lat="45.9214" lon="6.5346">
        <ele>2163</ele>
        <time>2014-03-28T10:12:50.000Z</time>
      </trkpt>
      <trkpt lat="45.92142" lon="6.53462">
        <ele>2163.8000488281</ele>
        <time>2014-03-28T10:12:54.000Z</time>
      </trkpt>
      <trkpt lat="45.92145" lon="6.53465">
        <ele>2165</ele>
        <time>2014-03-28T10:13:01.000Z</time>
      </trkpt>
      <trkpt lat="45.92147" lon="6.53467">
        <ele>2165.6000976562</ele>
        <time>2014-03-28T10:13:05.000Z</time>
      </trkpt>
      <trkpt lat="45.92149" lon="6.53468">
        <ele>2166.1999511719</ele>
        <time>2014-03-28T10:13:09.000Z</time>
      </trkpt>
      <trkpt lat="45.92151" lon="6.53472">
        <ele>2167</ele>
        <time>2014-03-28T10:13:16.000Z</time>
      </trkpt>
      <trkpt lat="45.92152" lon="6.53475">
        <ele>2167.8000488281</ele>
        <time>2014-03-28T10:13:21.000Z</time>
      </trkpt>
      <trkpt lat="45.92153" lon="6.53477">
        <ele>2168.1999511719</ele>
        <time>2014-03-28T10:13:25.000Z</time>
      </trkpt>
      <trkpt lat="45.92155" lon="6.53479">
        <ele>2168.6000976562</ele>
        <time>2014-03-28T10:13:29.000Z</time>
      </trkpt>
      <trkpt lat="45.92157" lon="6.53481">
        <ele>2169.1999511719</ele>
        <time>2014-03-28T10:13:35.000Z</time>
      </trkpt>
      <trkpt lat="45.92158" lon="6.53483">
        <ele>2169.6000976562</ele>
        <time>2014-03-28T10:13:39.000Z</time>
      </trkpt>
      <trkpt lat="45.9216" lon="6.53483">
        <ele>2169.8000488281</ele>
        <time>2014-03-28T10:13:45.000Z</time>
      </trkpt>
      <trkpt lat="45.9216" lon="6.53483">
        <ele>2169.8000488281</ele>
        <time>2014-03-28T10:13:53.000Z</time>
      </trkpt>
      <trkpt lat="45.92162" lon="6.53486">
        <ele>2170.3999023438</ele>
        <time>2014-03-28T10:13:59.000Z</time>
      </trkpt>
      <trkpt lat="45.92164" lon="6.53487">
        <ele>2170.6000976562</ele>
        <time>2014-03-28T10:14:03.000Z</time>
      </trkpt>
      <trkpt lat="45.92167" lon="6.53488">
        <ele>2171.1999511719</ele>
        <time>2014-03-28T10:14:09.000Z</time>
      </trkpt>
      <trkpt lat="45.92169" lon="6.53489">
        <ele>2172</ele>
        <time>2014-03-28T10:14:13.000Z</time>
      </trkpt>
      <trkpt lat="45.92171" lon="6.5349">
        <ele>2172.8000488281</ele>
        <time>2014-03-28T10:14:17.000Z</time>
      </trkpt>
      <trkpt lat="45.92173" lon="6.53489">
        <ele>2173.8000488281</ele>
        <time>2014-03-28T10:14:20.000Z</time>
      </trkpt>
      <trkpt lat="45.92176" lon="6.53491">
        <ele>2175</ele>
        <time>2014-03-28T10:14:25.000Z</time>
      </trkpt>
      <trkpt lat="45.92179" lon="6.53492">
        <ele>2176.6000976562</ele>
        <time>2014-03-28T10:14:31.000Z</time>
      </trkpt>
      <trkpt lat="45.92181" lon="6.53493">
        <ele>2177.3999023438</ele>
        <time>2014-03-28T10:14:35.000Z</time>
      </trkpt>
      <trkpt lat="45.92183" lon="6.53493">
        <ele>2178.1999511719</ele>
        <time>2014-03-28T10:14:40.000Z</time>
      </trkpt>
      <trkpt lat="45.92185" lon="6.53492">
        <ele>2179.1999511719</ele>
        <time>2014-03-28T10:14:43.000Z</time>
      </trkpt>
      <trkpt lat="45.92186" lon="6.53494">
        <ele>2179.3999023438</ele>
        <time>2014-03-28T10:14:46.000Z</time>
      </trkpt>
      <trkpt lat="45.92185" lon="6.53498">
        <ele>2179.6000976562</ele>
        <time>2014-03-28T10:14:51.000Z</time>
      </trkpt>
      <trkpt lat="45.92187" lon="6.53499">
        <ele>2180.3999023438</ele>
        <time>2014-03-28T10:14:55.000Z</time>
      </trkpt>
      <trkpt lat="45.92187" lon="6.53504">
        <ele>2181</ele>
        <time>2014-03-28T10:15:00.000Z</time>
      </trkpt>
      <trkpt lat="45.92186" lon="6.53506">
        <ele>2181.3999023438</ele>
        <time>2014-03-28T10:15:06.000Z</time>
      </trkpt>
      <trkpt lat="45.92183" lon="6.5351">
        <ele>2181</ele>
        <time>2014-03-28T10:15:12.000Z</time>
      </trkpt>
      <trkpt lat="45.9218" lon="6.53513">
        <ele>2181</ele>
        <time>2014-03-28T10:15:18.000Z</time>
      </trkpt>
      <trkpt lat="45.92181" lon="6.53514">
        <ele>2181.6000976562</ele>
        <time>2014-03-28T10:15:23.000Z</time>
      </trkpt>
      <trkpt lat="45.92183" lon="6.53519">
        <ele>2183.6000976562</ele>
        <time>2014-03-28T10:15:31.000Z</time>
      </trkpt>
      <trkpt lat="45.92187" lon="6.53521">
        <ele>2185.3999023438</ele>
        <time>2014-03-28T10:15:37.000Z</time>
      </trkpt>
      <trkpt lat="45.92189" lon="6.53523">
        <ele>2186.6000976562</ele>
        <time>2014-03-28T10:15:42.000Z</time>
      </trkpt>
      <trkpt lat="45.92188" lon="6.53526">
        <ele>2187</ele>
        <time>2014-03-28T10:15:49.000Z</time>
      </trkpt>
      <trkpt lat="45.92188" lon="6.53527">
        <ele>2187.3999023438</ele>
        <time>2014-03-28T10:16:01.000Z</time>
      </trkpt>
      <trkpt lat="45.92191" lon="6.5353">
        <ele>2189</ele>
        <time>2014-03-28T10:16:09.000Z</time>
      </trkpt>
      <trkpt lat="45.92194" lon="6.53531">
        <ele>2190</ele>
        <time>2014-03-28T10:16:14.000Z</time>
      </trkpt>
      <trkpt lat="45.92198" lon="6.53532">
        <ele>2191.6000976562</ele>
        <time>2014-03-28T10:16:20.000Z</time>
      </trkpt>
      <trkpt lat="45.922" lon="6.53533">
        <ele>2192.6000976562</ele>
        <time>2014-03-28T10:16:25.000Z</time>
      </trkpt>
      <trkpt lat="45.92202" lon="6.53533">
        <ele>2193</ele>
        <time>2014-03-28T10:16:29.000Z</time>
      </trkpt>
      <trkpt lat="45.92204" lon="6.53533">
        <ele>2193.8000488281</ele>
        <time>2014-03-28T10:16:33.000Z</time>
      </trkpt>
      <trkpt lat="45.92206" lon="6.53533">
        <ele>2194.3999023438</ele>
        <time>2014-03-28T10:16:37.000Z</time>
      </trkpt>
      <trkpt lat="45.92208" lon="6.53532">
        <ele>2194.8000488281</ele>
        <time>2014-03-28T10:16:41.000Z</time>
      </trkpt>
      <trkpt lat="45.9221" lon="6.53533">
        <ele>2195.6000976562</ele>
        <time>2014-03-28T10:16:46.000Z</time>
      </trkpt>
      <trkpt lat="45.92211" lon="6.53536">
        <ele>2196.6000976562</ele>
        <time>2014-03-28T10:16:50.000Z</time>
      </trkpt>
      <trkpt lat="45.92213" lon="6.53539">
        <ele>2197.8000488281</ele>
        <time>2014-03-28T10:16:55.000Z</time>
      </trkpt>
      <trkpt lat="45.92216" lon="6.53542">
        <ele>2199</ele>
        <time>2014-03-28T10:17:00.000Z</time>
      </trkpt>
      <trkpt lat="45.92219" lon="6.53541">
        <ele>2199.8000488281</ele>
        <time>2014-03-28T10:17:05.000Z</time>
      </trkpt>
      <trkpt lat="45.92221" lon="6.53542">
        <ele>2200.3999023438</ele>
        <time>2014-03-28T10:17:09.000Z</time>
      </trkpt>
      <trkpt lat="45.92223" lon="6.53542">
        <ele>2201</ele>
        <time>2014-03-28T10:17:14.000Z</time>
      </trkpt>
      <trkpt lat="45.92225" lon="6.53543">
        <ele>2201.8000488281</ele>
        <time>2014-03-28T10:17:19.000Z</time>
      </trkpt>
      <trkpt lat="45.92227" lon="6.53543">
        <ele>2202.6000976562</ele>
        <time>2014-03-28T10:17:24.000Z</time>
      </trkpt>
      <trkpt lat="45.9223" lon="6.53544">
        <ele>2203.6000976562</ele>
        <time>2014-03-28T10:17:29.000Z</time>
      </trkpt>
      <trkpt lat="45.92233" lon="6.53545">
        <ele>2204.3999023438</ele>
        <time>2014-03-28T10:17:34.000Z</time>
      </trkpt>
      <trkpt lat="45.92234" lon="6.53545">
        <ele>2204.6000976562</ele>
        <time>2014-03-28T10:17:37.000Z</time>
      </trkpt>
      <trkpt lat="45.92236" lon="6.53546">
        <ele>2205.1999511719</ele>
        <time>2014-03-28T10:17:41.000Z</time>
      </trkpt>
      <trkpt lat="45.92239" lon="6.53547">
        <ele>2206.1999511719</ele>
        <time>2014-03-28T10:17:46.000Z</time>
      </trkpt>
      <trkpt lat="45.92242" lon="6.53547">
        <ele>2207.1999511719</ele>
        <time>2014-03-28T10:17:51.000Z</time>
      </trkpt>
      <trkpt lat="45.92247" lon="6.53548">
        <ele>2208.3999023438</ele>
        <time>2014-03-28T10:17:58.000Z</time>
      </trkpt>
      <trkpt lat="45.9225" lon="6.53549">
        <ele>2209.3999023438</ele>
        <time>2014-03-28T10:18:04.000Z</time>
      </trkpt>
      <trkpt lat="45.92252" lon="6.53551">
        <ele>2210.1999511719</ele>
        <time>2014-03-28T10:18:09.000Z</time>
      </trkpt>
      <trkpt lat="45.92253" lon="6.53553">
        <ele>2210.6000976562</ele>
        <time>2014-03-28T10:18:13.000Z</time>
      </trkpt>
      <trkpt lat="45.92255" lon="6.53554">
        <ele>2211</ele>
        <time>2014-03-28T10:18:17.000Z</time>
      </trkpt>
      <trkpt lat="45.92258" lon="6.53556">
        <ele>2211.8000488281</ele>
        <time>2014-03-28T10:18:23.000Z</time>
      </trkpt>
      <trkpt lat="45.92261" lon="6.5356">
        <ele>2212.6000976562</ele>
        <time>2014-03-28T10:18:29.000Z</time>
      </trkpt>
      <trkpt lat="45.92263" lon="6.53564">
        <ele>2213.1999511719</ele>
        <time>2014-03-28T10:18:35.000Z</time>
      </trkpt>
      <trkpt lat="45.92266" lon="6.53567">
        <ele>2213.8000488281</ele>
        <time>2014-03-28T10:18:41.000Z</time>
      </trkpt>
      <trkpt lat="45.92268" lon="6.5357">
        <ele>2214.1999511719</ele>
        <time>2014-03-28T10:18:46.000Z</time>
      </trkpt>
      <trkpt lat="45.92269" lon="6.53572">
        <ele>2214.3999023438</ele>
        <time>2014-03-28T10:18:52.000Z</time>
      </trkpt>
      <trkpt lat="45.92272" lon="6.53576">
        <ele>2214.8000488281</ele>
        <time>2014-03-28T10:18:58.000Z</time>
      </trkpt>
      <trkpt lat="45.92274" lon="6.5358">
        <ele>2215.1999511719</ele>
        <time>2014-03-28T10:19:04.000Z</time>
      </trkpt>
      <trkpt lat="45.92276" lon="6.53583">
        <ele>2215.3999023438</ele>
        <time>2014-03-28T10:19:09.000Z</time>
      </trkpt>
      <trkpt lat="45.92279" lon="6.53587">
        <ele>2215.6000976562</ele>
        <time>2014-03-28T10:19:15.000Z</time>
      </trkpt>
      <trkpt lat="45.92281" lon="6.53591">
        <ele>2215.6000976562</ele>
        <time>2014-03-28T10:19:21.000Z</time>
      </trkpt>
      <trkpt lat="45.92283" lon="6.53595">
        <ele>2215.6000976562</ele>
        <time>2014-03-28T10:19:27.000Z</time>
      </trkpt>
      <trkpt lat="45.92285" lon="6.53598">
        <ele>2215.3999023438</ele>
        <time>2014-03-28T10:19:32.000Z</time>
      </trkpt>
      <trkpt lat="45.92287" lon="6.53602">
        <ele>2215.1999511719</ele>
        <time>2014-03-28T10:19:38.000Z</time>
      </trkpt>
      <trkpt lat="45.92289" lon="6.53606">
        <ele>2215</ele>
        <time>2014-03-28T10:19:44.000Z</time>
      </trkpt>
      <trkpt lat="45.92291" lon="6.53611">
        <ele>2214.6000976562</ele>
        <time>2014-03-28T10:19:50.000Z</time>
      </trkpt>
      <trkpt lat="45.92292" lon="6.53613">
        <ele>2214.1999511719</ele>
        <time>2014-03-28T10:19:55.000Z</time>
      </trkpt>
      <trkpt lat="45.92293" lon="6.53616">
        <ele>2214</ele>
        <time>2014-03-28T10:20:04.000Z</time>
      </trkpt>
      <trkpt lat="45.92294" lon="6.53617">
        <ele>2213.8000488281</ele>
        <time>2014-03-28T10:20:12.000Z</time>
      </trkpt>
      <trkpt lat="45.92294" lon="6.53616">
        <ele>2214</ele>
        <time>2014-03-28T10:20:33.000Z</time>
      </trkpt>
      <trkpt lat="45.92294" lon="6.53615">
        <ele>2214</ele>
        <time>2014-03-28T10:20:47.000Z</time>
      </trkpt>
      <trkpt lat="45.92294" lon="6.53614">
        <ele>2214.1999511719</ele>
        <time>2014-03-28T10:20:57.000Z</time>
      </trkpt>
      <trkpt lat="45.92293" lon="6.53613">
        <ele>2214.1999511719</ele>
        <time>2014-03-28T10:21:21.000Z</time>
      </trkpt>
      <trkpt lat="45.92294" lon="6.53612">
        <ele>2214.3999023438</ele>
        <time>2014-03-28T10:21:36.000Z</time>
      </trkpt>
      <trkpt lat="45.92293" lon="6.53612">
        <ele>2214.3999023438</ele>
        <time>2014-03-28T10:21:53.000Z</time>
      </trkpt>
      <trkpt lat="45.92293" lon="6.53613">
        <ele>2214.3999023438</ele>
        <time>2014-03-28T10:22:08.000Z</time>
      </trkpt>
      <trkpt lat="45.92292" lon="6.53612">
        <ele>2214.3999023438</ele>
        <time>2014-03-28T10:22:17.000Z</time>
      </trkpt>
      <trkpt lat="45.92292" lon="6.53613">
        <ele>2214.3999023438</ele>
        <time>2014-03-28T10:22:44.000Z</time>
      </trkpt>
      <trkpt lat="45.92293" lon="6.53612">
        <ele>2214.3999023438</ele>
        <time>2014-03-28T10:23:05.000Z</time>
      </trkpt>
      <trkpt lat="45.92293" lon="6.53613">
        <ele>2214.3999023438</ele>
        <time>2014-03-28T10:23:32.000Z</time>
      </trkpt>
      <trkpt lat="45.92293" lon="6.53612">
        <ele>2214.3999023438</ele>
        <time>2014-03-28T10:23:40.000Z</time>
      </trkpt>
      <trkpt lat="45.92294" lon="6.53613">
        <ele>2214.3999023438</ele>
        <time>2014-03-28T10:23:48.000Z</time>
      </trkpt>
      <trkpt lat="45.92295" lon="6.53611">
        <ele>2214.6000976562</ele>
        <time>2014-03-28T10:24:09.000Z</time>
      </trkpt>
      <trkpt lat="45.92295" lon="6.5361">
        <ele>2214.6000976562</ele>
        <time>2014-03-28T10:24:17.000Z</time>
      </trkpt>
      <trkpt lat="45.92297" lon="6.53606">
        <ele>2215.1999511719</ele>
        <time>2014-03-28T10:24:35.000Z</time>
      </trkpt>
      <trkpt lat="45.92299" lon="6.53602">
        <ele>2215.8000488281</ele>
        <time>2014-03-28T10:24:40.000Z</time>
      </trkpt>
      <trkpt lat="45.92301" lon="6.53597">
        <ele>2216.6000976562</ele>
        <time>2014-03-28T10:24:46.000Z</time>
      </trkpt>
      <trkpt lat="45.92302" lon="6.53593">
        <ele>2217.3999023438</ele>
        <time>2014-03-28T10:24:52.000Z</time>
      </trkpt>
      <trkpt lat="45.92304" lon="6.5359">
        <ele>2218</ele>
        <time>2014-03-28T10:24:57.000Z</time>
      </trkpt>
      <trkpt lat="45.92306" lon="6.53591">
        <ele>2218</ele>
        <time>2014-03-28T10:25:02.000Z</time>
      </trkpt>
      <trkpt lat="45.92309" lon="6.53592">
        <ele>2218.1999511719</ele>
        <time>2014-03-28T10:25:09.000Z</time>
      </trkpt>
      <trkpt lat="45.92309" lon="6.53589">
        <ele>2218.8000488281</ele>
        <time>2014-03-28T10:25:14.000Z</time>
      </trkpt>
      <trkpt lat="45.92309" lon="6.53585">
        <ele>2219.6000976562</ele>
        <time>2014-03-28T10:25:19.000Z</time>
      </trkpt>
      <trkpt lat="45.92309" lon="6.53582">
        <ele>2220</ele>
        <time>2014-03-28T10:25:24.000Z</time>
      </trkpt>
      <trkpt lat="45.9231" lon="6.5358">
        <ele>2220.3999023438</ele>
        <time>2014-03-28T10:25:28.000Z</time>
      </trkpt>
      <trkpt lat="45.92311" lon="6.53582">
        <ele>2220.3999023438</ele>
        <time>2014-03-28T10:25:35.000Z</time>
      </trkpt>
      <trkpt lat="45.92314" lon="6.53584">
        <ele>2220.3999023438</ele>
        <time>2014-03-28T10:25:40.000Z</time>
      </trkpt>
      <trkpt lat="45.92314" lon="6.53583">
        <ele>2220.3999023438</ele>
        <time>2014-03-28T10:25:44.000Z</time>
      </trkpt>
      <trkpt lat="45.92314" lon="6.53582">
        <ele>2220.8000488281</ele>
        <time>2014-03-28T10:25:49.000Z</time>
      </trkpt>
      <trkpt lat="45.92314" lon="6.53577">
        <ele>2221.3999023438</ele>
        <time>2014-03-28T10:25:54.000Z</time>
      </trkpt>
      <trkpt lat="45.92314" lon="6.53573">
        <ele>2221.8000488281</ele>
        <time>2014-03-28T10:25:58.000Z</time>
      </trkpt>
      <trkpt lat="45.92314" lon="6.5357">
        <ele>2222.3999023438</ele>
        <time>2014-03-28T10:26:02.000Z</time>
      </trkpt>
      <trkpt lat="45.92315" lon="6.5357">
        <ele>2222.6000976562</ele>
        <time>2014-03-28T10:26:07.000Z</time>
      </trkpt>
      <trkpt lat="45.92319" lon="6.53573">
        <ele>2222.6000976562</ele>
        <time>2014-03-28T10:26:14.000Z</time>
      </trkpt>
      <trkpt lat="45.92321" lon="6.53575">
        <ele>2222.8000488281</ele>
        <time>2014-03-28T10:26:19.000Z</time>
      </trkpt>
      <trkpt lat="45.92321" lon="6.53574">
        <ele>2222.8000488281</ele>
        <time>2014-03-28T10:26:23.000Z</time>
      </trkpt>
      <trkpt lat="45.9232" lon="6.5357">
        <ele>2223.6000976562</ele>
        <time>2014-03-28T10:26:29.000Z</time>
      </trkpt>
      <trkpt lat="45.9232" lon="6.53565">
        <ele>2224.1999511719</ele>
        <time>2014-03-28T10:26:34.000Z</time>
      </trkpt>
      <trkpt lat="45.9232" lon="6.53561">
        <ele>2225</ele>
        <time>2014-03-28T10:26:39.000Z</time>
      </trkpt>
      <trkpt lat="45.92321" lon="6.53556">
        <ele>2225.8000488281</ele>
        <time>2014-03-28T10:26:44.000Z</time>
      </trkpt>
      <trkpt lat="45.92321" lon="6.53551">
        <ele>2226.8000488281</ele>
        <time>2014-03-28T10:26:51.000Z</time>
      </trkpt>
      <trkpt lat="45.92323" lon="6.53549">
        <ele>2227.6000976562</ele>
        <time>2014-03-28T10:26:57.000Z</time>
      </trkpt>
      <trkpt lat="45.92325" lon="6.53549">
        <ele>2228</ele>
        <time>2014-03-28T10:27:01.000Z</time>
      </trkpt>
      <trkpt lat="45.92328" lon="6.5355">
        <ele>2228.3999023438</ele>
        <time>2014-03-28T10:27:07.000Z</time>
      </trkpt>
      <trkpt lat="45.9233" lon="6.5355">
        <ele>2229</ele>
        <time>2014-03-28T10:27:13.000Z</time>
      </trkpt>
      <trkpt lat="45.92333" lon="6.53546">
        <ele>2230.3999023438</ele>
        <time>2014-03-28T10:27:20.000Z</time>
      </trkpt>
      <trkpt lat="45.92333" lon="6.53541">
        <ele>2231.6000976562</ele>
        <time>2014-03-28T10:27:26.000Z</time>
      </trkpt>
      <trkpt lat="45.92334" lon="6.53535">
        <ele>2233.3999023438</ele>
        <time>2014-03-28T10:27:34.000Z</time>
      </trkpt>
      <trkpt lat="45.92335" lon="6.53531">
        <ele>2234.1999511719</ele>
        <time>2014-03-28T10:27:40.000Z</time>
      </trkpt>
      <trkpt lat="45.92336" lon="6.53528">
        <ele>2235.6000976562</ele>
        <time>2014-03-28T10:27:45.000Z</time>
      </trkpt>
      <trkpt lat="45.92337" lon="6.53528">
        <ele>2236</ele>
        <time>2014-03-28T10:27:49.000Z</time>
      </trkpt>
      <trkpt lat="45.92337" lon="6.53529">
        <ele>2235.6000976562</ele>
        <time>2014-03-28T10:28:03.000Z</time>
      </trkpt>
      <trkpt lat="45.92339" lon="6.53529">
        <ele>2236.8000488281</ele>
        <time>2014-03-28T10:28:08.000Z</time>
      </trkpt>
      <trkpt lat="45.92342" lon="6.5353">
        <ele>2238</ele>
        <time>2014-03-28T10:28:14.000Z</time>
      </trkpt>
      <trkpt lat="45.92344" lon="6.5353">
        <ele>2239</ele>
        <time>2014-03-28T10:28:19.000Z</time>
      </trkpt>
      <trkpt lat="45.92347" lon="6.53529">
        <ele>2240.1999511719</ele>
        <time>2014-03-28T10:28:25.000Z</time>
      </trkpt>
      <trkpt lat="45.92351" lon="6.53529">
        <ele>2242</ele>
        <time>2014-03-28T10:28:32.000Z</time>
      </trkpt>
      <trkpt lat="45.92355" lon="6.5353">
        <ele>2243.6000976562</ele>
        <time>2014-03-28T10:28:38.000Z</time>
      </trkpt>
      <trkpt lat="45.92359" lon="6.5353">
        <ele>2245.3999023438</ele>
        <time>2014-03-28T10:28:43.000Z</time>
      </trkpt>
      <trkpt lat="45.92363" lon="6.5353">
        <ele>2247.3999023438</ele>
        <time>2014-03-28T10:28:49.000Z</time>
      </trkpt>
      <trkpt lat="45.92366" lon="6.53529">
        <ele>2249.1999511719</ele>
        <time>2014-03-28T10:28:54.000Z</time>
      </trkpt>
      <trkpt lat="45.9237" lon="6.53529">
        <ele>2250.6000976562</ele>
        <time>2014-03-28T10:29:00.000Z</time>
      </trkpt>
      <trkpt lat="45.92373" lon="6.5353">
        <ele>2252</ele>
        <time>2014-03-28T10:29:06.000Z</time>
      </trkpt>
      <trkpt lat="45.92376" lon="6.5353">
        <ele>2253.6000976562</ele>
        <time>2014-03-28T10:29:12.000Z</time>
      </trkpt>
      <trkpt lat="45.9238" lon="6.53529">
        <ele>2255.6000976562</ele>
        <time>2014-03-28T10:29:18.000Z</time>
      </trkpt>
      <trkpt lat="45.92382" lon="6.53529">
        <ele>2256.1999511719</ele>
        <time>2014-03-28T10:29:23.000Z</time>
      </trkpt>
      <trkpt lat="45.92382" lon="6.53529">
        <ele>2256.6000976562</ele>
        <time>2014-03-28T10:29:30.000Z</time>
      </trkpt>
      <trkpt lat="45.92384" lon="6.53529">
        <ele>2257.6000976562</ele>
        <time>2014-03-28T10:29:36.000Z</time>
      </trkpt>
      <trkpt lat="45.92385" lon="6.53528">
        <ele>2258</ele>
        <time>2014-03-28T10:29:47.000Z</time>
      </trkpt>
      <trkpt lat="45.92387" lon="6.53527">
        <ele>2259.1999511719</ele>
        <time>2014-03-28T10:29:57.000Z</time>
      </trkpt>
      <trkpt lat="45.92391" lon="6.53526">
        <ele>2261.1999511719</ele>
        <time>2014-03-28T10:30:05.000Z</time>
      </trkpt>
      <trkpt lat="45.92391" lon="6.53526">
        <ele>2261.1999511719</ele>
        <time>2014-03-28T10:30:18.000Z</time>
      </trkpt>
      <trkpt lat="45.92392" lon="6.53524">
        <ele>2262.1999511719</ele>
        <time>2014-03-28T10:30:25.000Z</time>
      </trkpt>
      <trkpt lat="45.92395" lon="6.53523">
        <ele>2264.1999511719</ele>
        <time>2014-03-28T10:30:30.000Z</time>
      </trkpt>
      <trkpt lat="45.924" lon="6.53523">
        <ele>2266.1999511719</ele>
        <time>2014-03-28T10:30:36.000Z</time>
      </trkpt>
      <trkpt lat="45.92404" lon="6.53524">
        <ele>2268.1999511719</ele>
        <time>2014-03-28T10:30:43.000Z</time>
      </trkpt>
      <trkpt lat="45.92408" lon="6.53523">
        <ele>2270.1999511719</ele>
        <time>2014-03-28T10:30:48.000Z</time>
      </trkpt>
      <trkpt lat="45.92412" lon="6.53522">
        <ele>2272.3999023438</ele>
        <time>2014-03-28T10:30:54.000Z</time>
      </trkpt>
      <trkpt lat="45.92416" lon="6.53522">
        <ele>2274.3999023438</ele>
        <time>2014-03-28T10:30:59.000Z</time>
      </trkpt>
      <trkpt lat="45.9242" lon="6.53522">
        <ele>2274.6000976562</ele>
        <time>2014-03-28T10:31:06.000Z</time>
      </trkpt>
      <trkpt lat="45.92424" lon="6.53522">
        <ele>2274.8000488281</ele>
        <time>2014-03-28T10:31:13.000Z</time>
      </trkpt>
      <trkpt lat="45.92427" lon="6.53523">
        <ele>2274.8000488281</ele>
        <time>2014-03-28T10:31:18.000Z</time>
      </trkpt>
      <trkpt lat="45.92431" lon="6.53525">
        <ele>2274.6000976562</ele>
        <time>2014-03-28T10:31:25.000Z</time>
      </trkpt>
      <trkpt lat="45.92431" lon="6.53525">
        <ele>2274.3999023438</ele>
        <time>2014-03-28T10:31:33.000Z</time>
      </trkpt>
      <trkpt lat="45.92434" lon="6.53525">
        <ele>2274.6000976562</ele>
        <time>2014-03-28T10:31:38.000Z</time>
      </trkpt>
      <trkpt lat="45.92437" lon="6.53527">
        <ele>2274.3999023438</ele>
        <time>2014-03-28T10:31:43.000Z</time>
      </trkpt>
      <trkpt lat="45.92441" lon="6.53529">
        <ele>2273.8000488281</ele>
        <time>2014-03-28T10:31:49.000Z</time>
      </trkpt>
      <trkpt lat="45.92443" lon="6.53533">
        <ele>2272.6000976562</ele>
        <time>2014-03-28T10:31:54.000Z</time>
      </trkpt>
      <trkpt lat="45.92445" lon="6.53536">
        <ele>2271.6000976562</ele>
        <time>2014-03-28T10:32:00.000Z</time>
      </trkpt>
      <trkpt lat="45.92447" lon="6.5354">
        <ele>2270.1999511719</ele>
        <time>2014-03-28T10:32:05.000Z</time>
      </trkpt>
      <trkpt lat="45.92448" lon="6.53543">
        <ele>2269.3999023438</ele>
        <time>2014-03-28T10:32:11.000Z</time>
      </trkpt>
      <trkpt lat="45.9245" lon="6.53546">
        <ele>2268.3999023438</ele>
        <time>2014-03-28T10:32:17.000Z</time>
      </trkpt>
      <trkpt lat="45.92452" lon="6.53547">
        <ele>2268</ele>
        <time>2014-03-28T10:32:22.000Z</time>
      </trkpt>
      <trkpt lat="45.92454" lon="6.53549">
        <ele>2267.3999023438</ele>
        <time>2014-03-28T10:32:26.000Z</time>
      </trkpt>
      <trkpt lat="45.92456" lon="6.53549">
        <ele>2267.3999023438</ele>
        <time>2014-03-28T10:32:32.000Z</time>
      </trkpt>
      <trkpt lat="45.92458" lon="6.53549">
        <ele>2267.6000976562</ele>
        <time>2014-03-28T10:32:37.000Z</time>
      </trkpt>
      <trkpt lat="45.92458" lon="6.53547">
        <ele>2268.1999511719</ele>
        <time>2014-03-28T10:32:57.000Z</time>
      </trkpt>
      <trkpt lat="45.92457" lon="6.53547">
        <ele>2268.1999511719</ele>
        <time>2014-03-28T10:33:03.000Z</time>
      </trkpt>
      <trkpt lat="45.92457" lon="6.53546">
        <ele>2268.6000976562</ele>
        <time>2014-03-28T10:33:10.000Z</time>
      </trkpt>
      <trkpt lat="45.92456" lon="6.53544">
        <ele>2269.1999511719</ele>
        <time>2014-03-28T10:33:16.000Z</time>
      </trkpt>
      <trkpt lat="45.92456" lon="6.53539">
        <ele>2271</ele>
        <time>2014-03-28T10:33:21.000Z</time>
      </trkpt>
      <trkpt lat="45.92456" lon="6.53536">
        <ele>2272.3999023438</ele>
        <time>2014-03-28T10:33:25.000Z</time>
      </trkpt>
      <trkpt lat="45.92458" lon="6.53532">
        <ele>2273.6000976562</ele>
        <time>2014-03-28T10:33:29.000Z</time>
      </trkpt>
      <trkpt lat="45.9246" lon="6.53528">
        <ele>2275.3999023438</ele>
        <time>2014-03-28T10:33:35.000Z</time>
      </trkpt>
      <trkpt lat="45.92463" lon="6.53521">
        <ele>2278</ele>
        <time>2014-03-28T10:33:42.000Z</time>
      </trkpt>
      <trkpt lat="45.92466" lon="6.53516">
        <ele>2280</ele>
        <time>2014-03-28T10:33:50.000Z</time>
      </trkpt>
      <trkpt lat="45.92466" lon="6.53513">
        <ele>2281.6000976562</ele>
        <time>2014-03-28T10:33:55.000Z</time>
      </trkpt>
      <trkpt lat="45.92467" lon="6.53509">
        <ele>2283</ele>
        <time>2014-03-28T10:33:58.000Z</time>
      </trkpt>
      <trkpt lat="45.92466" lon="6.53506">
        <ele>2284.1999511719</ele>
        <time>2014-03-28T10:34:04.000Z</time>
      </trkpt>
      <trkpt lat="45.92464" lon="6.53501">
        <ele>2285.8000488281</ele>
        <time>2014-03-28T10:34:10.000Z</time>
      </trkpt>
      <trkpt lat="45.9246" lon="6.53496">
        <ele>2286.6000976562</ele>
        <time>2014-03-28T10:34:17.000Z</time>
      </trkpt>
      <trkpt lat="45.92457" lon="6.53492">
        <ele>2287</ele>
        <time>2014-03-28T10:34:23.000Z</time>
      </trkpt>
      <trkpt lat="45.92455" lon="6.53488">
        <ele>2287.6000976562</ele>
        <time>2014-03-28T10:34:28.000Z</time>
      </trkpt>
      <trkpt lat="45.92452" lon="6.53483">
        <ele>2288.6000976562</ele>
        <time>2014-03-28T10:34:35.000Z</time>
      </trkpt>
      <trkpt lat="45.92451" lon="6.53478">
        <ele>2289.6000976562</ele>
        <time>2014-03-28T10:34:41.000Z</time>
      </trkpt>
      <trkpt lat="45.9245" lon="6.53473">
        <ele>2290.6000976562</ele>
        <time>2014-03-28T10:34:48.000Z</time>
      </trkpt>
      <trkpt lat="45.92449" lon="6.53468">
        <ele>2291.6000976562</ele>
        <time>2014-03-28T10:34:54.000Z</time>
      </trkpt>
      <trkpt lat="45.92449" lon="6.53465">
        <ele>2292.3999023438</ele>
        <time>2014-03-28T10:34:59.000Z</time>
      </trkpt>
      <trkpt lat="45.92448" lon="6.53461">
        <ele>2293.1999511719</ele>
        <time>2014-03-28T10:35:05.000Z</time>
      </trkpt>
      <trkpt lat="45.92448" lon="6.53456">
        <ele>2294.1999511719</ele>
        <time>2014-03-28T10:35:10.000Z</time>
      </trkpt>
      <trkpt lat="45.92447" lon="6.53452">
        <ele>2295</ele>
        <time>2014-03-28T10:35:16.000Z</time>
      </trkpt>
      <trkpt lat="45.92446" lon="6.53448">
        <ele>2295.8000488281</ele>
        <time>2014-03-28T10:35:21.000Z</time>
      </trkpt>
      <trkpt lat="45.92445" lon="6.53444">
        <ele>2296.8000488281</ele>
        <time>2014-03-28T10:35:27.000Z</time>
      </trkpt>
      <trkpt lat="45.92444" lon="6.53442">
        <ele>2297.1999511719</ele>
        <time>2014-03-28T10:35:31.000Z</time>
      </trkpt>
      <trkpt lat="45.92444" lon="6.5344">
        <ele>2297.6000976562</ele>
        <time>2014-03-28T10:35:35.000Z</time>
      </trkpt>
      <trkpt lat="45.92443" lon="6.53437">
        <ele>2298.1999511719</ele>
        <time>2014-03-28T10:35:40.000Z</time>
      </trkpt>
      <trkpt lat="45.92443" lon="6.53436">
        <ele>2298.6000976562</ele>
        <time>2014-03-28T10:35:44.000Z</time>
      </trkpt>
      <trkpt lat="45.92446" lon="6.53436">
        <ele>2298.6000976562</ele>
        <time>2014-03-28T10:35:49.000Z</time>
      </trkpt>
      <trkpt lat="45.92448" lon="6.53437">
        <ele>2298.6000976562</ele>
        <time>2014-03-28T10:35:54.000Z</time>
      </trkpt>
      <trkpt lat="45.92451" lon="6.53438">
        <ele>2298.3999023438</ele>
        <time>2014-03-28T10:36:00.000Z</time>
      </trkpt>
      <trkpt lat="45.92454" lon="6.53438">
        <ele>2298.3999023438</ele>
        <time>2014-03-28T10:36:06.000Z</time>
      </trkpt>
      <trkpt lat="45.92457" lon="6.53437">
        <ele>2298.6000976562</ele>
        <time>2014-03-28T10:36:11.000Z</time>
      </trkpt>
      <trkpt lat="45.92461" lon="6.53438">
        <ele>2298.6000976562</ele>
        <time>2014-03-28T10:36:16.000Z</time>
      </trkpt>
      <trkpt lat="45.92465" lon="6.5344">
        <ele>2298.1999511719</ele>
        <time>2014-03-28T10:36:23.000Z</time>
      </trkpt>
      <trkpt lat="45.92467" lon="6.53442">
        <ele>2298</ele>
        <time>2014-03-28T10:36:28.000Z</time>
      </trkpt>
      <trkpt lat="45.9247" lon="6.53445">
        <ele>2297.3999023438</ele>
        <time>2014-03-28T10:36:33.000Z</time>
      </trkpt>
      <trkpt lat="45.92473" lon="6.53448">
        <ele>2297</ele>
        <time>2014-03-28T10:36:37.000Z</time>
      </trkpt>
      <trkpt lat="45.92476" lon="6.5345">
        <ele>2296.8000488281</ele>
        <time>2014-03-28T10:36:43.000Z</time>
      </trkpt>
      <trkpt lat="45.92478" lon="6.53451">
        <ele>2296.6000976562</ele>
        <time>2014-03-28T10:36:49.000Z</time>
      </trkpt>
      <trkpt lat="45.92478" lon="6.5345">
        <ele>2296.8000488281</ele>
        <time>2014-03-28T10:36:57.000Z</time>
      </trkpt>
      <trkpt lat="45.92475" lon="6.53447">
        <ele>2297.1999511719</ele>
        <time>2014-03-28T10:37:02.000Z</time>
      </trkpt>
      <trkpt lat="45.92471" lon="6.53444">
        <ele>2297.6000976562</ele>
        <time>2014-03-28T10:37:07.000Z</time>
      </trkpt>
      <trkpt lat="45.92468" lon="6.5344">
        <ele>2298.1999511719</ele>
        <time>2014-03-28T10:37:14.000Z</time>
      </trkpt>
      <trkpt lat="45.92467" lon="6.53439">
        <ele>2298.3999023438</ele>
        <time>2014-03-28T10:37:21.000Z</time>
      </trkpt>
      <trkpt lat="45.92467" lon="6.53438">
        <ele>2298.6000976562</ele>
        <time>2014-03-28T10:37:31.000Z</time>
      </trkpt>
      <trkpt lat="45.92467" lon="6.53438">
        <ele>2298.8000488281</ele>
        <time>2014-03-28T10:37:47.000Z</time>
      </trkpt>
      <trkpt lat="45.92468" lon="6.53438">
        <ele>2298.8000488281</ele>
        <time>2014-03-28T10:37:55.000Z</time>
      </trkpt>
      <trkpt lat="45.92467" lon="6.53437">
        <ele>2298.8000488281</ele>
        <time>2014-03-28T10:38:00.000Z</time>
      </trkpt>
      <trkpt lat="45.92467" lon="6.53438">
        <ele>2298.8000488281</ele>
        <time>2014-03-28T10:38:07.000Z</time>
      </trkpt>
      <trkpt lat="45.92467" lon="6.53438">
        <ele>2298.6000976562</ele>
        <time>2014-03-28T10:38:28.000Z</time>
      </trkpt>
      <trkpt lat="45.92467" lon="6.53439">
        <ele>2298.6000976562</ele>
        <time>2014-03-28T10:38:38.000Z</time>
      </trkpt>
      <trkpt lat="45.92466" lon="6.53439">
        <ele>2298.6000976562</ele>
        <time>2014-03-28T10:38:44.000Z</time>
      </trkpt>
      <trkpt lat="45.92466" lon="6.53438">
        <ele>2298.6000976562</ele>
        <time>2014-03-28T10:38:56.000Z</time>
      </trkpt>
      <trkpt lat="45.92467" lon="6.53438">
        <ele>2298.8000488281</ele>
        <time>2014-03-28T10:39:02.000Z</time>
      </trkpt>
      <trkpt lat="45.92467" lon="6.53437">
        <ele>2299</ele>
        <time>2014-03-28T10:39:12.000Z</time>
      </trkpt>
      <trkpt lat="45.92467" lon="6.53437">
        <ele>2299</ele>
        <time>2014-03-28T10:39:19.000Z</time>
      </trkpt>
      <trkpt lat="45.92468" lon="6.53437">
        <ele>2299</ele>
        <time>2014-03-28T10:39:33.000Z</time>
      </trkpt>
      <trkpt lat="45.92468" lon="6.53437">
        <ele>2299</ele>
        <time>2014-03-28T10:39:38.000Z</time>
      </trkpt>
      <trkpt lat="45.92468" lon="6.53436">
        <ele>2299.1999511719</ele>
        <time>2014-03-28T10:39:50.000Z</time>
      </trkpt>
      <trkpt lat="45.92468" lon="6.53436">
        <ele>2299.1999511719</ele>
        <time>2014-03-28T10:40:12.000Z</time>
      </trkpt>
      <trkpt lat="45.92467" lon="6.53436">
        <ele>2299.1999511719</ele>
        <time>2014-03-28T10:40:19.000Z</time>
      </trkpt>
      <trkpt lat="45.92467" lon="6.53436">
        <ele>2299.1999511719</ele>
        <time>2014-03-28T10:40:27.000Z</time>
      </trkpt>
      <trkpt lat="45.92467" lon="6.53436">
        <ele>2299.1999511719</ele>
        <time>2014-03-28T10:40:45.000Z</time>
      </trkpt>
      <trkpt lat="45.92467" lon="6.53435">
        <ele>2299.1999511719</ele>
        <time>2014-03-28T10:40:53.000Z</time>
      </trkpt>
      <trkpt lat="45.92468" lon="6.53435">
        <ele>2299.3999023438</ele>
        <time>2014-03-28T10:41:11.000Z</time>
      </trkpt>
      <trkpt lat="45.92467" lon="6.53435">
        <ele>2299.3999023438</ele>
        <time>2014-03-28T10:41:20.000Z</time>
      </trkpt>
      <trkpt lat="45.92467" lon="6.53435">
        <ele>2299.3999023438</ele>
        <time>2014-03-28T10:41:30.000Z</time>
      </trkpt>
      <trkpt lat="45.92467" lon="6.53435">
        <ele>2299.3999023438</ele>
        <time>2014-03-28T10:41:41.000Z</time>
      </trkpt>
      <trkpt lat="45.92467" lon="6.53434">
        <ele>2299.6000976562</ele>
        <time>2014-03-28T10:41:55.000Z</time>
      </trkpt>
      <trkpt lat="45.92466" lon="6.53434">
        <ele>2299.6000976562</ele>
        <time>2014-03-28T10:42:03.000Z</time>
      </trkpt>
      <trkpt lat="45.92467" lon="6.53434">
        <ele>2299.3999023438</ele>
        <time>2014-03-28T10:42:10.000Z</time>
      </trkpt>
      <trkpt lat="45.92467" lon="6.53435">
        <ele>2299.3999023438</ele>
        <time>2014-03-28T10:42:20.000Z</time>
      </trkpt>
      <trkpt lat="45.92467" lon="6.53435">
        <ele>2299.1999511719</ele>
        <time>2014-03-28T10:42:27.000Z</time>
      </trkpt>
      <trkpt lat="45.92467" lon="6.53435">
        <ele>2299.3999023438</ele>
        <time>2014-03-28T10:42:37.000Z</time>
      </trkpt>
      <trkpt lat="45.92467" lon="6.53434">
        <ele>2299.6000976562</ele>
        <time>2014-03-28T10:42:46.000Z</time>
      </trkpt>
      <trkpt lat="45.92466" lon="6.53434">
        <ele>2299.6000976562</ele>
        <time>2014-03-28T10:42:53.000Z</time>
      </trkpt>
      <trkpt lat="45.92467" lon="6.53434">
        <ele>2299.3999023438</ele>
        <time>2014-03-28T10:43:00.000Z</time>
      </trkpt>
      <trkpt lat="45.92467" lon="6.53434">
        <ele>2299.6000976562</ele>
        <time>2014-03-28T10:43:07.000Z</time>
      </trkpt>
      <trkpt lat="45.92467" lon="6.53434">
        <ele>2299.6000976562</ele>
        <time>2014-03-28T10:43:14.000Z</time>
      </trkpt>
      <trkpt lat="45.92467" lon="6.53435">
        <ele>2299.3999023438</ele>
        <time>2014-03-28T10:43:24.000Z</time>
      </trkpt>
      <trkpt lat="45.92467" lon="6.53434">
        <ele>2299.6000976562</ele>
        <time>2014-03-28T10:43:32.000Z</time>
      </trkpt>
      <trkpt lat="45.92467" lon="6.53434">
        <ele>2299.6000976562</ele>
        <time>2014-03-28T10:43:45.000Z</time>
      </trkpt>
      <trkpt lat="45.92467" lon="6.53433">
        <ele>2299.6000976562</ele>
        <time>2014-03-28T10:43:50.000Z</time>
      </trkpt>
      <trkpt lat="45.92467" lon="6.53434">
        <ele>2299.6000976562</ele>
        <time>2014-03-28T10:43:59.000Z</time>
      </trkpt>
      <trkpt lat="45.92467" lon="6.53435">
        <ele>2299.3999023438</ele>
        <time>2014-03-28T10:44:08.000Z</time>
      </trkpt>
      <trkpt lat="45.92466" lon="6.53435">
        <ele>2299.3999023438</ele>
        <time>2014-03-28T10:44:17.000Z</time>
      </trkpt>
      <trkpt lat="45.92466" lon="6.53434">
        <ele>2299.3999023438</ele>
        <time>2014-03-28T10:44:26.000Z</time>
      </trkpt>
      <trkpt lat="45.92466" lon="6.53434">
        <ele>2299.6000976562</ele>
        <time>2014-03-28T10:44:36.000Z</time>
      </trkpt>
      <trkpt lat="45.92466" lon="6.53434">
        <ele>2299.6000976562</ele>
        <time>2014-03-28T10:44:42.000Z</time>
      </trkpt>
      <trkpt lat="45.92467" lon="6.53434">
        <ele>2299.3999023438</ele>
        <time>2014-03-28T10:44:47.000Z</time>
      </trkpt>
      <trkpt lat="45.92467" lon="6.53434">
        <ele>2299.3999023438</ele>
        <time>2014-03-28T10:44:54.000Z</time>
      </trkpt>
      <trkpt lat="45.92468" lon="6.53435">
        <ele>2299.3999023438</ele>
        <time>2014-03-28T10:45:01.000Z</time>
      </trkpt>
      <trkpt lat="45.92468" lon="6.53434">
        <ele>2299.6000976562</ele>
        <time>2014-03-28T10:45:10.000Z</time>
      </trkpt>
      <trkpt lat="45.92468" lon="6.53434">
        <ele>2299.3999023438</ele>
        <time>2014-03-28T10:45:16.000Z</time>
      </trkpt>
      <trkpt lat="45.92468" lon="6.53434">
        <ele>2299.6000976562</ele>
        <time>2014-03-28T10:45:30.000Z</time>
      </trkpt>
      <trkpt lat="45.92468" lon="6.53434">
        <ele>2299.6000976562</ele>
        <time>2014-03-28T10:45:45.000Z</time>
      </trkpt>
      <trkpt lat="45.92469" lon="6.53434">
        <ele>2299.6000976562</ele>
        <time>2014-03-28T10:45:52.000Z</time>
      </trkpt>
      <trkpt lat="45.92469" lon="6.53434">
        <ele>2299.6000976562</ele>
        <time>2014-03-28T10:45:59.000Z</time>
      </trkpt>
      <trkpt lat="45.92468" lon="6.53434">
        <ele>2299.6000976562</ele>
        <time>2014-03-28T10:46:04.000Z</time>
      </trkpt>
      <trkpt lat="45.92468" lon="6.53434">
        <ele>2299.6000976562</ele>
        <time>2014-03-28T10:46:13.000Z</time>
      </trkpt>
      <trkpt lat="45.92468" lon="6.53435">
        <ele>2299.3999023438</ele>
        <time>2014-03-28T10:46:21.000Z</time>
      </trkpt>
      <trkpt lat="45.92469" lon="6.53435">
        <ele>2299.3999023438</ele>
        <time>2014-03-28T10:46:31.000Z</time>
      </trkpt>
      <trkpt lat="45.92468" lon="6.53434">
        <ele>2299.6000976562</ele>
        <time>2014-03-28T10:46:40.000Z</time>
      </trkpt>
      <trkpt lat="45.92468" lon="6.53434">
        <ele>2299.6000976562</ele>
        <time>2014-03-28T10:46:53.000Z</time>
      </trkpt>
      <trkpt lat="45.92467" lon="6.53434">
        <ele>2299.6000976562</ele>
        <time>2014-03-28T10:47:09.000Z</time>
      </trkpt>
      <trkpt lat="45.92467" lon="6.53434">
        <ele>2299.6000976562</ele>
        <time>2014-03-28T10:47:17.000Z</time>
      </trkpt>
      <trkpt lat="45.92467" lon="6.53435">
        <ele>2299.3999023438</ele>
        <time>2014-03-28T10:47:25.000Z</time>
      </trkpt>
      <trkpt lat="45.92467" lon="6.53435">
        <ele>2299.3999023438</ele>
        <time>2014-03-28T10:47:32.000Z</time>
      </trkpt>
      <trkpt lat="45.92466" lon="6.53433">
        <ele>2299.6000976562</ele>
        <time>2014-03-28T10:47:41.000Z</time>
      </trkpt>
      <trkpt lat="45.92466" lon="6.53426">
        <ele>2301</ele>
        <time>2014-03-28T10:47:46.000Z</time>
      </trkpt>
      <trkpt lat="45.92467" lon="6.53408">
        <ele>2304</ele>
        <time>2014-03-28T10:47:53.000Z</time>
      </trkpt>
      <trkpt lat="45.92468" lon="6.53408">
        <ele>2304</ele>
        <time>2014-03-28T10:48:30.000Z</time>
      </trkpt>
      <trkpt lat="45.92468" lon="6.53408">
        <ele>2304</ele>
        <time>2014-03-28T10:48:42.000Z</time>
      </trkpt>
      <trkpt lat="45.92468" lon="6.53409">
        <ele>2304</ele>
        <time>2014-03-28T10:48:49.000Z</time>
      </trkpt>
      <trkpt lat="45.92468" lon="6.53409">
        <ele>2304</ele>
        <time>2014-03-28T10:49:00.000Z</time>
      </trkpt>
      <trkpt lat="45.92467" lon="6.53409">
        <ele>2303.8000488281</ele>
        <time>2014-03-28T10:49:37.000Z</time>
      </trkpt>
      <trkpt lat="45.92465" lon="6.53411">
        <ele>2303.8000488281</ele>
        <time>2014-03-28T10:50:25.000Z</time>
      </trkpt>
      <trkpt lat="45.92465" lon="6.5341">
        <ele>2303.8000488281</ele>
        <time>2014-03-28T10:50:38.000Z</time>
      </trkpt>
      <trkpt lat="45.92467" lon="6.53409">
        <ele>2303.8000488281</ele>
        <time>2014-03-28T10:50:45.000Z</time>
      </trkpt>
      <trkpt lat="45.92477" lon="6.53393">
        <ele>2305.1999511719</ele>
        <time>2014-03-28T10:50:49.000Z</time>
      </trkpt>
      <trkpt lat="45.92485" lon="6.53383">
        <ele>2305.3999023438</ele>
        <time>2014-03-28T10:50:51.000Z</time>
      </trkpt>
      <trkpt lat="45.92503" lon="6.5339">
        <ele>2303.1999511719</ele>
        <time>2014-03-28T10:50:54.000Z</time>
      </trkpt>
      <trkpt lat="45.92518" lon="6.5338">
        <ele>2299.3999023438</ele>
        <time>2014-03-28T10:50:56.000Z</time>
      </trkpt>
      <trkpt lat="45.92544" lon="6.53355">
        <ele>2288</ele>
        <time>2014-03-28T10:51:00.000Z</time>
      </trkpt>
      <trkpt lat="45.92573" lon="6.53334">
        <ele>2270.3999023438</ele>
        <time>2014-03-28T10:51:04.000Z</time>
      </trkpt>
      <trkpt lat="45.92599" lon="6.53313">
        <ele>2261.3999023438</ele>
        <time>2014-03-28T10:51:07.000Z</time>
      </trkpt>
      <trkpt lat="45.92617" lon="6.53296">
        <ele>2255.6000976562</ele>
        <time>2014-03-28T10:51:09.000Z</time>
      </trkpt>
      <trkpt lat="45.92643" lon="6.53263">
        <ele>2240</ele>
        <time>2014-03-28T10:51:12.000Z</time>
      </trkpt>
      <trkpt lat="45.92658" lon="6.5324">
        <ele>2229</ele>
        <time>2014-03-28T10:51:14.000Z</time>
      </trkpt>
      <trkpt lat="45.92678" lon="6.53211">
        <ele>2218.6000976562</ele>
        <time>2014-03-28T10:51:17.000Z</time>
      </trkpt>
      <trkpt lat="45.92694" lon="6.53207">
        <ele>2216.3999023438</ele>
        <time>2014-03-28T10:51:19.000Z</time>
      </trkpt>
      <trkpt lat="45.92702" lon="6.53213">
        <ele>2217.3999023438</ele>
        <time>2014-03-28T10:51:21.000Z</time>
      </trkpt>
      <trkpt lat="45.92702" lon="6.53213">
        <ele>2217.6000976562</ele>
        <time>2014-03-28T10:51:24.000Z</time>
      </trkpt>
      <trkpt lat="45.92701" lon="6.53215">
        <ele>2218.3999023438</ele>
        <time>2014-03-28T10:51:28.000Z</time>
      </trkpt>
      <trkpt lat="45.92699" lon="6.5322">
        <ele>2220</ele>
        <time>2014-03-28T10:51:31.000Z</time>
      </trkpt>
      <trkpt lat="45.92697" lon="6.53223">
        <ele>2221</ele>
        <time>2014-03-28T10:51:39.000Z</time>
      </trkpt>
      <trkpt lat="45.92695" lon="6.53221">
        <ele>2220.6000976562</ele>
        <time>2014-03-28T10:51:52.000Z</time>
      </trkpt>
      <trkpt lat="45.92696" lon="6.5322">
        <ele>2220</ele>
        <time>2014-03-28T10:51:54.000Z</time>
      </trkpt>
      <trkpt lat="45.92703" lon="6.53203">
        <ele>2214.1999511719</ele>
        <time>2014-03-28T10:51:57.000Z</time>
      </trkpt>
      <trkpt lat="45.92717" lon="6.53168">
        <ele>2199.6000976562</ele>
        <time>2014-03-28T10:52:00.000Z</time>
      </trkpt>
      <trkpt lat="45.92731" lon="6.53143">
        <ele>2194.3999023438</ele>
        <time>2014-03-28T10:52:02.000Z</time>
      </trkpt>
      <trkpt lat="45.92752" lon="6.53086">
        <ele>2178.6000976562</ele>
        <time>2014-03-28T10:52:06.000Z</time>
      </trkpt>
      <trkpt lat="45.92754" lon="6.53064">
        <ele>2182.6000976562</ele>
        <time>2014-03-28T10:52:08.000Z</time>
      </trkpt>
      <trkpt lat="45.92763" lon="6.5305">
        <ele>2181</ele>
        <time>2014-03-28T10:52:10.000Z</time>
      </trkpt>
      <trkpt lat="45.92776" lon="6.53031">
        <ele>2175.8000488281</ele>
        <time>2014-03-28T10:52:12.000Z</time>
      </trkpt>
      <trkpt lat="45.92787" lon="6.53009">
        <ele>2170</ele>
        <time>2014-03-28T10:52:14.000Z</time>
      </trkpt>
      <trkpt lat="45.92818" lon="6.52981">
        <ele>2145</ele>
        <time>2014-03-28T10:52:18.000Z</time>
      </trkpt>
      <trkpt lat="45.92852" lon="6.52943">
        <ele>2125.6000976562</ele>
        <time>2014-03-28T10:52:22.000Z</time>
      </trkpt>
      <trkpt lat="45.92878" lon="6.52918">
        <ele>2111.8000488281</ele>
        <time>2014-03-28T10:52:26.000Z</time>
      </trkpt>
      <trkpt lat="45.9289" lon="6.5292">
        <ele>2106.6000976562</ele>
        <time>2014-03-28T10:52:28.000Z</time>
      </trkpt>
      <trkpt lat="45.92911" lon="6.5292">
        <ele>2096.6000976562</ele>
        <time>2014-03-28T10:52:30.000Z</time>
      </trkpt>
      <trkpt lat="45.92926" lon="6.52896">
        <ele>2090.6000976562</ele>
        <time>2014-03-28T10:52:32.000Z</time>
      </trkpt>
      <trkpt lat="45.92934" lon="6.52848">
        <ele>2080.1999511719</ele>
        <time>2014-03-28T10:52:35.000Z</time>
      </trkpt>
      <trkpt lat="45.92935" lon="6.52781">
        <ele>2073.3999023438</ele>
        <time>2014-03-28T10:52:40.000Z</time>
      </trkpt>
      <trkpt lat="45.92942" lon="6.52745">
        <ele>2070.8000488281</ele>
        <time>2014-03-28T10:52:44.000Z</time>
      </trkpt>
      <trkpt lat="45.92945" lon="6.52738">
        <ele>2072.3999023438</ele>
        <time>2014-03-28T10:52:45.000Z</time>
      </trkpt>
      <trkpt lat="45.92973" lon="6.52689">
        <ele>2068.3999023438</ele>
        <time>2014-03-28T10:52:51.000Z</time>
      </trkpt>
      <trkpt lat="45.92983" lon="6.52672">
        <ele>2061.3999023438</ele>
        <time>2014-03-28T10:52:53.000Z</time>
      </trkpt>
      <trkpt lat="45.93011" lon="6.52632">
        <ele>2047.4000244141</ele>
        <time>2014-03-28T10:52:59.000Z</time>
      </trkpt>
      <trkpt lat="45.93031" lon="6.52579">
        <ele>2044.1999511719</ele>
        <time>2014-03-28T10:53:06.000Z</time>
      </trkpt>
      <trkpt lat="45.93044" lon="6.52541">
        <ele>2044.8000488281</ele>
        <time>2014-03-28T10:53:11.000Z</time>
      </trkpt>
      <trkpt lat="45.93058" lon="6.52499">
        <ele>2040.5999755859</ele>
        <time>2014-03-28T10:53:17.000Z</time>
      </trkpt>
      <trkpt lat="45.93067" lon="6.52474">
        <ele>2037.8000488281</ele>
        <time>2014-03-28T10:53:20.000Z</time>
      </trkpt>
      <trkpt lat="45.93088" lon="6.52433">
        <ele>2024.8000488281</ele>
        <time>2014-03-28T10:53:26.000Z</time>
      </trkpt>
      <trkpt lat="45.93096" lon="6.52414">
        <ele>2026.1999511719</ele>
        <time>2014-03-28T10:53:28.000Z</time>
      </trkpt>
      <trkpt lat="45.93118" lon="6.52384">
        <ele>2028.4000244141</ele>
        <time>2014-03-28T10:53:32.000Z</time>
      </trkpt>
      <trkpt lat="45.93122" lon="6.52379">
        <ele>2027.8000488281</ele>
        <time>2014-03-28T10:53:33.000Z</time>
      </trkpt>
      <trkpt lat="45.93148" lon="6.52353">
        <ele>2017.1999511719</ele>
        <time>2014-03-28T10:53:39.000Z</time>
      </trkpt>
      <trkpt lat="45.93178" lon="6.52322">
        <ele>2008.1999511719</ele>
        <time>2014-03-28T10:53:44.000Z</time>
      </trkpt>
      <trkpt lat="45.93219" lon="6.5229">
        <ele>2008.4000244141</ele>
        <time>2014-03-28T10:53:50.000Z</time>
      </trkpt>
      <trkpt lat="45.93233" lon="6.52281">
        <ele>2006.1999511719</ele>
        <time>2014-03-28T10:53:52.000Z</time>
      </trkpt>
      <trkpt lat="45.93259" lon="6.52251">
        <ele>2005</ele>
        <time>2014-03-28T10:53:57.000Z</time>
      </trkpt>
      <trkpt lat="45.93277" lon="6.52223">
        <ele>2005</ele>
        <time>2014-03-28T10:54:02.000Z</time>
      </trkpt>
      <trkpt lat="45.93281" lon="6.5222">
        <ele>2004.5999755859</ele>
        <time>2014-03-28T10:54:03.000Z</time>
      </trkpt>
      <trkpt lat="45.93292" lon="6.52209">
        <ele>2002.8000488281</ele>
        <time>2014-03-28T10:54:07.000Z</time>
      </trkpt>
      <trkpt lat="45.93302" lon="6.52197">
        <ele>2001</ele>
        <time>2014-03-28T10:54:12.000Z</time>
      </trkpt>
      <trkpt lat="45.93304" lon="6.52196">
        <ele>2000.8000488281</ele>
        <time>2014-03-28T10:54:16.000Z</time>
      </trkpt>
      <trkpt lat="45.93303" lon="6.52197">
        <ele>2000.8000488281</ele>
        <time>2014-03-28T10:54:25.000Z</time>
      </trkpt>
      <trkpt lat="45.9331" lon="6.52189">
        <ele>1999.4000244141</ele>
        <time>2014-03-28T10:54:32.000Z</time>
      </trkpt>
      <trkpt lat="45.93325" lon="6.52176">
        <ele>1995.1999511719</ele>
        <time>2014-03-28T10:54:37.000Z</time>
      </trkpt>
      <trkpt lat="45.93344" lon="6.52164">
        <ele>1985.5999755859</ele>
        <time>2014-03-28T10:54:42.000Z</time>
      </trkpt>
      <trkpt lat="45.93347" lon="6.52159">
        <ele>1984.8000488281</ele>
        <time>2014-03-28T10:54:45.000Z</time>
      </trkpt>
      <trkpt lat="45.93346" lon="6.52159">
        <ele>1985.1999511719</ele>
        <time>2014-03-28T10:54:51.000Z</time>
      </trkpt>
      <trkpt lat="45.93344" lon="6.52158">
        <ele>1987</ele>
        <time>2014-03-28T10:55:04.000Z</time>
      </trkpt>
      <trkpt lat="45.93341" lon="6.52155">
        <ele>1989.5999755859</ele>
        <time>2014-03-28T10:55:27.000Z</time>
      </trkpt>
      <trkpt lat="45.93345" lon="6.52158">
        <ele>1986.5999755859</ele>
        <time>2014-03-28T10:55:55.000Z</time>
      </trkpt>
      <trkpt lat="45.93359" lon="6.52148">
        <ele>1978</ele>
        <time>2014-03-28T10:55:59.000Z</time>
      </trkpt>
      <trkpt lat="45.93371" lon="6.52137">
        <ele>1970</ele>
        <time>2014-03-28T10:56:02.000Z</time>
      </trkpt>
      <trkpt lat="45.93374" lon="6.52138">
        <ele>1967.8000488281</ele>
        <time>2014-03-28T10:56:03.000Z</time>
      </trkpt>
      <trkpt lat="45.93376" lon="6.52138">
        <ele>1966.1999511719</ele>
        <time>2014-03-28T10:56:08.000Z</time>
      </trkpt>
      <trkpt lat="45.93376" lon="6.5212">
        <ele>1968.1999511719</ele>
        <time>2014-03-28T10:56:12.000Z</time>
      </trkpt>
      <trkpt lat="45.93378" lon="6.52116">
        <ele>1966.8000488281</ele>
        <time>2014-03-28T10:56:13.000Z</time>
      </trkpt>
      <trkpt lat="45.93387" lon="6.52118">
        <ele>1959.5999755859</ele>
        <time>2014-03-28T10:56:16.000Z</time>
      </trkpt>
      <trkpt lat="45.93384" lon="6.5211">
        <ele>1962.4000244141</ele>
        <time>2014-03-28T10:56:20.000Z</time>
      </trkpt>
      <trkpt lat="45.93375" lon="6.52096">
        <ele>1971</ele>
        <time>2014-03-28T10:56:24.000Z</time>
      </trkpt>
      <trkpt lat="45.93372" lon="6.52097">
        <ele>1974</ele>
        <time>2014-03-28T10:56:31.000Z</time>
      </trkpt>
      <trkpt lat="45.93369" lon="6.52077">
        <ele>1978</ele>
        <time>2014-03-28T10:56:37.000Z</time>
      </trkpt>
      <trkpt lat="45.93367" lon="6.52075">
        <ele>1979</ele>
        <time>2014-03-28T10:56:39.000Z</time>
      </trkpt>
      <trkpt lat="45.9337" lon="6.52073">
        <ele>1976.5999755859</ele>
        <time>2014-03-28T10:56:42.000Z</time>
      </trkpt>
      <trkpt lat="45.93379" lon="6.52064">
        <ele>1967.4000244141</ele>
        <time>2014-03-28T10:56:46.000Z</time>
      </trkpt>
      <trkpt lat="45.93384" lon="6.5206">
        <ele>1961.8000488281</ele>
        <time>2014-03-28T10:56:48.000Z</time>
      </trkpt>
      <trkpt lat="45.93388" lon="6.52059">
        <ele>1957.1999511719</ele>
        <time>2014-03-28T10:56:50.000Z</time>
      </trkpt>
      <trkpt lat="45.93395" lon="6.5205">
        <ele>1948.4000244141</ele>
        <time>2014-03-28T10:56:54.000Z</time>
      </trkpt>
      <trkpt lat="45.93399" lon="6.52045">
        <ele>1942.4000244141</ele>
        <time>2014-03-28T10:56:56.000Z</time>
      </trkpt>
      <trkpt lat="45.93408" lon="6.52042">
        <ele>1931.8000488281</ele>
        <time>2014-03-28T10:56:59.000Z</time>
      </trkpt>
      <trkpt lat="45.93422" lon="6.52059">
        <ele>1925.1999511719</ele>
        <time>2014-03-28T10:57:03.000Z</time>
      </trkpt>
      <trkpt lat="45.9343" lon="6.52055">
        <ele>1921</ele>
        <time>2014-03-28T10:57:05.000Z</time>
      </trkpt>
      <trkpt lat="45.93435" lon="6.52036">
        <ele>1914.5999755859</ele>
        <time>2014-03-28T10:57:07.000Z</time>
      </trkpt>
      <trkpt lat="45.93448" lon="6.5202">
        <ele>1907.5999755859</ele>
        <time>2014-03-28T10:57:09.000Z</time>
      </trkpt>
      <trkpt lat="45.93456" lon="6.52016">
        <ele>1905.1999511719</ele>
        <time>2014-03-28T10:57:10.000Z</time>
      </trkpt>
      <trkpt lat="45.93477" lon="6.51992">
        <ele>1899.4000244141</ele>
        <time>2014-03-28T10:57:15.000Z</time>
      </trkpt>
      <trkpt lat="45.93484" lon="6.51976">
        <ele>1898</ele>
        <time>2014-03-28T10:57:17.000Z</time>
      </trkpt>
      <trkpt lat="45.93489" lon="6.5196">
        <ele>1896</ele>
        <time>2014-03-28T10:57:19.000Z</time>
      </trkpt>
      <trkpt lat="45.93499" lon="6.51936">
        <ele>1890.1999511719</ele>
        <time>2014-03-28T10:57:24.000Z</time>
      </trkpt>
      <trkpt lat="45.93503" lon="6.51931">
        <ele>1888.5999755859</ele>
        <time>2014-03-28T10:57:28.000Z</time>
      </trkpt>
      <trkpt lat="45.93504" lon="6.51935">
        <ele>1888.5999755859</ele>
        <time>2014-03-28T10:57:37.000Z</time>
      </trkpt>
      <trkpt lat="45.93506" lon="6.51937">
        <ele>1888</ele>
        <time>2014-03-28T10:57:46.000Z</time>
      </trkpt>
      <trkpt lat="45.93504" lon="6.51922">
        <ele>1887.4000244141</ele>
        <time>2014-03-28T10:58:18.000Z</time>
      </trkpt>
      <trkpt lat="45.93489" lon="6.51917">
        <ele>1894</ele>
        <time>2014-03-28T10:58:22.000Z</time>
      </trkpt>
      <trkpt lat="45.93485" lon="6.51903">
        <ele>1893.5999755859</ele>
        <time>2014-03-28T10:58:24.000Z</time>
      </trkpt>
      <trkpt lat="45.9349" lon="6.51892">
        <ele>1888.4000244141</ele>
        <time>2014-03-28T10:58:26.000Z</time>
      </trkpt>
      <trkpt lat="45.93505" lon="6.51879">
        <ele>1878.4000244141</ele>
        <time>2014-03-28T10:58:31.000Z</time>
      </trkpt>
      <trkpt lat="45.93501" lon="6.51868">
        <ele>1877.1999511719</ele>
        <time>2014-03-28T10:58:33.000Z</time>
      </trkpt>
      <trkpt lat="45.9349" lon="6.5186">
        <ele>1881.8000488281</ele>
        <time>2014-03-28T10:58:35.000Z</time>
      </trkpt>
      <trkpt lat="45.93481" lon="6.51855">
        <ele>1886.8000488281</ele>
        <time>2014-03-28T10:58:37.000Z</time>
      </trkpt>
      <trkpt lat="45.93469" lon="6.51839">
        <ele>1891.4000244141</ele>
        <time>2014-03-28T10:58:41.000Z</time>
      </trkpt>
      <trkpt lat="45.93472" lon="6.51818">
        <ele>1884.4000244141</ele>
        <time>2014-03-28T10:58:43.000Z</time>
      </trkpt>
      <trkpt lat="45.93482" lon="6.51768">
        <ele>1864.5999755859</ele>
        <time>2014-03-28T10:58:48.000Z</time>
      </trkpt>
      <trkpt lat="45.93492" lon="6.5174">
        <ele>1851</ele>
        <time>2014-03-28T10:58:53.000Z</time>
      </trkpt>
      <trkpt lat="45.93499" lon="6.51722">
        <ele>1842.4000244141</ele>
        <time>2014-03-28T10:58:56.000Z</time>
      </trkpt>
      <trkpt lat="45.93507" lon="6.51713">
        <ele>1836</ele>
        <time>2014-03-28T10:58:58.000Z</time>
      </trkpt>
      <trkpt lat="45.93515" lon="6.51699">
        <ele>1828.8000488281</ele>
        <time>2014-03-28T10:59:00.000Z</time>
      </trkpt>
      <trkpt lat="45.93525" lon="6.51689">
        <ele>1821.8000488281</ele>
        <time>2014-03-28T10:59:02.000Z</time>
      </trkpt>
      <trkpt lat="45.93532" lon="6.51678">
        <ele>1815.8000488281</ele>
        <time>2014-03-28T10:59:04.000Z</time>
      </trkpt>
      <trkpt lat="45.93544" lon="6.5166">
        <ele>1807.4000244141</ele>
        <time>2014-03-28T10:59:07.000Z</time>
      </trkpt>
      <trkpt lat="45.93558" lon="6.51657">
        <ele>1800.8000488281</ele>
        <time>2014-03-28T10:59:09.000Z</time>
      </trkpt>
      <trkpt lat="45.93578" lon="6.51643">
        <ele>1789.8000488281</ele>
        <time>2014-03-28T10:59:12.000Z</time>
      </trkpt>
      <trkpt lat="45.93582" lon="6.51625">
        <ele>1784.5999755859</ele>
        <time>2014-03-28T10:59:14.000Z</time>
      </trkpt>
      <trkpt lat="45.93584" lon="6.51608">
        <ele>1781</ele>
        <time>2014-03-28T10:59:16.000Z</time>
      </trkpt>
      <trkpt lat="45.93583" lon="6.51566">
        <ele>1775.5999755859</ele>
        <time>2014-03-28T10:59:20.000Z</time>
      </trkpt>
      <trkpt lat="45.93593" lon="6.51528">
        <ele>1769.4000244141</ele>
        <time>2014-03-28T10:59:24.000Z</time>
      </trkpt>
      <trkpt lat="45.93607" lon="6.51496">
        <ele>1761.4000244141</ele>
        <time>2014-03-28T10:59:28.000Z</time>
      </trkpt>
      <trkpt lat="45.93605" lon="6.51468">
        <ele>1759.8000488281</ele>
        <time>2014-03-28T10:59:33.000Z</time>
      </trkpt>
      <trkpt lat="45.93604" lon="6.5147">
        <ele>1760.1999511719</ele>
        <time>2014-03-28T10:59:37.000Z</time>
      </trkpt>
      <trkpt lat="45.93603" lon="6.5147">
        <ele>1760.5999755859</ele>
        <time>2014-03-28T10:59:46.000Z</time>
      </trkpt>
      <trkpt lat="45.93604" lon="6.5147">
        <ele>1760.4000244141</ele>
        <time>2014-03-28T10:59:48.000Z</time>
      </trkpt>
      <trkpt lat="45.93607" lon="6.51462">
        <ele>1758</ele>
        <time>2014-03-28T10:59:53.000Z</time>
      </trkpt>
      <trkpt lat="45.93605" lon="6.51454">
        <ele>1758.1999511719</ele>
        <time>2014-03-28T10:59:56.000Z</time>
      </trkpt>
      <trkpt lat="45.93605" lon="6.51453">
        <ele>1758.1999511719</ele>
        <time>2014-03-28T11:00:03.000Z</time>
      </trkpt>
      <trkpt lat="45.93603" lon="6.51446">
        <ele>1758.5999755859</ele>
        <time>2014-03-28T11:00:08.000Z</time>
      </trkpt>
      <trkpt lat="45.936" lon="6.51416">
        <ele>1757.5999755859</ele>
        <time>2014-03-28T11:00:12.000Z</time>
      </trkpt>
      <trkpt lat="45.93598" lon="6.51402">
        <ele>1756.4000244141</ele>
        <time>2014-03-28T11:00:14.000Z</time>
      </trkpt>
      <trkpt lat="45.93597" lon="6.51398">
        <ele>1756.5999755859</ele>
        <time>2014-03-28T11:00:19.000Z</time>
      </trkpt>
      <trkpt lat="45.93596" lon="6.51396">
        <ele>1756.5999755859</ele>
        <time>2014-03-28T11:00:38.000Z</time>
      </trkpt>
      <trkpt lat="45.93595" lon="6.51394">
        <ele>1756.5999755859</ele>
        <time>2014-03-28T11:00:46.000Z</time>
      </trkpt>
      <trkpt lat="45.93595" lon="6.51393">
        <ele>1756.4000244141</ele>
        <time>2014-03-28T11:00:47.000Z</time>
      </trkpt>
      <trkpt lat="45.93604" lon="6.51384">
        <ele>1750.5999755859</ele>
        <time>2014-03-28T11:00:50.000Z</time>
      </trkpt>
      <trkpt lat="45.93616" lon="6.5137">
        <ele>1741.5999755859</ele>
        <time>2014-03-28T11:00:53.000Z</time>
      </trkpt>
      <trkpt lat="45.93626" lon="6.51354">
        <ele>1733.1999511719</ele>
        <time>2014-03-28T11:00:56.000Z</time>
      </trkpt>
      <trkpt lat="45.93638" lon="6.51351">
        <ele>1725.5999755859</ele>
        <time>2014-03-28T11:00:59.000Z</time>
      </trkpt>
      <trkpt lat="45.93639" lon="6.51341">
        <ele>1723.4000244141</ele>
        <time>2014-03-28T11:01:01.000Z</time>
      </trkpt>
      <trkpt lat="45.93637" lon="6.51327">
        <ele>1722.5999755859</ele>
        <time>2014-03-28T11:01:04.000Z</time>
      </trkpt>
      <trkpt lat="45.9364" lon="6.51326">
        <ele>1720.5999755859</ele>
        <time>2014-03-28T11:01:05.000Z</time>
      </trkpt>
      <trkpt lat="45.93656" lon="6.51305">
        <ele>1711.5999755859</ele>
        <time>2014-03-28T11:01:10.000Z</time>
      </trkpt>
      <trkpt lat="45.93665" lon="6.51296">
        <ele>1706.8000488281</ele>
        <time>2014-03-28T11:01:13.000Z</time>
      </trkpt>
      <trkpt lat="45.93673" lon="6.51292">
        <ele>1702.5999755859</ele>
        <time>2014-03-28T11:01:15.000Z</time>
      </trkpt>
      <trkpt lat="45.93672" lon="6.51281">
        <ele>1703.1999511719</ele>
        <time>2014-03-28T11:01:21.000Z</time>
      </trkpt>
      <trkpt lat="45.9367" lon="6.51279">
        <ele>1704.5999755859</ele>
        <time>2014-03-28T11:01:30.000Z</time>
      </trkpt>
      <trkpt lat="45.9368" lon="6.51283">
        <ele>1699.1999511719</ele>
        <time>2014-03-28T11:01:33.000Z</time>
      </trkpt>
      <trkpt lat="45.93694" lon="6.51285">
        <ele>1691.8000488281</ele>
        <time>2014-03-28T11:01:36.000Z</time>
      </trkpt>
      <trkpt lat="45.93701" lon="6.51283">
        <ele>1688.5999755859</ele>
        <time>2014-03-28T11:01:37.000Z</time>
      </trkpt>
      <trkpt lat="45.9371" lon="6.51278">
        <ele>1683.5999755859</ele>
        <time>2014-03-28T11:01:39.000Z</time>
      </trkpt>
      <trkpt lat="45.93708" lon="6.51265">
        <ele>1683.5999755859</ele>
        <time>2014-03-28T11:01:43.000Z</time>
      </trkpt>
      <trkpt lat="45.93705" lon="6.51263">
        <ele>1685.1999511719</ele>
        <time>2014-03-28T11:02:02.000Z</time>
      </trkpt>
      <trkpt lat="45.93716" lon="6.51248">
        <ele>1679</ele>
        <time>2014-03-28T11:02:06.000Z</time>
      </trkpt>
      <trkpt lat="45.93729" lon="6.51224">
        <ele>1674</ele>
        <time>2014-03-28T11:02:12.000Z</time>
      </trkpt>
      <trkpt lat="45.93732" lon="6.51221">
        <ele>1673</ele>
        <time>2014-03-28T11:02:13.000Z</time>
      </trkpt>
      <trkpt lat="45.93745" lon="6.51227">
        <ele>1664.8000488281</ele>
        <time>2014-03-28T11:02:17.000Z</time>
      </trkpt>
      <trkpt lat="45.93758" lon="6.51224">
        <ele>1657.5999755859</ele>
        <time>2014-03-28T11:02:20.000Z</time>
      </trkpt>
      <trkpt lat="45.93762" lon="6.51221">
        <ele>1655.5999755859</ele>
        <time>2014-03-28T11:02:21.000Z</time>
      </trkpt>
      <trkpt lat="45.93772" lon="6.51218">
        <ele>1649.8000488281</ele>
        <time>2014-03-28T11:02:23.000Z</time>
      </trkpt>
      <trkpt lat="45.93786" lon="6.51217">
        <ele>1640.5999755859</ele>
        <time>2014-03-28T11:02:27.000Z</time>
      </trkpt>
      <trkpt lat="45.93793" lon="6.51202">
        <ele>1637.4000244141</ele>
        <time>2014-03-28T11:02:30.000Z</time>
      </trkpt>
      <trkpt lat="45.9381" lon="6.51189">
        <ele>1628</ele>
        <time>2014-03-28T11:02:35.000Z</time>
      </trkpt>
      <trkpt lat="45.93818" lon="6.51177">
        <ele>1623.5999755859</ele>
        <time>2014-03-28T11:02:37.000Z</time>
      </trkpt>
      <trkpt lat="45.93826" lon="6.51162">
        <ele>1619.5999755859</ele>
        <time>2014-03-28T11:02:39.000Z</time>
      </trkpt>
      <trkpt lat="45.93829" lon="6.51154">
        <ele>1619</ele>
        <time>2014-03-28T11:02:41.000Z</time>
      </trkpt>
      <trkpt lat="45.9383" lon="6.51153">
        <ele>1618</ele>
        <time>2014-03-28T11:02:46.000Z</time>
      </trkpt>
      <trkpt lat="45.93831" lon="6.51151">
        <ele>1617.8000488281</ele>
        <time>2014-03-28T11:02:52.000Z</time>
      </trkpt>
      <trkpt lat="45.93834" lon="6.51147">
        <ele>1616.5999755859</ele>
        <time>2014-03-28T11:02:56.000Z</time>
      </trkpt>
      <trkpt lat="45.93835" lon="6.51144">
        <ele>1616.5999755859</ele>
        <time>2014-03-28T11:03:00.000Z</time>
      </trkpt>
      <trkpt lat="45.93837" lon="6.5114">
        <ele>1616.5999755859</ele>
        <time>2014-03-28T11:03:06.000Z</time>
      </trkpt>
      <trkpt lat="45.93841" lon="6.51134">
        <ele>1616</ele>
        <time>2014-03-28T11:03:11.000Z</time>
      </trkpt>
      <trkpt lat="45.93844" lon="6.5113">
        <ele>1615.4000244141</ele>
        <time>2014-03-28T11:03:15.000Z</time>
      </trkpt>
      <trkpt lat="45.93848" lon="6.51128">
        <ele>1614.5999755859</ele>
        <time>2014-03-28T11:03:19.000Z</time>
      </trkpt>
      <trkpt lat="45.93851" lon="6.51125">
        <ele>1614</ele>
        <time>2014-03-28T11:03:23.000Z</time>
      </trkpt>
      <trkpt lat="45.93856" lon="6.5112">
        <ele>1612.8000488281</ele>
        <time>2014-03-28T11:03:28.000Z</time>
      </trkpt>
      <trkpt lat="45.93861" lon="6.51115">
        <ele>1611.5999755859</ele>
        <time>2014-03-28T11:03:32.000Z</time>
      </trkpt>
      <trkpt lat="45.9387" lon="6.51106">
        <ele>1610.1999511719</ele>
        <time>2014-03-28T11:03:38.000Z</time>
      </trkpt>
      <trkpt lat="45.93876" lon="6.51099">
        <ele>1608.8000488281</ele>
        <time>2014-03-28T11:03:41.000Z</time>
      </trkpt>
      <trkpt lat="45.93879" lon="6.51093">
        <ele>1608.8000488281</ele>
        <time>2014-03-28T11:03:45.000Z</time>
      </trkpt>
      <trkpt lat="45.93878" lon="6.5108">
        <ele>1610.4000244141</ele>
        <time>2014-03-28T11:03:54.000Z</time>
      </trkpt>
      <trkpt lat="45.93878" lon="6.51067">
        <ele>1610.5999755859</ele>
        <time>2014-03-28T11:04:00.000Z</time>
      </trkpt>
      <trkpt lat="45.9388" lon="6.51049">
        <ele>1610</ele>
        <time>2014-03-28T11:04:06.000Z</time>
      </trkpt>
      <trkpt lat="45.93883" lon="6.51032">
        <ele>1609.1999511719</ele>
        <time>2014-03-28T11:04:12.000Z</time>
      </trkpt>
      <trkpt lat="45.93883" lon="6.51028">
        <ele>1609</ele>
        <time>2014-03-28T11:04:14.000Z</time>
      </trkpt>
      <trkpt lat="45.93886" lon="6.5102">
        <ele>1608</ele>
        <time>2014-03-28T11:04:19.000Z</time>
      </trkpt>
      <trkpt lat="45.93887" lon="6.5101">
        <ele>1607.5999755859</ele>
        <time>2014-03-28T11:04:21.000Z</time>
      </trkpt>
      <trkpt lat="45.93888" lon="6.50999">
        <ele>1607</ele>
        <time>2014-03-28T11:04:25.000Z</time>
      </trkpt>
      <trkpt lat="45.93889" lon="6.51">
        <ele>1607.1999511719</ele>
        <time>2014-03-28T11:04:32.000Z</time>
      </trkpt>
      <trkpt lat="45.93889" lon="6.50997">
        <ele>1606.4000244141</ele>
        <time>2014-03-28T11:04:36.000Z</time>
      </trkpt>
      <trkpt lat="45.93889" lon="6.50993">
        <ele>1605.5999755859</ele>
        <time>2014-03-28T11:04:40.000Z</time>
      </trkpt>
      <trkpt lat="45.93888" lon="6.50985">
        <ele>1604.8000488281</ele>
        <time>2014-03-28T11:04:44.000Z</time>
      </trkpt>
      <trkpt lat="45.93886" lon="6.50967">
        <ele>1602.4000244141</ele>
        <time>2014-03-28T11:04:50.000Z</time>
      </trkpt>
      <trkpt lat="45.93886" lon="6.50964">
        <ele>1602</ele>
        <time>2014-03-28T11:04:54.000Z</time>
      </trkpt>
      <trkpt lat="45.93885" lon="6.5096">
        <ele>1601.8000488281</ele>
        <time>2014-03-28T11:04:59.000Z</time>
      </trkpt>
      <trkpt lat="45.93884" lon="6.50956">
        <ele>1601.4000244141</ele>
        <time>2014-03-28T11:05:03.000Z</time>
      </trkpt>
      <trkpt lat="45.93884" lon="6.50951">
        <ele>1600.8000488281</ele>
        <time>2014-03-28T11:05:08.000Z</time>
      </trkpt>
      <trkpt lat="45.93882" lon="6.50949">
        <ele>1600.8000488281</ele>
        <time>2014-03-28T11:05:12.000Z</time>
      </trkpt>
      <trkpt lat="45.93882" lon="6.50946">
        <ele>1600.5999755859</ele>
        <time>2014-03-28T11:05:16.000Z</time>
      </trkpt>
      <trkpt lat="45.93882" lon="6.50942">
        <ele>1600</ele>
        <time>2014-03-28T11:05:20.000Z</time>
      </trkpt>
      <trkpt lat="45.93881" lon="6.50936">
        <ele>1599.4000244141</ele>
        <time>2014-03-28T11:05:26.000Z</time>
      </trkpt>
      <trkpt lat="45.9388" lon="6.50929">
        <ele>1599</ele>
        <time>2014-03-28T11:05:30.000Z</time>
      </trkpt>
      <trkpt lat="45.93877" lon="6.50914">
        <ele>1597.8000488281</ele>
        <time>2014-03-28T11:05:36.000Z</time>
      </trkpt>
      <trkpt lat="45.93871" lon="6.5089">
        <ele>1595.1999511719</ele>
        <time>2014-03-28T11:05:41.000Z</time>
      </trkpt>
      <trkpt lat="45.93866" lon="6.50879">
        <ele>1595.8000488281</ele>
        <time>2014-03-28T11:05:44.000Z</time>
      </trkpt>
      <trkpt lat="45.93864" lon="6.50877">
        <ele>1596</ele>
        <time>2014-03-28T11:05:49.000Z</time>
      </trkpt>
      <trkpt lat="45.93865" lon="6.50876">
        <ele>1595.4000244141</ele>
        <time>2014-03-28T11:05:53.000Z</time>
      </trkpt>
      <trkpt lat="45.93864" lon="6.50872">
        <ele>1595.1999511719</ele>
        <time>2014-03-28T11:05:57.000Z</time>
      </trkpt>
      <trkpt lat="45.93862" lon="6.50867">
        <ele>1595.1999511719</ele>
        <time>2014-03-28T11:06:03.000Z</time>
      </trkpt>
      <trkpt lat="45.9386" lon="6.5086">
        <ele>1594.4000244141</ele>
        <time>2014-03-28T11:06:05.000Z</time>
      </trkpt>
      <trkpt lat="45.93856" lon="6.50845">
        <ele>1593.1999511719</ele>
        <time>2014-03-28T11:06:10.000Z</time>
      </trkpt>
      <trkpt lat="45.93854" lon="6.50839">
        <ele>1593</ele>
        <time>2014-03-28T11:06:15.000Z</time>
      </trkpt>
      <trkpt lat="45.93853" lon="6.50837">
        <ele>1593.1999511719</ele>
        <time>2014-03-28T11:06:19.000Z</time>
      </trkpt>
      <trkpt lat="45.93851" lon="6.50836">
        <ele>1594.1999511719</ele>
        <time>2014-03-28T11:06:23.000Z</time>
      </trkpt>
      <trkpt lat="45.9385" lon="6.50834">
        <ele>1594</ele>
        <time>2014-03-28T11:06:31.000Z</time>
      </trkpt>
      <trkpt lat="45.93849" lon="6.50831">
        <ele>1593.8000488281</ele>
        <time>2014-03-28T11:06:36.000Z</time>
      </trkpt>
      <trkpt lat="45.93845" lon="6.50827">
        <ele>1594.4000244141</ele>
        <time>2014-03-28T11:06:41.000Z</time>
      </trkpt>
      <trkpt lat="45.93844" lon="6.50825">
        <ele>1594.1999511719</ele>
        <time>2014-03-28T11:06:45.000Z</time>
      </trkpt>
      <trkpt lat="45.93844" lon="6.50825">
        <ele>1594.1999511719</ele>
        <time>2014-03-28T11:06:50.000Z</time>
      </trkpt>
      <trkpt lat="45.93843" lon="6.50824">
        <ele>1594.5999755859</ele>
        <time>2014-03-28T11:06:56.000Z</time>
      </trkpt>
      <trkpt lat="45.93842" lon="6.50824">
        <ele>1594.8000488281</ele>
        <time>2014-03-28T11:07:01.000Z</time>
      </trkpt>
      <trkpt lat="45.93841" lon="6.50824">
        <ele>1595.4000244141</ele>
        <time>2014-03-28T11:07:03.000Z</time>
      </trkpt>
      <trkpt lat="45.93838" lon="6.50822">
        <ele>1596.5999755859</ele>
        <time>2014-03-28T11:07:09.000Z</time>
      </trkpt>
      <trkpt lat="45.93836" lon="6.5082">
        <ele>1596.5999755859</ele>
        <time>2014-03-28T11:07:15.000Z</time>
      </trkpt>
      <trkpt lat="45.93836" lon="6.50818">
        <ele>1596</ele>
        <time>2014-03-28T11:07:23.000Z</time>
      </trkpt>
      <trkpt lat="45.93836" lon="6.50818">
        <ele>1596</ele>
        <time>2014-03-28T11:07:25.000Z</time>
      </trkpt>
      <trkpt lat="45.93834" lon="6.50818">
        <ele>1597.4000244141</ele>
        <time>2014-03-28T11:07:28.000Z</time>
      </trkpt>
      <trkpt lat="45.93833" lon="6.50816">
        <ele>1597</ele>
        <time>2014-03-28T11:07:34.000Z</time>
      </trkpt>
      <trkpt lat="45.93832" lon="6.50814">
        <ele>1597.1999511719</ele>
        <time>2014-03-28T11:07:39.000Z</time>
      </trkpt>
      <trkpt lat="45.93831" lon="6.50812">
        <ele>1596.8000488281</ele>
        <time>2014-03-28T11:07:44.000Z</time>
      </trkpt>
      <trkpt lat="45.9383" lon="6.5081">
        <ele>1597</ele>
        <time>2014-03-28T11:07:54.000Z</time>
      </trkpt>
      <trkpt lat="45.93829" lon="6.50809">
        <ele>1597</ele>
        <time>2014-03-28T11:08:00.000Z</time>
      </trkpt>
      <trkpt lat="45.93828" lon="6.50809">
        <ele>1597.4000244141</ele>
        <time>2014-03-28T11:08:06.000Z</time>
      </trkpt>
      <trkpt lat="45.93827" lon="6.50808">
        <ele>1597.8000488281</ele>
        <time>2014-03-28T11:08:10.000Z</time>
      </trkpt>
      <trkpt lat="45.93825" lon="6.50806">
        <ele>1598</ele>
        <time>2014-03-28T11:08:15.000Z</time>
      </trkpt>
      <trkpt lat="45.93823" lon="6.50804">
        <ele>1598.5999755859</ele>
        <time>2014-03-28T11:08:20.000Z</time>
      </trkpt>
      <trkpt lat="45.93822" lon="6.50803">
        <ele>1598.8000488281</ele>
        <time>2014-03-28T11:08:25.000Z</time>
      </trkpt>
      <trkpt lat="45.9382" lon="6.50801">
        <ele>1599</ele>
        <time>2014-03-28T11:08:30.000Z</time>
      </trkpt>
      <trkpt lat="45.93818" lon="6.50799">
        <ele>1599.5999755859</ele>
        <time>2014-03-28T11:08:33.000Z</time>
      </trkpt>
      <trkpt lat="45.93817" lon="6.50797">
        <ele>1599.5999755859</ele>
        <time>2014-03-28T11:08:34.000Z</time>
      </trkpt>
      <trkpt lat="45.93813" lon="6.50792">
        <ele>1599.5999755859</ele>
        <time>2014-03-28T11:08:39.000Z</time>
      </trkpt>
      <trkpt lat="45.93811" lon="6.50788">
        <ele>1599.1999511719</ele>
        <time>2014-03-28T11:08:43.000Z</time>
      </trkpt>
      <trkpt lat="45.9381" lon="6.50783">
        <ele>1598</ele>
        <time>2014-03-28T11:08:48.000Z</time>
      </trkpt>
      <trkpt lat="45.93808" lon="6.50781">
        <ele>1598.4000244141</ele>
        <time>2014-03-28T11:08:53.000Z</time>
      </trkpt>
      <trkpt lat="45.93806" lon="6.50779">
        <ele>1598.8000488281</ele>
        <time>2014-03-28T11:08:58.000Z</time>
      </trkpt>
      <trkpt lat="45.93805" lon="6.50778">
        <ele>1599</ele>
        <time>2014-03-28T11:08:59.000Z</time>
      </trkpt>
      <trkpt lat="45.93801" lon="6.50774">
        <ele>1599</ele>
        <time>2014-03-28T11:09:04.000Z</time>
      </trkpt>
      <trkpt lat="45.93799" lon="6.50771">
        <ele>1599</ele>
        <time>2014-03-28T11:09:08.000Z</time>
      </trkpt>
      <trkpt lat="45.93797" lon="6.50767">
        <ele>1599</ele>
        <time>2014-03-28T11:09:11.000Z</time>
      </trkpt>
      <trkpt lat="45.93786" lon="6.50747">
        <ele>1596</ele>
        <time>2014-03-28T11:09:18.000Z</time>
      </trkpt>
      <trkpt lat="45.93782" lon="6.5074">
        <ele>1595.8000488281</ele>
        <time>2014-03-28T11:09:22.000Z</time>
      </trkpt>
      <trkpt lat="45.9378" lon="6.50738">
        <ele>1595.8000488281</ele>
        <time>2014-03-28T11:09:24.000Z</time>
      </trkpt>
      <trkpt lat="45.93777" lon="6.50734">
        <ele>1595.8000488281</ele>
        <time>2014-03-28T11:09:29.000Z</time>
      </trkpt>
      <trkpt lat="45.93775" lon="6.5073">
        <ele>1595.8000488281</ele>
        <time>2014-03-28T11:09:34.000Z</time>
      </trkpt>
      <trkpt lat="45.93773" lon="6.50728">
        <ele>1596</ele>
        <time>2014-03-28T11:09:37.000Z</time>
      </trkpt>
      <trkpt lat="45.9377" lon="6.50724">
        <ele>1596</ele>
        <time>2014-03-28T11:09:41.000Z</time>
      </trkpt>
      <trkpt lat="45.9377" lon="6.50722">
        <ele>1595.4000244141</ele>
        <time>2014-03-28T11:09:47.000Z</time>
      </trkpt>
      <trkpt lat="45.9377" lon="6.5072">
        <ele>1594.8000488281</ele>
        <time>2014-03-28T11:09:52.000Z</time>
      </trkpt>
      <trkpt lat="45.93769" lon="6.50719">
        <ele>1594.4000244141</ele>
        <time>2014-03-28T11:09:59.000Z</time>
      </trkpt>
      <trkpt lat="45.93768" lon="6.50717">
        <ele>1594.4000244141</ele>
        <time>2014-03-28T11:10:03.000Z</time>
      </trkpt>
      <trkpt lat="45.93767" lon="6.50716">
        <ele>1594.5999755859</ele>
        <time>2014-03-28T11:10:07.000Z</time>
      </trkpt>
      <trkpt lat="45.93766" lon="6.50715">
        <ele>1595</ele>
        <time>2014-03-28T11:10:13.000Z</time>
      </trkpt>
      <trkpt lat="45.93767" lon="6.50715">
        <ele>1594.4000244141</ele>
        <time>2014-03-28T11:10:36.000Z</time>
      </trkpt>
      <trkpt lat="45.93767" lon="6.50715">
        <ele>1594.1999511719</ele>
        <time>2014-03-28T11:10:48.000Z</time>
      </trkpt>
      <trkpt lat="45.93767" lon="6.50715">
        <ele>1594.4000244141</ele>
        <time>2014-03-28T11:10:58.000Z</time>
      </trkpt>
      <trkpt lat="45.93766" lon="6.50714">
        <ele>1594.4000244141</ele>
        <time>2014-03-28T11:11:12.000Z</time>
      </trkpt>
      <trkpt lat="45.93766" lon="6.50714">
        <ele>1594.5999755859</ele>
        <time>2014-03-28T11:11:24.000Z</time>
      </trkpt>
      <trkpt lat="45.93766" lon="6.50715">
        <ele>1594.8000488281</ele>
        <time>2014-03-28T11:11:35.000Z</time>
      </trkpt>
      <trkpt lat="45.93766" lon="6.50716">
        <ele>1595.1999511719</ele>
        <time>2014-03-28T11:11:43.000Z</time>
      </trkpt>
      <trkpt lat="45.93766" lon="6.50716">
        <ele>1595.1999511719</ele>
        <time>2014-03-28T11:11:51.000Z</time>
      </trkpt>
      <trkpt lat="45.93766" lon="6.50716">
        <ele>1595.1999511719</ele>
        <time>2014-03-28T11:12:01.000Z</time>
      </trkpt>
      <trkpt lat="45.93763" lon="6.50715">
        <ele>1596</ele>
        <time>2014-03-28T11:12:04.000Z</time>
      </trkpt>
      <trkpt lat="45.93763" lon="6.50714">
        <ele>1596</ele>
        <time>2014-03-28T11:12:08.000Z</time>
      </trkpt>
      <trkpt lat="45.93759" lon="6.50714">
        <ele>1597.5999755859</ele>
        <time>2014-03-28T11:12:20.000Z</time>
      </trkpt>
      <trkpt lat="45.93757" lon="6.50713">
        <ele>1598.4000244141</ele>
        <time>2014-03-28T11:12:28.000Z</time>
      </trkpt>
      <trkpt lat="45.93757" lon="6.50714">
        <ele>1598.5999755859</ele>
        <time>2014-03-28T11:12:29.000Z</time>
      </trkpt>
      <trkpt lat="45.93754" lon="6.50714">
        <ele>1600.1999511719</ele>
        <time>2014-03-28T11:12:33.000Z</time>
      </trkpt>
      <trkpt lat="45.93751" lon="6.50712">
        <ele>1600.5999755859</ele>
        <time>2014-03-28T11:12:38.000Z</time>
      </trkpt>
      <trkpt lat="45.93748" lon="6.50709">
        <ele>1601.1999511719</ele>
        <time>2014-03-28T11:12:45.000Z</time>
      </trkpt>
      <trkpt lat="45.93744" lon="6.50709">
        <ele>1602.1999511719</ele>
        <time>2014-03-28T11:12:49.000Z</time>
      </trkpt>
      <trkpt lat="45.93743" lon="6.50707">
        <ele>1602.1999511719</ele>
        <time>2014-03-28T11:12:54.000Z</time>
      </trkpt>
      <trkpt lat="45.93742" lon="6.50706">
        <ele>1601.8000488281</ele>
        <time>2014-03-28T11:13:13.000Z</time>
      </trkpt>
      <trkpt lat="45.93742" lon="6.50705">
        <ele>1601.8000488281</ele>
        <time>2014-03-28T11:13:18.000Z</time>
      </trkpt>
      <trkpt lat="45.93741" lon="6.50704">
        <ele>1601.5999755859</ele>
        <time>2014-03-28T11:13:24.000Z</time>
      </trkpt>
      <trkpt lat="45.93739" lon="6.50703">
        <ele>1602.1999511719</ele>
        <time>2014-03-28T11:13:29.000Z</time>
      </trkpt>
      <trkpt lat="45.93737" lon="6.50703">
        <ele>1602.5999755859</ele>
        <time>2014-03-28T11:13:34.000Z</time>
      </trkpt>
      <trkpt lat="45.93736" lon="6.50703">
        <ele>1603</ele>
        <time>2014-03-28T11:13:39.000Z</time>
      </trkpt>
      <trkpt lat="45.93734" lon="6.50702">
        <ele>1603.4000244141</ele>
        <time>2014-03-28T11:13:44.000Z</time>
      </trkpt>
      <trkpt lat="45.93731" lon="6.50701">
        <ele>1604</ele>
        <time>2014-03-28T11:13:49.000Z</time>
      </trkpt>
      <trkpt lat="45.93728" lon="6.507">
        <ele>1604.4000244141</ele>
        <time>2014-03-28T11:13:54.000Z</time>
      </trkpt>
      <trkpt lat="45.93726" lon="6.507">
        <ele>1605.4000244141</ele>
        <time>2014-03-28T11:13:59.000Z</time>
      </trkpt>
      <trkpt lat="45.93724" lon="6.50699">
        <ele>1605.5999755859</ele>
        <time>2014-03-28T11:14:04.000Z</time>
      </trkpt>
      <trkpt lat="45.93721" lon="6.50698">
        <ele>1606.1999511719</ele>
        <time>2014-03-28T11:14:09.000Z</time>
      </trkpt>
      <trkpt lat="45.93719" lon="6.50697">
        <ele>1606.8000488281</ele>
        <time>2014-03-28T11:14:14.000Z</time>
      </trkpt>
      <trkpt lat="45.93719" lon="6.50696">
        <ele>1606.1999511719</ele>
        <time>2014-03-28T11:14:20.000Z</time>
      </trkpt>
      <trkpt lat="45.93719" lon="6.50695">
        <ele>1606.1999511719</ele>
        <time>2014-03-28T11:14:28.000Z</time>
      </trkpt>
      <trkpt lat="45.93717" lon="6.50694">
        <ele>1606.5999755859</ele>
        <time>2014-03-28T11:14:33.000Z</time>
      </trkpt>
      <trkpt lat="45.93714" lon="6.50692">
        <ele>1606.8000488281</ele>
        <time>2014-03-28T11:14:37.000Z</time>
      </trkpt>
      <trkpt lat="45.93712" lon="6.50691">
        <ele>1606.8000488281</ele>
        <time>2014-03-28T11:14:41.000Z</time>
      </trkpt>
      <trkpt lat="45.93711" lon="6.50689">
        <ele>1607</ele>
        <time>2014-03-28T11:14:45.000Z</time>
      </trkpt>
      <trkpt lat="45.93709" lon="6.50689">
        <ele>1607.4000244141</ele>
        <time>2014-03-28T11:14:48.000Z</time>
      </trkpt>
      <trkpt lat="45.93706" lon="6.50688">
        <ele>1608</ele>
        <time>2014-03-28T11:14:54.000Z</time>
      </trkpt>
      <trkpt lat="45.93702" lon="6.50686">
        <ele>1608.5999755859</ele>
        <time>2014-03-28T11:14:58.000Z</time>
      </trkpt>
      <trkpt lat="45.93698" lon="6.50685">
        <ele>1609.8000488281</ele>
        <time>2014-03-28T11:15:04.000Z</time>
      </trkpt>
      <trkpt lat="45.93696" lon="6.50685">
        <ele>1610.4000244141</ele>
        <time>2014-03-28T11:15:09.000Z</time>
      </trkpt>
      <trkpt lat="45.93693" lon="6.50684">
        <ele>1611.4000244141</ele>
        <time>2014-03-28T11:15:14.000Z</time>
      </trkpt>
      <trkpt lat="45.93692" lon="6.50684">
        <ele>1611.4000244141</ele>
        <time>2014-03-28T11:15:24.000Z</time>
      </trkpt>
      <trkpt lat="45.93689" lon="6.50683">
        <ele>1612.1999511719</ele>
        <time>2014-03-28T11:15:29.000Z</time>
      </trkpt>
      <trkpt lat="45.93687" lon="6.50683">
        <ele>1612.8000488281</ele>
        <time>2014-03-28T11:15:33.000Z</time>
      </trkpt>
      <trkpt lat="45.93684" lon="6.50682">
        <ele>1613.4000244141</ele>
        <time>2014-03-28T11:15:39.000Z</time>
      </trkpt>
      <trkpt lat="45.93682" lon="6.5068">
        <ele>1613.8000488281</ele>
        <time>2014-03-28T11:15:46.000Z</time>
      </trkpt>
      <trkpt lat="45.93681" lon="6.5068">
        <ele>1613.8000488281</ele>
        <time>2014-03-28T11:15:50.000Z</time>
      </trkpt>
      <trkpt lat="45.93679" lon="6.50678">
        <ele>1614</ele>
        <time>2014-03-28T11:15:55.000Z</time>
      </trkpt>
      <trkpt lat="45.93676" lon="6.50676">
        <ele>1614</ele>
        <time>2014-03-28T11:15:59.000Z</time>
      </trkpt>
      <trkpt lat="45.93673" lon="6.50675">
        <ele>1614.8000488281</ele>
        <time>2014-03-28T11:16:04.000Z</time>
      </trkpt>
      <trkpt lat="45.9367" lon="6.50673">
        <ele>1615.1999511719</ele>
        <time>2014-03-28T11:16:08.000Z</time>
      </trkpt>
      <trkpt lat="45.93666" lon="6.5067">
        <ele>1615.1999511719</ele>
        <time>2014-03-28T11:16:12.000Z</time>
      </trkpt>
      <trkpt lat="45.93659" lon="6.50666">
        <ele>1614.4000244141</ele>
        <time>2014-03-28T11:16:18.000Z</time>
      </trkpt>
      <trkpt lat="45.93654" lon="6.50662">
        <ele>1613.4000244141</ele>
        <time>2014-03-28T11:16:23.000Z</time>
      </trkpt>
      <trkpt lat="45.93649" lon="6.50659">
        <ele>1612.8000488281</ele>
        <time>2014-03-28T11:16:28.000Z</time>
      </trkpt>
      <trkpt lat="45.93643" lon="6.50653">
        <ele>1611.5999755859</ele>
        <time>2014-03-28T11:16:35.000Z</time>
      </trkpt>
      <trkpt lat="45.93639" lon="6.50649">
        <ele>1610.5999755859</ele>
        <time>2014-03-28T11:16:41.000Z</time>
      </trkpt>
      <trkpt lat="45.93635" lon="6.50645">
        <ele>1609.5999755859</ele>
        <time>2014-03-28T11:16:47.000Z</time>
      </trkpt>
      <trkpt lat="45.93631" lon="6.50641">
        <ele>1608.8000488281</ele>
        <time>2014-03-28T11:16:52.000Z</time>
      </trkpt>
      <trkpt lat="45.93626" lon="6.50636">
        <ele>1608</ele>
        <time>2014-03-28T11:16:58.000Z</time>
      </trkpt>
      <trkpt lat="45.93615" lon="6.50627">
        <ele>1606.1999511719</ele>
        <time>2014-03-28T11:17:03.000Z</time>
      </trkpt>
      <trkpt lat="45.93612" lon="6.50625">
        <ele>1606.4000244141</ele>
        <time>2014-03-28T11:17:09.000Z</time>
      </trkpt>
      <trkpt lat="45.9361" lon="6.50624">
        <ele>1606.4000244141</ele>
        <time>2014-03-28T11:17:17.000Z</time>
      </trkpt>
      <trkpt lat="45.93606" lon="6.50623">
        <ele>1606.4000244141</ele>
        <time>2014-03-28T11:17:21.000Z</time>
      </trkpt>
      <trkpt lat="45.93597" lon="6.5062">
        <ele>1607.1999511719</ele>
        <time>2014-03-28T11:17:26.000Z</time>
      </trkpt>
      <trkpt lat="45.93579" lon="6.50617">
        <ele>1607.8000488281</ele>
        <time>2014-03-28T11:17:29.000Z</time>
      </trkpt>
      <trkpt lat="45.93564" lon="6.50617">
        <ele>1605.5999755859</ele>
        <time>2014-03-28T11:17:31.000Z</time>
      </trkpt>
      <trkpt lat="45.93549" lon="6.50624">
        <ele>1605</ele>
        <time>2014-03-28T11:17:34.000Z</time>
      </trkpt>
      <trkpt lat="45.93548" lon="6.50627">
        <ele>1605.4000244141</ele>
        <time>2014-03-28T11:17:37.000Z</time>
      </trkpt>
      <trkpt lat="45.93549" lon="6.50627">
        <ele>1605.5999755859</ele>
        <time>2014-03-28T11:17:47.000Z</time>
      </trkpt>
      <trkpt lat="45.93548" lon="6.50624">
        <ele>1604.8000488281</ele>
        <time>2014-03-28T11:17:53.000Z</time>
      </trkpt>
      <trkpt lat="45.93548" lon="6.50622">
        <ele>1604.4000244141</ele>
        <time>2014-03-28T11:18:06.000Z</time>
      </trkpt>
      <trkpt lat="45.93547" lon="6.50611">
        <ele>1601.8000488281</ele>
        <time>2014-03-28T11:18:42.000Z</time>
      </trkpt>
      <trkpt lat="45.93546" lon="6.50615">
        <ele>1602.4000244141</ele>
        <time>2014-03-28T11:18:52.000Z</time>
      </trkpt>
      <trkpt lat="45.93546" lon="6.50617">
        <ele>1603</ele>
        <time>2014-03-28T11:19:01.000Z</time>
      </trkpt>
      <trkpt lat="45.93544" lon="6.50622">
        <ele>1603.5999755859</ele>
        <time>2014-03-28T11:19:10.000Z</time>
      </trkpt>
      <trkpt lat="45.93542" lon="6.50624">
        <ele>1603.8000488281</ele>
        <time>2014-03-28T11:19:18.000Z</time>
      </trkpt>
      <trkpt lat="45.93545" lon="6.50629">
        <ele>1605.1999511719</ele>
        <time>2014-03-28T11:19:31.000Z</time>
      </trkpt>
      <trkpt lat="45.93545" lon="6.50624">
        <ele>1604.1999511719</ele>
        <time>2014-03-28T11:19:38.000Z</time>
      </trkpt>
      <trkpt lat="45.9355" lon="6.50619">
        <ele>1604</ele>
        <time>2014-03-28T11:19:49.000Z</time>
      </trkpt>
      <trkpt lat="45.9355" lon="6.5062">
        <ele>1604</ele>
        <time>2014-03-28T11:19:54.000Z</time>
      </trkpt>
      <trkpt lat="45.93549" lon="6.50619">
        <ele>1603.8000488281</ele>
        <time>2014-03-28T11:19:59.000Z</time>
      </trkpt>
      <trkpt lat="45.93548" lon="6.50618">
        <ele>1603.4000244141</ele>
        <time>2014-03-28T11:20:00.000Z</time>
      </trkpt>
      <trkpt lat="45.93538" lon="6.50618">
        <ele>1602</ele>
        <time>2014-03-28T11:20:03.000Z</time>
      </trkpt>
      <trkpt lat="45.93527" lon="6.50613">
        <ele>1599.1999511719</ele>
        <time>2014-03-28T11:20:06.000Z</time>
      </trkpt>
      <trkpt lat="45.93513" lon="6.50622">
        <ele>1599</ele>
        <time>2014-03-28T11:20:09.000Z</time>
      </trkpt>
      <trkpt lat="45.93498" lon="6.50648">
        <ele>1600.4000244141</ele>
        <time>2014-03-28T11:20:13.000Z</time>
      </trkpt>
      <trkpt lat="45.93489" lon="6.50646">
        <ele>1598</ele>
        <time>2014-03-28T11:20:15.000Z</time>
      </trkpt>
      <trkpt lat="45.93488" lon="6.50636">
        <ele>1596.1999511719</ele>
        <time>2014-03-28T11:20:17.000Z</time>
      </trkpt>
      <trkpt lat="45.93485" lon="6.50613">
        <ele>1591.5999755859</ele>
        <time>2014-03-28T11:20:21.000Z</time>
      </trkpt>
      <trkpt lat="45.93478" lon="6.50604">
        <ele>1588.1999511719</ele>
        <time>2014-03-28T11:20:25.000Z</time>
      </trkpt>
      <trkpt lat="45.93468" lon="6.50616">
        <ele>1587.1999511719</ele>
        <time>2014-03-28T11:20:32.000Z</time>
      </trkpt>
      <trkpt lat="45.93449" lon="6.50635">
        <ele>1586.1999511719</ele>
        <time>2014-03-28T11:20:37.000Z</time>
      </trkpt>
      <trkpt lat="45.93445" lon="6.50643">
        <ele>1586.5999755859</ele>
        <time>2014-03-28T11:20:39.000Z</time>
      </trkpt>
      <trkpt lat="45.93439" lon="6.50654">
        <ele>1587.5999755859</ele>
        <time>2014-03-28T11:20:44.000Z</time>
      </trkpt>
      <trkpt lat="45.93426" lon="6.50662">
        <ele>1586.1999511719</ele>
        <time>2014-03-28T11:20:48.000Z</time>
      </trkpt>
      <trkpt lat="45.93424" lon="6.50662">
        <ele>1585.5999755859</ele>
        <time>2014-03-28T11:20:49.000Z</time>
      </trkpt>
      <trkpt lat="45.9341" lon="6.50649">
        <ele>1581.1999511719</ele>
        <time>2014-03-28T11:20:54.000Z</time>
      </trkpt>
      <trkpt lat="45.93406" lon="6.50645">
        <ele>1580.4000244141</ele>
        <time>2014-03-28T11:20:55.000Z</time>
      </trkpt>
      <trkpt lat="45.93408" lon="6.5063">
        <ele>1577</ele>
        <time>2014-03-28T11:20:59.000Z</time>
      </trkpt>
      <trkpt lat="45.93409" lon="6.50627">
        <ele>1576</ele>
        <time>2014-03-28T11:21:01.000Z</time>
      </trkpt>
      <trkpt lat="45.93413" lon="6.50616">
        <ele>1573.4000244141</ele>
        <time>2014-03-28T11:21:05.000Z</time>
      </trkpt>
      <trkpt lat="45.93404" lon="6.50603">
        <ele>1570.4000244141</ele>
        <time>2014-03-28T11:21:09.000Z</time>
      </trkpt>
      <trkpt lat="45.93404" lon="6.50602">
        <ele>1570</ele>
        <time>2014-03-28T11:21:11.000Z</time>
      </trkpt>
      <trkpt lat="45.93405" lon="6.50603">
        <ele>1570.1999511719</ele>
        <time>2014-03-28T11:21:18.000Z</time>
      </trkpt>
      <trkpt lat="45.93405" lon="6.50591">
        <ele>1567.1999511719</ele>
        <time>2014-03-28T11:21:22.000Z</time>
      </trkpt>
      <trkpt lat="45.93398" lon="6.50577">
        <ele>1563.8000488281</ele>
        <time>2014-03-28T11:21:27.000Z</time>
      </trkpt>
      <trkpt lat="45.93395" lon="6.50571">
        <ele>1562.4000244141</ele>
        <time>2014-03-28T11:21:30.000Z</time>
      </trkpt>
      <trkpt lat="45.93395" lon="6.50573">
        <ele>1562.8000488281</ele>
        <time>2014-03-28T11:21:37.000Z</time>
      </trkpt>
      <trkpt lat="45.93391" lon="6.50577">
        <ele>1563.4000244141</ele>
        <time>2014-03-28T11:21:51.000Z</time>
      </trkpt>
      <trkpt lat="45.93383" lon="6.50576">
        <ele>1562.5999755859</ele>
        <time>2014-03-28T11:21:55.000Z</time>
      </trkpt>
      <trkpt lat="45.93379" lon="6.50578">
        <ele>1563</ele>
        <time>2014-03-28T11:21:58.000Z</time>
      </trkpt>
      <trkpt lat="45.93373" lon="6.50573">
        <ele>1561.4000244141</ele>
        <time>2014-03-28T11:22:03.000Z</time>
      </trkpt>
      <trkpt lat="45.93371" lon="6.50568">
        <ele>1560.1999511719</ele>
        <time>2014-03-28T11:22:05.000Z</time>
      </trkpt>
      <trkpt lat="45.93366" lon="6.50542">
        <ele>1553.1999511719</ele>
        <time>2014-03-28T11:22:09.000Z</time>
      </trkpt>
      <trkpt lat="45.93354" lon="6.50522">
        <ele>1546.5999755859</ele>
        <time>2014-03-28T11:22:13.000Z</time>
      </trkpt>
      <trkpt lat="45.93352" lon="6.50515">
        <ele>1544.4000244141</ele>
        <time>2014-03-28T11:22:15.000Z</time>
      </trkpt>
      <trkpt lat="45.9334" lon="6.50494">
        <ele>1536.5999755859</ele>
        <time>2014-03-28T11:22:19.000Z</time>
      </trkpt>
      <trkpt lat="45.93338" lon="6.50488">
        <ele>1535</ele>
        <time>2014-03-28T11:22:21.000Z</time>
      </trkpt>
      <trkpt lat="45.93338" lon="6.50489">
        <ele>1535.1999511719</ele>
        <time>2014-03-28T11:22:26.000Z</time>
      </trkpt>
      <trkpt lat="45.93339" lon="6.50486">
        <ele>1534.8000488281</ele>
        <time>2014-03-28T11:22:29.000Z</time>
      </trkpt>
      <trkpt lat="45.93341" lon="6.50464">
        <ele>1530.1999511719</ele>
        <time>2014-03-28T11:22:33.000Z</time>
      </trkpt>
      <trkpt lat="45.93339" lon="6.50446">
        <ele>1525.1999511719</ele>
        <time>2014-03-28T11:22:35.000Z</time>
      </trkpt>
      <trkpt lat="45.9333" lon="6.50414">
        <ele>1517.1999511719</ele>
        <time>2014-03-28T11:22:38.000Z</time>
      </trkpt>
      <trkpt lat="45.93318" lon="6.50364">
        <ele>1513.8000488281</ele>
        <time>2014-03-28T11:22:43.000Z</time>
      </trkpt>
      <trkpt lat="45.9331" lon="6.50346">
        <ele>1513</ele>
        <time>2014-03-28T11:22:45.000Z</time>
      </trkpt>
      <trkpt lat="45.93292" lon="6.50322">
        <ele>1513.5999755859</ele>
        <time>2014-03-28T11:22:50.000Z</time>
      </trkpt>
      <trkpt lat="45.9328" lon="6.50309">
        <ele>1514.1999511719</ele>
        <time>2014-03-28T11:22:56.000Z</time>
      </trkpt>
      <trkpt lat="45.93278" lon="6.50306">
        <ele>1514.4000244141</ele>
        <time>2014-03-28T11:22:57.000Z</time>
      </trkpt>
      <trkpt lat="45.93276" lon="6.50284">
        <ele>1513.4000244141</ele>
        <time>2014-03-28T11:23:01.000Z</time>
      </trkpt>
      <trkpt lat="45.93278" lon="6.50262">
        <ele>1512.1999511719</ele>
        <time>2014-03-28T11:23:04.000Z</time>
      </trkpt>
      <trkpt lat="45.93274" lon="6.50254">
        <ele>1512</ele>
        <time>2014-03-28T11:23:05.000Z</time>
      </trkpt>
      <trkpt lat="45.93257" lon="6.5023">
        <ele>1510.4000244141</ele>
        <time>2014-03-28T11:23:09.000Z</time>
      </trkpt>
      <trkpt lat="45.93242" lon="6.50214">
        <ele>1510.4000244141</ele>
        <time>2014-03-28T11:23:14.000Z</time>
      </trkpt>
      <trkpt lat="45.93229" lon="6.50185">
        <ele>1508.8000488281</ele>
        <time>2014-03-28T11:23:22.000Z</time>
      </trkpt>
      <trkpt lat="45.9322" lon="6.5017">
        <ele>1507.4000244141</ele>
        <time>2014-03-28T11:23:25.000Z</time>
      </trkpt>
      <trkpt lat="45.93211" lon="6.50158">
        <ele>1506.8000488281</ele>
        <time>2014-03-28T11:23:28.000Z</time>
      </trkpt>
      <trkpt lat="45.93204" lon="6.50149">
        <ele>1506.4000244141</ele>
        <time>2014-03-28T11:23:31.000Z</time>
      </trkpt>
      <trkpt lat="45.932" lon="6.5014">
        <ele>1506</ele>
        <time>2014-03-28T11:23:35.000Z</time>
      </trkpt>
      <trkpt lat="45.93196" lon="6.50132">
        <ele>1505.4000244141</ele>
        <time>2014-03-28T11:23:39.000Z</time>
      </trkpt>
      <trkpt lat="45.93195" lon="6.5013">
        <ele>1505.1999511719</ele>
        <time>2014-03-28T11:23:40.000Z</time>
      </trkpt>
      <trkpt lat="45.9319" lon="6.50123">
        <ele>1504.8000488281</ele>
        <time>2014-03-28T11:23:45.000Z</time>
      </trkpt>
      <trkpt lat="45.93187" lon="6.50117">
        <ele>1504.1999511719</ele>
        <time>2014-03-28T11:23:49.000Z</time>
      </trkpt>
      <trkpt lat="45.93183" lon="6.50113">
        <ele>1503.8000488281</ele>
        <time>2014-03-28T11:23:53.000Z</time>
      </trkpt>
      <trkpt lat="45.93181" lon="6.5011">
        <ele>1503.4000244141</ele>
        <time>2014-03-28T11:23:56.000Z</time>
      </trkpt>
      <trkpt lat="45.93179" lon="6.50108">
        <ele>1503.1999511719</ele>
        <time>2014-03-28T11:24:01.000Z</time>
      </trkpt>
      <trkpt lat="45.93176" lon="6.50108">
        <ele>1503</ele>
        <time>2014-03-28T11:24:06.000Z</time>
      </trkpt>
      <trkpt lat="45.93173" lon="6.50108">
        <ele>1503</ele>
        <time>2014-03-28T11:24:11.000Z</time>
      </trkpt>
      <trkpt lat="45.9317" lon="6.50106">
        <ele>1502.8000488281</ele>
        <time>2014-03-28T11:24:15.000Z</time>
      </trkpt>
      <trkpt lat="45.93167" lon="6.50105">
        <ele>1502.5999755859</ele>
        <time>2014-03-28T11:24:19.000Z</time>
      </trkpt>
      <trkpt lat="45.93163" lon="6.50103">
        <ele>1503.1999511719</ele>
        <time>2014-03-28T11:24:23.000Z</time>
      </trkpt>
      <trkpt lat="45.93158" lon="6.50098">
        <ele>1503.4000244141</ele>
        <time>2014-03-28T11:24:28.000Z</time>
      </trkpt>
      <trkpt lat="45.93152" lon="6.50091">
        <ele>1503.5999755859</ele>
        <time>2014-03-28T11:24:33.000Z</time>
      </trkpt>
      <trkpt lat="45.93146" lon="6.50078">
        <ele>1503.4000244141</ele>
        <time>2014-03-28T11:24:39.000Z</time>
      </trkpt>
      <trkpt lat="45.93138" lon="6.50055">
        <ele>1503.5999755859</ele>
        <time>2014-03-28T11:24:47.000Z</time>
      </trkpt>
      <trkpt lat="45.93128" lon="6.50038">
        <ele>1503</ele>
        <time>2014-03-28T11:24:53.000Z</time>
      </trkpt>
      <trkpt lat="45.93116" lon="6.50019">
        <ele>1500.5999755859</ele>
        <time>2014-03-28T11:24:57.000Z</time>
      </trkpt>
      <trkpt lat="45.93103" lon="6.49991">
        <ele>1495.8000488281</ele>
        <time>2014-03-28T11:25:03.000Z</time>
      </trkpt>
      <trkpt lat="45.93102" lon="6.49982">
        <ele>1494.8000488281</ele>
        <time>2014-03-28T11:25:05.000Z</time>
      </trkpt>
      <trkpt lat="45.93105" lon="6.49959">
        <ele>1493.1999511719</ele>
        <time>2014-03-28T11:25:10.000Z</time>
      </trkpt>
      <trkpt lat="45.93105" lon="6.49956">
        <ele>1493.1999511719</ele>
        <time>2014-03-28T11:25:13.000Z</time>
      </trkpt>
      <trkpt lat="45.93107" lon="6.49952">
        <ele>1493</ele>
        <time>2014-03-28T11:25:19.000Z</time>
      </trkpt>
      <trkpt lat="45.93107" lon="6.49946">
        <ele>1492.5999755859</ele>
        <time>2014-03-28T11:25:24.000Z</time>
      </trkpt>
      <trkpt lat="45.93109" lon="6.49944">
        <ele>1492.8000488281</ele>
        <time>2014-03-28T11:25:27.000Z</time>
      </trkpt>
      <trkpt lat="45.93109" lon="6.49941">
        <ele>1492.5999755859</ele>
        <time>2014-03-28T11:25:31.000Z</time>
      </trkpt>
      <trkpt lat="45.93108" lon="6.49935">
        <ele>1491.8000488281</ele>
        <time>2014-03-28T11:25:35.000Z</time>
      </trkpt>
      <trkpt lat="45.93108" lon="6.49925">
        <ele>1491</ele>
        <time>2014-03-28T11:25:39.000Z</time>
      </trkpt>
      <trkpt lat="45.93109" lon="6.4991">
        <ele>1490.5999755859</ele>
        <time>2014-03-28T11:25:43.000Z</time>
      </trkpt>
      <trkpt lat="45.93113" lon="6.49889">
        <ele>1491.4000244141</ele>
        <time>2014-03-28T11:25:47.000Z</time>
      </trkpt>
      <trkpt lat="45.93119" lon="6.49867">
        <ele>1492.1999511719</ele>
        <time>2014-03-28T11:25:52.000Z</time>
      </trkpt>
      <trkpt lat="45.9312" lon="6.49854">
        <ele>1492.1999511719</ele>
        <time>2014-03-28T11:25:55.000Z</time>
      </trkpt>
      <trkpt lat="45.93114" lon="6.49841">
        <ele>1491.5999755859</ele>
        <time>2014-03-28T11:26:01.000Z</time>
      </trkpt>
      <trkpt lat="45.93107" lon="6.49828">
        <ele>1490.4000244141</ele>
        <time>2014-03-28T11:26:05.000Z</time>
      </trkpt>
      <trkpt lat="45.93093" lon="6.49807">
        <ele>1488.1999511719</ele>
        <time>2014-03-28T11:26:10.000Z</time>
      </trkpt>
      <trkpt lat="45.93077" lon="6.4979">
        <ele>1486.4000244141</ele>
        <time>2014-03-28T11:26:13.000Z</time>
      </trkpt>
      <trkpt lat="45.93064" lon="6.49778">
        <ele>1484.4000244141</ele>
        <time>2014-03-28T11:26:16.000Z</time>
      </trkpt>
      <trkpt lat="45.9305" lon="6.49764">
        <ele>1482.4000244141</ele>
        <time>2014-03-28T11:26:21.000Z</time>
      </trkpt>
      <trkpt lat="45.93047" lon="6.49758">
        <ele>1482</ele>
        <time>2014-03-28T11:26:23.000Z</time>
      </trkpt>
      <trkpt lat="45.93042" lon="6.49746">
        <ele>1481</ele>
        <time>2014-03-28T11:26:28.000Z</time>
      </trkpt>
      <trkpt lat="45.93033" lon="6.49743">
        <ele>1479.8000488281</ele>
        <time>2014-03-28T11:26:33.000Z</time>
      </trkpt>
      <trkpt lat="45.93031" lon="6.49741">
        <ele>1479.5999755859</ele>
        <time>2014-03-28T11:26:36.000Z</time>
      </trkpt>
      <trkpt lat="45.93028" lon="6.49741">
        <ele>1479.1999511719</ele>
        <time>2014-03-28T11:26:41.000Z</time>
      </trkpt>
      <trkpt lat="45.93024" lon="6.49739">
        <ele>1478.8000488281</ele>
        <time>2014-03-28T11:26:48.000Z</time>
      </trkpt>
      <trkpt lat="45.93022" lon="6.49737">
        <ele>1478.4000244141</ele>
        <time>2014-03-28T11:26:53.000Z</time>
      </trkpt>
      <trkpt lat="45.93021" lon="6.49736">
        <ele>1478.1999511719</ele>
        <time>2014-03-28T11:26:55.000Z</time>
      </trkpt>
      <trkpt lat="45.93017" lon="6.49735">
        <ele>1477.8000488281</ele>
        <time>2014-03-28T11:26:59.000Z</time>
      </trkpt>
      <trkpt lat="45.93014" lon="6.4973">
        <ele>1477.4000244141</ele>
        <time>2014-03-28T11:27:05.000Z</time>
      </trkpt>
      <trkpt lat="45.9301" lon="6.49727">
        <ele>1477</ele>
        <time>2014-03-28T11:27:08.000Z</time>
      </trkpt>
      <trkpt lat="45.93005" lon="6.49719">
        <ele>1476.4000244141</ele>
        <time>2014-03-28T11:27:12.000Z</time>
      </trkpt>
      <trkpt lat="45.93004" lon="6.49712">
        <ele>1476.1999511719</ele>
        <time>2014-03-28T11:27:14.000Z</time>
      </trkpt>
      <trkpt lat="45.93001" lon="6.49697">
        <ele>1475.8000488281</ele>
        <time>2014-03-28T11:27:18.000Z</time>
      </trkpt>
      <trkpt lat="45.92996" lon="6.49686">
        <ele>1475</ele>
        <time>2014-03-28T11:27:22.000Z</time>
      </trkpt>
      <trkpt lat="45.92986" lon="6.49679">
        <ele>1474</ele>
        <time>2014-03-28T11:27:27.000Z</time>
      </trkpt>
      <trkpt lat="45.9298" lon="6.49677">
        <ele>1473.5999755859</ele>
        <time>2014-03-28T11:27:30.000Z</time>
      </trkpt>
      <trkpt lat="45.92968" lon="6.49665">
        <ele>1472.4000244141</ele>
        <time>2014-03-28T11:27:38.000Z</time>
      </trkpt>
      <trkpt lat="45.92957" lon="6.49659">
        <ele>1471</ele>
        <time>2014-03-28T11:27:41.000Z</time>
      </trkpt>
      <trkpt lat="45.9295" lon="6.49651">
        <ele>1469.8000488281</ele>
        <time>2014-03-28T11:27:45.000Z</time>
      </trkpt>
      <trkpt lat="45.92946" lon="6.49646">
        <ele>1469.1999511719</ele>
        <time>2014-03-28T11:27:49.000Z</time>
      </trkpt>
      <trkpt lat="45.92944" lon="6.49643">
        <ele>1469</ele>
        <time>2014-03-28T11:27:55.000Z</time>
      </trkpt>
      <trkpt lat="45.92945" lon="6.49645">
        <ele>1469.1999511719</ele>
        <time>2014-03-28T11:28:08.000Z</time>
      </trkpt>
      <trkpt lat="45.92944" lon="6.49647">
        <ele>1469.4000244141</ele>
        <time>2014-03-28T11:28:27.000Z</time>
      </trkpt>
      <trkpt lat="45.92944" lon="6.49646">
        <ele>1469.4000244141</ele>
        <time>2014-03-28T11:28:40.000Z</time>
      </trkpt>
      <trkpt lat="45.92944" lon="6.49646">
        <ele>1469.1999511719</ele>
        <time>2014-03-28T11:28:58.000Z</time>
      </trkpt>
      <trkpt lat="45.92945" lon="6.49646">
        <ele>1469.1999511719</ele>
        <time>2014-03-28T11:29:04.000Z</time>
      </trkpt>
      <trkpt lat="45.92945" lon="6.49648">
        <ele>1469.4000244141</ele>
        <time>2014-03-28T11:29:09.000Z</time>
      </trkpt>
      <trkpt lat="45.92945" lon="6.49649">
        <ele>1469.4000244141</ele>
        <time>2014-03-28T11:29:14.000Z</time>
      </trkpt>
      <trkpt lat="45.92944" lon="6.49649">
        <ele>1469.4000244141</ele>
        <time>2014-03-28T11:29:23.000Z</time>
      </trkpt>
      <trkpt lat="45.92943" lon="6.49648">
        <ele>1469.4000244141</ele>
        <time>2014-03-28T11:29:36.000Z</time>
      </trkpt>
      <trkpt lat="45.92942" lon="6.49648">
        <ele>1469.4000244141</ele>
        <time>2014-03-28T11:29:48.000Z</time>
      </trkpt>
      <trkpt lat="45.92941" lon="6.49646">
        <ele>1469.1999511719</ele>
        <time>2014-03-28T11:29:55.000Z</time>
      </trkpt>
      <trkpt lat="45.92939" lon="6.49644">
        <ele>1469</ele>
        <time>2014-03-28T11:30:02.000Z</time>
      </trkpt>
      <trkpt lat="45.92937" lon="6.49638">
        <ele>1468.5999755859</ele>
        <time>2014-03-28T11:30:09.000Z</time>
      </trkpt>
      <trkpt lat="45.92934" lon="6.49633">
        <ele>1468.4000244141</ele>
        <time>2014-03-28T11:30:15.000Z</time>
      </trkpt>
      <trkpt lat="45.92931" lon="6.49628">
        <ele>1468.4000244141</ele>
        <time>2014-03-28T11:30:22.000Z</time>
      </trkpt>
      <trkpt lat="45.92928" lon="6.49625">
        <ele>1468.4000244141</ele>
        <time>2014-03-28T11:30:29.000Z</time>
      </trkpt>
      <trkpt lat="45.92923" lon="6.49621">
        <ele>1468.5999755859</ele>
        <time>2014-03-28T11:30:38.000Z</time>
      </trkpt>
      <trkpt lat="45.92922" lon="6.4962">
        <ele>1468.5999755859</ele>
        <time>2014-03-28T11:30:53.000Z</time>
      </trkpt>
      <trkpt lat="45.92917" lon="6.49618">
        <ele>1469</ele>
        <time>2014-03-28T11:30:59.000Z</time>
      </trkpt>
      <trkpt lat="45.92913" lon="6.49614">
        <ele>1468.8000488281</ele>
        <time>2014-03-28T11:31:06.000Z</time>
      </trkpt>
      <trkpt lat="45.92906" lon="6.49609">
        <ele>1468.5999755859</ele>
        <time>2014-03-28T11:31:14.000Z</time>
      </trkpt>
      <trkpt lat="45.92901" lon="6.49606">
        <ele>1468.5999755859</ele>
        <time>2014-03-28T11:31:20.000Z</time>
      </trkpt>
      <trkpt lat="45.92896" lon="6.49601">
        <ele>1468.5999755859</ele>
        <time>2014-03-28T11:31:28.000Z</time>
      </trkpt>
      <trkpt lat="45.92888" lon="6.49594">
        <ele>1468.5999755859</ele>
        <time>2014-03-28T11:31:36.000Z</time>
      </trkpt>
      <trkpt lat="45.9288" lon="6.49586">
        <ele>1468.8000488281</ele>
        <time>2014-03-28T11:31:44.000Z</time>
      </trkpt>
      <trkpt lat="45.92875" lon="6.49577">
        <ele>1468.4000244141</ele>
        <time>2014-03-28T11:31:51.000Z</time>
      </trkpt>
      <trkpt lat="45.9287" lon="6.49568">
        <ele>1467.8000488281</ele>
        <time>2014-03-28T11:31:58.000Z</time>
      </trkpt>
      <trkpt lat="45.92864" lon="6.49561">
        <ele>1467.5999755859</ele>
        <time>2014-03-28T11:32:06.000Z</time>
      </trkpt>
      <trkpt lat="45.92861" lon="6.49555">
        <ele>1467.4000244141</ele>
        <time>2014-03-28T11:32:13.000Z</time>
      </trkpt>
      <trkpt lat="45.92856" lon="6.49549">
        <ele>1467.5999755859</ele>
        <time>2014-03-28T11:32:21.000Z</time>
      </trkpt>
      <trkpt lat="45.9285" lon="6.49541">
        <ele>1468.1999511719</ele>
        <time>2014-03-28T11:32:27.000Z</time>
      </trkpt>
      <trkpt lat="45.92848" lon="6.49537">
        <ele>1468.4000244141</ele>
        <time>2014-03-28T11:32:36.000Z</time>
      </trkpt>
      <trkpt lat="45.92845" lon="6.49532">
        <ele>1469</ele>
        <time>2014-03-28T11:32:44.000Z</time>
      </trkpt>
      <trkpt lat="45.92841" lon="6.49528">
        <ele>1469.5999755859</ele>
        <time>2014-03-28T11:32:51.000Z</time>
      </trkpt>
      <trkpt lat="45.92836" lon="6.49521">
        <ele>1470.8000488281</ele>
        <time>2014-03-28T11:33:00.000Z</time>
      </trkpt>
      <trkpt lat="45.92832" lon="6.49518">
        <ele>1471.4000244141</ele>
        <time>2014-03-28T11:33:07.000Z</time>
      </trkpt>
      <trkpt lat="45.92827" lon="6.49515">
        <ele>1472.4000244141</ele>
        <time>2014-03-28T11:33:13.000Z</time>
      </trkpt>
      <trkpt lat="45.92824" lon="6.49514">
        <ele>1473</ele>
        <time>2014-03-28T11:33:18.000Z</time>
      </trkpt>
      <trkpt lat="45.92818" lon="6.49512">
        <ele>1474</ele>
        <time>2014-03-28T11:33:25.000Z</time>
      </trkpt>
      <trkpt lat="45.92814" lon="6.49509">
        <ele>1474.8000488281</ele>
        <time>2014-03-28T11:33:30.000Z</time>
      </trkpt>
      <trkpt lat="45.92809" lon="6.49506">
        <ele>1475.8000488281</ele>
        <time>2014-03-28T11:33:37.000Z</time>
      </trkpt>
      <trkpt lat="45.92804" lon="6.49504">
        <ele>1476.5999755859</ele>
        <time>2014-03-28T11:33:42.000Z</time>
      </trkpt>
      <trkpt lat="45.92798" lon="6.49502">
        <ele>1477.8000488281</ele>
        <time>2014-03-28T11:33:49.000Z</time>
      </trkpt>
      <trkpt lat="45.92793" lon="6.49501">
        <ele>1478.5999755859</ele>
        <time>2014-03-28T11:33:55.000Z</time>
      </trkpt>
      <trkpt lat="45.92788" lon="6.49499">
        <ele>1479.4000244141</ele>
        <time>2014-03-28T11:34:02.000Z</time>
      </trkpt>
      <trkpt lat="45.92784" lon="6.49496">
        <ele>1480</ele>
        <time>2014-03-28T11:34:09.000Z</time>
      </trkpt>
      <trkpt lat="45.92779" lon="6.49492">
        <ele>1480.4000244141</ele>
        <time>2014-03-28T11:34:16.000Z</time>
      </trkpt>
      <trkpt lat="45.92774" lon="6.49488">
        <ele>1481</ele>
        <time>2014-03-28T11:34:24.000Z</time>
      </trkpt>
      <trkpt lat="45.92769" lon="6.49484">
        <ele>1481.8000488281</ele>
        <time>2014-03-28T11:34:32.000Z</time>
      </trkpt>
      <trkpt lat="45.92763" lon="6.49479">
        <ele>1482.8000488281</ele>
        <time>2014-03-28T11:34:40.000Z</time>
      </trkpt>
      <trkpt lat="45.92759" lon="6.49476">
        <ele>1483.8000488281</ele>
        <time>2014-03-28T11:34:46.000Z</time>
      </trkpt>
      <trkpt lat="45.92756" lon="6.49474">
        <ele>1484.4000244141</ele>
        <time>2014-03-28T11:34:52.000Z</time>
      </trkpt>
      <trkpt lat="45.92752" lon="6.49471">
        <ele>1485.1999511719</ele>
        <time>2014-03-28T11:34:57.000Z</time>
      </trkpt>
      <trkpt lat="45.92749" lon="6.49468">
        <ele>1486</ele>
        <time>2014-03-28T11:35:04.000Z</time>
      </trkpt>
      <trkpt lat="45.92748" lon="6.49467">
        <ele>1486.1999511719</ele>
        <time>2014-03-28T11:35:10.000Z</time>
      </trkpt>
      <trkpt lat="45.92748" lon="6.49467">
        <ele>1486.1999511719</ele>
        <time>2014-03-28T11:35:26.000Z</time>
      </trkpt>
      <trkpt lat="45.92747" lon="6.49466">
        <ele>1486.4000244141</ele>
        <time>2014-03-28T11:35:36.000Z</time>
      </trkpt>
      <trkpt lat="45.92747" lon="6.49466">
        <ele>1486.5999755859</ele>
        <time>2014-03-28T11:35:51.000Z</time>
      </trkpt>
      <trkpt lat="45.92746" lon="6.49466">
        <ele>1486.8000488281</ele>
        <time>2014-03-28T11:36:03.000Z</time>
      </trkpt>
      <trkpt lat="45.92745" lon="6.49463">
        <ele>1487</ele>
        <time>2014-03-28T11:36:16.000Z</time>
      </trkpt>
      <trkpt lat="45.92744" lon="6.49453">
        <ele>1487.1999511719</ele>
        <time>2014-03-28T11:36:20.000Z</time>
      </trkpt>
      <trkpt lat="45.92738" lon="6.49431">
        <ele>1488.8000488281</ele>
        <time>2014-03-28T11:36:26.000Z</time>
      </trkpt>
      <trkpt lat="45.92734" lon="6.49419">
        <ele>1490</ele>
        <time>2014-03-28T11:36:29.000Z</time>
      </trkpt>
      <trkpt lat="45.92728" lon="6.494">
        <ele>1489.8000488281</ele>
        <time>2014-03-28T11:36:34.000Z</time>
      </trkpt>
      <trkpt lat="45.92719" lon="6.49374">
        <ele>1489.5999755859</ele>
        <time>2014-03-28T11:36:41.000Z</time>
      </trkpt>
      <trkpt lat="45.92714" lon="6.49361">
        <ele>1490</ele>
        <time>2014-03-28T11:36:44.000Z</time>
      </trkpt>
      <trkpt lat="45.92709" lon="6.4934">
        <ele>1489.4000244141</ele>
        <time>2014-03-28T11:36:47.000Z</time>
      </trkpt>
      <trkpt lat="45.92706" lon="6.49319">
        <ele>1485.5999755859</ele>
        <time>2014-03-28T11:36:50.000Z</time>
      </trkpt>
      <trkpt lat="45.92691" lon="6.49289">
        <ele>1481.5999755859</ele>
        <time>2014-03-28T11:36:55.000Z</time>
      </trkpt>
      <trkpt lat="45.9267" lon="6.49273">
        <ele>1483</ele>
        <time>2014-03-28T11:37:00.000Z</time>
      </trkpt>
      <trkpt lat="45.92666" lon="6.49271">
        <ele>1483.5999755859</ele>
        <time>2014-03-28T11:37:01.000Z</time>
      </trkpt>
      <trkpt lat="45.92659" lon="6.49268">
        <ele>1484.8000488281</ele>
        <time>2014-03-28T11:37:08.000Z</time>
      </trkpt>
      <trkpt lat="45.92655" lon="6.49268">
        <ele>1486</ele>
        <time>2014-03-28T11:37:12.000Z</time>
      </trkpt>
      <trkpt lat="45.92653" lon="6.49266">
        <ele>1486.1999511719</ele>
        <time>2014-03-28T11:37:16.000Z</time>
      </trkpt>
      <trkpt lat="45.92649" lon="6.49265">
        <ele>1486.5999755859</ele>
        <time>2014-03-28T11:37:20.000Z</time>
      </trkpt>
      <trkpt lat="45.92646" lon="6.49263">
        <ele>1487</ele>
        <time>2014-03-28T11:37:24.000Z</time>
      </trkpt>
      <trkpt lat="45.92644" lon="6.4926">
        <ele>1486.4000244141</ele>
        <time>2014-03-28T11:37:28.000Z</time>
      </trkpt>
      <trkpt lat="45.92643" lon="6.49258">
        <ele>1486</ele>
        <time>2014-03-28T11:37:32.000Z</time>
      </trkpt>
      <trkpt lat="45.9264" lon="6.49256">
        <ele>1486.1999511719</ele>
        <time>2014-03-28T11:37:38.000Z</time>
      </trkpt>
      <trkpt lat="45.92637" lon="6.49254">
        <ele>1486.1999511719</ele>
        <time>2014-03-28T11:37:43.000Z</time>
      </trkpt>
      <trkpt lat="45.92634" lon="6.49252">
        <ele>1485.8000488281</ele>
        <time>2014-03-28T11:37:47.000Z</time>
      </trkpt>
      <trkpt lat="45.92633" lon="6.49249">
        <ele>1485.1999511719</ele>
        <time>2014-03-28T11:37:52.000Z</time>
      </trkpt>
      <trkpt lat="45.92631" lon="6.49246">
        <ele>1484.8000488281</ele>
        <time>2014-03-28T11:37:55.000Z</time>
      </trkpt>
      <trkpt lat="45.92629" lon="6.49241">
        <ele>1483.5999755859</ele>
        <time>2014-03-28T11:37:58.000Z</time>
      </trkpt>
      <trkpt lat="45.92625" lon="6.49238">
        <ele>1483.5999755859</ele>
        <time>2014-03-28T11:38:03.000Z</time>
      </trkpt>
      <trkpt lat="45.92619" lon="6.49234">
        <ele>1484</ele>
        <time>2014-03-28T11:38:09.000Z</time>
      </trkpt>
      <trkpt lat="45.92616" lon="6.49233">
        <ele>1484.5999755859</ele>
        <time>2014-03-28T11:38:12.000Z</time>
      </trkpt>
      <trkpt lat="45.92614" lon="6.49231">
        <ele>1484.8000488281</ele>
        <time>2014-03-28T11:38:17.000Z</time>
      </trkpt>
      <trkpt lat="45.9261" lon="6.49229">
        <ele>1485</ele>
        <time>2014-03-28T11:38:22.000Z</time>
      </trkpt>
      <trkpt lat="45.92607" lon="6.49228">
        <ele>1485.5999755859</ele>
        <time>2014-03-28T11:38:26.000Z</time>
      </trkpt>
      <trkpt lat="45.92602" lon="6.49228">
        <ele>1486.8000488281</ele>
        <time>2014-03-28T11:38:31.000Z</time>
      </trkpt>
      <trkpt lat="45.92599" lon="6.49226">
        <ele>1487.1999511719</ele>
        <time>2014-03-28T11:38:35.000Z</time>
      </trkpt>
      <trkpt lat="45.92596" lon="6.49225">
        <ele>1488</ele>
        <time>2014-03-28T11:38:39.000Z</time>
      </trkpt>
      <trkpt lat="45.92592" lon="6.49224">
        <ele>1488.8000488281</ele>
        <time>2014-03-28T11:38:44.000Z</time>
      </trkpt>
      <trkpt lat="45.92589" lon="6.49225">
        <ele>1489.8000488281</ele>
        <time>2014-03-28T11:38:48.000Z</time>
      </trkpt>
      <trkpt lat="45.92586" lon="6.49223">
        <ele>1490.4000244141</ele>
        <time>2014-03-28T11:38:52.000Z</time>
      </trkpt>
      <trkpt lat="45.92583" lon="6.49223">
        <ele>1491.1999511719</ele>
        <time>2014-03-28T11:38:56.000Z</time>
      </trkpt>
      <trkpt lat="45.92578" lon="6.49222">
        <ele>1491.8000488281</ele>
        <time>2014-03-28T11:39:02.000Z</time>
      </trkpt>
      <trkpt lat="45.92575" lon="6.49222">
        <ele>1492.4000244141</ele>
        <time>2014-03-28T11:39:05.000Z</time>
      </trkpt>
      <trkpt lat="45.92572" lon="6.4922">
        <ele>1492.4000244141</ele>
        <time>2014-03-28T11:39:09.000Z</time>
      </trkpt>
      <trkpt lat="45.92569" lon="6.49219">
        <ele>1492.4000244141</ele>
        <time>2014-03-28T11:39:12.000Z</time>
      </trkpt>
      <trkpt lat="45.92565" lon="6.4922">
        <ele>1493.4000244141</ele>
        <time>2014-03-28T11:39:16.000Z</time>
      </trkpt>
      <trkpt lat="45.92564" lon="6.4922">
        <ele>1493.8000488281</ele>
        <time>2014-03-28T11:39:17.000Z</time>
      </trkpt>
      <trkpt lat="45.92555" lon="6.4922">
        <ele>1495.5999755859</ele>
        <time>2014-03-28T11:39:23.000Z</time>
      </trkpt>
      <trkpt lat="45.92549" lon="6.4922">
        <ele>1497</ele>
        <time>2014-03-28T11:39:27.000Z</time>
      </trkpt>
      <trkpt lat="45.92547" lon="6.4922">
        <ele>1497.4000244141</ele>
        <time>2014-03-28T11:39:31.000Z</time>
      </trkpt>
      <trkpt lat="45.92545" lon="6.49219">
        <ele>1497.4000244141</ele>
        <time>2014-03-28T11:39:35.000Z</time>
      </trkpt>
      <trkpt lat="45.92544" lon="6.49218">
        <ele>1497.5999755859</ele>
        <time>2014-03-28T11:39:37.000Z</time>
      </trkpt>
      <trkpt lat="45.92534" lon="6.49214">
        <ele>1498</ele>
        <time>2014-03-28T11:39:43.000Z</time>
      </trkpt>
      <trkpt lat="45.92531" lon="6.49213">
        <ele>1498.4000244141</ele>
        <time>2014-03-28T11:39:46.000Z</time>
      </trkpt>
      <trkpt lat="45.92529" lon="6.49209">
        <ele>1497.8000488281</ele>
        <time>2014-03-28T11:39:51.000Z</time>
      </trkpt>
      <trkpt lat="45.92526" lon="6.49207">
        <ele>1497.5999755859</ele>
        <time>2014-03-28T11:39:55.000Z</time>
      </trkpt>
      <trkpt lat="45.92526" lon="6.49206">
        <ele>1497.4000244141</ele>
        <time>2014-03-28T11:39:56.000Z</time>
      </trkpt>
      <trkpt lat="45.92519" lon="6.49185">
        <ele>1492.4000244141</ele>
        <time>2014-03-28T11:40:03.000Z</time>
      </trkpt>
      <trkpt lat="45.92503" lon="6.49166">
        <ele>1490</ele>
        <time>2014-03-28T11:40:08.000Z</time>
      </trkpt>
      <trkpt lat="45.92492" lon="6.49152">
        <ele>1486.8000488281</ele>
        <time>2014-03-28T11:40:13.000Z</time>
      </trkpt>
      <trkpt lat="45.92487" lon="6.49146">
        <ele>1485.4000244141</ele>
        <time>2014-03-28T11:40:15.000Z</time>
      </trkpt>
      <trkpt lat="45.92483" lon="6.49136">
        <ele>1482.8000488281</ele>
        <time>2014-03-28T11:40:20.000Z</time>
      </trkpt>
      <trkpt lat="45.92481" lon="6.49132">
        <ele>1482</ele>
        <time>2014-03-28T11:40:24.000Z</time>
      </trkpt>
      <trkpt lat="45.92476" lon="6.49125">
        <ele>1480.5999755859</ele>
        <time>2014-03-28T11:40:30.000Z</time>
      </trkpt>
      <trkpt lat="45.92468" lon="6.49115">
        <ele>1479</ele>
        <time>2014-03-28T11:40:37.000Z</time>
      </trkpt>
      <trkpt lat="45.92467" lon="6.49113">
        <ele>1478.8000488281</ele>
        <time>2014-03-28T11:40:39.000Z</time>
      </trkpt>
      <trkpt lat="45.92462" lon="6.49111">
        <ele>1478.8000488281</ele>
        <time>2014-03-28T11:40:44.000Z</time>
      </trkpt>
      <trkpt lat="45.92457" lon="6.4911">
        <ele>1479</ele>
        <time>2014-03-28T11:40:49.000Z</time>
      </trkpt>
      <trkpt lat="45.92454" lon="6.4911">
        <ele>1479.4000244141</ele>
        <time>2014-03-28T11:40:57.000Z</time>
      </trkpt>
      <trkpt lat="45.92449" lon="6.49107">
        <ele>1479.5999755859</ele>
        <time>2014-03-28T11:41:01.000Z</time>
      </trkpt>
      <trkpt lat="45.92434" lon="6.49102">
        <ele>1480.4000244141</ele>
        <time>2014-03-28T11:41:06.000Z</time>
      </trkpt>
      <trkpt lat="45.92411" lon="6.49093">
        <ele>1481.1999511719</ele>
        <time>2014-03-28T11:41:10.000Z</time>
      </trkpt>
      <trkpt lat="45.92363" lon="6.49073">
        <ele>1476.1999511719</ele>
        <time>2014-03-28T11:41:17.000Z</time>
      </trkpt>
      <trkpt lat="45.92341" lon="6.49065">
        <ele>1474.1999511719</ele>
        <time>2014-03-28T11:41:20.000Z</time>
      </trkpt>
      <trkpt lat="45.92302" lon="6.49034">
        <ele>1467.4000244141</ele>
        <time>2014-03-28T11:41:25.000Z</time>
      </trkpt>
      <trkpt lat="45.92262" lon="6.48987">
        <ele>1459.1999511719</ele>
        <time>2014-03-28T11:41:30.000Z</time>
      </trkpt>
      <trkpt lat="45.92222" lon="6.48934">
        <ele>1453.1999511719</ele>
        <time>2014-03-28T11:41:36.000Z</time>
      </trkpt>
      <trkpt lat="45.92194" lon="6.48898">
        <ele>1452.1999511719</ele>
        <time>2014-03-28T11:41:41.000Z</time>
      </trkpt>
      <trkpt lat="45.92186" lon="6.48885">
        <ele>1453</ele>
        <time>2014-03-28T11:41:43.000Z</time>
      </trkpt>
      <trkpt lat="45.92179" lon="6.48872">
        <ele>1454</ele>
        <time>2014-03-28T11:41:45.000Z</time>
      </trkpt>
      <trkpt lat="45.92171" lon="6.48857">
        <ele>1455.5999755859</ele>
        <time>2014-03-28T11:41:49.000Z</time>
      </trkpt>
      <trkpt lat="45.9217" lon="6.48856">
        <ele>1455.8000488281</ele>
        <time>2014-03-28T11:41:52.000Z</time>
      </trkpt>
      <trkpt lat="45.9217" lon="6.48857">
        <ele>1455.8000488281</ele>
        <time>2014-03-28T11:42:01.000Z</time>
      </trkpt>
      <trkpt lat="45.92171" lon="6.48855">
        <ele>1455.5999755859</ele>
        <time>2014-03-28T11:42:13.000Z</time>
      </trkpt>
      <trkpt lat="45.92171" lon="6.48848">
        <ele>1455.5999755859</ele>
        <time>2014-03-28T11:42:20.000Z</time>
      </trkpt>
      <trkpt lat="45.92172" lon="6.48839">
        <ele>1455.1999511719</ele>
        <time>2014-03-28T11:42:29.000Z</time>
      </trkpt>
      <trkpt lat="45.92174" lon="6.48832">
        <ele>1454.4000244141</ele>
        <time>2014-03-28T11:42:35.000Z</time>
      </trkpt>
      <trkpt lat="45.92176" lon="6.48827">
        <ele>1453.4000244141</ele>
        <time>2014-03-28T11:42:41.000Z</time>
      </trkpt>
      <trkpt lat="45.92179" lon="6.48819">
        <ele>1452</ele>
        <time>2014-03-28T11:42:50.000Z</time>
      </trkpt>
      <trkpt lat="45.92179" lon="6.48808">
        <ele>1451</ele>
        <time>2014-03-28T11:42:58.000Z</time>
      </trkpt>
      <trkpt lat="45.92179" lon="6.48798">
        <ele>1450.5999755859</ele>
        <time>2014-03-28T11:43:05.000Z</time>
      </trkpt>
      <trkpt lat="45.92175" lon="6.4879">
        <ele>1451.1999511719</ele>
        <time>2014-03-28T11:43:11.000Z</time>
      </trkpt>
      <trkpt lat="45.92174" lon="6.4878">
        <ele>1451.4000244141</ele>
        <time>2014-03-28T11:43:19.000Z</time>
      </trkpt>
      <trkpt lat="45.92172" lon="6.4877">
        <ele>1451.4000244141</ele>
        <time>2014-03-28T11:43:28.000Z</time>
      </trkpt>
      <trkpt lat="45.9217" lon="6.48759">
        <ele>1452</ele>
        <time>2014-03-28T11:43:36.000Z</time>
      </trkpt>
      <trkpt lat="45.92166" lon="6.48749">
        <ele>1453.1999511719</ele>
        <time>2014-03-28T11:43:46.000Z</time>
      </trkpt>
      <trkpt lat="45.92163" lon="6.48741">
        <ele>1453.4000244141</ele>
        <time>2014-03-28T11:43:55.000Z</time>
      </trkpt>
      <trkpt lat="45.9216" lon="6.48734">
        <ele>1453.8000488281</ele>
        <time>2014-03-28T11:44:02.000Z</time>
      </trkpt>
      <trkpt lat="45.92158" lon="6.48727">
        <ele>1454.1999511719</ele>
        <time>2014-03-28T11:44:08.000Z</time>
      </trkpt>
      <trkpt lat="45.92156" lon="6.4872">
        <ele>1454.5999755859</ele>
        <time>2014-03-28T11:44:14.000Z</time>
      </trkpt>
      <trkpt lat="45.92154" lon="6.48712">
        <ele>1455.1999511719</ele>
        <time>2014-03-28T11:44:21.000Z</time>
      </trkpt>
      <trkpt lat="45.9215" lon="6.48706">
        <ele>1456</ele>
        <time>2014-03-28T11:44:27.000Z</time>
      </trkpt>
      <trkpt lat="45.92146" lon="6.487">
        <ele>1457.1999511719</ele>
        <time>2014-03-28T11:44:34.000Z</time>
      </trkpt>
      <trkpt lat="45.92145" lon="6.48698">
        <ele>1457.5999755859</ele>
        <time>2014-03-28T11:44:40.000Z</time>
      </trkpt>
      <trkpt lat="45.92145" lon="6.48698">
        <ele>1457.5999755859</ele>
        <time>2014-03-28T11:44:47.000Z</time>
      </trkpt>
      <trkpt lat="45.92145" lon="6.48698">
        <ele>1457.5999755859</ele>
        <time>2014-03-28T11:45:02.000Z</time>
      </trkpt>
      <trkpt lat="45.92144" lon="6.48698">
        <ele>1457.8000488281</ele>
        <time>2014-03-28T11:45:13.000Z</time>
      </trkpt>
      <trkpt lat="45.92141" lon="6.48692">
        <ele>1458.8000488281</ele>
        <time>2014-03-28T11:45:17.000Z</time>
      </trkpt>
      <trkpt lat="45.92134" lon="6.48673">
        <ele>1461.1999511719</ele>
        <time>2014-03-28T11:45:22.000Z</time>
      </trkpt>
      <trkpt lat="45.92129" lon="6.48651">
        <ele>1463</ele>
        <time>2014-03-28T11:45:25.000Z</time>
      </trkpt>
      <trkpt lat="45.92137" lon="6.48625">
        <ele>1460</ele>
        <time>2014-03-28T11:45:30.000Z</time>
      </trkpt>
      <trkpt lat="45.92152" lon="6.48596">
        <ele>1455.4000244141</ele>
        <time>2014-03-28T11:45:37.000Z</time>
      </trkpt>
      <trkpt lat="45.92171" lon="6.4856">
        <ele>1449.4000244141</ele>
        <time>2014-03-28T11:45:43.000Z</time>
      </trkpt>
      <trkpt lat="45.922" lon="6.48496">
        <ele>1444</ele>
        <time>2014-03-28T11:45:51.000Z</time>
      </trkpt>
      <trkpt lat="45.92214" lon="6.48467">
        <ele>1441.5999755859</ele>
        <time>2014-03-28T11:45:56.000Z</time>
      </trkpt>
      <trkpt lat="45.92224" lon="6.48454">
        <ele>1440.5999755859</ele>
        <time>2014-03-28T11:45:59.000Z</time>
      </trkpt>
      <trkpt lat="45.9223" lon="6.48446">
        <ele>1440.1999511719</ele>
        <time>2014-03-28T11:46:01.000Z</time>
      </trkpt>
      <trkpt lat="45.92241" lon="6.48435">
        <ele>1439.8000488281</ele>
        <time>2014-03-28T11:46:05.000Z</time>
      </trkpt>
      <trkpt lat="45.92255" lon="6.48434">
        <ele>1438.4000244141</ele>
        <time>2014-03-28T11:46:10.000Z</time>
      </trkpt>
      <trkpt lat="45.92265" lon="6.48433">
        <ele>1437.1999511719</ele>
        <time>2014-03-28T11:46:14.000Z</time>
      </trkpt>
      <trkpt lat="45.92273" lon="6.48421">
        <ele>1438.1999511719</ele>
        <time>2014-03-28T11:46:18.000Z</time>
      </trkpt>
      <trkpt lat="45.92283" lon="6.48411">
        <ele>1438.1999511719</ele>
        <time>2014-03-28T11:46:22.000Z</time>
      </trkpt>
      <trkpt lat="45.92289" lon="6.48405">
        <ele>1437.8000488281</ele>
        <time>2014-03-28T11:46:25.000Z</time>
      </trkpt>
      <trkpt lat="45.92294" lon="6.48402">
        <ele>1437.5999755859</ele>
        <time>2014-03-28T11:46:30.000Z</time>
      </trkpt>
      <trkpt lat="45.92296" lon="6.48401">
        <ele>1437.4000244141</ele>
        <time>2014-03-28T11:46:33.000Z</time>
      </trkpt>
      <trkpt lat="45.92299" lon="6.484">
        <ele>1437.1999511719</ele>
        <time>2014-03-28T11:46:40.000Z</time>
      </trkpt>
      <trkpt lat="45.92299" lon="6.48401">
        <ele>1437.1999511719</ele>
        <time>2014-03-28T11:46:45.000Z</time>
      </trkpt>
    </trkseg>
  </trk>
</gpx>